<?xml version="1.0" encoding="UTF-8" standalone="no" ?>
<gpx xmlns="http://www.topografix.com/GPX/1/1" xmlns:xsi="http://www.w3.org/2001/XMLSchema-instance" xsi:schemaLocation="http://www.topografix.com/GPX/1/1 http://www.topografix.com/GPX/1/1/gpx.xsd" version="1.1" creator="VisuGPX - https://www.visugpx.com">
  <metadata>
    <name>la boue roger 2015 45km</name>
    <desc><![CDATA[circuit exigeant et technique, mais génial pour celui qui maîtrise!]]></desc>
  </metadata>
  <trk>
    <name><![CDATA[2015-03-22 08:09]]></name>
    <desc><![CDATA[<h1>OruxMaps</h1><br /><hr align="center" width="480" style="height: 2px; width: 517px"/><h2>Nom: 2015-03-22 08:09</h2><br /><p>Temps de départ: 03/22/2015 08:10</p><p>Temps d'arrivée: 03/22/2015 11:39</p><p>Distance: 42,5km (03:29)</p><p>Temps déplacement: 03:01</p><p>Vitesse moyenne: 12,2km/h</p><p>Vitesse moyenne: 14,1km/h</p><p>Vitess Max.: 36,7km/h</p><p>Altitude minimale: 12m</p><p>Altitude maximale: 147m</p><p>Vitesse d'élévation: 583,4m/h</p><p>Vitesse de descente: -828,6m/h</p><p>Gain Altitude: 959m</p><p>Perte Altitude: -962m</p><p>Temps d'élévation: 01:38</p><p>Temps de descente: 01:09</p><hr align="center" width="480" style="height: 2px; width: 517px"/>]]></desc>
    <trkseg>
      <trkpt lat="49.29116" lon="0.92421">
        <ele>139</ele>
        <time>2015-03-22T07:10:26Z</time>
      </trkpt>
      <trkpt lat="49.29121" lon="0.92413">
        <ele>140</ele>
        <time>2015-03-22T07:10:36Z</time>
      </trkpt>
      <trkpt lat="49.29121" lon="0.92405">
        <ele>140</ele>
        <time>2015-03-22T07:10:38Z</time>
      </trkpt>
      <trkpt lat="49.29115" lon="0.92396">
        <ele>140</ele>
        <time>2015-03-22T07:10:40Z</time>
      </trkpt>
      <trkpt lat="49.29112" lon="0.92388">
        <ele>140</ele>
        <time>2015-03-22T07:10:42Z</time>
      </trkpt>
      <trkpt lat="49.29109" lon="0.92381">
        <ele>140</ele>
        <time>2015-03-22T07:10:44Z</time>
      </trkpt>
      <trkpt lat="49.29105" lon="0.92374">
        <ele>140</ele>
        <time>2015-03-22T07:10:46Z</time>
      </trkpt>
      <trkpt lat="49.29098" lon="0.92372">
        <ele>140</ele>
        <time>2015-03-22T07:10:48Z</time>
      </trkpt>
      <trkpt lat="49.29092" lon="0.92376">
        <ele>140</ele>
        <time>2015-03-22T07:10:50Z</time>
      </trkpt>
      <trkpt lat="49.29087" lon="0.9238">
        <ele>140</ele>
        <time>2015-03-22T07:10:52Z</time>
      </trkpt>
      <trkpt lat="49.2908" lon="0.92385">
        <ele>140</ele>
        <time>2015-03-22T07:10:54Z</time>
      </trkpt>
      <trkpt lat="49.29075" lon="0.92389">
        <ele>140</ele>
        <time>2015-03-22T07:10:56Z</time>
      </trkpt>
      <trkpt lat="49.29069" lon="0.92391">
        <ele>140</ele>
        <time>2015-03-22T07:10:58Z</time>
      </trkpt>
      <trkpt lat="49.29064" lon="0.92394">
        <ele>140</ele>
        <time>2015-03-22T07:11:00Z</time>
      </trkpt>
      <trkpt lat="49.2906" lon="0.92399">
        <ele>140</ele>
        <time>2015-03-22T07:11:02Z</time>
      </trkpt>
      <trkpt lat="49.29053" lon="0.92403">
        <ele>140</ele>
        <time>2015-03-22T07:11:06Z</time>
      </trkpt>
      <trkpt lat="49.29048" lon="0.92406">
        <ele>140</ele>
        <time>2015-03-22T07:11:10Z</time>
      </trkpt>
      <trkpt lat="49.29041" lon="0.92407">
        <ele>140</ele>
        <time>2015-03-22T07:11:14Z</time>
      </trkpt>
      <trkpt lat="49.29033" lon="0.92404">
        <ele>140</ele>
        <time>2015-03-22T07:11:18Z</time>
      </trkpt>
      <trkpt lat="49.29028" lon="0.92396">
        <ele>140</ele>
        <time>2015-03-22T07:11:20Z</time>
      </trkpt>
      <trkpt lat="49.29022" lon="0.92386">
        <ele>140</ele>
        <time>2015-03-22T07:11:22Z</time>
      </trkpt>
      <trkpt lat="49.29016" lon="0.92376">
        <ele>140</ele>
        <time>2015-03-22T07:11:24Z</time>
      </trkpt>
      <trkpt lat="49.2901" lon="0.92367">
        <ele>140</ele>
        <time>2015-03-22T07:11:26Z</time>
      </trkpt>
      <trkpt lat="49.29003" lon="0.92357">
        <ele>140</ele>
        <time>2015-03-22T07:11:28Z</time>
      </trkpt>
      <trkpt lat="49.28996" lon="0.92346">
        <ele>141</ele>
        <time>2015-03-22T07:11:30Z</time>
      </trkpt>
      <trkpt lat="49.2899" lon="0.92337">
        <ele>141</ele>
        <time>2015-03-22T07:11:32Z</time>
      </trkpt>
      <trkpt lat="49.28985" lon="0.9233">
        <ele>141</ele>
        <time>2015-03-22T07:11:34Z</time>
      </trkpt>
      <trkpt lat="49.28982" lon="0.92319">
        <ele>141</ele>
        <time>2015-03-22T07:11:38Z</time>
      </trkpt>
      <trkpt lat="49.28985" lon="0.92311">
        <ele>141</ele>
        <time>2015-03-22T07:11:40Z</time>
      </trkpt>
      <trkpt lat="49.2899" lon="0.92304">
        <ele>141</ele>
        <time>2015-03-22T07:11:42Z</time>
      </trkpt>
      <trkpt lat="49.28997" lon="0.92297">
        <ele>141</ele>
        <time>2015-03-22T07:11:44Z</time>
      </trkpt>
      <trkpt lat="49.29005" lon="0.92289">
        <ele>140</ele>
        <time>2015-03-22T07:11:46Z</time>
      </trkpt>
      <trkpt lat="49.29011" lon="0.92281">
        <ele>140</ele>
        <time>2015-03-22T07:11:48Z</time>
      </trkpt>
      <trkpt lat="49.29018" lon="0.92274">
        <ele>140</ele>
        <time>2015-03-22T07:11:50Z</time>
      </trkpt>
      <trkpt lat="49.29026" lon="0.92266">
        <ele>140</ele>
        <time>2015-03-22T07:11:52Z</time>
      </trkpt>
      <trkpt lat="49.29034" lon="0.92258">
        <ele>140</ele>
        <time>2015-03-22T07:11:54Z</time>
      </trkpt>
      <trkpt lat="49.2904" lon="0.92252">
        <ele>140</ele>
        <time>2015-03-22T07:11:56Z</time>
      </trkpt>
      <trkpt lat="49.29047" lon="0.92245">
        <ele>140</ele>
        <time>2015-03-22T07:11:58Z</time>
      </trkpt>
      <trkpt lat="49.29054" lon="0.92238">
        <ele>140</ele>
        <time>2015-03-22T07:12:00Z</time>
      </trkpt>
      <trkpt lat="49.29062" lon="0.92233">
        <ele>140</ele>
        <time>2015-03-22T07:12:02Z</time>
      </trkpt>
      <trkpt lat="49.29071" lon="0.92227">
        <ele>140</ele>
        <time>2015-03-22T07:12:04Z</time>
      </trkpt>
      <trkpt lat="49.29078" lon="0.92222">
        <ele>140</ele>
        <time>2015-03-22T07:12:06Z</time>
      </trkpt>
      <trkpt lat="49.29087" lon="0.92217">
        <ele>140</ele>
        <time>2015-03-22T07:12:08Z</time>
      </trkpt>
      <trkpt lat="49.29095" lon="0.92212">
        <ele>140</ele>
        <time>2015-03-22T07:12:10Z</time>
      </trkpt>
      <trkpt lat="49.29104" lon="0.92206">
        <ele>140</ele>
        <time>2015-03-22T07:12:12Z</time>
      </trkpt>
      <trkpt lat="49.29112" lon="0.922">
        <ele>140</ele>
        <time>2015-03-22T07:12:14Z</time>
      </trkpt>
      <trkpt lat="49.29118" lon="0.92194">
        <ele>140</ele>
        <time>2015-03-22T07:12:16Z</time>
      </trkpt>
      <trkpt lat="49.29126" lon="0.92189">
        <ele>140</ele>
        <time>2015-03-22T07:12:18Z</time>
      </trkpt>
      <trkpt lat="49.29136" lon="0.92183">
        <ele>140</ele>
        <time>2015-03-22T07:12:20Z</time>
      </trkpt>
      <trkpt lat="49.29148" lon="0.92176">
        <ele>140</ele>
        <time>2015-03-22T07:12:22Z</time>
      </trkpt>
      <trkpt lat="49.2916" lon="0.9217">
        <ele>140</ele>
        <time>2015-03-22T07:12:24Z</time>
      </trkpt>
      <trkpt lat="49.29172" lon="0.92164">
        <ele>140</ele>
        <time>2015-03-22T07:12:26Z</time>
      </trkpt>
      <trkpt lat="49.29184" lon="0.92158">
        <ele>139</ele>
        <time>2015-03-22T07:12:28Z</time>
      </trkpt>
      <trkpt lat="49.29196" lon="0.92152">
        <ele>139</ele>
        <time>2015-03-22T07:12:30Z</time>
      </trkpt>
      <trkpt lat="49.29207" lon="0.92147">
        <ele>139</ele>
        <time>2015-03-22T07:12:32Z</time>
      </trkpt>
      <trkpt lat="49.2922" lon="0.92142">
        <ele>139</ele>
        <time>2015-03-22T07:12:34Z</time>
      </trkpt>
      <trkpt lat="49.29231" lon="0.92137">
        <ele>139</ele>
        <time>2015-03-22T07:12:36Z</time>
      </trkpt>
      <trkpt lat="49.29242" lon="0.92132">
        <ele>139</ele>
        <time>2015-03-22T07:12:38Z</time>
      </trkpt>
      <trkpt lat="49.29254" lon="0.92126">
        <ele>139</ele>
        <time>2015-03-22T07:12:40Z</time>
      </trkpt>
      <trkpt lat="49.29266" lon="0.92121">
        <ele>139</ele>
        <time>2015-03-22T07:12:42Z</time>
      </trkpt>
      <trkpt lat="49.29278" lon="0.92116">
        <ele>139</ele>
        <time>2015-03-22T07:12:44Z</time>
      </trkpt>
      <trkpt lat="49.29291" lon="0.92112">
        <ele>139</ele>
        <time>2015-03-22T07:12:46Z</time>
      </trkpt>
      <trkpt lat="49.29305" lon="0.92109">
        <ele>139</ele>
        <time>2015-03-22T07:12:48Z</time>
      </trkpt>
      <trkpt lat="49.29316" lon="0.92106">
        <ele>139</ele>
        <time>2015-03-22T07:12:50Z</time>
      </trkpt>
      <trkpt lat="49.29328" lon="0.92104">
        <ele>139</ele>
        <time>2015-03-22T07:12:52Z</time>
      </trkpt>
      <trkpt lat="49.2934" lon="0.92102">
        <ele>139</ele>
        <time>2015-03-22T07:12:54Z</time>
      </trkpt>
      <trkpt lat="49.29352" lon="0.92099">
        <ele>138</ele>
        <time>2015-03-22T07:12:56Z</time>
      </trkpt>
      <trkpt lat="49.29364" lon="0.92097">
        <ele>138</ele>
        <time>2015-03-22T07:12:58Z</time>
      </trkpt>
      <trkpt lat="49.29377" lon="0.92095">
        <ele>138</ele>
        <time>2015-03-22T07:13:00Z</time>
      </trkpt>
      <trkpt lat="49.29387" lon="0.92093">
        <ele>138</ele>
        <time>2015-03-22T07:13:02Z</time>
      </trkpt>
      <trkpt lat="49.29399" lon="0.92091">
        <ele>138</ele>
        <time>2015-03-22T07:13:04Z</time>
      </trkpt>
      <trkpt lat="49.29412" lon="0.92087">
        <ele>137</ele>
        <time>2015-03-22T07:13:06Z</time>
      </trkpt>
      <trkpt lat="49.29424" lon="0.92083">
        <ele>137</ele>
        <time>2015-03-22T07:13:08Z</time>
      </trkpt>
      <trkpt lat="49.29436" lon="0.92078">
        <ele>136</ele>
        <time>2015-03-22T07:13:10Z</time>
      </trkpt>
      <trkpt lat="49.29447" lon="0.92071">
        <ele>136</ele>
        <time>2015-03-22T07:13:12Z</time>
      </trkpt>
      <trkpt lat="49.2946" lon="0.92064">
        <ele>136</ele>
        <time>2015-03-22T07:13:14Z</time>
      </trkpt>
      <trkpt lat="49.29472" lon="0.92057">
        <ele>136</ele>
        <time>2015-03-22T07:13:16Z</time>
      </trkpt>
      <trkpt lat="49.29484" lon="0.92051">
        <ele>136</ele>
        <time>2015-03-22T07:13:18Z</time>
      </trkpt>
      <trkpt lat="49.29496" lon="0.92045">
        <ele>135</ele>
        <time>2015-03-22T07:13:20Z</time>
      </trkpt>
      <trkpt lat="49.29507" lon="0.92039">
        <ele>135</ele>
        <time>2015-03-22T07:13:22Z</time>
      </trkpt>
      <trkpt lat="49.29519" lon="0.92032">
        <ele>135</ele>
        <time>2015-03-22T07:13:24Z</time>
      </trkpt>
      <trkpt lat="49.2953" lon="0.92027">
        <ele>135</ele>
        <time>2015-03-22T07:13:26Z</time>
      </trkpt>
      <trkpt lat="49.29541" lon="0.92022">
        <ele>135</ele>
        <time>2015-03-22T07:13:28Z</time>
      </trkpt>
      <trkpt lat="49.29552" lon="0.92017">
        <ele>135</ele>
        <time>2015-03-22T07:13:30Z</time>
      </trkpt>
      <trkpt lat="49.29564" lon="0.92012">
        <ele>134</ele>
        <time>2015-03-22T07:13:32Z</time>
      </trkpt>
      <trkpt lat="49.29576" lon="0.92008">
        <ele>134</ele>
        <time>2015-03-22T07:13:34Z</time>
      </trkpt>
      <trkpt lat="49.29587" lon="0.92004">
        <ele>134</ele>
        <time>2015-03-22T07:13:36Z</time>
      </trkpt>
      <trkpt lat="49.29599" lon="0.92">
        <ele>134</ele>
        <time>2015-03-22T07:13:38Z</time>
      </trkpt>
      <trkpt lat="49.2961" lon="0.91998">
        <ele>134</ele>
        <time>2015-03-22T07:13:41Z</time>
      </trkpt>
      <trkpt lat="49.29622" lon="0.91996">
        <ele>134</ele>
        <time>2015-03-22T07:13:43Z</time>
      </trkpt>
      <trkpt lat="49.29631" lon="0.91996">
        <ele>133</ele>
        <time>2015-03-22T07:13:45Z</time>
      </trkpt>
      <trkpt lat="49.29641" lon="0.91993">
        <ele>133</ele>
        <time>2015-03-22T07:13:47Z</time>
      </trkpt>
      <trkpt lat="49.29652" lon="0.91993">
        <ele>133</ele>
        <time>2015-03-22T07:13:49Z</time>
      </trkpt>
      <trkpt lat="49.29665" lon="0.91993">
        <ele>133</ele>
        <time>2015-03-22T07:13:51Z</time>
      </trkpt>
      <trkpt lat="49.29677" lon="0.91993">
        <ele>133</ele>
        <time>2015-03-22T07:13:53Z</time>
      </trkpt>
      <trkpt lat="49.29691" lon="0.91994">
        <ele>133</ele>
        <time>2015-03-22T07:13:55Z</time>
      </trkpt>
      <trkpt lat="49.29706" lon="0.91995">
        <ele>133</ele>
        <time>2015-03-22T07:13:57Z</time>
      </trkpt>
      <trkpt lat="49.29719" lon="0.91996">
        <ele>133</ele>
        <time>2015-03-22T07:13:59Z</time>
      </trkpt>
      <trkpt lat="49.29732" lon="0.91997">
        <ele>133</ele>
        <time>2015-03-22T07:14:01Z</time>
      </trkpt>
      <trkpt lat="49.29746" lon="0.91995">
        <ele>133</ele>
        <time>2015-03-22T07:14:03Z</time>
      </trkpt>
      <trkpt lat="49.29759" lon="0.91994">
        <ele>133</ele>
        <time>2015-03-22T07:14:05Z</time>
      </trkpt>
      <trkpt lat="49.29773" lon="0.9199">
        <ele>133</ele>
        <time>2015-03-22T07:14:07Z</time>
      </trkpt>
      <trkpt lat="49.29788" lon="0.91985">
        <ele>133</ele>
        <time>2015-03-22T07:14:09Z</time>
      </trkpt>
      <trkpt lat="49.29801" lon="0.9198">
        <ele>133</ele>
        <time>2015-03-22T07:14:11Z</time>
      </trkpt>
      <trkpt lat="49.29813" lon="0.91973">
        <ele>133</ele>
        <time>2015-03-22T07:14:13Z</time>
      </trkpt>
      <trkpt lat="49.29826" lon="0.91967">
        <ele>132</ele>
        <time>2015-03-22T07:14:15Z</time>
      </trkpt>
      <trkpt lat="49.29838" lon="0.91962">
        <ele>132</ele>
        <time>2015-03-22T07:14:17Z</time>
      </trkpt>
      <trkpt lat="49.2985" lon="0.91958">
        <ele>132</ele>
        <time>2015-03-22T07:14:19Z</time>
      </trkpt>
      <trkpt lat="49.29861" lon="0.91953">
        <ele>132</ele>
        <time>2015-03-22T07:14:21Z</time>
      </trkpt>
      <trkpt lat="49.29873" lon="0.91948">
        <ele>132</ele>
        <time>2015-03-22T07:14:23Z</time>
      </trkpt>
      <trkpt lat="49.29885" lon="0.91943">
        <ele>132</ele>
        <time>2015-03-22T07:14:25Z</time>
      </trkpt>
      <trkpt lat="49.29897" lon="0.91937">
        <ele>132</ele>
        <time>2015-03-22T07:14:27Z</time>
      </trkpt>
      <trkpt lat="49.29909" lon="0.91931">
        <ele>133</ele>
        <time>2015-03-22T07:14:29Z</time>
      </trkpt>
      <trkpt lat="49.2992" lon="0.91925">
        <ele>133</ele>
        <time>2015-03-22T07:14:31Z</time>
      </trkpt>
      <trkpt lat="49.29932" lon="0.91919">
        <ele>132</ele>
        <time>2015-03-22T07:14:33Z</time>
      </trkpt>
      <trkpt lat="49.29944" lon="0.91913">
        <ele>132</ele>
        <time>2015-03-22T07:14:35Z</time>
      </trkpt>
      <trkpt lat="49.29956" lon="0.91907">
        <ele>132</ele>
        <time>2015-03-22T07:14:37Z</time>
      </trkpt>
      <trkpt lat="49.29967" lon="0.91903">
        <ele>131</ele>
        <time>2015-03-22T07:14:39Z</time>
      </trkpt>
      <trkpt lat="49.29978" lon="0.91905">
        <ele>131</ele>
        <time>2015-03-22T07:14:41Z</time>
      </trkpt>
      <trkpt lat="49.29985" lon="0.91916">
        <ele>131</ele>
        <time>2015-03-22T07:14:43Z</time>
      </trkpt>
      <trkpt lat="49.29988" lon="0.91932">
        <ele>131</ele>
        <time>2015-03-22T07:14:45Z</time>
      </trkpt>
      <trkpt lat="49.29998" lon="0.9194">
        <ele>131</ele>
        <time>2015-03-22T07:14:47Z</time>
      </trkpt>
      <trkpt lat="49.30009" lon="0.91941">
        <ele>131</ele>
        <time>2015-03-22T07:14:49Z</time>
      </trkpt>
      <trkpt lat="49.30021" lon="0.91939">
        <ele>131</ele>
        <time>2015-03-22T07:14:51Z</time>
      </trkpt>
      <trkpt lat="49.30031" lon="0.91935">
        <ele>131</ele>
        <time>2015-03-22T07:14:53Z</time>
      </trkpt>
      <trkpt lat="49.30044" lon="0.91931">
        <ele>131</ele>
        <time>2015-03-22T07:14:55Z</time>
      </trkpt>
      <trkpt lat="49.30054" lon="0.91927">
        <ele>131</ele>
        <time>2015-03-22T07:14:57Z</time>
      </trkpt>
      <trkpt lat="49.30064" lon="0.91923">
        <ele>131</ele>
        <time>2015-03-22T07:14:59Z</time>
      </trkpt>
      <trkpt lat="49.30075" lon="0.91919">
        <ele>131</ele>
        <time>2015-03-22T07:15:01Z</time>
      </trkpt>
      <trkpt lat="49.30085" lon="0.91915">
        <ele>131</ele>
        <time>2015-03-22T07:15:03Z</time>
      </trkpt>
      <trkpt lat="49.30095" lon="0.91911">
        <ele>131</ele>
        <time>2015-03-22T07:15:05Z</time>
      </trkpt>
      <trkpt lat="49.30106" lon="0.91907">
        <ele>131</ele>
        <time>2015-03-22T07:15:07Z</time>
      </trkpt>
      <trkpt lat="49.30117" lon="0.91904">
        <ele>131</ele>
        <time>2015-03-22T07:15:09Z</time>
      </trkpt>
      <trkpt lat="49.30128" lon="0.91901">
        <ele>131</ele>
        <time>2015-03-22T07:15:11Z</time>
      </trkpt>
      <trkpt lat="49.30138" lon="0.91898">
        <ele>131</ele>
        <time>2015-03-22T07:15:13Z</time>
      </trkpt>
      <trkpt lat="49.30147" lon="0.91893">
        <ele>132</ele>
        <time>2015-03-22T07:15:15Z</time>
      </trkpt>
      <trkpt lat="49.30158" lon="0.91891">
        <ele>132</ele>
        <time>2015-03-22T07:15:17Z</time>
      </trkpt>
      <trkpt lat="49.30169" lon="0.91889">
        <ele>132</ele>
        <time>2015-03-22T07:15:19Z</time>
      </trkpt>
      <trkpt lat="49.30179" lon="0.91886">
        <ele>132</ele>
        <time>2015-03-22T07:15:21Z</time>
      </trkpt>
      <trkpt lat="49.30189" lon="0.91884">
        <ele>133</ele>
        <time>2015-03-22T07:15:23Z</time>
      </trkpt>
      <trkpt lat="49.30199" lon="0.91881">
        <ele>133</ele>
        <time>2015-03-22T07:15:25Z</time>
      </trkpt>
      <trkpt lat="49.30211" lon="0.91877">
        <ele>133</ele>
        <time>2015-03-22T07:15:27Z</time>
      </trkpt>
      <trkpt lat="49.30221" lon="0.91873">
        <ele>133</ele>
        <time>2015-03-22T07:15:29Z</time>
      </trkpt>
      <trkpt lat="49.30233" lon="0.9187">
        <ele>133</ele>
        <time>2015-03-22T07:15:31Z</time>
      </trkpt>
      <trkpt lat="49.30245" lon="0.91866">
        <ele>133</ele>
        <time>2015-03-22T07:15:33Z</time>
      </trkpt>
      <trkpt lat="49.30256" lon="0.91863">
        <ele>133</ele>
        <time>2015-03-22T07:15:35Z</time>
      </trkpt>
      <trkpt lat="49.30268" lon="0.91859">
        <ele>133</ele>
        <time>2015-03-22T07:15:37Z</time>
      </trkpt>
      <trkpt lat="49.30281" lon="0.91856">
        <ele>132</ele>
        <time>2015-03-22T07:15:39Z</time>
      </trkpt>
      <trkpt lat="49.30291" lon="0.91854">
        <ele>132</ele>
        <time>2015-03-22T07:15:41Z</time>
      </trkpt>
      <trkpt lat="49.30301" lon="0.91851">
        <ele>132</ele>
        <time>2015-03-22T07:15:43Z</time>
      </trkpt>
      <trkpt lat="49.30312" lon="0.91848">
        <ele>131</ele>
        <time>2015-03-22T07:15:45Z</time>
      </trkpt>
      <trkpt lat="49.30323" lon="0.91845">
        <ele>131</ele>
        <time>2015-03-22T07:15:47Z</time>
      </trkpt>
      <trkpt lat="49.30334" lon="0.91841">
        <ele>130</ele>
        <time>2015-03-22T07:15:49Z</time>
      </trkpt>
      <trkpt lat="49.30346" lon="0.91838">
        <ele>130</ele>
        <time>2015-03-22T07:15:51Z</time>
      </trkpt>
      <trkpt lat="49.30357" lon="0.91836">
        <ele>130</ele>
        <time>2015-03-22T07:15:53Z</time>
      </trkpt>
      <trkpt lat="49.30367" lon="0.91833">
        <ele>130</ele>
        <time>2015-03-22T07:15:55Z</time>
      </trkpt>
      <trkpt lat="49.30379" lon="0.9183">
        <ele>130</ele>
        <time>2015-03-22T07:15:57Z</time>
      </trkpt>
      <trkpt lat="49.30391" lon="0.91827">
        <ele>130</ele>
        <time>2015-03-22T07:15:59Z</time>
      </trkpt>
      <trkpt lat="49.30402" lon="0.91824">
        <ele>130</ele>
        <time>2015-03-22T07:16:01Z</time>
      </trkpt>
      <trkpt lat="49.30415" lon="0.9182">
        <ele>130</ele>
        <time>2015-03-22T07:16:03Z</time>
      </trkpt>
      <trkpt lat="49.30426" lon="0.91816">
        <ele>130</ele>
        <time>2015-03-22T07:16:05Z</time>
      </trkpt>
      <trkpt lat="49.30436" lon="0.91814">
        <ele>130</ele>
        <time>2015-03-22T07:16:07Z</time>
      </trkpt>
      <trkpt lat="49.30446" lon="0.91811">
        <ele>130</ele>
        <time>2015-03-22T07:16:09Z</time>
      </trkpt>
      <trkpt lat="49.30458" lon="0.91807">
        <ele>130</ele>
        <time>2015-03-22T07:16:11Z</time>
      </trkpt>
      <trkpt lat="49.30468" lon="0.91803">
        <ele>129</ele>
        <time>2015-03-22T07:16:13Z</time>
      </trkpt>
      <trkpt lat="49.3048" lon="0.918">
        <ele>129</ele>
        <time>2015-03-22T07:16:15Z</time>
      </trkpt>
      <trkpt lat="49.30491" lon="0.91797">
        <ele>129</ele>
        <time>2015-03-22T07:16:17Z</time>
      </trkpt>
      <trkpt lat="49.30503" lon="0.91794">
        <ele>129</ele>
        <time>2015-03-22T07:16:19Z</time>
      </trkpt>
      <trkpt lat="49.30514" lon="0.91791">
        <ele>129</ele>
        <time>2015-03-22T07:16:21Z</time>
      </trkpt>
      <trkpt lat="49.30526" lon="0.91788">
        <ele>129</ele>
        <time>2015-03-22T07:16:23Z</time>
      </trkpt>
      <trkpt lat="49.30537" lon="0.91784">
        <ele>129</ele>
        <time>2015-03-22T07:16:25Z</time>
      </trkpt>
      <trkpt lat="49.30547" lon="0.91781">
        <ele>130</ele>
        <time>2015-03-22T07:16:27Z</time>
      </trkpt>
      <trkpt lat="49.30559" lon="0.91777">
        <ele>130</ele>
        <time>2015-03-22T07:16:29Z</time>
      </trkpt>
      <trkpt lat="49.3057" lon="0.91774">
        <ele>130</ele>
        <time>2015-03-22T07:16:31Z</time>
      </trkpt>
      <trkpt lat="49.30581" lon="0.91772">
        <ele>130</ele>
        <time>2015-03-22T07:16:33Z</time>
      </trkpt>
      <trkpt lat="49.30592" lon="0.91768">
        <ele>130</ele>
        <time>2015-03-22T07:16:35Z</time>
      </trkpt>
      <trkpt lat="49.30604" lon="0.91765">
        <ele>130</ele>
        <time>2015-03-22T07:16:37Z</time>
      </trkpt>
      <trkpt lat="49.30618" lon="0.91761">
        <ele>129</ele>
        <time>2015-03-22T07:16:39Z</time>
      </trkpt>
      <trkpt lat="49.30631" lon="0.91757">
        <ele>129</ele>
        <time>2015-03-22T07:16:41Z</time>
      </trkpt>
      <trkpt lat="49.30642" lon="0.91753">
        <ele>129</ele>
        <time>2015-03-22T07:16:43Z</time>
      </trkpt>
      <trkpt lat="49.30653" lon="0.9175">
        <ele>129</ele>
        <time>2015-03-22T07:16:45Z</time>
      </trkpt>
      <trkpt lat="49.30665" lon="0.91747">
        <ele>129</ele>
        <time>2015-03-22T07:16:47Z</time>
      </trkpt>
      <trkpt lat="49.30676" lon="0.91744">
        <ele>128</ele>
        <time>2015-03-22T07:16:49Z</time>
      </trkpt>
      <trkpt lat="49.30688" lon="0.91741">
        <ele>128</ele>
        <time>2015-03-22T07:16:51Z</time>
      </trkpt>
      <trkpt lat="49.307" lon="0.91737">
        <ele>128</ele>
        <time>2015-03-22T07:16:53Z</time>
      </trkpt>
      <trkpt lat="49.30713" lon="0.91733">
        <ele>127</ele>
        <time>2015-03-22T07:16:55Z</time>
      </trkpt>
      <trkpt lat="49.30727" lon="0.9173">
        <ele>127</ele>
        <time>2015-03-22T07:16:57Z</time>
      </trkpt>
      <trkpt lat="49.3074" lon="0.91726">
        <ele>126</ele>
        <time>2015-03-22T07:16:59Z</time>
      </trkpt>
      <trkpt lat="49.30751" lon="0.91723">
        <ele>124</ele>
        <time>2015-03-22T07:17:01Z</time>
      </trkpt>
      <trkpt lat="49.30763" lon="0.9172">
        <ele>124</ele>
        <time>2015-03-22T07:17:03Z</time>
      </trkpt>
      <trkpt lat="49.30774" lon="0.91717">
        <ele>124</ele>
        <time>2015-03-22T07:17:05Z</time>
      </trkpt>
      <trkpt lat="49.30785" lon="0.91714">
        <ele>124</ele>
        <time>2015-03-22T07:17:07Z</time>
      </trkpt>
      <trkpt lat="49.30797" lon="0.91711">
        <ele>124</ele>
        <time>2015-03-22T07:17:09Z</time>
      </trkpt>
      <trkpt lat="49.30808" lon="0.91707">
        <ele>124</ele>
        <time>2015-03-22T07:17:11Z</time>
      </trkpt>
      <trkpt lat="49.3082" lon="0.91704">
        <ele>123</ele>
        <time>2015-03-22T07:17:13Z</time>
      </trkpt>
      <trkpt lat="49.30833" lon="0.917">
        <ele>123</ele>
        <time>2015-03-22T07:17:15Z</time>
      </trkpt>
      <trkpt lat="49.30846" lon="0.91697">
        <ele>121</ele>
        <time>2015-03-22T07:17:17Z</time>
      </trkpt>
      <trkpt lat="49.30858" lon="0.91693">
        <ele>121</ele>
        <time>2015-03-22T07:17:19Z</time>
      </trkpt>
      <trkpt lat="49.30872" lon="0.91688">
        <ele>121</ele>
        <time>2015-03-22T07:17:21Z</time>
      </trkpt>
      <trkpt lat="49.30886" lon="0.91684">
        <ele>120</ele>
        <time>2015-03-22T07:17:23Z</time>
      </trkpt>
      <trkpt lat="49.30898" lon="0.9168">
        <ele>120</ele>
        <time>2015-03-22T07:17:25Z</time>
      </trkpt>
      <trkpt lat="49.30912" lon="0.91676">
        <ele>120</ele>
        <time>2015-03-22T07:17:27Z</time>
      </trkpt>
      <trkpt lat="49.30927" lon="0.91673">
        <ele>119</ele>
        <time>2015-03-22T07:17:29Z</time>
      </trkpt>
      <trkpt lat="49.3094" lon="0.9167">
        <ele>119</ele>
        <time>2015-03-22T07:17:31Z</time>
      </trkpt>
      <trkpt lat="49.30954" lon="0.91667">
        <ele>119</ele>
        <time>2015-03-22T07:17:33Z</time>
      </trkpt>
      <trkpt lat="49.30968" lon="0.91663">
        <ele>120</ele>
        <time>2015-03-22T07:17:35Z</time>
      </trkpt>
      <trkpt lat="49.30981" lon="0.91659">
        <ele>120</ele>
        <time>2015-03-22T07:17:37Z</time>
      </trkpt>
      <trkpt lat="49.30995" lon="0.91655">
        <ele>120</ele>
        <time>2015-03-22T07:17:39Z</time>
      </trkpt>
      <trkpt lat="49.31008" lon="0.91651">
        <ele>122</ele>
        <time>2015-03-22T07:17:41Z</time>
      </trkpt>
      <trkpt lat="49.31018" lon="0.91648">
        <ele>123</ele>
        <time>2015-03-22T07:17:43Z</time>
      </trkpt>
      <trkpt lat="49.31024" lon="0.91642">
        <ele>124</ele>
        <time>2015-03-22T07:17:45Z</time>
      </trkpt>
      <trkpt lat="49.3103" lon="0.91633">
        <ele>124</ele>
        <time>2015-03-22T07:17:47Z</time>
      </trkpt>
      <trkpt lat="49.31036" lon="0.91627">
        <ele>125</ele>
        <time>2015-03-22T07:17:49Z</time>
      </trkpt>
      <trkpt lat="49.3104" lon="0.91622">
        <ele>125</ele>
        <time>2015-03-22T07:17:51Z</time>
      </trkpt>
      <trkpt lat="49.31038" lon="0.91614">
        <ele>125</ele>
        <time>2015-03-22T07:17:53Z</time>
      </trkpt>
      <trkpt lat="49.31035" lon="0.91603">
        <ele>125</ele>
        <time>2015-03-22T07:17:55Z</time>
      </trkpt>
      <trkpt lat="49.3103" lon="0.91592">
        <ele>125</ele>
        <time>2015-03-22T07:17:57Z</time>
      </trkpt>
      <trkpt lat="49.31027" lon="0.91579">
        <ele>126</ele>
        <time>2015-03-22T07:17:59Z</time>
      </trkpt>
      <trkpt lat="49.31024" lon="0.91564">
        <ele>126</ele>
        <time>2015-03-22T07:18:01Z</time>
      </trkpt>
      <trkpt lat="49.31019" lon="0.91552">
        <ele>126</ele>
        <time>2015-03-22T07:18:03Z</time>
      </trkpt>
      <trkpt lat="49.31015" lon="0.91539">
        <ele>127</ele>
        <time>2015-03-22T07:18:05Z</time>
      </trkpt>
      <trkpt lat="49.31007" lon="0.91525">
        <ele>127</ele>
        <time>2015-03-22T07:18:07Z</time>
      </trkpt>
      <trkpt lat="49.31002" lon="0.9151">
        <ele>126</ele>
        <time>2015-03-22T07:18:09Z</time>
      </trkpt>
      <trkpt lat="49.30997" lon="0.91496">
        <ele>126</ele>
        <time>2015-03-22T07:18:11Z</time>
      </trkpt>
      <trkpt lat="49.30991" lon="0.91484">
        <ele>125</ele>
        <time>2015-03-22T07:18:13Z</time>
      </trkpt>
      <trkpt lat="49.30987" lon="0.91472">
        <ele>125</ele>
        <time>2015-03-22T07:18:15Z</time>
      </trkpt>
      <trkpt lat="49.30984" lon="0.9146">
        <ele>126</ele>
        <time>2015-03-22T07:18:17Z</time>
      </trkpt>
      <trkpt lat="49.30984" lon="0.91445">
        <ele>126</ele>
        <time>2015-03-22T07:18:19Z</time>
      </trkpt>
      <trkpt lat="49.3098" lon="0.91429">
        <ele>127</ele>
        <time>2015-03-22T07:18:21Z</time>
      </trkpt>
      <trkpt lat="49.30976" lon="0.91416">
        <ele>130</ele>
        <time>2015-03-22T07:18:23Z</time>
      </trkpt>
      <trkpt lat="49.30972" lon="0.914">
        <ele>130</ele>
        <time>2015-03-22T07:18:25Z</time>
      </trkpt>
      <trkpt lat="49.30967" lon="0.91388">
        <ele>129</ele>
        <time>2015-03-22T07:18:27Z</time>
      </trkpt>
      <trkpt lat="49.30962" lon="0.91374">
        <ele>129</ele>
        <time>2015-03-22T07:18:29Z</time>
      </trkpt>
      <trkpt lat="49.30956" lon="0.9136">
        <ele>130</ele>
        <time>2015-03-22T07:18:31Z</time>
      </trkpt>
      <trkpt lat="49.3095" lon="0.91348">
        <ele>129</ele>
        <time>2015-03-22T07:18:33Z</time>
      </trkpt>
      <trkpt lat="49.30945" lon="0.91337">
        <ele>129</ele>
        <time>2015-03-22T07:18:35Z</time>
      </trkpt>
      <trkpt lat="49.3094" lon="0.91323">
        <ele>131</ele>
        <time>2015-03-22T07:18:37Z</time>
      </trkpt>
      <trkpt lat="49.30935" lon="0.91311">
        <ele>132</ele>
        <time>2015-03-22T07:18:39Z</time>
      </trkpt>
      <trkpt lat="49.30929" lon="0.91302">
        <ele>132</ele>
        <time>2015-03-22T07:18:41Z</time>
      </trkpt>
      <trkpt lat="49.30926" lon="0.9129">
        <ele>132</ele>
        <time>2015-03-22T07:18:43Z</time>
      </trkpt>
      <trkpt lat="49.30926" lon="0.91275">
        <ele>133</ele>
        <time>2015-03-22T07:18:45Z</time>
      </trkpt>
      <trkpt lat="49.30923" lon="0.91262">
        <ele>133</ele>
        <time>2015-03-22T07:18:47Z</time>
      </trkpt>
      <trkpt lat="49.30921" lon="0.91248">
        <ele>134</ele>
        <time>2015-03-22T07:18:49Z</time>
      </trkpt>
      <trkpt lat="49.30922" lon="0.91235">
        <ele>134</ele>
        <time>2015-03-22T07:18:51Z</time>
      </trkpt>
      <trkpt lat="49.3092" lon="0.91222">
        <ele>135</ele>
        <time>2015-03-22T07:18:53Z</time>
      </trkpt>
      <trkpt lat="49.30917" lon="0.91212">
        <ele>135</ele>
        <time>2015-03-22T07:18:55Z</time>
      </trkpt>
      <trkpt lat="49.30914" lon="0.91201">
        <ele>132</ele>
        <time>2015-03-22T07:18:57Z</time>
      </trkpt>
      <trkpt lat="49.3091" lon="0.91188">
        <ele>133</ele>
        <time>2015-03-22T07:18:59Z</time>
      </trkpt>
      <trkpt lat="49.30907" lon="0.91174">
        <ele>134</ele>
        <time>2015-03-22T07:19:01Z</time>
      </trkpt>
      <trkpt lat="49.30903" lon="0.91164">
        <ele>135</ele>
        <time>2015-03-22T07:19:03Z</time>
      </trkpt>
      <trkpt lat="49.30898" lon="0.91152">
        <ele>134</ele>
        <time>2015-03-22T07:19:05Z</time>
      </trkpt>
      <trkpt lat="49.30895" lon="0.91139">
        <ele>134</ele>
        <time>2015-03-22T07:19:07Z</time>
      </trkpt>
      <trkpt lat="49.30895" lon="0.91128">
        <ele>134</ele>
        <time>2015-03-22T07:19:09Z</time>
      </trkpt>
      <trkpt lat="49.30889" lon="0.91114">
        <ele>134</ele>
        <time>2015-03-22T07:19:11Z</time>
      </trkpt>
      <trkpt lat="49.30885" lon="0.91101">
        <ele>134</ele>
        <time>2015-03-22T07:19:13Z</time>
      </trkpt>
      <trkpt lat="49.30881" lon="0.91087">
        <ele>134</ele>
        <time>2015-03-22T07:19:15Z</time>
      </trkpt>
      <trkpt lat="49.30877" lon="0.91075">
        <ele>136</ele>
        <time>2015-03-22T07:19:17Z</time>
      </trkpt>
      <trkpt lat="49.30872" lon="0.91063">
        <ele>136</ele>
        <time>2015-03-22T07:19:19Z</time>
      </trkpt>
      <trkpt lat="49.30873" lon="0.91049">
        <ele>136</ele>
        <time>2015-03-22T07:19:21Z</time>
      </trkpt>
      <trkpt lat="49.30867" lon="0.91038">
        <ele>136</ele>
        <time>2015-03-22T07:19:23Z</time>
      </trkpt>
      <trkpt lat="49.30861" lon="0.91025">
        <ele>136</ele>
        <time>2015-03-22T07:19:25Z</time>
      </trkpt>
      <trkpt lat="49.30858" lon="0.91014">
        <ele>136</ele>
        <time>2015-03-22T07:19:27Z</time>
      </trkpt>
      <trkpt lat="49.30856" lon="0.91">
        <ele>136</ele>
        <time>2015-03-22T07:19:29Z</time>
      </trkpt>
      <trkpt lat="49.30853" lon="0.90988">
        <ele>137</ele>
        <time>2015-03-22T07:19:31Z</time>
      </trkpt>
      <trkpt lat="49.30851" lon="0.90976">
        <ele>137</ele>
        <time>2015-03-22T07:19:33Z</time>
      </trkpt>
      <trkpt lat="49.30849" lon="0.90961">
        <ele>138</ele>
        <time>2015-03-22T07:19:35Z</time>
      </trkpt>
      <trkpt lat="49.30844" lon="0.90946">
        <ele>138</ele>
        <time>2015-03-22T07:19:37Z</time>
      </trkpt>
      <trkpt lat="49.3084" lon="0.90932">
        <ele>138</ele>
        <time>2015-03-22T07:19:39Z</time>
      </trkpt>
      <trkpt lat="49.30838" lon="0.90917">
        <ele>137</ele>
        <time>2015-03-22T07:19:41Z</time>
      </trkpt>
      <trkpt lat="49.30834" lon="0.90905">
        <ele>137</ele>
        <time>2015-03-22T07:19:43Z</time>
      </trkpt>
      <trkpt lat="49.30832" lon="0.90892">
        <ele>135</ele>
        <time>2015-03-22T07:19:45Z</time>
      </trkpt>
      <trkpt lat="49.30828" lon="0.90879">
        <ele>134</ele>
        <time>2015-03-22T07:19:47Z</time>
      </trkpt>
      <trkpt lat="49.30828" lon="0.90866">
        <ele>134</ele>
        <time>2015-03-22T07:19:49Z</time>
      </trkpt>
      <trkpt lat="49.30826" lon="0.9085">
        <ele>134</ele>
        <time>2015-03-22T07:19:51Z</time>
      </trkpt>
      <trkpt lat="49.30819" lon="0.90841">
        <ele>134</ele>
        <time>2015-03-22T07:19:53Z</time>
      </trkpt>
      <trkpt lat="49.30814" lon="0.90838">
        <ele>134</ele>
        <time>2015-03-22T07:19:55Z</time>
      </trkpt>
      <trkpt lat="49.30805" lon="0.90833">
        <ele>133</ele>
        <time>2015-03-22T07:19:57Z</time>
      </trkpt>
      <trkpt lat="49.308" lon="0.90822">
        <ele>133</ele>
        <time>2015-03-22T07:19:59Z</time>
      </trkpt>
      <trkpt lat="49.30797" lon="0.90811">
        <ele>133</ele>
        <time>2015-03-22T07:20:01Z</time>
      </trkpt>
      <trkpt lat="49.30793" lon="0.90797">
        <ele>133</ele>
        <time>2015-03-22T07:20:03Z</time>
      </trkpt>
      <trkpt lat="49.30787" lon="0.90784">
        <ele>132</ele>
        <time>2015-03-22T07:20:05Z</time>
      </trkpt>
      <trkpt lat="49.30781" lon="0.90769">
        <ele>132</ele>
        <time>2015-03-22T07:20:07Z</time>
      </trkpt>
      <trkpt lat="49.30774" lon="0.90754">
        <ele>132</ele>
        <time>2015-03-22T07:20:09Z</time>
      </trkpt>
      <trkpt lat="49.30768" lon="0.90741">
        <ele>132</ele>
        <time>2015-03-22T07:20:11Z</time>
      </trkpt>
      <trkpt lat="49.30763" lon="0.90726">
        <ele>133</ele>
        <time>2015-03-22T07:20:13Z</time>
      </trkpt>
      <trkpt lat="49.30758" lon="0.90713">
        <ele>133</ele>
        <time>2015-03-22T07:20:15Z</time>
      </trkpt>
      <trkpt lat="49.30754" lon="0.90697">
        <ele>133</ele>
        <time>2015-03-22T07:20:17Z</time>
      </trkpt>
      <trkpt lat="49.30757" lon="0.90677">
        <ele>134</ele>
        <time>2015-03-22T07:20:19Z</time>
      </trkpt>
      <trkpt lat="49.30762" lon="0.90662">
        <ele>134</ele>
        <time>2015-03-22T07:20:21Z</time>
      </trkpt>
      <trkpt lat="49.30765" lon="0.90651">
        <ele>134</ele>
        <time>2015-03-22T07:20:23Z</time>
      </trkpt>
      <trkpt lat="49.30772" lon="0.90636">
        <ele>134</ele>
        <time>2015-03-22T07:20:25Z</time>
      </trkpt>
      <trkpt lat="49.30777" lon="0.90622">
        <ele>134</ele>
        <time>2015-03-22T07:20:27Z</time>
      </trkpt>
      <trkpt lat="49.30783" lon="0.90611">
        <ele>134</ele>
        <time>2015-03-22T07:20:29Z</time>
      </trkpt>
      <trkpt lat="49.30788" lon="0.90599">
        <ele>134</ele>
        <time>2015-03-22T07:20:31Z</time>
      </trkpt>
      <trkpt lat="49.30795" lon="0.90583">
        <ele>134</ele>
        <time>2015-03-22T07:20:33Z</time>
      </trkpt>
      <trkpt lat="49.308" lon="0.90571">
        <ele>135</ele>
        <time>2015-03-22T07:20:35Z</time>
      </trkpt>
      <trkpt lat="49.30805" lon="0.90557">
        <ele>135</ele>
        <time>2015-03-22T07:20:37Z</time>
      </trkpt>
      <trkpt lat="49.30808" lon="0.90546">
        <ele>135</ele>
        <time>2015-03-22T07:20:39Z</time>
      </trkpt>
      <trkpt lat="49.30811" lon="0.90536">
        <ele>135</ele>
        <time>2015-03-22T07:20:41Z</time>
      </trkpt>
      <trkpt lat="49.30815" lon="0.90525">
        <ele>136</ele>
        <time>2015-03-22T07:20:43Z</time>
      </trkpt>
      <trkpt lat="49.30818" lon="0.90512">
        <ele>136</ele>
        <time>2015-03-22T07:20:45Z</time>
      </trkpt>
      <trkpt lat="49.30821" lon="0.90498">
        <ele>137</ele>
        <time>2015-03-22T07:20:47Z</time>
      </trkpt>
      <trkpt lat="49.30825" lon="0.90491">
        <ele>137</ele>
        <time>2015-03-22T07:20:49Z</time>
      </trkpt>
      <trkpt lat="49.30831" lon="0.90477">
        <ele>137</ele>
        <time>2015-03-22T07:20:51Z</time>
      </trkpt>
      <trkpt lat="49.30837" lon="0.90463">
        <ele>138</ele>
        <time>2015-03-22T07:20:53Z</time>
      </trkpt>
      <trkpt lat="49.30842" lon="0.9045">
        <ele>138</ele>
        <time>2015-03-22T07:20:55Z</time>
      </trkpt>
      <trkpt lat="49.30847" lon="0.90437">
        <ele>138</ele>
        <time>2015-03-22T07:20:57Z</time>
      </trkpt>
      <trkpt lat="49.30852" lon="0.90425">
        <ele>138</ele>
        <time>2015-03-22T07:20:59Z</time>
      </trkpt>
      <trkpt lat="49.30857" lon="0.90412">
        <ele>138</ele>
        <time>2015-03-22T07:21:01Z</time>
      </trkpt>
      <trkpt lat="49.30861" lon="0.90399">
        <ele>138</ele>
        <time>2015-03-22T07:21:03Z</time>
      </trkpt>
      <trkpt lat="49.30864" lon="0.90387">
        <ele>139</ele>
        <time>2015-03-22T07:21:05Z</time>
      </trkpt>
      <trkpt lat="49.30868" lon="0.90376">
        <ele>139</ele>
        <time>2015-03-22T07:21:07Z</time>
      </trkpt>
      <trkpt lat="49.30873" lon="0.90364">
        <ele>139</ele>
        <time>2015-03-22T07:21:09Z</time>
      </trkpt>
      <trkpt lat="49.30878" lon="0.90351">
        <ele>139</ele>
        <time>2015-03-22T07:21:11Z</time>
      </trkpt>
      <trkpt lat="49.30883" lon="0.9034">
        <ele>139</ele>
        <time>2015-03-22T07:21:13Z</time>
      </trkpt>
      <trkpt lat="49.30887" lon="0.90332">
        <ele>139</ele>
        <time>2015-03-22T07:21:15Z</time>
      </trkpt>
      <trkpt lat="49.30891" lon="0.90317">
        <ele>139</ele>
        <time>2015-03-22T07:21:17Z</time>
      </trkpt>
      <trkpt lat="49.30896" lon="0.90304">
        <ele>139</ele>
        <time>2015-03-22T07:21:19Z</time>
      </trkpt>
      <trkpt lat="49.30901" lon="0.9029">
        <ele>139</ele>
        <time>2015-03-22T07:21:21Z</time>
      </trkpt>
      <trkpt lat="49.30907" lon="0.90279">
        <ele>139</ele>
        <time>2015-03-22T07:21:23Z</time>
      </trkpt>
      <trkpt lat="49.30913" lon="0.90269">
        <ele>139</ele>
        <time>2015-03-22T07:21:25Z</time>
      </trkpt>
      <trkpt lat="49.30918" lon="0.90258">
        <ele>140</ele>
        <time>2015-03-22T07:21:27Z</time>
      </trkpt>
      <trkpt lat="49.30924" lon="0.90249">
        <ele>141</ele>
        <time>2015-03-22T07:21:29Z</time>
      </trkpt>
      <trkpt lat="49.30929" lon="0.90238">
        <ele>141</ele>
        <time>2015-03-22T07:21:31Z</time>
      </trkpt>
      <trkpt lat="49.30939" lon="0.9023">
        <ele>142</ele>
        <time>2015-03-22T07:21:33Z</time>
      </trkpt>
      <trkpt lat="49.30949" lon="0.90228">
        <ele>142</ele>
        <time>2015-03-22T07:21:35Z</time>
      </trkpt>
      <trkpt lat="49.3096" lon="0.90227">
        <ele>143</ele>
        <time>2015-03-22T07:21:37Z</time>
      </trkpt>
      <trkpt lat="49.30971" lon="0.90227">
        <ele>143</ele>
        <time>2015-03-22T07:21:39Z</time>
      </trkpt>
      <trkpt lat="49.30983" lon="0.90226">
        <ele>143</ele>
        <time>2015-03-22T07:21:41Z</time>
      </trkpt>
      <trkpt lat="49.30994" lon="0.90226">
        <ele>144</ele>
        <time>2015-03-22T07:21:43Z</time>
      </trkpt>
      <trkpt lat="49.31006" lon="0.90225">
        <ele>145</ele>
        <time>2015-03-22T07:21:45Z</time>
      </trkpt>
      <trkpt lat="49.31017" lon="0.90224">
        <ele>145</ele>
        <time>2015-03-22T07:21:47Z</time>
      </trkpt>
      <trkpt lat="49.31028" lon="0.90222">
        <ele>145</ele>
        <time>2015-03-22T07:21:49Z</time>
      </trkpt>
      <trkpt lat="49.3104" lon="0.90221">
        <ele>145</ele>
        <time>2015-03-22T07:21:51Z</time>
      </trkpt>
      <trkpt lat="49.31052" lon="0.90218">
        <ele>145</ele>
        <time>2015-03-22T07:21:53Z</time>
      </trkpt>
      <trkpt lat="49.31064" lon="0.90218">
        <ele>145</ele>
        <time>2015-03-22T07:21:55Z</time>
      </trkpt>
      <trkpt lat="49.31076" lon="0.90216">
        <ele>145</ele>
        <time>2015-03-22T07:21:57Z</time>
      </trkpt>
      <trkpt lat="49.31086" lon="0.90216">
        <ele>145</ele>
        <time>2015-03-22T07:21:59Z</time>
      </trkpt>
      <trkpt lat="49.31096" lon="0.90216">
        <ele>145</ele>
        <time>2015-03-22T07:22:01Z</time>
      </trkpt>
      <trkpt lat="49.31108" lon="0.90215">
        <ele>146</ele>
        <time>2015-03-22T07:22:03Z</time>
      </trkpt>
      <trkpt lat="49.31117" lon="0.90214">
        <ele>146</ele>
        <time>2015-03-22T07:22:05Z</time>
      </trkpt>
      <trkpt lat="49.31128" lon="0.90212">
        <ele>146</ele>
        <time>2015-03-22T07:22:07Z</time>
      </trkpt>
      <trkpt lat="49.31138" lon="0.90211">
        <ele>146</ele>
        <time>2015-03-22T07:22:09Z</time>
      </trkpt>
      <trkpt lat="49.31149" lon="0.9021">
        <ele>146</ele>
        <time>2015-03-22T07:22:11Z</time>
      </trkpt>
      <trkpt lat="49.31157" lon="0.90209">
        <ele>146</ele>
        <time>2015-03-22T07:22:13Z</time>
      </trkpt>
      <trkpt lat="49.31169" lon="0.90207">
        <ele>147</ele>
        <time>2015-03-22T07:22:15Z</time>
      </trkpt>
      <trkpt lat="49.3118" lon="0.90207">
        <ele>147</ele>
        <time>2015-03-22T07:22:17Z</time>
      </trkpt>
      <trkpt lat="49.31189" lon="0.90206">
        <ele>147</ele>
        <time>2015-03-22T07:22:19Z</time>
      </trkpt>
      <trkpt lat="49.31199" lon="0.90206">
        <ele>147</ele>
        <time>2015-03-22T07:22:21Z</time>
      </trkpt>
      <trkpt lat="49.31209" lon="0.90206">
        <ele>147</ele>
        <time>2015-03-22T07:22:23Z</time>
      </trkpt>
      <trkpt lat="49.31217" lon="0.90206">
        <ele>147</ele>
        <time>2015-03-22T07:22:25Z</time>
      </trkpt>
      <trkpt lat="49.31224" lon="0.90205">
        <ele>147</ele>
        <time>2015-03-22T07:22:27Z</time>
      </trkpt>
      <trkpt lat="49.31232" lon="0.90204">
        <ele>147</ele>
        <time>2015-03-22T07:22:29Z</time>
      </trkpt>
      <trkpt lat="49.31243" lon="0.90202">
        <ele>147</ele>
        <time>2015-03-22T07:22:31Z</time>
      </trkpt>
      <trkpt lat="49.31256" lon="0.90201">
        <ele>148</ele>
        <time>2015-03-22T07:22:33Z</time>
      </trkpt>
      <trkpt lat="49.31265" lon="0.90202">
        <ele>148</ele>
        <time>2015-03-22T07:22:35Z</time>
      </trkpt>
      <trkpt lat="49.31274" lon="0.902">
        <ele>148</ele>
        <time>2015-03-22T07:22:37Z</time>
      </trkpt>
      <trkpt lat="49.31286" lon="0.90198">
        <ele>149</ele>
        <time>2015-03-22T07:22:39Z</time>
      </trkpt>
      <trkpt lat="49.31295" lon="0.90198">
        <ele>149</ele>
        <time>2015-03-22T07:22:41Z</time>
      </trkpt>
      <trkpt lat="49.31304" lon="0.90198">
        <ele>149</ele>
        <time>2015-03-22T07:22:43Z</time>
      </trkpt>
      <trkpt lat="49.31315" lon="0.90197">
        <ele>149</ele>
        <time>2015-03-22T07:22:45Z</time>
      </trkpt>
      <trkpt lat="49.31327" lon="0.90196">
        <ele>149</ele>
        <time>2015-03-22T07:22:47Z</time>
      </trkpt>
      <trkpt lat="49.31338" lon="0.90195">
        <ele>152</ele>
        <time>2015-03-22T07:22:49Z</time>
      </trkpt>
      <trkpt lat="49.3135" lon="0.90194">
        <ele>152</ele>
        <time>2015-03-22T07:22:51Z</time>
      </trkpt>
      <trkpt lat="49.31358" lon="0.90194">
        <ele>153</ele>
        <time>2015-03-22T07:22:53Z</time>
      </trkpt>
      <trkpt lat="49.31367" lon="0.90192">
        <ele>153</ele>
        <time>2015-03-22T07:22:55Z</time>
      </trkpt>
      <trkpt lat="49.31377" lon="0.90191">
        <ele>153</ele>
        <time>2015-03-22T07:22:57Z</time>
      </trkpt>
      <trkpt lat="49.31387" lon="0.90192">
        <ele>154</ele>
        <time>2015-03-22T07:22:59Z</time>
      </trkpt>
      <trkpt lat="49.31396" lon="0.90191">
        <ele>154</ele>
        <time>2015-03-22T07:23:01Z</time>
      </trkpt>
      <trkpt lat="49.31407" lon="0.90189">
        <ele>155</ele>
        <time>2015-03-22T07:23:03Z</time>
      </trkpt>
      <trkpt lat="49.31419" lon="0.90188">
        <ele>156</ele>
        <time>2015-03-22T07:23:05Z</time>
      </trkpt>
      <trkpt lat="49.31429" lon="0.90187">
        <ele>156</ele>
        <time>2015-03-22T07:23:07Z</time>
      </trkpt>
      <trkpt lat="49.31439" lon="0.90185">
        <ele>156</ele>
        <time>2015-03-22T07:23:09Z</time>
      </trkpt>
      <trkpt lat="49.31452" lon="0.90185">
        <ele>156</ele>
        <time>2015-03-22T07:23:11Z</time>
      </trkpt>
      <trkpt lat="49.31464" lon="0.90183">
        <ele>156</ele>
        <time>2015-03-22T07:23:13Z</time>
      </trkpt>
      <trkpt lat="49.31475" lon="0.90183">
        <ele>156</ele>
        <time>2015-03-22T07:23:15Z</time>
      </trkpt>
      <trkpt lat="49.31486" lon="0.90183">
        <ele>156</ele>
        <time>2015-03-22T07:23:17Z</time>
      </trkpt>
      <trkpt lat="49.31499" lon="0.90181">
        <ele>156</ele>
        <time>2015-03-22T07:23:19Z</time>
      </trkpt>
      <trkpt lat="49.31511" lon="0.9018">
        <ele>154</ele>
        <time>2015-03-22T07:23:21Z</time>
      </trkpt>
      <trkpt lat="49.31524" lon="0.90179">
        <ele>153</ele>
        <time>2015-03-22T07:23:23Z</time>
      </trkpt>
      <trkpt lat="49.31537" lon="0.90178">
        <ele>152</ele>
        <time>2015-03-22T07:23:25Z</time>
      </trkpt>
      <trkpt lat="49.31552" lon="0.90177">
        <ele>151</ele>
        <time>2015-03-22T07:23:27Z</time>
      </trkpt>
      <trkpt lat="49.31567" lon="0.90176">
        <ele>149</ele>
        <time>2015-03-22T07:23:29Z</time>
      </trkpt>
      <trkpt lat="49.31581" lon="0.90175">
        <ele>148</ele>
        <time>2015-03-22T07:23:31Z</time>
      </trkpt>
      <trkpt lat="49.31594" lon="0.90173">
        <ele>146</ele>
        <time>2015-03-22T07:23:33Z</time>
      </trkpt>
      <trkpt lat="49.31608" lon="0.90171">
        <ele>145</ele>
        <time>2015-03-22T07:23:35Z</time>
      </trkpt>
      <trkpt lat="49.31619" lon="0.9017">
        <ele>144</ele>
        <time>2015-03-22T07:23:37Z</time>
      </trkpt>
      <trkpt lat="49.31631" lon="0.9017">
        <ele>143</ele>
        <time>2015-03-22T07:23:39Z</time>
      </trkpt>
      <trkpt lat="49.31645" lon="0.90169">
        <ele>143</ele>
        <time>2015-03-22T07:23:41Z</time>
      </trkpt>
      <trkpt lat="49.31658" lon="0.90167">
        <ele>142</ele>
        <time>2015-03-22T07:23:43Z</time>
      </trkpt>
      <trkpt lat="49.31671" lon="0.90165">
        <ele>141</ele>
        <time>2015-03-22T07:23:45Z</time>
      </trkpt>
      <trkpt lat="49.31686" lon="0.90165">
        <ele>142</ele>
        <time>2015-03-22T07:23:47Z</time>
      </trkpt>
      <trkpt lat="49.31699" lon="0.90164">
        <ele>142</ele>
        <time>2015-03-22T07:23:49Z</time>
      </trkpt>
      <trkpt lat="49.31714" lon="0.90162">
        <ele>142</ele>
        <time>2015-03-22T07:23:51Z</time>
      </trkpt>
      <trkpt lat="49.31728" lon="0.90162">
        <ele>142</ele>
        <time>2015-03-22T07:23:53Z</time>
      </trkpt>
      <trkpt lat="49.3174" lon="0.90161">
        <ele>142</ele>
        <time>2015-03-22T07:23:55Z</time>
      </trkpt>
      <trkpt lat="49.31754" lon="0.9016">
        <ele>141</ele>
        <time>2015-03-22T07:23:57Z</time>
      </trkpt>
      <trkpt lat="49.31767" lon="0.90159">
        <ele>141</ele>
        <time>2015-03-22T07:23:59Z</time>
      </trkpt>
      <trkpt lat="49.3178" lon="0.90158">
        <ele>141</ele>
        <time>2015-03-22T07:24:01Z</time>
      </trkpt>
      <trkpt lat="49.31795" lon="0.90158">
        <ele>141</ele>
        <time>2015-03-22T07:24:03Z</time>
      </trkpt>
      <trkpt lat="49.31808" lon="0.90156">
        <ele>140</ele>
        <time>2015-03-22T07:24:05Z</time>
      </trkpt>
      <trkpt lat="49.31821" lon="0.90154">
        <ele>140</ele>
        <time>2015-03-22T07:24:07Z</time>
      </trkpt>
      <trkpt lat="49.31833" lon="0.90154">
        <ele>140</ele>
        <time>2015-03-22T07:24:09Z</time>
      </trkpt>
      <trkpt lat="49.31846" lon="0.90153">
        <ele>138</ele>
        <time>2015-03-22T07:24:11Z</time>
      </trkpt>
      <trkpt lat="49.31859" lon="0.90153">
        <ele>138</ele>
        <time>2015-03-22T07:24:13Z</time>
      </trkpt>
      <trkpt lat="49.31871" lon="0.90151">
        <ele>138</ele>
        <time>2015-03-22T07:24:15Z</time>
      </trkpt>
      <trkpt lat="49.31882" lon="0.90149">
        <ele>137</ele>
        <time>2015-03-22T07:24:17Z</time>
      </trkpt>
      <trkpt lat="49.31894" lon="0.90148">
        <ele>137</ele>
        <time>2015-03-22T07:24:19Z</time>
      </trkpt>
      <trkpt lat="49.31904" lon="0.90148">
        <ele>137</ele>
        <time>2015-03-22T07:24:21Z</time>
      </trkpt>
      <trkpt lat="49.31917" lon="0.90148">
        <ele>136</ele>
        <time>2015-03-22T07:24:23Z</time>
      </trkpt>
      <trkpt lat="49.3193" lon="0.90148">
        <ele>134</ele>
        <time>2015-03-22T07:24:25Z</time>
      </trkpt>
      <trkpt lat="49.31942" lon="0.90148">
        <ele>133</ele>
        <time>2015-03-22T07:24:27Z</time>
      </trkpt>
      <trkpt lat="49.31955" lon="0.90148">
        <ele>133</ele>
        <time>2015-03-22T07:24:29Z</time>
      </trkpt>
      <trkpt lat="49.31966" lon="0.90147">
        <ele>132</ele>
        <time>2015-03-22T07:24:31Z</time>
      </trkpt>
      <trkpt lat="49.31977" lon="0.90144">
        <ele>131</ele>
        <time>2015-03-22T07:24:33Z</time>
      </trkpt>
      <trkpt lat="49.3199" lon="0.90141">
        <ele>131</ele>
        <time>2015-03-22T07:24:35Z</time>
      </trkpt>
      <trkpt lat="49.32002" lon="0.9014">
        <ele>130</ele>
        <time>2015-03-22T07:24:37Z</time>
      </trkpt>
      <trkpt lat="49.32013" lon="0.90138">
        <ele>130</ele>
        <time>2015-03-22T07:24:39Z</time>
      </trkpt>
      <trkpt lat="49.32024" lon="0.90137">
        <ele>131</ele>
        <time>2015-03-22T07:24:41Z</time>
      </trkpt>
      <trkpt lat="49.32034" lon="0.90136">
        <ele>131</ele>
        <time>2015-03-22T07:24:43Z</time>
      </trkpt>
      <trkpt lat="49.32043" lon="0.90136">
        <ele>132</ele>
        <time>2015-03-22T07:24:45Z</time>
      </trkpt>
      <trkpt lat="49.32048" lon="0.90145">
        <ele>132</ele>
        <time>2015-03-22T07:24:47Z</time>
      </trkpt>
      <trkpt lat="49.32048" lon="0.9016">
        <ele>131</ele>
        <time>2015-03-22T07:24:49Z</time>
      </trkpt>
      <trkpt lat="49.32048" lon="0.90176">
        <ele>130</ele>
        <time>2015-03-22T07:24:51Z</time>
      </trkpt>
      <trkpt lat="49.32047" lon="0.9019">
        <ele>130</ele>
        <time>2015-03-22T07:24:53Z</time>
      </trkpt>
      <trkpt lat="49.32045" lon="0.90204">
        <ele>130</ele>
        <time>2015-03-22T07:24:55Z</time>
      </trkpt>
      <trkpt lat="49.32042" lon="0.9022">
        <ele>130</ele>
        <time>2015-03-22T07:24:57Z</time>
      </trkpt>
      <trkpt lat="49.3204" lon="0.90236">
        <ele>130</ele>
        <time>2015-03-22T07:24:59Z</time>
      </trkpt>
      <trkpt lat="49.32037" lon="0.90253">
        <ele>132</ele>
        <time>2015-03-22T07:25:01Z</time>
      </trkpt>
      <trkpt lat="49.32034" lon="0.90267">
        <ele>133</ele>
        <time>2015-03-22T07:25:03Z</time>
      </trkpt>
      <trkpt lat="49.32031" lon="0.90283">
        <ele>133</ele>
        <time>2015-03-22T07:25:05Z</time>
      </trkpt>
      <trkpt lat="49.32027" lon="0.90299">
        <ele>134</ele>
        <time>2015-03-22T07:25:07Z</time>
      </trkpt>
      <trkpt lat="49.32024" lon="0.90315">
        <ele>135</ele>
        <time>2015-03-22T07:25:09Z</time>
      </trkpt>
      <trkpt lat="49.32022" lon="0.90331">
        <ele>135</ele>
        <time>2015-03-22T07:25:11Z</time>
      </trkpt>
      <trkpt lat="49.32019" lon="0.90348">
        <ele>138</ele>
        <time>2015-03-22T07:25:13Z</time>
      </trkpt>
      <trkpt lat="49.32017" lon="0.90362">
        <ele>138</ele>
        <time>2015-03-22T07:25:15Z</time>
      </trkpt>
      <trkpt lat="49.32015" lon="0.90375">
        <ele>138</ele>
        <time>2015-03-22T07:25:17Z</time>
      </trkpt>
      <trkpt lat="49.32013" lon="0.90392">
        <ele>139</ele>
        <time>2015-03-22T07:25:19Z</time>
      </trkpt>
      <trkpt lat="49.3201" lon="0.9041">
        <ele>139</ele>
        <time>2015-03-22T07:25:21Z</time>
      </trkpt>
      <trkpt lat="49.32007" lon="0.90425">
        <ele>140</ele>
        <time>2015-03-22T07:25:23Z</time>
      </trkpt>
      <trkpt lat="49.32004" lon="0.9044">
        <ele>141</ele>
        <time>2015-03-22T07:25:25Z</time>
      </trkpt>
      <trkpt lat="49.32002" lon="0.90455">
        <ele>141</ele>
        <time>2015-03-22T07:25:27Z</time>
      </trkpt>
      <trkpt lat="49.32" lon="0.90471">
        <ele>143</ele>
        <time>2015-03-22T07:25:29Z</time>
      </trkpt>
      <trkpt lat="49.31997" lon="0.90489">
        <ele>143</ele>
        <time>2015-03-22T07:25:31Z</time>
      </trkpt>
      <trkpt lat="49.31994" lon="0.90506">
        <ele>143</ele>
        <time>2015-03-22T07:25:33Z</time>
      </trkpt>
      <trkpt lat="49.31991" lon="0.90523">
        <ele>144</ele>
        <time>2015-03-22T07:25:35Z</time>
      </trkpt>
      <trkpt lat="49.31989" lon="0.90539">
        <ele>144</ele>
        <time>2015-03-22T07:25:37Z</time>
      </trkpt>
      <trkpt lat="49.31988" lon="0.90554">
        <ele>144</ele>
        <time>2015-03-22T07:25:39Z</time>
      </trkpt>
      <trkpt lat="49.31986" lon="0.90571">
        <ele>144</ele>
        <time>2015-03-22T07:25:41Z</time>
      </trkpt>
      <trkpt lat="49.31985" lon="0.90585">
        <ele>143</ele>
        <time>2015-03-22T07:25:43Z</time>
      </trkpt>
      <trkpt lat="49.31983" lon="0.90599">
        <ele>143</ele>
        <time>2015-03-22T07:25:45Z</time>
      </trkpt>
      <trkpt lat="49.31981" lon="0.90616">
        <ele>144</ele>
        <time>2015-03-22T07:25:47Z</time>
      </trkpt>
      <trkpt lat="49.31979" lon="0.90633">
        <ele>143</ele>
        <time>2015-03-22T07:25:49Z</time>
      </trkpt>
      <trkpt lat="49.31976" lon="0.90649">
        <ele>143</ele>
        <time>2015-03-22T07:25:51Z</time>
      </trkpt>
      <trkpt lat="49.31973" lon="0.90666">
        <ele>143</ele>
        <time>2015-03-22T07:25:53Z</time>
      </trkpt>
      <trkpt lat="49.31971" lon="0.90684">
        <ele>142</ele>
        <time>2015-03-22T07:25:55Z</time>
      </trkpt>
      <trkpt lat="49.31968" lon="0.90702">
        <ele>142</ele>
        <time>2015-03-22T07:25:57Z</time>
      </trkpt>
      <trkpt lat="49.31965" lon="0.90719">
        <ele>142</ele>
        <time>2015-03-22T07:25:59Z</time>
      </trkpt>
      <trkpt lat="49.31963" lon="0.90735">
        <ele>142</ele>
        <time>2015-03-22T07:26:01Z</time>
      </trkpt>
      <trkpt lat="49.3196" lon="0.90751">
        <ele>141</ele>
        <time>2015-03-22T07:26:03Z</time>
      </trkpt>
      <trkpt lat="49.31958" lon="0.90765">
        <ele>141</ele>
        <time>2015-03-22T07:26:05Z</time>
      </trkpt>
      <trkpt lat="49.31955" lon="0.90783">
        <ele>141</ele>
        <time>2015-03-22T07:26:07Z</time>
      </trkpt>
      <trkpt lat="49.31952" lon="0.90801">
        <ele>140</ele>
        <time>2015-03-22T07:26:09Z</time>
      </trkpt>
      <trkpt lat="49.3195" lon="0.90815">
        <ele>140</ele>
        <time>2015-03-22T07:26:11Z</time>
      </trkpt>
      <trkpt lat="49.31948" lon="0.90831">
        <ele>140</ele>
        <time>2015-03-22T07:26:13Z</time>
      </trkpt>
      <trkpt lat="49.31946" lon="0.9085">
        <ele>139</ele>
        <time>2015-03-22T07:26:15Z</time>
      </trkpt>
      <trkpt lat="49.31942" lon="0.90868">
        <ele>139</ele>
        <time>2015-03-22T07:26:17Z</time>
      </trkpt>
      <trkpt lat="49.31939" lon="0.90887">
        <ele>138</ele>
        <time>2015-03-22T07:26:19Z</time>
      </trkpt>
      <trkpt lat="49.31937" lon="0.90903">
        <ele>138</ele>
        <time>2015-03-22T07:26:21Z</time>
      </trkpt>
      <trkpt lat="49.31935" lon="0.90919">
        <ele>137</ele>
        <time>2015-03-22T07:26:23Z</time>
      </trkpt>
      <trkpt lat="49.31932" lon="0.90935">
        <ele>138</ele>
        <time>2015-03-22T07:26:25Z</time>
      </trkpt>
      <trkpt lat="49.31935" lon="0.90943">
        <ele>138</ele>
        <time>2015-03-22T07:26:27Z</time>
      </trkpt>
      <trkpt lat="49.31941" lon="0.90943">
        <ele>138</ele>
        <time>2015-03-22T07:26:29Z</time>
      </trkpt>
      <trkpt lat="49.31946" lon="0.90946">
        <ele>139</ele>
        <time>2015-03-22T07:26:31Z</time>
      </trkpt>
      <trkpt lat="49.31951" lon="0.90951">
        <ele>139</ele>
        <time>2015-03-22T07:26:33Z</time>
      </trkpt>
      <trkpt lat="49.31959" lon="0.90956">
        <ele>139</ele>
        <time>2015-03-22T07:26:35Z</time>
      </trkpt>
      <trkpt lat="49.31965" lon="0.90961">
        <ele>140</ele>
        <time>2015-03-22T07:26:37Z</time>
      </trkpt>
      <trkpt lat="49.31971" lon="0.90965">
        <ele>140</ele>
        <time>2015-03-22T07:26:39Z</time>
      </trkpt>
      <trkpt lat="49.3198" lon="0.90967">
        <ele>140</ele>
        <time>2015-03-22T07:26:41Z</time>
      </trkpt>
      <trkpt lat="49.31987" lon="0.90969">
        <ele>140</ele>
        <time>2015-03-22T07:26:43Z</time>
      </trkpt>
      <trkpt lat="49.31999" lon="0.90973">
        <ele>141</ele>
        <time>2015-03-22T07:26:45Z</time>
      </trkpt>
      <trkpt lat="49.32006" lon="0.90974">
        <ele>142</ele>
        <time>2015-03-22T07:26:47Z</time>
      </trkpt>
      <trkpt lat="49.32016" lon="0.90978">
        <ele>142</ele>
        <time>2015-03-22T07:26:49Z</time>
      </trkpt>
      <trkpt lat="49.32026" lon="0.9098">
        <ele>142</ele>
        <time>2015-03-22T07:26:51Z</time>
      </trkpt>
      <trkpt lat="49.32036" lon="0.90983">
        <ele>142</ele>
        <time>2015-03-22T07:26:53Z</time>
      </trkpt>
      <trkpt lat="49.32043" lon="0.90987">
        <ele>141</ele>
        <time>2015-03-22T07:26:55Z</time>
      </trkpt>
      <trkpt lat="49.32051" lon="0.90994">
        <ele>141</ele>
        <time>2015-03-22T07:26:57Z</time>
      </trkpt>
      <trkpt lat="49.32062" lon="0.90997">
        <ele>141</ele>
        <time>2015-03-22T07:26:59Z</time>
      </trkpt>
      <trkpt lat="49.32071" lon="0.91">
        <ele>141</ele>
        <time>2015-03-22T07:27:01Z</time>
      </trkpt>
      <trkpt lat="49.32079" lon="0.91003">
        <ele>141</ele>
        <time>2015-03-22T07:27:03Z</time>
      </trkpt>
      <trkpt lat="49.32089" lon="0.91003">
        <ele>141</ele>
        <time>2015-03-22T07:27:05Z</time>
      </trkpt>
      <trkpt lat="49.32097" lon="0.91001">
        <ele>141</ele>
        <time>2015-03-22T07:27:07Z</time>
      </trkpt>
      <trkpt lat="49.32105" lon="0.91003">
        <ele>141</ele>
        <time>2015-03-22T07:27:09Z</time>
      </trkpt>
      <trkpt lat="49.32116" lon="0.91007">
        <ele>141</ele>
        <time>2015-03-22T07:27:11Z</time>
      </trkpt>
      <trkpt lat="49.32126" lon="0.9101">
        <ele>141</ele>
        <time>2015-03-22T07:27:13Z</time>
      </trkpt>
      <trkpt lat="49.32136" lon="0.91013">
        <ele>141</ele>
        <time>2015-03-22T07:27:15Z</time>
      </trkpt>
      <trkpt lat="49.32144" lon="0.91016">
        <ele>141</ele>
        <time>2015-03-22T07:27:17Z</time>
      </trkpt>
      <trkpt lat="49.32153" lon="0.9102">
        <ele>140</ele>
        <time>2015-03-22T07:27:19Z</time>
      </trkpt>
      <trkpt lat="49.32162" lon="0.91025">
        <ele>141</ele>
        <time>2015-03-22T07:27:21Z</time>
      </trkpt>
      <trkpt lat="49.3217" lon="0.91029">
        <ele>140</ele>
        <time>2015-03-22T07:27:23Z</time>
      </trkpt>
      <trkpt lat="49.32177" lon="0.91031">
        <ele>140</ele>
        <time>2015-03-22T07:27:25Z</time>
      </trkpt>
      <trkpt lat="49.32187" lon="0.91035">
        <ele>140</ele>
        <time>2015-03-22T07:27:27Z</time>
      </trkpt>
      <trkpt lat="49.32195" lon="0.91036">
        <ele>140</ele>
        <time>2015-03-22T07:27:29Z</time>
      </trkpt>
      <trkpt lat="49.32203" lon="0.91039">
        <ele>140</ele>
        <time>2015-03-22T07:27:31Z</time>
      </trkpt>
      <trkpt lat="49.32212" lon="0.9104">
        <ele>140</ele>
        <time>2015-03-22T07:27:33Z</time>
      </trkpt>
      <trkpt lat="49.32221" lon="0.91044">
        <ele>140</ele>
        <time>2015-03-22T07:27:35Z</time>
      </trkpt>
      <trkpt lat="49.32232" lon="0.91048">
        <ele>140</ele>
        <time>2015-03-22T07:27:37Z</time>
      </trkpt>
      <trkpt lat="49.32242" lon="0.91051">
        <ele>140</ele>
        <time>2015-03-22T07:27:39Z</time>
      </trkpt>
      <trkpt lat="49.32252" lon="0.91055">
        <ele>139</ele>
        <time>2015-03-22T07:27:41Z</time>
      </trkpt>
      <trkpt lat="49.32261" lon="0.91059">
        <ele>139</ele>
        <time>2015-03-22T07:27:43Z</time>
      </trkpt>
      <trkpt lat="49.32271" lon="0.91062">
        <ele>139</ele>
        <time>2015-03-22T07:27:45Z</time>
      </trkpt>
      <trkpt lat="49.32281" lon="0.91065">
        <ele>138</ele>
        <time>2015-03-22T07:27:47Z</time>
      </trkpt>
      <trkpt lat="49.32289" lon="0.91068">
        <ele>138</ele>
        <time>2015-03-22T07:27:49Z</time>
      </trkpt>
      <trkpt lat="49.32298" lon="0.91072">
        <ele>138</ele>
        <time>2015-03-22T07:27:51Z</time>
      </trkpt>
      <trkpt lat="49.32307" lon="0.91069">
        <ele>138</ele>
        <time>2015-03-22T07:27:53Z</time>
      </trkpt>
      <trkpt lat="49.3231" lon="0.9106">
        <ele>138</ele>
        <time>2015-03-22T07:27:55Z</time>
      </trkpt>
      <trkpt lat="49.32311" lon="0.91047">
        <ele>138</ele>
        <time>2015-03-22T07:27:57Z</time>
      </trkpt>
      <trkpt lat="49.32315" lon="0.91031">
        <ele>137</ele>
        <time>2015-03-22T07:27:59Z</time>
      </trkpt>
      <trkpt lat="49.32322" lon="0.91023">
        <ele>137</ele>
        <time>2015-03-22T07:28:01Z</time>
      </trkpt>
      <trkpt lat="49.32331" lon="0.91025">
        <ele>137</ele>
        <time>2015-03-22T07:28:03Z</time>
      </trkpt>
      <trkpt lat="49.32339" lon="0.91028">
        <ele>135</ele>
        <time>2015-03-22T07:28:05Z</time>
      </trkpt>
      <trkpt lat="49.3235" lon="0.9103">
        <ele>135</ele>
        <time>2015-03-22T07:28:07Z</time>
      </trkpt>
      <trkpt lat="49.32361" lon="0.91035">
        <ele>135</ele>
        <time>2015-03-22T07:28:09Z</time>
      </trkpt>
      <trkpt lat="49.32372" lon="0.91038">
        <ele>135</ele>
        <time>2015-03-22T07:28:11Z</time>
      </trkpt>
      <trkpt lat="49.32385" lon="0.91042">
        <ele>135</ele>
        <time>2015-03-22T07:28:13Z</time>
      </trkpt>
      <trkpt lat="49.32397" lon="0.91044">
        <ele>135</ele>
        <time>2015-03-22T07:28:15Z</time>
      </trkpt>
      <trkpt lat="49.3241" lon="0.91049">
        <ele>135</ele>
        <time>2015-03-22T07:28:17Z</time>
      </trkpt>
      <trkpt lat="49.32424" lon="0.91053">
        <ele>134</ele>
        <time>2015-03-22T07:28:19Z</time>
      </trkpt>
      <trkpt lat="49.32437" lon="0.91057">
        <ele>133</ele>
        <time>2015-03-22T07:28:21Z</time>
      </trkpt>
      <trkpt lat="49.32449" lon="0.91061">
        <ele>133</ele>
        <time>2015-03-22T07:28:23Z</time>
      </trkpt>
      <trkpt lat="49.32466" lon="0.91066">
        <ele>133</ele>
        <time>2015-03-22T07:28:25Z</time>
      </trkpt>
      <trkpt lat="49.32479" lon="0.91071">
        <ele>133</ele>
        <time>2015-03-22T07:28:27Z</time>
      </trkpt>
      <trkpt lat="49.32495" lon="0.91076">
        <ele>133</ele>
        <time>2015-03-22T07:28:29Z</time>
      </trkpt>
      <trkpt lat="49.3251" lon="0.91083">
        <ele>132</ele>
        <time>2015-03-22T07:28:31Z</time>
      </trkpt>
      <trkpt lat="49.32527" lon="0.9109">
        <ele>132</ele>
        <time>2015-03-22T07:28:33Z</time>
      </trkpt>
      <trkpt lat="49.3254" lon="0.91095">
        <ele>131</ele>
        <time>2015-03-22T07:28:35Z</time>
      </trkpt>
      <trkpt lat="49.32548" lon="0.91099">
        <ele>130</ele>
        <time>2015-03-22T07:28:37Z</time>
      </trkpt>
      <trkpt lat="49.32557" lon="0.91105">
        <ele>130</ele>
        <time>2015-03-22T07:28:39Z</time>
      </trkpt>
      <trkpt lat="49.32566" lon="0.91108">
        <ele>130</ele>
        <time>2015-03-22T07:28:41Z</time>
      </trkpt>
      <trkpt lat="49.32576" lon="0.9111">
        <ele>129</ele>
        <time>2015-03-22T07:28:43Z</time>
      </trkpt>
      <trkpt lat="49.32588" lon="0.91114">
        <ele>126</ele>
        <time>2015-03-22T07:28:45Z</time>
      </trkpt>
      <trkpt lat="49.32602" lon="0.91117">
        <ele>126</ele>
        <time>2015-03-22T07:28:47Z</time>
      </trkpt>
      <trkpt lat="49.32613" lon="0.91121">
        <ele>126</ele>
        <time>2015-03-22T07:28:49Z</time>
      </trkpt>
      <trkpt lat="49.32628" lon="0.91126">
        <ele>126</ele>
        <time>2015-03-22T07:28:51Z</time>
      </trkpt>
      <trkpt lat="49.3264" lon="0.91129">
        <ele>126</ele>
        <time>2015-03-22T07:28:53Z</time>
      </trkpt>
      <trkpt lat="49.32653" lon="0.91131">
        <ele>125</ele>
        <time>2015-03-22T07:28:55Z</time>
      </trkpt>
      <trkpt lat="49.32665" lon="0.91139">
        <ele>125</ele>
        <time>2015-03-22T07:28:57Z</time>
      </trkpt>
      <trkpt lat="49.32677" lon="0.91149">
        <ele>126</ele>
        <time>2015-03-22T07:28:59Z</time>
      </trkpt>
      <trkpt lat="49.32687" lon="0.91159">
        <ele>126</ele>
        <time>2015-03-22T07:29:01Z</time>
      </trkpt>
      <trkpt lat="49.32694" lon="0.91165">
        <ele>126</ele>
        <time>2015-03-22T07:29:03Z</time>
      </trkpt>
      <trkpt lat="49.32699" lon="0.91169">
        <ele>126</ele>
        <time>2015-03-22T07:29:05Z</time>
      </trkpt>
      <trkpt lat="49.32707" lon="0.91179">
        <ele>126</ele>
        <time>2015-03-22T07:29:09Z</time>
      </trkpt>
      <trkpt lat="49.3271" lon="0.91187">
        <ele>126</ele>
        <time>2015-03-22T07:29:11Z</time>
      </trkpt>
      <trkpt lat="49.32713" lon="0.91194">
        <ele>126</ele>
        <time>2015-03-22T07:29:13Z</time>
      </trkpt>
      <trkpt lat="49.32718" lon="0.91204">
        <ele>126</ele>
        <time>2015-03-22T07:29:15Z</time>
      </trkpt>
      <trkpt lat="49.32722" lon="0.91218">
        <ele>126</ele>
        <time>2015-03-22T07:29:17Z</time>
      </trkpt>
      <trkpt lat="49.32724" lon="0.91232">
        <ele>125</ele>
        <time>2015-03-22T07:29:19Z</time>
      </trkpt>
      <trkpt lat="49.3273" lon="0.91241">
        <ele>125</ele>
        <time>2015-03-22T07:29:21Z</time>
      </trkpt>
      <trkpt lat="49.32738" lon="0.91253">
        <ele>124</ele>
        <time>2015-03-22T07:29:22Z</time>
      </trkpt>
      <trkpt lat="49.32745" lon="0.91267">
        <ele>124</ele>
        <time>2015-03-22T07:29:24Z</time>
      </trkpt>
      <trkpt lat="49.32754" lon="0.91284">
        <ele>123</ele>
        <time>2015-03-22T07:29:26Z</time>
      </trkpt>
      <trkpt lat="49.32763" lon="0.91294">
        <ele>122</ele>
        <time>2015-03-22T07:29:28Z</time>
      </trkpt>
      <trkpt lat="49.32773" lon="0.91301">
        <ele>122</ele>
        <time>2015-03-22T07:29:30Z</time>
      </trkpt>
      <trkpt lat="49.3278" lon="0.91306">
        <ele>122</ele>
        <time>2015-03-22T07:29:32Z</time>
      </trkpt>
      <trkpt lat="49.32792" lon="0.91316">
        <ele>122</ele>
        <time>2015-03-22T07:29:34Z</time>
      </trkpt>
      <trkpt lat="49.32802" lon="0.91323">
        <ele>122</ele>
        <time>2015-03-22T07:29:36Z</time>
      </trkpt>
      <trkpt lat="49.32816" lon="0.91328">
        <ele>122</ele>
        <time>2015-03-22T07:29:38Z</time>
      </trkpt>
      <trkpt lat="49.3283" lon="0.91333">
        <ele>121</ele>
        <time>2015-03-22T07:29:40Z</time>
      </trkpt>
      <trkpt lat="49.32845" lon="0.91335">
        <ele>120</ele>
        <time>2015-03-22T07:29:42Z</time>
      </trkpt>
      <trkpt lat="49.32852" lon="0.91342">
        <ele>119</ele>
        <time>2015-03-22T07:29:44Z</time>
      </trkpt>
      <trkpt lat="49.32862" lon="0.91352">
        <ele>118</ele>
        <time>2015-03-22T07:29:46Z</time>
      </trkpt>
      <trkpt lat="49.32868" lon="0.91362">
        <ele>118</ele>
        <time>2015-03-22T07:29:48Z</time>
      </trkpt>
      <trkpt lat="49.32873" lon="0.9138">
        <ele>118</ele>
        <time>2015-03-22T07:29:50Z</time>
      </trkpt>
      <trkpt lat="49.32876" lon="0.91399">
        <ele>118</ele>
        <time>2015-03-22T07:29:52Z</time>
      </trkpt>
      <trkpt lat="49.32878" lon="0.91416">
        <ele>118</ele>
        <time>2015-03-22T07:29:54Z</time>
      </trkpt>
      <trkpt lat="49.32882" lon="0.9143">
        <ele>119</ele>
        <time>2015-03-22T07:29:56Z</time>
      </trkpt>
      <trkpt lat="49.32885" lon="0.91444">
        <ele>119</ele>
        <time>2015-03-22T07:29:58Z</time>
      </trkpt>
      <trkpt lat="49.32879" lon="0.91455">
        <ele>119</ele>
        <time>2015-03-22T07:30:00Z</time>
      </trkpt>
      <trkpt lat="49.32872" lon="0.91464">
        <ele>119</ele>
        <time>2015-03-22T07:30:02Z</time>
      </trkpt>
      <trkpt lat="49.32865" lon="0.91472">
        <ele>119</ele>
        <time>2015-03-22T07:30:04Z</time>
      </trkpt>
      <trkpt lat="49.32859" lon="0.91482">
        <ele>119</ele>
        <time>2015-03-22T07:30:06Z</time>
      </trkpt>
      <trkpt lat="49.32855" lon="0.91493">
        <ele>119</ele>
        <time>2015-03-22T07:30:08Z</time>
      </trkpt>
      <trkpt lat="49.32849" lon="0.91494">
        <ele>120</ele>
        <time>2015-03-22T07:30:10Z</time>
      </trkpt>
      <trkpt lat="49.32841" lon="0.91493">
        <ele>120</ele>
        <time>2015-03-22T07:30:12Z</time>
      </trkpt>
      <trkpt lat="49.32836" lon="0.91492">
        <ele>120</ele>
        <time>2015-03-22T07:30:14Z</time>
      </trkpt>
      <trkpt lat="49.32826" lon="0.91498">
        <ele>120</ele>
        <time>2015-03-22T07:30:16Z</time>
      </trkpt>
      <trkpt lat="49.32817" lon="0.91502">
        <ele>119</ele>
        <time>2015-03-22T07:30:18Z</time>
      </trkpt>
      <trkpt lat="49.3281" lon="0.91514">
        <ele>119</ele>
        <time>2015-03-22T07:30:20Z</time>
      </trkpt>
      <trkpt lat="49.32805" lon="0.91527">
        <ele>119</ele>
        <time>2015-03-22T07:30:22Z</time>
      </trkpt>
      <trkpt lat="49.32805" lon="0.91537">
        <ele>119</ele>
        <time>2015-03-22T07:30:24Z</time>
      </trkpt>
      <trkpt lat="49.32808" lon="0.91549">
        <ele>119</ele>
        <time>2015-03-22T07:30:26Z</time>
      </trkpt>
      <trkpt lat="49.32817" lon="0.91547">
        <ele>119</ele>
        <time>2015-03-22T07:30:30Z</time>
      </trkpt>
      <trkpt lat="49.32823" lon="0.91542">
        <ele>119</ele>
        <time>2015-03-22T07:30:32Z</time>
      </trkpt>
      <trkpt lat="49.3283" lon="0.91541">
        <ele>119</ele>
        <time>2015-03-22T07:30:34Z</time>
      </trkpt>
      <trkpt lat="49.32838" lon="0.91544">
        <ele>120</ele>
        <time>2015-03-22T07:30:36Z</time>
      </trkpt>
      <trkpt lat="49.32844" lon="0.91546">
        <ele>119</ele>
        <time>2015-03-22T07:30:38Z</time>
      </trkpt>
      <trkpt lat="49.32854" lon="0.91548">
        <ele>119</ele>
        <time>2015-03-22T07:30:40Z</time>
      </trkpt>
      <trkpt lat="49.32863" lon="0.9155">
        <ele>119</ele>
        <time>2015-03-22T07:30:42Z</time>
      </trkpt>
      <trkpt lat="49.32872" lon="0.91551">
        <ele>119</ele>
        <time>2015-03-22T07:30:44Z</time>
      </trkpt>
      <trkpt lat="49.32881" lon="0.91557">
        <ele>119</ele>
        <time>2015-03-22T07:30:46Z</time>
      </trkpt>
      <trkpt lat="49.32889" lon="0.91565">
        <ele>119</ele>
        <time>2015-03-22T07:30:48Z</time>
      </trkpt>
      <trkpt lat="49.32899" lon="0.91569">
        <ele>119</ele>
        <time>2015-03-22T07:30:50Z</time>
      </trkpt>
      <trkpt lat="49.3291" lon="0.91574">
        <ele>119</ele>
        <time>2015-03-22T07:30:52Z</time>
      </trkpt>
      <trkpt lat="49.32923" lon="0.91578">
        <ele>117</ele>
        <time>2015-03-22T07:30:54Z</time>
      </trkpt>
      <trkpt lat="49.32936" lon="0.91582">
        <ele>116</ele>
        <time>2015-03-22T07:30:56Z</time>
      </trkpt>
      <trkpt lat="49.32951" lon="0.9159">
        <ele>114</ele>
        <time>2015-03-22T07:30:58Z</time>
      </trkpt>
      <trkpt lat="49.32963" lon="0.91601">
        <ele>113</ele>
        <time>2015-03-22T07:31:00Z</time>
      </trkpt>
      <trkpt lat="49.32975" lon="0.91594">
        <ele>112</ele>
        <time>2015-03-22T07:31:02Z</time>
      </trkpt>
      <trkpt lat="49.32993" lon="0.91587">
        <ele>110</ele>
        <time>2015-03-22T07:31:04Z</time>
      </trkpt>
      <trkpt lat="49.33004" lon="0.91586">
        <ele>108</ele>
        <time>2015-03-22T07:31:06Z</time>
      </trkpt>
      <trkpt lat="49.33014" lon="0.91588">
        <ele>107</ele>
        <time>2015-03-22T07:31:08Z</time>
      </trkpt>
      <trkpt lat="49.3302" lon="0.91594">
        <ele>106</ele>
        <time>2015-03-22T07:31:10Z</time>
      </trkpt>
      <trkpt lat="49.33024" lon="0.91601">
        <ele>106</ele>
        <time>2015-03-22T07:31:12Z</time>
      </trkpt>
      <trkpt lat="49.33029" lon="0.9161">
        <ele>105</ele>
        <time>2015-03-22T07:31:14Z</time>
      </trkpt>
      <trkpt lat="49.33031" lon="0.91619">
        <ele>105</ele>
        <time>2015-03-22T07:31:16Z</time>
      </trkpt>
      <trkpt lat="49.33033" lon="0.91628">
        <ele>105</ele>
        <time>2015-03-22T07:31:18Z</time>
      </trkpt>
      <trkpt lat="49.33034" lon="0.91642">
        <ele>105</ele>
        <time>2015-03-22T07:31:24Z</time>
      </trkpt>
      <trkpt lat="49.33033" lon="0.91655">
        <ele>105</ele>
        <time>2015-03-22T07:31:28Z</time>
      </trkpt>
      <trkpt lat="49.33033" lon="0.91662">
        <ele>105</ele>
        <time>2015-03-22T07:31:30Z</time>
      </trkpt>
      <trkpt lat="49.33033" lon="0.9167">
        <ele>106</ele>
        <time>2015-03-22T07:31:32Z</time>
      </trkpt>
      <trkpt lat="49.33033" lon="0.91678">
        <ele>106</ele>
        <time>2015-03-22T07:31:34Z</time>
      </trkpt>
      <trkpt lat="49.33031" lon="0.91688">
        <ele>106</ele>
        <time>2015-03-22T07:31:36Z</time>
      </trkpt>
      <trkpt lat="49.3303" lon="0.91699">
        <ele>106</ele>
        <time>2015-03-22T07:31:38Z</time>
      </trkpt>
      <trkpt lat="49.33029" lon="0.9171">
        <ele>106</ele>
        <time>2015-03-22T07:31:40Z</time>
      </trkpt>
      <trkpt lat="49.33029" lon="0.91719">
        <ele>107</ele>
        <time>2015-03-22T07:31:42Z</time>
      </trkpt>
      <trkpt lat="49.3303" lon="0.91731">
        <ele>107</ele>
        <time>2015-03-22T07:31:44Z</time>
      </trkpt>
      <trkpt lat="49.33028" lon="0.91744">
        <ele>107</ele>
        <time>2015-03-22T07:31:46Z</time>
      </trkpt>
      <trkpt lat="49.33027" lon="0.91758">
        <ele>108</ele>
        <time>2015-03-22T07:31:48Z</time>
      </trkpt>
      <trkpt lat="49.33026" lon="0.91769">
        <ele>108</ele>
        <time>2015-03-22T07:31:50Z</time>
      </trkpt>
      <trkpt lat="49.33025" lon="0.91779">
        <ele>108</ele>
        <time>2015-03-22T07:31:52Z</time>
      </trkpt>
      <trkpt lat="49.33023" lon="0.91792">
        <ele>108</ele>
        <time>2015-03-22T07:31:54Z</time>
      </trkpt>
      <trkpt lat="49.33022" lon="0.91801">
        <ele>108</ele>
        <time>2015-03-22T07:31:56Z</time>
      </trkpt>
      <trkpt lat="49.33021" lon="0.9181">
        <ele>108</ele>
        <time>2015-03-22T07:31:58Z</time>
      </trkpt>
      <trkpt lat="49.33019" lon="0.91819">
        <ele>109</ele>
        <time>2015-03-22T07:32:00Z</time>
      </trkpt>
      <trkpt lat="49.33016" lon="0.9183">
        <ele>109</ele>
        <time>2015-03-22T07:32:02Z</time>
      </trkpt>
      <trkpt lat="49.33014" lon="0.91843">
        <ele>109</ele>
        <time>2015-03-22T07:32:04Z</time>
      </trkpt>
      <trkpt lat="49.33013" lon="0.91855">
        <ele>109</ele>
        <time>2015-03-22T07:32:06Z</time>
      </trkpt>
      <trkpt lat="49.33012" lon="0.91869">
        <ele>109</ele>
        <time>2015-03-22T07:32:08Z</time>
      </trkpt>
      <trkpt lat="49.3301" lon="0.91881">
        <ele>109</ele>
        <time>2015-03-22T07:32:10Z</time>
      </trkpt>
      <trkpt lat="49.33009" lon="0.91891">
        <ele>109</ele>
        <time>2015-03-22T07:32:12Z</time>
      </trkpt>
      <trkpt lat="49.33006" lon="0.91902">
        <ele>110</ele>
        <time>2015-03-22T07:32:14Z</time>
      </trkpt>
      <trkpt lat="49.33004" lon="0.91912">
        <ele>111</ele>
        <time>2015-03-22T07:32:16Z</time>
      </trkpt>
      <trkpt lat="49.33" lon="0.91924">
        <ele>112</ele>
        <time>2015-03-22T07:32:18Z</time>
      </trkpt>
      <trkpt lat="49.32999" lon="0.91935">
        <ele>112</ele>
        <time>2015-03-22T07:32:20Z</time>
      </trkpt>
      <trkpt lat="49.32998" lon="0.91946">
        <ele>111</ele>
        <time>2015-03-22T07:32:22Z</time>
      </trkpt>
      <trkpt lat="49.32999" lon="0.91956">
        <ele>111</ele>
        <time>2015-03-22T07:32:24Z</time>
      </trkpt>
      <trkpt lat="49.33002" lon="0.91968">
        <ele>108</ele>
        <time>2015-03-22T07:32:26Z</time>
      </trkpt>
      <trkpt lat="49.33007" lon="0.91971">
        <ele>108</ele>
        <time>2015-03-22T07:32:28Z</time>
      </trkpt>
      <trkpt lat="49.33015" lon="0.91974">
        <ele>107</ele>
        <time>2015-03-22T07:32:30Z</time>
      </trkpt>
      <trkpt lat="49.33023" lon="0.91979">
        <ele>107</ele>
        <time>2015-03-22T07:32:32Z</time>
      </trkpt>
      <trkpt lat="49.33033" lon="0.91983">
        <ele>106</ele>
        <time>2015-03-22T07:32:34Z</time>
      </trkpt>
      <trkpt lat="49.33042" lon="0.91984">
        <ele>106</ele>
        <time>2015-03-22T07:32:36Z</time>
      </trkpt>
      <trkpt lat="49.33054" lon="0.91986">
        <ele>105</ele>
        <time>2015-03-22T07:32:38Z</time>
      </trkpt>
      <trkpt lat="49.33065" lon="0.91989">
        <ele>104</ele>
        <time>2015-03-22T07:32:40Z</time>
      </trkpt>
      <trkpt lat="49.33072" lon="0.91995">
        <ele>103</ele>
        <time>2015-03-22T07:32:42Z</time>
      </trkpt>
      <trkpt lat="49.33079" lon="0.91998">
        <ele>102</ele>
        <time>2015-03-22T07:32:44Z</time>
      </trkpt>
      <trkpt lat="49.33086" lon="0.92001">
        <ele>100</ele>
        <time>2015-03-22T07:32:46Z</time>
      </trkpt>
      <trkpt lat="49.33093" lon="0.92006">
        <ele>96</ele>
        <time>2015-03-22T07:32:48Z</time>
      </trkpt>
      <trkpt lat="49.33104" lon="0.92008">
        <ele>93</ele>
        <time>2015-03-22T07:32:50Z</time>
      </trkpt>
      <trkpt lat="49.33116" lon="0.92014">
        <ele>90</ele>
        <time>2015-03-22T07:32:52Z</time>
      </trkpt>
      <trkpt lat="49.33127" lon="0.92019">
        <ele>88</ele>
        <time>2015-03-22T07:32:54Z</time>
      </trkpt>
      <trkpt lat="49.33141" lon="0.92026">
        <ele>86</ele>
        <time>2015-03-22T07:32:56Z</time>
      </trkpt>
      <trkpt lat="49.33157" lon="0.92032">
        <ele>84</ele>
        <time>2015-03-22T07:32:58Z</time>
      </trkpt>
      <trkpt lat="49.33175" lon="0.92036">
        <ele>75</ele>
        <time>2015-03-22T07:33:00Z</time>
      </trkpt>
      <trkpt lat="49.33192" lon="0.92041">
        <ele>74</ele>
        <time>2015-03-22T07:33:02Z</time>
      </trkpt>
      <trkpt lat="49.33208" lon="0.92049">
        <ele>73</ele>
        <time>2015-03-22T07:33:04Z</time>
      </trkpt>
      <trkpt lat="49.33225" lon="0.92055">
        <ele>72</ele>
        <time>2015-03-22T07:33:06Z</time>
      </trkpt>
      <trkpt lat="49.33238" lon="0.92061">
        <ele>71</ele>
        <time>2015-03-22T07:33:08Z</time>
      </trkpt>
      <trkpt lat="49.3325" lon="0.92064">
        <ele>70</ele>
        <time>2015-03-22T07:33:10Z</time>
      </trkpt>
      <trkpt lat="49.33259" lon="0.92067">
        <ele>69</ele>
        <time>2015-03-22T07:33:12Z</time>
      </trkpt>
      <trkpt lat="49.33268" lon="0.9207">
        <ele>69</ele>
        <time>2015-03-22T07:33:14Z</time>
      </trkpt>
      <trkpt lat="49.33276" lon="0.92071">
        <ele>69</ele>
        <time>2015-03-22T07:33:16Z</time>
      </trkpt>
      <trkpt lat="49.33283" lon="0.92072">
        <ele>69</ele>
        <time>2015-03-22T07:33:18Z</time>
      </trkpt>
      <trkpt lat="49.33291" lon="0.92074">
        <ele>69</ele>
        <time>2015-03-22T07:33:20Z</time>
      </trkpt>
      <trkpt lat="49.33302" lon="0.92076">
        <ele>69</ele>
        <time>2015-03-22T07:33:22Z</time>
      </trkpt>
      <trkpt lat="49.33311" lon="0.9208">
        <ele>69</ele>
        <time>2015-03-22T07:33:24Z</time>
      </trkpt>
      <trkpt lat="49.33322" lon="0.92081">
        <ele>68</ele>
        <time>2015-03-22T07:33:26Z</time>
      </trkpt>
      <trkpt lat="49.33334" lon="0.92083">
        <ele>66</ele>
        <time>2015-03-22T07:33:28Z</time>
      </trkpt>
      <trkpt lat="49.33345" lon="0.92085">
        <ele>64</ele>
        <time>2015-03-22T07:33:30Z</time>
      </trkpt>
      <trkpt lat="49.33357" lon="0.92083">
        <ele>66</ele>
        <time>2015-03-22T07:33:32Z</time>
      </trkpt>
      <trkpt lat="49.33364" lon="0.92083">
        <ele>66</ele>
        <time>2015-03-22T07:33:34Z</time>
      </trkpt>
      <trkpt lat="49.33369" lon="0.92087">
        <ele>63</ele>
        <time>2015-03-22T07:33:36Z</time>
      </trkpt>
      <trkpt lat="49.3338" lon="0.92092">
        <ele>63</ele>
        <time>2015-03-22T07:33:40Z</time>
      </trkpt>
      <trkpt lat="49.33384" lon="0.92101">
        <ele>62</ele>
        <time>2015-03-22T07:33:42Z</time>
      </trkpt>
      <trkpt lat="49.33388" lon="0.92118">
        <ele>62</ele>
        <time>2015-03-22T07:33:44Z</time>
      </trkpt>
      <trkpt lat="49.33391" lon="0.92138">
        <ele>62</ele>
        <time>2015-03-22T07:33:46Z</time>
      </trkpt>
      <trkpt lat="49.33392" lon="0.92154">
        <ele>62</ele>
        <time>2015-03-22T07:33:48Z</time>
      </trkpt>
      <trkpt lat="49.33392" lon="0.92174">
        <ele>61</ele>
        <time>2015-03-22T07:33:50Z</time>
      </trkpt>
      <trkpt lat="49.33389" lon="0.92195">
        <ele>61</ele>
        <time>2015-03-22T07:33:52Z</time>
      </trkpt>
      <trkpt lat="49.33384" lon="0.92214">
        <ele>61</ele>
        <time>2015-03-22T07:33:54Z</time>
      </trkpt>
      <trkpt lat="49.33376" lon="0.92229">
        <ele>61</ele>
        <time>2015-03-22T07:33:56Z</time>
      </trkpt>
      <trkpt lat="49.33368" lon="0.92241">
        <ele>60</ele>
        <time>2015-03-22T07:33:58Z</time>
      </trkpt>
      <trkpt lat="49.33357" lon="0.92256">
        <ele>61</ele>
        <time>2015-03-22T07:34:00Z</time>
      </trkpt>
      <trkpt lat="49.33348" lon="0.9227">
        <ele>61</ele>
        <time>2015-03-22T07:34:02Z</time>
      </trkpt>
      <trkpt lat="49.3334" lon="0.92288">
        <ele>62</ele>
        <time>2015-03-22T07:34:04Z</time>
      </trkpt>
      <trkpt lat="49.33334" lon="0.92307">
        <ele>62</ele>
        <time>2015-03-22T07:34:06Z</time>
      </trkpt>
      <trkpt lat="49.33328" lon="0.92327">
        <ele>59</ele>
        <time>2015-03-22T07:34:08Z</time>
      </trkpt>
      <trkpt lat="49.33323" lon="0.92348">
        <ele>60</ele>
        <time>2015-03-22T07:34:10Z</time>
      </trkpt>
      <trkpt lat="49.33319" lon="0.92367">
        <ele>60</ele>
        <time>2015-03-22T07:34:12Z</time>
      </trkpt>
      <trkpt lat="49.33317" lon="0.92387">
        <ele>60</ele>
        <time>2015-03-22T07:34:14Z</time>
      </trkpt>
      <trkpt lat="49.33316" lon="0.92406">
        <ele>60</ele>
        <time>2015-03-22T07:34:16Z</time>
      </trkpt>
      <trkpt lat="49.33317" lon="0.92424">
        <ele>62</ele>
        <time>2015-03-22T07:34:18Z</time>
      </trkpt>
      <trkpt lat="49.33319" lon="0.92444">
        <ele>62</ele>
        <time>2015-03-22T07:34:20Z</time>
      </trkpt>
      <trkpt lat="49.3332" lon="0.92463">
        <ele>62</ele>
        <time>2015-03-22T07:34:22Z</time>
      </trkpt>
      <trkpt lat="49.33323" lon="0.92477">
        <ele>62</ele>
        <time>2015-03-22T07:34:24Z</time>
      </trkpt>
      <trkpt lat="49.33326" lon="0.92486">
        <ele>62</ele>
        <time>2015-03-22T07:34:26Z</time>
      </trkpt>
      <trkpt lat="49.33331" lon="0.92488">
        <ele>62</ele>
        <time>2015-03-22T07:34:28Z</time>
      </trkpt>
      <trkpt lat="49.33336" lon="0.92489">
        <ele>62</ele>
        <time>2015-03-22T07:34:30Z</time>
      </trkpt>
      <trkpt lat="49.33344" lon="0.92485">
        <ele>62</ele>
        <time>2015-03-22T07:34:32Z</time>
      </trkpt>
      <trkpt lat="49.33351" lon="0.92481">
        <ele>62</ele>
        <time>2015-03-22T07:34:34Z</time>
      </trkpt>
      <trkpt lat="49.33358" lon="0.92476">
        <ele>62</ele>
        <time>2015-03-22T07:34:36Z</time>
      </trkpt>
      <trkpt lat="49.33364" lon="0.92472">
        <ele>63</ele>
        <time>2015-03-22T07:34:38Z</time>
      </trkpt>
      <trkpt lat="49.3337" lon="0.92466">
        <ele>63</ele>
        <time>2015-03-22T07:34:40Z</time>
      </trkpt>
      <trkpt lat="49.33373" lon="0.92459">
        <ele>63</ele>
        <time>2015-03-22T07:34:42Z</time>
      </trkpt>
      <trkpt lat="49.33378" lon="0.9245">
        <ele>63</ele>
        <time>2015-03-22T07:34:44Z</time>
      </trkpt>
      <trkpt lat="49.33376" lon="0.92436">
        <ele>63</ele>
        <time>2015-03-22T07:34:46Z</time>
      </trkpt>
      <trkpt lat="49.33374" lon="0.92428">
        <ele>63</ele>
        <time>2015-03-22T07:34:48Z</time>
      </trkpt>
      <trkpt lat="49.33369" lon="0.92419">
        <ele>63</ele>
        <time>2015-03-22T07:34:50Z</time>
      </trkpt>
      <trkpt lat="49.33361" lon="0.92408">
        <ele>64</ele>
        <time>2015-03-22T07:34:54Z</time>
      </trkpt>
      <trkpt lat="49.33357" lon="0.924">
        <ele>64</ele>
        <time>2015-03-22T07:34:56Z</time>
      </trkpt>
      <trkpt lat="49.33352" lon="0.92394">
        <ele>64</ele>
        <time>2015-03-22T07:34:58Z</time>
      </trkpt>
      <trkpt lat="49.3335" lon="0.92385">
        <ele>64</ele>
        <time>2015-03-22T07:35:00Z</time>
      </trkpt>
      <trkpt lat="49.3335" lon="0.92376">
        <ele>64</ele>
        <time>2015-03-22T07:35:02Z</time>
      </trkpt>
      <trkpt lat="49.3335" lon="0.92367">
        <ele>64</ele>
        <time>2015-03-22T07:35:04Z</time>
      </trkpt>
      <trkpt lat="49.33349" lon="0.92355">
        <ele>64</ele>
        <time>2015-03-22T07:35:06Z</time>
      </trkpt>
      <trkpt lat="49.33348" lon="0.92343">
        <ele>63</ele>
        <time>2015-03-22T07:35:08Z</time>
      </trkpt>
      <trkpt lat="49.33352" lon="0.92336">
        <ele>63</ele>
        <time>2015-03-22T07:35:10Z</time>
      </trkpt>
      <trkpt lat="49.33356" lon="0.92331">
        <ele>63</ele>
        <time>2015-03-22T07:35:12Z</time>
      </trkpt>
      <trkpt lat="49.33358" lon="0.92323">
        <ele>63</ele>
        <time>2015-03-22T07:35:16Z</time>
      </trkpt>
      <trkpt lat="49.33366" lon="0.92324">
        <ele>64</ele>
        <time>2015-03-22T07:35:40Z</time>
      </trkpt>
      <trkpt lat="49.33368" lon="0.92332">
        <ele>64</ele>
        <time>2015-03-22T07:35:42Z</time>
      </trkpt>
      <trkpt lat="49.3337" lon="0.92339">
        <ele>65</ele>
        <time>2015-03-22T07:35:44Z</time>
      </trkpt>
      <trkpt lat="49.33376" lon="0.92331">
        <ele>65</ele>
        <time>2015-03-22T07:35:50Z</time>
      </trkpt>
      <trkpt lat="49.33383" lon="0.92325">
        <ele>66</ele>
        <time>2015-03-22T07:35:54Z</time>
      </trkpt>
      <trkpt lat="49.33387" lon="0.92316">
        <ele>66</ele>
        <time>2015-03-22T07:35:58Z</time>
      </trkpt>
      <trkpt lat="49.33387" lon="0.92294">
        <ele>65</ele>
        <time>2015-03-22T07:36:02Z</time>
      </trkpt>
      <trkpt lat="49.3339" lon="0.92284">
        <ele>65</ele>
        <time>2015-03-22T07:36:04Z</time>
      </trkpt>
      <trkpt lat="49.33397" lon="0.92276">
        <ele>65</ele>
        <time>2015-03-22T07:36:06Z</time>
      </trkpt>
      <trkpt lat="49.33406" lon="0.9227">
        <ele>66</ele>
        <time>2015-03-22T07:36:08Z</time>
      </trkpt>
      <trkpt lat="49.33414" lon="0.92266">
        <ele>66</ele>
        <time>2015-03-22T07:36:10Z</time>
      </trkpt>
      <trkpt lat="49.33422" lon="0.92263">
        <ele>73</ele>
        <time>2015-03-22T07:36:12Z</time>
      </trkpt>
      <trkpt lat="49.33429" lon="0.92261">
        <ele>74</ele>
        <time>2015-03-22T07:36:14Z</time>
      </trkpt>
      <trkpt lat="49.33435" lon="0.92254">
        <ele>75</ele>
        <time>2015-03-22T07:36:18Z</time>
      </trkpt>
      <trkpt lat="49.33443" lon="0.92246">
        <ele>73</ele>
        <time>2015-03-22T07:36:20Z</time>
      </trkpt>
      <trkpt lat="49.33454" lon="0.92237">
        <ele>74</ele>
        <time>2015-03-22T07:36:22Z</time>
      </trkpt>
      <trkpt lat="49.3346" lon="0.92227">
        <ele>75</ele>
        <time>2015-03-22T07:36:24Z</time>
      </trkpt>
      <trkpt lat="49.33467" lon="0.92217">
        <ele>75</ele>
        <time>2015-03-22T07:36:26Z</time>
      </trkpt>
      <trkpt lat="49.33477" lon="0.9221">
        <ele>75</ele>
        <time>2015-03-22T07:36:28Z</time>
      </trkpt>
      <trkpt lat="49.33482" lon="0.922">
        <ele>75</ele>
        <time>2015-03-22T07:36:30Z</time>
      </trkpt>
      <trkpt lat="49.33486" lon="0.92193">
        <ele>75</ele>
        <time>2015-03-22T07:36:32Z</time>
      </trkpt>
      <trkpt lat="49.33491" lon="0.92186">
        <ele>75</ele>
        <time>2015-03-22T07:36:34Z</time>
      </trkpt>
      <trkpt lat="49.33496" lon="0.92181">
        <ele>75</ele>
        <time>2015-03-22T07:36:36Z</time>
      </trkpt>
      <trkpt lat="49.335" lon="0.92179">
        <ele>82</ele>
        <time>2015-03-22T07:36:38Z</time>
      </trkpt>
      <trkpt lat="49.33504" lon="0.92174">
        <ele>81</ele>
        <time>2015-03-22T07:36:40Z</time>
      </trkpt>
      <trkpt lat="49.33508" lon="0.92168">
        <ele>81</ele>
        <time>2015-03-22T07:36:42Z</time>
      </trkpt>
      <trkpt lat="49.33519" lon="0.92161">
        <ele>80</ele>
        <time>2015-03-22T07:36:54Z</time>
      </trkpt>
      <trkpt lat="49.33529" lon="0.92148">
        <ele>81</ele>
        <time>2015-03-22T07:37:02Z</time>
      </trkpt>
      <trkpt lat="49.33536" lon="0.92141">
        <ele>82</ele>
        <time>2015-03-22T07:37:06Z</time>
      </trkpt>
      <trkpt lat="49.33542" lon="0.92132">
        <ele>82</ele>
        <time>2015-03-22T07:37:10Z</time>
      </trkpt>
      <trkpt lat="49.33545" lon="0.92127">
        <ele>82</ele>
        <time>2015-03-22T07:37:12Z</time>
      </trkpt>
      <trkpt lat="49.33554" lon="0.92116">
        <ele>83</ele>
        <time>2015-03-22T07:37:18Z</time>
      </trkpt>
      <trkpt lat="49.33556" lon="0.92106">
        <ele>82</ele>
        <time>2015-03-22T07:37:22Z</time>
      </trkpt>
      <trkpt lat="49.3356" lon="0.92101">
        <ele>83</ele>
        <time>2015-03-22T07:37:24Z</time>
      </trkpt>
      <trkpt lat="49.33563" lon="0.92091">
        <ele>83</ele>
        <time>2015-03-22T07:37:26Z</time>
      </trkpt>
      <trkpt lat="49.33566" lon="0.92085">
        <ele>83</ele>
        <time>2015-03-22T07:37:28Z</time>
      </trkpt>
      <trkpt lat="49.33569" lon="0.92079">
        <ele>79</ele>
        <time>2015-03-22T07:37:30Z</time>
      </trkpt>
      <trkpt lat="49.33572" lon="0.92071">
        <ele>78</ele>
        <time>2015-03-22T07:37:32Z</time>
      </trkpt>
      <trkpt lat="49.3358" lon="0.92064">
        <ele>78</ele>
        <time>2015-03-22T07:37:34Z</time>
      </trkpt>
      <trkpt lat="49.33588" lon="0.9206">
        <ele>82</ele>
        <time>2015-03-22T07:37:36Z</time>
      </trkpt>
      <trkpt lat="49.33595" lon="0.92059">
        <ele>82</ele>
        <time>2015-03-22T07:37:38Z</time>
      </trkpt>
      <trkpt lat="49.33604" lon="0.92058">
        <ele>83</ele>
        <time>2015-03-22T07:37:42Z</time>
      </trkpt>
      <trkpt lat="49.33614" lon="0.92057">
        <ele>83</ele>
        <time>2015-03-22T07:37:46Z</time>
      </trkpt>
      <trkpt lat="49.33621" lon="0.92056">
        <ele>83</ele>
        <time>2015-03-22T07:37:48Z</time>
      </trkpt>
      <trkpt lat="49.33626" lon="0.92057">
        <ele>84</ele>
        <time>2015-03-22T07:37:50Z</time>
      </trkpt>
      <trkpt lat="49.33632" lon="0.92056">
        <ele>84</ele>
        <time>2015-03-22T07:37:54Z</time>
      </trkpt>
      <trkpt lat="49.33643" lon="0.92061">
        <ele>86</ele>
        <time>2015-03-22T07:38:02Z</time>
      </trkpt>
      <trkpt lat="49.33648" lon="0.9206">
        <ele>86</ele>
        <time>2015-03-22T07:38:04Z</time>
      </trkpt>
      <trkpt lat="49.33652" lon="0.9206">
        <ele>87</ele>
        <time>2015-03-22T07:38:06Z</time>
      </trkpt>
      <trkpt lat="49.3366" lon="0.92059">
        <ele>87</ele>
        <time>2015-03-22T07:38:12Z</time>
      </trkpt>
      <trkpt lat="49.33668" lon="0.92059">
        <ele>92</ele>
        <time>2015-03-22T07:38:16Z</time>
      </trkpt>
      <trkpt lat="49.33675" lon="0.9206">
        <ele>92</ele>
        <time>2015-03-22T07:38:18Z</time>
      </trkpt>
      <trkpt lat="49.3368" lon="0.92059">
        <ele>92</ele>
        <time>2015-03-22T07:38:22Z</time>
      </trkpt>
      <trkpt lat="49.33688" lon="0.9206">
        <ele>92</ele>
        <time>2015-03-22T07:38:26Z</time>
      </trkpt>
      <trkpt lat="49.33697" lon="0.92063">
        <ele>92</ele>
        <time>2015-03-22T07:38:30Z</time>
      </trkpt>
      <trkpt lat="49.33706" lon="0.92068">
        <ele>93</ele>
        <time>2015-03-22T07:38:34Z</time>
      </trkpt>
      <trkpt lat="49.33712" lon="0.9207">
        <ele>93</ele>
        <time>2015-03-22T07:38:38Z</time>
      </trkpt>
      <trkpt lat="49.33717" lon="0.92072">
        <ele>93</ele>
        <time>2015-03-22T07:38:40Z</time>
      </trkpt>
      <trkpt lat="49.33722" lon="0.92081">
        <ele>94</ele>
        <time>2015-03-22T07:38:44Z</time>
      </trkpt>
      <trkpt lat="49.3373" lon="0.92089">
        <ele>101</ele>
        <time>2015-03-22T07:38:48Z</time>
      </trkpt>
      <trkpt lat="49.33737" lon="0.92092">
        <ele>101</ele>
        <time>2015-03-22T07:38:50Z</time>
      </trkpt>
      <trkpt lat="49.33743" lon="0.92093">
        <ele>100</ele>
        <time>2015-03-22T07:38:52Z</time>
      </trkpt>
      <trkpt lat="49.33751" lon="0.92092">
        <ele>99</ele>
        <time>2015-03-22T07:38:54Z</time>
      </trkpt>
      <trkpt lat="49.33757" lon="0.92093">
        <ele>99</ele>
        <time>2015-03-22T07:38:56Z</time>
      </trkpt>
      <trkpt lat="49.33761" lon="0.92095">
        <ele>99</ele>
        <time>2015-03-22T07:38:58Z</time>
      </trkpt>
      <trkpt lat="49.33769" lon="0.92096">
        <ele>100</ele>
        <time>2015-03-22T07:39:00Z</time>
      </trkpt>
      <trkpt lat="49.33775" lon="0.92098">
        <ele>100</ele>
        <time>2015-03-22T07:39:02Z</time>
      </trkpt>
      <trkpt lat="49.33779" lon="0.921">
        <ele>100</ele>
        <time>2015-03-22T07:39:04Z</time>
      </trkpt>
      <trkpt lat="49.33785" lon="0.92104">
        <ele>100</ele>
        <time>2015-03-22T07:39:06Z</time>
      </trkpt>
      <trkpt lat="49.33789" lon="0.92107">
        <ele>100</ele>
        <time>2015-03-22T07:39:08Z</time>
      </trkpt>
      <trkpt lat="49.33794" lon="0.92111">
        <ele>100</ele>
        <time>2015-03-22T07:39:10Z</time>
      </trkpt>
      <trkpt lat="49.33801" lon="0.92117">
        <ele>100</ele>
        <time>2015-03-22T07:39:14Z</time>
      </trkpt>
      <trkpt lat="49.33808" lon="0.92121">
        <ele>100</ele>
        <time>2015-03-22T07:39:18Z</time>
      </trkpt>
      <trkpt lat="49.33814" lon="0.92123">
        <ele>100</ele>
        <time>2015-03-22T07:39:22Z</time>
      </trkpt>
      <trkpt lat="49.33818" lon="0.92124">
        <ele>100</ele>
        <time>2015-03-22T07:39:24Z</time>
      </trkpt>
      <trkpt lat="49.33824" lon="0.92133">
        <ele>100</ele>
        <time>2015-03-22T07:39:28Z</time>
      </trkpt>
      <trkpt lat="49.33832" lon="0.9214">
        <ele>101</ele>
        <time>2015-03-22T07:39:32Z</time>
      </trkpt>
      <trkpt lat="49.33837" lon="0.92145">
        <ele>98</ele>
        <time>2015-03-22T07:39:34Z</time>
      </trkpt>
      <trkpt lat="49.33843" lon="0.92152">
        <ele>99</ele>
        <time>2015-03-22T07:39:38Z</time>
      </trkpt>
      <trkpt lat="49.3385" lon="0.92163">
        <ele>99</ele>
        <time>2015-03-22T07:39:42Z</time>
      </trkpt>
      <trkpt lat="49.33855" lon="0.92168">
        <ele>102</ele>
        <time>2015-03-22T07:39:44Z</time>
      </trkpt>
      <trkpt lat="49.33859" lon="0.92173">
        <ele>102</ele>
        <time>2015-03-22T07:39:46Z</time>
      </trkpt>
      <trkpt lat="49.33861" lon="0.92182">
        <ele>102</ele>
        <time>2015-03-22T07:39:52Z</time>
      </trkpt>
      <trkpt lat="49.33862" lon="0.92189">
        <ele>103</ele>
        <time>2015-03-22T07:39:54Z</time>
      </trkpt>
      <trkpt lat="49.33866" lon="0.92198">
        <ele>103</ele>
        <time>2015-03-22T07:39:56Z</time>
      </trkpt>
      <trkpt lat="49.33868" lon="0.92205">
        <ele>103</ele>
        <time>2015-03-22T07:40:00Z</time>
      </trkpt>
      <trkpt lat="49.33868" lon="0.92214">
        <ele>104</ele>
        <time>2015-03-22T07:40:12Z</time>
      </trkpt>
      <trkpt lat="49.33871" lon="0.92226">
        <ele>104</ele>
        <time>2015-03-22T07:40:18Z</time>
      </trkpt>
      <trkpt lat="49.3387" lon="0.92239">
        <ele>105</ele>
        <time>2015-03-22T07:40:22Z</time>
      </trkpt>
      <trkpt lat="49.33871" lon="0.92247">
        <ele>105</ele>
        <time>2015-03-22T07:40:24Z</time>
      </trkpt>
      <trkpt lat="49.33873" lon="0.92258">
        <ele>109</ele>
        <time>2015-03-22T07:40:28Z</time>
      </trkpt>
      <trkpt lat="49.33876" lon="0.92269">
        <ele>109</ele>
        <time>2015-03-22T07:40:30Z</time>
      </trkpt>
      <trkpt lat="49.33883" lon="0.92283">
        <ele>109</ele>
        <time>2015-03-22T07:40:32Z</time>
      </trkpt>
      <trkpt lat="49.33891" lon="0.92296">
        <ele>109</ele>
        <time>2015-03-22T07:40:34Z</time>
      </trkpt>
      <trkpt lat="49.33898" lon="0.92304">
        <ele>109</ele>
        <time>2015-03-22T07:40:36Z</time>
      </trkpt>
      <trkpt lat="49.33902" lon="0.92312">
        <ele>109</ele>
        <time>2015-03-22T07:40:38Z</time>
      </trkpt>
      <trkpt lat="49.33906" lon="0.92321">
        <ele>109</ele>
        <time>2015-03-22T07:40:42Z</time>
      </trkpt>
      <trkpt lat="49.33909" lon="0.92329">
        <ele>108</ele>
        <time>2015-03-22T07:40:46Z</time>
      </trkpt>
      <trkpt lat="49.33913" lon="0.9234">
        <ele>110</ele>
        <time>2015-03-22T07:40:50Z</time>
      </trkpt>
      <trkpt lat="49.33917" lon="0.92349">
        <ele>111</ele>
        <time>2015-03-22T07:40:54Z</time>
      </trkpt>
      <trkpt lat="49.33921" lon="0.92359">
        <ele>109</ele>
        <time>2015-03-22T07:40:58Z</time>
      </trkpt>
      <trkpt lat="49.33923" lon="0.92365">
        <ele>109</ele>
        <time>2015-03-22T07:41:00Z</time>
      </trkpt>
      <trkpt lat="49.33928" lon="0.92373">
        <ele>110</ele>
        <time>2015-03-22T07:41:04Z</time>
      </trkpt>
      <trkpt lat="49.33931" lon="0.92379">
        <ele>110</ele>
        <time>2015-03-22T07:41:08Z</time>
      </trkpt>
      <trkpt lat="49.33937" lon="0.92388">
        <ele>110</ele>
        <time>2015-03-22T07:41:12Z</time>
      </trkpt>
      <trkpt lat="49.33943" lon="0.92396">
        <ele>110</ele>
        <time>2015-03-22T07:41:14Z</time>
      </trkpt>
      <trkpt lat="49.33947" lon="0.92402">
        <ele>110</ele>
        <time>2015-03-22T07:41:16Z</time>
      </trkpt>
      <trkpt lat="49.33953" lon="0.92409">
        <ele>110</ele>
        <time>2015-03-22T07:41:18Z</time>
      </trkpt>
      <trkpt lat="49.3396" lon="0.92414">
        <ele>109</ele>
        <time>2015-03-22T07:41:20Z</time>
      </trkpt>
      <trkpt lat="49.33965" lon="0.92419">
        <ele>113</ele>
        <time>2015-03-22T07:41:22Z</time>
      </trkpt>
      <trkpt lat="49.33972" lon="0.92425">
        <ele>112</ele>
        <time>2015-03-22T07:41:24Z</time>
      </trkpt>
      <trkpt lat="49.33978" lon="0.92431">
        <ele>112</ele>
        <time>2015-03-22T07:41:26Z</time>
      </trkpt>
      <trkpt lat="49.33983" lon="0.92438">
        <ele>112</ele>
        <time>2015-03-22T07:41:28Z</time>
      </trkpt>
      <trkpt lat="49.33987" lon="0.92444">
        <ele>112</ele>
        <time>2015-03-22T07:41:30Z</time>
      </trkpt>
      <trkpt lat="49.33994" lon="0.92455">
        <ele>113</ele>
        <time>2015-03-22T07:41:34Z</time>
      </trkpt>
      <trkpt lat="49.33998" lon="0.92465">
        <ele>114</ele>
        <time>2015-03-22T07:41:38Z</time>
      </trkpt>
      <trkpt lat="49.34004" lon="0.92476">
        <ele>112</ele>
        <time>2015-03-22T07:41:42Z</time>
      </trkpt>
      <trkpt lat="49.34007" lon="0.92484">
        <ele>113</ele>
        <time>2015-03-22T07:41:44Z</time>
      </trkpt>
      <trkpt lat="49.34011" lon="0.92489">
        <ele>113</ele>
        <time>2015-03-22T07:41:46Z</time>
      </trkpt>
      <trkpt lat="49.34014" lon="0.92496">
        <ele>114</ele>
        <time>2015-03-22T07:41:48Z</time>
      </trkpt>
      <trkpt lat="49.34017" lon="0.92503">
        <ele>116</ele>
        <time>2015-03-22T07:41:50Z</time>
      </trkpt>
      <trkpt lat="49.34022" lon="0.9251">
        <ele>115</ele>
        <time>2015-03-22T07:41:52Z</time>
      </trkpt>
      <trkpt lat="49.34026" lon="0.92516">
        <ele>115</ele>
        <time>2015-03-22T07:41:54Z</time>
      </trkpt>
      <trkpt lat="49.34031" lon="0.92523">
        <ele>115</ele>
        <time>2015-03-22T07:41:56Z</time>
      </trkpt>
      <trkpt lat="49.34036" lon="0.9253">
        <ele>115</ele>
        <time>2015-03-22T07:41:58Z</time>
      </trkpt>
      <trkpt lat="49.34041" lon="0.92541">
        <ele>116</ele>
        <time>2015-03-22T07:42:00Z</time>
      </trkpt>
      <trkpt lat="49.34044" lon="0.9255">
        <ele>116</ele>
        <time>2015-03-22T07:42:02Z</time>
      </trkpt>
      <trkpt lat="49.34048" lon="0.92561">
        <ele>116</ele>
        <time>2015-03-22T07:42:04Z</time>
      </trkpt>
      <trkpt lat="49.34051" lon="0.92571">
        <ele>116</ele>
        <time>2015-03-22T07:42:06Z</time>
      </trkpt>
      <trkpt lat="49.34054" lon="0.92579">
        <ele>116</ele>
        <time>2015-03-22T07:42:08Z</time>
      </trkpt>
      <trkpt lat="49.34057" lon="0.92588">
        <ele>118</ele>
        <time>2015-03-22T07:42:10Z</time>
      </trkpt>
      <trkpt lat="49.34059" lon="0.92597">
        <ele>118</ele>
        <time>2015-03-22T07:42:12Z</time>
      </trkpt>
      <trkpt lat="49.34061" lon="0.92606">
        <ele>118</ele>
        <time>2015-03-22T07:42:14Z</time>
      </trkpt>
      <trkpt lat="49.3406" lon="0.92616">
        <ele>119</ele>
        <time>2015-03-22T07:42:16Z</time>
      </trkpt>
      <trkpt lat="49.34055" lon="0.92621">
        <ele>119</ele>
        <time>2015-03-22T07:42:20Z</time>
      </trkpt>
      <trkpt lat="49.34048" lon="0.9263">
        <ele>119</ele>
        <time>2015-03-22T07:42:24Z</time>
      </trkpt>
      <trkpt lat="49.34042" lon="0.92634">
        <ele>120</ele>
        <time>2015-03-22T07:42:28Z</time>
      </trkpt>
      <trkpt lat="49.34034" lon="0.92633">
        <ele>120</ele>
        <time>2015-03-22T07:42:32Z</time>
      </trkpt>
      <trkpt lat="49.3403" lon="0.92642">
        <ele>120</ele>
        <time>2015-03-22T07:42:36Z</time>
      </trkpt>
      <trkpt lat="49.34027" lon="0.92651">
        <ele>120</ele>
        <time>2015-03-22T07:42:42Z</time>
      </trkpt>
      <trkpt lat="49.34024" lon="0.92657">
        <ele>120</ele>
        <time>2015-03-22T07:42:44Z</time>
      </trkpt>
      <trkpt lat="49.34022" lon="0.92663">
        <ele>121</ele>
        <time>2015-03-22T07:42:46Z</time>
      </trkpt>
      <trkpt lat="49.34019" lon="0.92677">
        <ele>122</ele>
        <time>2015-03-22T07:42:50Z</time>
      </trkpt>
      <trkpt lat="49.34016" lon="0.92685">
        <ele>122</ele>
        <time>2015-03-22T07:42:52Z</time>
      </trkpt>
      <trkpt lat="49.34013" lon="0.92695">
        <ele>123</ele>
        <time>2015-03-22T07:42:56Z</time>
      </trkpt>
      <trkpt lat="49.34007" lon="0.92697">
        <ele>123</ele>
        <time>2015-03-22T07:42:58Z</time>
      </trkpt>
      <trkpt lat="49.34001" lon="0.92702">
        <ele>123</ele>
        <time>2015-03-22T07:43:00Z</time>
      </trkpt>
      <trkpt lat="49.33997" lon="0.92706">
        <ele>124</ele>
        <time>2015-03-22T07:43:02Z</time>
      </trkpt>
      <trkpt lat="49.33989" lon="0.92703">
        <ele>124</ele>
        <time>2015-03-22T07:43:06Z</time>
      </trkpt>
      <trkpt lat="49.33982" lon="0.92702">
        <ele>124</ele>
        <time>2015-03-22T07:43:08Z</time>
      </trkpt>
      <trkpt lat="49.33974" lon="0.92709">
        <ele>124</ele>
        <time>2015-03-22T07:43:10Z</time>
      </trkpt>
      <trkpt lat="49.3397" lon="0.9272">
        <ele>125</ele>
        <time>2015-03-22T07:43:12Z</time>
      </trkpt>
      <trkpt lat="49.33966" lon="0.92728">
        <ele>125</ele>
        <time>2015-03-22T07:43:14Z</time>
      </trkpt>
      <trkpt lat="49.33963" lon="0.92736">
        <ele>125</ele>
        <time>2015-03-22T07:43:16Z</time>
      </trkpt>
      <trkpt lat="49.33956" lon="0.92741">
        <ele>125</ele>
        <time>2015-03-22T07:43:20Z</time>
      </trkpt>
      <trkpt lat="49.33951" lon="0.92743">
        <ele>125</ele>
        <time>2015-03-22T07:43:22Z</time>
      </trkpt>
      <trkpt lat="49.33946" lon="0.92747">
        <ele>125</ele>
        <time>2015-03-22T07:43:24Z</time>
      </trkpt>
      <trkpt lat="49.33941" lon="0.92753">
        <ele>125</ele>
        <time>2015-03-22T07:43:26Z</time>
      </trkpt>
      <trkpt lat="49.33938" lon="0.92761">
        <ele>125</ele>
        <time>2015-03-22T07:43:28Z</time>
      </trkpt>
      <trkpt lat="49.33932" lon="0.92767">
        <ele>125</ele>
        <time>2015-03-22T07:43:30Z</time>
      </trkpt>
      <trkpt lat="49.33927" lon="0.92779">
        <ele>125</ele>
        <time>2015-03-22T07:43:34Z</time>
      </trkpt>
      <trkpt lat="49.33926" lon="0.92792">
        <ele>125</ele>
        <time>2015-03-22T07:43:36Z</time>
      </trkpt>
      <trkpt lat="49.33924" lon="0.92805">
        <ele>125</ele>
        <time>2015-03-22T07:43:38Z</time>
      </trkpt>
      <trkpt lat="49.3392" lon="0.9281">
        <ele>125</ele>
        <time>2015-03-22T07:43:40Z</time>
      </trkpt>
      <trkpt lat="49.33913" lon="0.92808">
        <ele>122</ele>
        <time>2015-03-22T07:43:44Z</time>
      </trkpt>
      <trkpt lat="49.33906" lon="0.92806">
        <ele>122</ele>
        <time>2015-03-22T07:43:48Z</time>
      </trkpt>
      <trkpt lat="49.33896" lon="0.92807">
        <ele>121</ele>
        <time>2015-03-22T07:43:52Z</time>
      </trkpt>
      <trkpt lat="49.33893" lon="0.92818">
        <ele>121</ele>
        <time>2015-03-22T07:43:54Z</time>
      </trkpt>
      <trkpt lat="49.33891" lon="0.92831">
        <ele>121</ele>
        <time>2015-03-22T07:43:56Z</time>
      </trkpt>
      <trkpt lat="49.3389" lon="0.92841">
        <ele>118</ele>
        <time>2015-03-22T07:43:58Z</time>
      </trkpt>
      <trkpt lat="49.33886" lon="0.92846">
        <ele>117</ele>
        <time>2015-03-22T07:44:00Z</time>
      </trkpt>
      <trkpt lat="49.33885" lon="0.92853">
        <ele>116</ele>
        <time>2015-03-22T07:44:02Z</time>
      </trkpt>
      <trkpt lat="49.33887" lon="0.92863">
        <ele>116</ele>
        <time>2015-03-22T07:44:06Z</time>
      </trkpt>
      <trkpt lat="49.33887" lon="0.9287">
        <ele>116</ele>
        <time>2015-03-22T07:44:08Z</time>
      </trkpt>
      <trkpt lat="49.33888" lon="0.92878">
        <ele>115</ele>
        <time>2015-03-22T07:44:10Z</time>
      </trkpt>
      <trkpt lat="49.33889" lon="0.92885">
        <ele>115</ele>
        <time>2015-03-22T07:44:12Z</time>
      </trkpt>
      <trkpt lat="49.33892" lon="0.92891">
        <ele>115</ele>
        <time>2015-03-22T07:44:14Z</time>
      </trkpt>
      <trkpt lat="49.33894" lon="0.92898">
        <ele>116</ele>
        <time>2015-03-22T07:44:16Z</time>
      </trkpt>
      <trkpt lat="49.33898" lon="0.92907">
        <ele>116</ele>
        <time>2015-03-22T07:44:18Z</time>
      </trkpt>
      <trkpt lat="49.33904" lon="0.92918">
        <ele>114</ele>
        <time>2015-03-22T07:44:20Z</time>
      </trkpt>
      <trkpt lat="49.33908" lon="0.92927">
        <ele>114</ele>
        <time>2015-03-22T07:44:22Z</time>
      </trkpt>
      <trkpt lat="49.3391" lon="0.9294">
        <ele>112</ele>
        <time>2015-03-22T07:44:24Z</time>
      </trkpt>
      <trkpt lat="49.33914" lon="0.92949">
        <ele>111</ele>
        <time>2015-03-22T07:44:26Z</time>
      </trkpt>
      <trkpt lat="49.33917" lon="0.92956">
        <ele>119</ele>
        <time>2015-03-22T07:44:28Z</time>
      </trkpt>
      <trkpt lat="49.33917" lon="0.92966">
        <ele>119</ele>
        <time>2015-03-22T07:44:30Z</time>
      </trkpt>
      <trkpt lat="49.33912" lon="0.92981">
        <ele>111</ele>
        <time>2015-03-22T07:44:32Z</time>
      </trkpt>
      <trkpt lat="49.33909" lon="0.92996">
        <ele>112</ele>
        <time>2015-03-22T07:44:34Z</time>
      </trkpt>
      <trkpt lat="49.33908" lon="0.93009">
        <ele>109</ele>
        <time>2015-03-22T07:44:36Z</time>
      </trkpt>
      <trkpt lat="49.33914" lon="0.93021">
        <ele>107</ele>
        <time>2015-03-22T07:44:38Z</time>
      </trkpt>
      <trkpt lat="49.33918" lon="0.93029">
        <ele>116</ele>
        <time>2015-03-22T07:44:40Z</time>
      </trkpt>
      <trkpt lat="49.33922" lon="0.93037">
        <ele>116</ele>
        <time>2015-03-22T07:44:42Z</time>
      </trkpt>
      <trkpt lat="49.33923" lon="0.93049">
        <ele>115</ele>
        <time>2015-03-22T07:44:44Z</time>
      </trkpt>
      <trkpt lat="49.33928" lon="0.93061">
        <ele>114</ele>
        <time>2015-03-22T07:44:46Z</time>
      </trkpt>
      <trkpt lat="49.33935" lon="0.93073">
        <ele>114</ele>
        <time>2015-03-22T07:44:48Z</time>
      </trkpt>
      <trkpt lat="49.33938" lon="0.93085">
        <ele>113</ele>
        <time>2015-03-22T07:44:50Z</time>
      </trkpt>
      <trkpt lat="49.33939" lon="0.93098">
        <ele>114</ele>
        <time>2015-03-22T07:44:52Z</time>
      </trkpt>
      <trkpt lat="49.3394" lon="0.93109">
        <ele>115</ele>
        <time>2015-03-22T07:44:54Z</time>
      </trkpt>
      <trkpt lat="49.33942" lon="0.93118">
        <ele>115</ele>
        <time>2015-03-22T07:44:56Z</time>
      </trkpt>
      <trkpt lat="49.33944" lon="0.93126">
        <ele>115</ele>
        <time>2015-03-22T07:44:58Z</time>
      </trkpt>
      <trkpt lat="49.33945" lon="0.93133">
        <ele>115</ele>
        <time>2015-03-22T07:45:00Z</time>
      </trkpt>
      <trkpt lat="49.33946" lon="0.93147">
        <ele>115</ele>
        <time>2015-03-22T07:45:04Z</time>
      </trkpt>
      <trkpt lat="49.33947" lon="0.93156">
        <ele>115</ele>
        <time>2015-03-22T07:45:06Z</time>
      </trkpt>
      <trkpt lat="49.33947" lon="0.93167">
        <ele>115</ele>
        <time>2015-03-22T07:45:08Z</time>
      </trkpt>
      <trkpt lat="49.33948" lon="0.93175">
        <ele>115</ele>
        <time>2015-03-22T07:45:10Z</time>
      </trkpt>
      <trkpt lat="49.33953" lon="0.93187">
        <ele>116</ele>
        <time>2015-03-22T07:45:14Z</time>
      </trkpt>
      <trkpt lat="49.33957" lon="0.93195">
        <ele>117</ele>
        <time>2015-03-22T07:45:18Z</time>
      </trkpt>
      <trkpt lat="49.33961" lon="0.93199">
        <ele>117</ele>
        <time>2015-03-22T07:45:20Z</time>
      </trkpt>
      <trkpt lat="49.33966" lon="0.93207">
        <ele>118</ele>
        <time>2015-03-22T07:45:25Z</time>
      </trkpt>
      <trkpt lat="49.3397" lon="0.93218">
        <ele>119</ele>
        <time>2015-03-22T07:45:29Z</time>
      </trkpt>
      <trkpt lat="49.33972" lon="0.93225">
        <ele>119</ele>
        <time>2015-03-22T07:45:31Z</time>
      </trkpt>
      <trkpt lat="49.33974" lon="0.93233">
        <ele>120</ele>
        <time>2015-03-22T07:45:33Z</time>
      </trkpt>
      <trkpt lat="49.33973" lon="0.93241">
        <ele>120</ele>
        <time>2015-03-22T07:45:35Z</time>
      </trkpt>
      <trkpt lat="49.33973" lon="0.9325">
        <ele>121</ele>
        <time>2015-03-22T07:45:37Z</time>
      </trkpt>
      <trkpt lat="49.33973" lon="0.93262">
        <ele>120</ele>
        <time>2015-03-22T07:45:39Z</time>
      </trkpt>
      <trkpt lat="49.33971" lon="0.93276">
        <ele>119</ele>
        <time>2015-03-22T07:45:41Z</time>
      </trkpt>
      <trkpt lat="49.33969" lon="0.93286">
        <ele>119</ele>
        <time>2015-03-22T07:45:43Z</time>
      </trkpt>
      <trkpt lat="49.33968" lon="0.93294">
        <ele>119</ele>
        <time>2015-03-22T07:45:45Z</time>
      </trkpt>
      <trkpt lat="49.33967" lon="0.93305">
        <ele>119</ele>
        <time>2015-03-22T07:45:47Z</time>
      </trkpt>
      <trkpt lat="49.33965" lon="0.93315">
        <ele>119</ele>
        <time>2015-03-22T07:45:49Z</time>
      </trkpt>
      <trkpt lat="49.33964" lon="0.93325">
        <ele>119</ele>
        <time>2015-03-22T07:45:51Z</time>
      </trkpt>
      <trkpt lat="49.33963" lon="0.93336">
        <ele>119</ele>
        <time>2015-03-22T07:45:53Z</time>
      </trkpt>
      <trkpt lat="49.33963" lon="0.93347">
        <ele>119</ele>
        <time>2015-03-22T07:45:55Z</time>
      </trkpt>
      <trkpt lat="49.33961" lon="0.93353">
        <ele>118</ele>
        <time>2015-03-22T07:45:57Z</time>
      </trkpt>
      <trkpt lat="49.33959" lon="0.93366">
        <ele>118</ele>
        <time>2015-03-22T07:45:59Z</time>
      </trkpt>
      <trkpt lat="49.33958" lon="0.93376">
        <ele>118</ele>
        <time>2015-03-22T07:46:01Z</time>
      </trkpt>
      <trkpt lat="49.33957" lon="0.93384">
        <ele>118</ele>
        <time>2015-03-22T07:46:03Z</time>
      </trkpt>
      <trkpt lat="49.33955" lon="0.93395">
        <ele>117</ele>
        <time>2015-03-22T07:46:05Z</time>
      </trkpt>
      <trkpt lat="49.33954" lon="0.93403">
        <ele>117</ele>
        <time>2015-03-22T07:46:07Z</time>
      </trkpt>
      <trkpt lat="49.33952" lon="0.93412">
        <ele>116</ele>
        <time>2015-03-22T07:46:09Z</time>
      </trkpt>
      <trkpt lat="49.33949" lon="0.93422">
        <ele>117</ele>
        <time>2015-03-22T07:46:11Z</time>
      </trkpt>
      <trkpt lat="49.33951" lon="0.93431">
        <ele>118</ele>
        <time>2015-03-22T07:46:13Z</time>
      </trkpt>
      <trkpt lat="49.3395" lon="0.93442">
        <ele>119</ele>
        <time>2015-03-22T07:46:15Z</time>
      </trkpt>
      <trkpt lat="49.33947" lon="0.93457">
        <ele>119</ele>
        <time>2015-03-22T07:46:17Z</time>
      </trkpt>
      <trkpt lat="49.33944" lon="0.93469">
        <ele>119</ele>
        <time>2015-03-22T07:46:19Z</time>
      </trkpt>
      <trkpt lat="49.33938" lon="0.93485">
        <ele>117</ele>
        <time>2015-03-22T07:46:21Z</time>
      </trkpt>
      <trkpt lat="49.33931" lon="0.935">
        <ele>117</ele>
        <time>2015-03-22T07:46:23Z</time>
      </trkpt>
      <trkpt lat="49.33927" lon="0.93511">
        <ele>118</ele>
        <time>2015-03-22T07:46:25Z</time>
      </trkpt>
      <trkpt lat="49.33925" lon="0.93519">
        <ele>119</ele>
        <time>2015-03-22T07:46:27Z</time>
      </trkpt>
      <trkpt lat="49.33921" lon="0.93534">
        <ele>121</ele>
        <time>2015-03-22T07:46:31Z</time>
      </trkpt>
      <trkpt lat="49.33916" lon="0.93541">
        <ele>106</ele>
        <time>2015-03-22T07:46:33Z</time>
      </trkpt>
      <trkpt lat="49.33913" lon="0.93547">
        <ele>107</ele>
        <time>2015-03-22T07:46:35Z</time>
      </trkpt>
      <trkpt lat="49.33911" lon="0.93554">
        <ele>108</ele>
        <time>2015-03-22T07:46:37Z</time>
      </trkpt>
      <trkpt lat="49.33911" lon="0.93561">
        <ele>109</ele>
        <time>2015-03-22T07:46:39Z</time>
      </trkpt>
      <trkpt lat="49.3391" lon="0.93568">
        <ele>112</ele>
        <time>2015-03-22T07:46:41Z</time>
      </trkpt>
      <trkpt lat="49.33907" lon="0.93576">
        <ele>113</ele>
        <time>2015-03-22T07:46:43Z</time>
      </trkpt>
      <trkpt lat="49.33905" lon="0.93584">
        <ele>118</ele>
        <time>2015-03-22T07:46:45Z</time>
      </trkpt>
      <trkpt lat="49.33904" lon="0.93592">
        <ele>117</ele>
        <time>2015-03-22T07:46:47Z</time>
      </trkpt>
      <trkpt lat="49.33904" lon="0.93603">
        <ele>117</ele>
        <time>2015-03-22T07:46:49Z</time>
      </trkpt>
      <trkpt lat="49.33902" lon="0.93611">
        <ele>117</ele>
        <time>2015-03-22T07:46:51Z</time>
      </trkpt>
      <trkpt lat="49.33899" lon="0.93624">
        <ele>117</ele>
        <time>2015-03-22T07:46:55Z</time>
      </trkpt>
      <trkpt lat="49.33898" lon="0.93639">
        <ele>119</ele>
        <time>2015-03-22T07:46:59Z</time>
      </trkpt>
      <trkpt lat="49.33896" lon="0.9365">
        <ele>120</ele>
        <time>2015-03-22T07:47:01Z</time>
      </trkpt>
      <trkpt lat="49.33893" lon="0.93656">
        <ele>120</ele>
        <time>2015-03-22T07:47:03Z</time>
      </trkpt>
      <trkpt lat="49.33892" lon="0.93665">
        <ele>121</ele>
        <time>2015-03-22T07:47:05Z</time>
      </trkpt>
      <trkpt lat="49.33892" lon="0.93677">
        <ele>127</ele>
        <time>2015-03-22T07:47:09Z</time>
      </trkpt>
      <trkpt lat="49.33891" lon="0.93684">
        <ele>127</ele>
        <time>2015-03-22T07:47:11Z</time>
      </trkpt>
      <trkpt lat="49.33888" lon="0.93693">
        <ele>127</ele>
        <time>2015-03-22T07:47:13Z</time>
      </trkpt>
      <trkpt lat="49.33885" lon="0.937">
        <ele>127</ele>
        <time>2015-03-22T07:47:15Z</time>
      </trkpt>
      <trkpt lat="49.33883" lon="0.93708">
        <ele>127</ele>
        <time>2015-03-22T07:47:19Z</time>
      </trkpt>
      <trkpt lat="49.33872" lon="0.93713">
        <ele>127</ele>
        <time>2015-03-22T07:47:25Z</time>
      </trkpt>
      <trkpt lat="49.33867" lon="0.93721">
        <ele>127</ele>
        <time>2015-03-22T07:47:27Z</time>
      </trkpt>
      <trkpt lat="49.33862" lon="0.93723">
        <ele>127</ele>
        <time>2015-03-22T07:47:29Z</time>
      </trkpt>
      <trkpt lat="49.33857" lon="0.93725">
        <ele>127</ele>
        <time>2015-03-22T07:47:31Z</time>
      </trkpt>
      <trkpt lat="49.33852" lon="0.93726">
        <ele>126</ele>
        <time>2015-03-22T07:47:33Z</time>
      </trkpt>
      <trkpt lat="49.33845" lon="0.93726">
        <ele>126</ele>
        <time>2015-03-22T07:47:35Z</time>
      </trkpt>
      <trkpt lat="49.33839" lon="0.93727">
        <ele>126</ele>
        <time>2015-03-22T07:47:37Z</time>
      </trkpt>
      <trkpt lat="49.33834" lon="0.93728">
        <ele>126</ele>
        <time>2015-03-22T07:47:39Z</time>
      </trkpt>
      <trkpt lat="49.33828" lon="0.93726">
        <ele>119</ele>
        <time>2015-03-22T07:47:41Z</time>
      </trkpt>
      <trkpt lat="49.33819" lon="0.93724">
        <ele>118</ele>
        <time>2015-03-22T07:47:43Z</time>
      </trkpt>
      <trkpt lat="49.3381" lon="0.9372">
        <ele>117</ele>
        <time>2015-03-22T07:47:45Z</time>
      </trkpt>
      <trkpt lat="49.33799" lon="0.93718">
        <ele>116</ele>
        <time>2015-03-22T07:47:47Z</time>
      </trkpt>
      <trkpt lat="49.33789" lon="0.93714">
        <ele>115</ele>
        <time>2015-03-22T07:47:49Z</time>
      </trkpt>
      <trkpt lat="49.33779" lon="0.93714">
        <ele>114</ele>
        <time>2015-03-22T07:47:51Z</time>
      </trkpt>
      <trkpt lat="49.33774" lon="0.93714">
        <ele>114</ele>
        <time>2015-03-22T07:47:53Z</time>
      </trkpt>
      <trkpt lat="49.33766" lon="0.93711">
        <ele>113</ele>
        <time>2015-03-22T07:47:55Z</time>
      </trkpt>
      <trkpt lat="49.33759" lon="0.93708">
        <ele>112</ele>
        <time>2015-03-22T07:47:57Z</time>
      </trkpt>
      <trkpt lat="49.3375" lon="0.93707">
        <ele>112</ele>
        <time>2015-03-22T07:47:59Z</time>
      </trkpt>
      <trkpt lat="49.33742" lon="0.93705">
        <ele>108</ele>
        <time>2015-03-22T07:48:01Z</time>
      </trkpt>
      <trkpt lat="49.33732" lon="0.93704">
        <ele>108</ele>
        <time>2015-03-22T07:48:03Z</time>
      </trkpt>
      <trkpt lat="49.33723" lon="0.937">
        <ele>108</ele>
        <time>2015-03-22T07:48:05Z</time>
      </trkpt>
      <trkpt lat="49.33715" lon="0.93696">
        <ele>107</ele>
        <time>2015-03-22T07:48:07Z</time>
      </trkpt>
      <trkpt lat="49.33707" lon="0.93693">
        <ele>107</ele>
        <time>2015-03-22T07:48:09Z</time>
      </trkpt>
      <trkpt lat="49.337" lon="0.9369">
        <ele>107</ele>
        <time>2015-03-22T07:48:11Z</time>
      </trkpt>
      <trkpt lat="49.33693" lon="0.93686">
        <ele>106</ele>
        <time>2015-03-22T07:48:13Z</time>
      </trkpt>
      <trkpt lat="49.33689" lon="0.93685">
        <ele>106</ele>
        <time>2015-03-22T07:48:15Z</time>
      </trkpt>
      <trkpt lat="49.33679" lon="0.9368">
        <ele>104</ele>
        <time>2015-03-22T07:48:19Z</time>
      </trkpt>
      <trkpt lat="49.33672" lon="0.93677">
        <ele>103</ele>
        <time>2015-03-22T07:48:21Z</time>
      </trkpt>
      <trkpt lat="49.33665" lon="0.93676">
        <ele>101</ele>
        <time>2015-03-22T07:48:23Z</time>
      </trkpt>
      <trkpt lat="49.33657" lon="0.93674">
        <ele>101</ele>
        <time>2015-03-22T07:48:25Z</time>
      </trkpt>
      <trkpt lat="49.33648" lon="0.93668">
        <ele>101</ele>
        <time>2015-03-22T07:48:27Z</time>
      </trkpt>
      <trkpt lat="49.3364" lon="0.93666">
        <ele>91</ele>
        <time>2015-03-22T07:48:29Z</time>
      </trkpt>
      <trkpt lat="49.33631" lon="0.93666">
        <ele>90</ele>
        <time>2015-03-22T07:48:31Z</time>
      </trkpt>
      <trkpt lat="49.33625" lon="0.93672">
        <ele>101</ele>
        <time>2015-03-22T07:48:33Z</time>
      </trkpt>
      <trkpt lat="49.33617" lon="0.93679">
        <ele>100</ele>
        <time>2015-03-22T07:48:35Z</time>
      </trkpt>
      <trkpt lat="49.33611" lon="0.93685">
        <ele>100</ele>
        <time>2015-03-22T07:48:37Z</time>
      </trkpt>
      <trkpt lat="49.33607" lon="0.93692">
        <ele>101</ele>
        <time>2015-03-22T07:48:39Z</time>
      </trkpt>
      <trkpt lat="49.33606" lon="0.937">
        <ele>101</ele>
        <time>2015-03-22T07:48:41Z</time>
      </trkpt>
      <trkpt lat="49.33603" lon="0.93713">
        <ele>103</ele>
        <time>2015-03-22T07:48:45Z</time>
      </trkpt>
      <trkpt lat="49.33604" lon="0.93721">
        <ele>103</ele>
        <time>2015-03-22T07:48:47Z</time>
      </trkpt>
      <trkpt lat="49.336" lon="0.93729">
        <ele>104</ele>
        <time>2015-03-22T07:48:51Z</time>
      </trkpt>
      <trkpt lat="49.33599" lon="0.93744">
        <ele>104</ele>
        <time>2015-03-22T07:48:55Z</time>
      </trkpt>
      <trkpt lat="49.33598" lon="0.93753">
        <ele>109</ele>
        <time>2015-03-22T07:48:59Z</time>
      </trkpt>
      <trkpt lat="49.33602" lon="0.93758">
        <ele>110</ele>
        <time>2015-03-22T07:49:03Z</time>
      </trkpt>
      <trkpt lat="49.33608" lon="0.93765">
        <ele>112</ele>
        <time>2015-03-22T07:49:09Z</time>
      </trkpt>
      <trkpt lat="49.33612" lon="0.93774">
        <ele>112</ele>
        <time>2015-03-22T07:49:13Z</time>
      </trkpt>
      <trkpt lat="49.33614" lon="0.9378">
        <ele>113</ele>
        <time>2015-03-22T07:49:15Z</time>
      </trkpt>
      <trkpt lat="49.33614" lon="0.93788">
        <ele>114</ele>
        <time>2015-03-22T07:49:17Z</time>
      </trkpt>
      <trkpt lat="49.33616" lon="0.938">
        <ele>114</ele>
        <time>2015-03-22T07:49:21Z</time>
      </trkpt>
      <trkpt lat="49.33617" lon="0.93808">
        <ele>114</ele>
        <time>2015-03-22T07:49:23Z</time>
      </trkpt>
      <trkpt lat="49.33618" lon="0.93818">
        <ele>115</ele>
        <time>2015-03-22T07:49:27Z</time>
      </trkpt>
      <trkpt lat="49.33622" lon="0.93825">
        <ele>115</ele>
        <time>2015-03-22T07:49:31Z</time>
      </trkpt>
      <trkpt lat="49.33625" lon="0.9383">
        <ele>116</ele>
        <time>2015-03-22T07:49:37Z</time>
      </trkpt>
      <trkpt lat="49.33628" lon="0.93836">
        <ele>119</ele>
        <time>2015-03-22T07:49:41Z</time>
      </trkpt>
      <trkpt lat="49.33632" lon="0.93842">
        <ele>120</ele>
        <time>2015-03-22T07:49:43Z</time>
      </trkpt>
      <trkpt lat="49.33637" lon="0.93846">
        <ele>121</ele>
        <time>2015-03-22T07:49:45Z</time>
      </trkpt>
      <trkpt lat="49.33641" lon="0.93851">
        <ele>121</ele>
        <time>2015-03-22T07:49:49Z</time>
      </trkpt>
      <trkpt lat="49.3365" lon="0.93861">
        <ele>122</ele>
        <time>2015-03-22T07:49:53Z</time>
      </trkpt>
      <trkpt lat="49.33654" lon="0.93865">
        <ele>122</ele>
        <time>2015-03-22T07:49:55Z</time>
      </trkpt>
      <trkpt lat="49.33657" lon="0.93872">
        <ele>122</ele>
        <time>2015-03-22T07:49:59Z</time>
      </trkpt>
      <trkpt lat="49.33662" lon="0.93883">
        <ele>123</ele>
        <time>2015-03-22T07:50:03Z</time>
      </trkpt>
      <trkpt lat="49.33666" lon="0.93897">
        <ele>125</ele>
        <time>2015-03-22T07:50:07Z</time>
      </trkpt>
      <trkpt lat="49.33668" lon="0.93904">
        <ele>131</ele>
        <time>2015-03-22T07:50:09Z</time>
      </trkpt>
      <trkpt lat="49.33671" lon="0.93911">
        <ele>131</ele>
        <time>2015-03-22T07:50:11Z</time>
      </trkpt>
      <trkpt lat="49.33668" lon="0.93925">
        <ele>131</ele>
        <time>2015-03-22T07:50:15Z</time>
      </trkpt>
      <trkpt lat="49.3367" lon="0.93938">
        <ele>131</ele>
        <time>2015-03-22T07:50:17Z</time>
      </trkpt>
      <trkpt lat="49.33672" lon="0.93947">
        <ele>131</ele>
        <time>2015-03-22T07:50:19Z</time>
      </trkpt>
      <trkpt lat="49.33675" lon="0.93956">
        <ele>131</ele>
        <time>2015-03-22T07:50:21Z</time>
      </trkpt>
      <trkpt lat="49.33676" lon="0.93965">
        <ele>131</ele>
        <time>2015-03-22T07:50:23Z</time>
      </trkpt>
      <trkpt lat="49.33679" lon="0.93974">
        <ele>131</ele>
        <time>2015-03-22T07:50:25Z</time>
      </trkpt>
      <trkpt lat="49.33681" lon="0.93983">
        <ele>131</ele>
        <time>2015-03-22T07:50:27Z</time>
      </trkpt>
      <trkpt lat="49.33685" lon="0.93992">
        <ele>131</ele>
        <time>2015-03-22T07:50:29Z</time>
      </trkpt>
      <trkpt lat="49.33688" lon="0.94">
        <ele>131</ele>
        <time>2015-03-22T07:50:31Z</time>
      </trkpt>
      <trkpt lat="49.33693" lon="0.94007">
        <ele>129</ele>
        <time>2015-03-22T07:50:33Z</time>
      </trkpt>
      <trkpt lat="49.33697" lon="0.94014">
        <ele>129</ele>
        <time>2015-03-22T07:50:35Z</time>
      </trkpt>
      <trkpt lat="49.33699" lon="0.94024">
        <ele>129</ele>
        <time>2015-03-22T07:50:37Z</time>
      </trkpt>
      <trkpt lat="49.33702" lon="0.94034">
        <ele>129</ele>
        <time>2015-03-22T07:50:39Z</time>
      </trkpt>
      <trkpt lat="49.33702" lon="0.94045">
        <ele>128</ele>
        <time>2015-03-22T07:50:41Z</time>
      </trkpt>
      <trkpt lat="49.33701" lon="0.94055">
        <ele>128</ele>
        <time>2015-03-22T07:50:43Z</time>
      </trkpt>
      <trkpt lat="49.33703" lon="0.94064">
        <ele>128</ele>
        <time>2015-03-22T07:50:45Z</time>
      </trkpt>
      <trkpt lat="49.33698" lon="0.94078">
        <ele>127</ele>
        <time>2015-03-22T07:50:47Z</time>
      </trkpt>
      <trkpt lat="49.33689" lon="0.9409">
        <ele>122</ele>
        <time>2015-03-22T07:50:49Z</time>
      </trkpt>
      <trkpt lat="49.33684" lon="0.94107">
        <ele>122</ele>
        <time>2015-03-22T07:50:51Z</time>
      </trkpt>
      <trkpt lat="49.3368" lon="0.94126">
        <ele>121</ele>
        <time>2015-03-22T07:50:53Z</time>
      </trkpt>
      <trkpt lat="49.33677" lon="0.94142">
        <ele>120</ele>
        <time>2015-03-22T07:50:55Z</time>
      </trkpt>
      <trkpt lat="49.33675" lon="0.94155">
        <ele>118</ele>
        <time>2015-03-22T07:50:57Z</time>
      </trkpt>
      <trkpt lat="49.33672" lon="0.94173">
        <ele>115</ele>
        <time>2015-03-22T07:50:59Z</time>
      </trkpt>
      <trkpt lat="49.3367" lon="0.94189">
        <ele>117</ele>
        <time>2015-03-22T07:51:01Z</time>
      </trkpt>
      <trkpt lat="49.33669" lon="0.94206">
        <ele>117</ele>
        <time>2015-03-22T07:51:03Z</time>
      </trkpt>
      <trkpt lat="49.33668" lon="0.94227">
        <ele>116</ele>
        <time>2015-03-22T07:51:05Z</time>
      </trkpt>
      <trkpt lat="49.33668" lon="0.94246">
        <ele>114</ele>
        <time>2015-03-22T07:51:07Z</time>
      </trkpt>
      <trkpt lat="49.33668" lon="0.94264">
        <ele>115</ele>
        <time>2015-03-22T07:51:09Z</time>
      </trkpt>
      <trkpt lat="49.33669" lon="0.94284">
        <ele>115</ele>
        <time>2015-03-22T07:51:11Z</time>
      </trkpt>
      <trkpt lat="49.33669" lon="0.94301">
        <ele>115</ele>
        <time>2015-03-22T07:51:13Z</time>
      </trkpt>
      <trkpt lat="49.33667" lon="0.94319">
        <ele>107</ele>
        <time>2015-03-22T07:51:15Z</time>
      </trkpt>
      <trkpt lat="49.33668" lon="0.94338">
        <ele>112</ele>
        <time>2015-03-22T07:51:17Z</time>
      </trkpt>
      <trkpt lat="49.33671" lon="0.94352">
        <ele>114</ele>
        <time>2015-03-22T07:51:19Z</time>
      </trkpt>
      <trkpt lat="49.33673" lon="0.94369">
        <ele>115</ele>
        <time>2015-03-22T07:51:21Z</time>
      </trkpt>
      <trkpt lat="49.33671" lon="0.94389">
        <ele>115</ele>
        <time>2015-03-22T07:51:23Z</time>
      </trkpt>
      <trkpt lat="49.33668" lon="0.94409">
        <ele>114</ele>
        <time>2015-03-22T07:51:25Z</time>
      </trkpt>
      <trkpt lat="49.33665" lon="0.9443">
        <ele>107</ele>
        <time>2015-03-22T07:51:27Z</time>
      </trkpt>
      <trkpt lat="49.33662" lon="0.94453">
        <ele>104</ele>
        <time>2015-03-22T07:51:29Z</time>
      </trkpt>
      <trkpt lat="49.3366" lon="0.94472">
        <ele>104</ele>
        <time>2015-03-22T07:51:31Z</time>
      </trkpt>
      <trkpt lat="49.33658" lon="0.94495">
        <ele>107</ele>
        <time>2015-03-22T07:51:33Z</time>
      </trkpt>
      <trkpt lat="49.33652" lon="0.94513">
        <ele>104</ele>
        <time>2015-03-22T07:51:35Z</time>
      </trkpt>
      <trkpt lat="49.33641" lon="0.94534">
        <ele>100</ele>
        <time>2015-03-22T07:51:37Z</time>
      </trkpt>
      <trkpt lat="49.33635" lon="0.94557">
        <ele>99</ele>
        <time>2015-03-22T07:51:39Z</time>
      </trkpt>
      <trkpt lat="49.33625" lon="0.94575">
        <ele>96</ele>
        <time>2015-03-22T07:51:41Z</time>
      </trkpt>
      <trkpt lat="49.33619" lon="0.94595">
        <ele>93</ele>
        <time>2015-03-22T07:51:43Z</time>
      </trkpt>
      <trkpt lat="49.33615" lon="0.94614">
        <ele>92</ele>
        <time>2015-03-22T07:51:45Z</time>
      </trkpt>
      <trkpt lat="49.33611" lon="0.94627">
        <ele>91</ele>
        <time>2015-03-22T07:51:47Z</time>
      </trkpt>
      <trkpt lat="49.33606" lon="0.9463">
        <ele>91</ele>
        <time>2015-03-22T07:51:49Z</time>
      </trkpt>
      <trkpt lat="49.33602" lon="0.94621">
        <ele>90</ele>
        <time>2015-03-22T07:51:51Z</time>
      </trkpt>
      <trkpt lat="49.33593" lon="0.94608">
        <ele>89</ele>
        <time>2015-03-22T07:51:53Z</time>
      </trkpt>
      <trkpt lat="49.33588" lon="0.94591">
        <ele>85</ele>
        <time>2015-03-22T07:51:55Z</time>
      </trkpt>
      <trkpt lat="49.33581" lon="0.9457">
        <ele>77</ele>
        <time>2015-03-22T07:51:57Z</time>
      </trkpt>
      <trkpt lat="49.33572" lon="0.94551">
        <ele>74</ele>
        <time>2015-03-22T07:51:59Z</time>
      </trkpt>
      <trkpt lat="49.33566" lon="0.94532">
        <ele>74</ele>
        <time>2015-03-22T07:52:01Z</time>
      </trkpt>
      <trkpt lat="49.33563" lon="0.94513">
        <ele>75</ele>
        <time>2015-03-22T07:52:03Z</time>
      </trkpt>
      <trkpt lat="49.33559" lon="0.94494">
        <ele>76</ele>
        <time>2015-03-22T07:52:05Z</time>
      </trkpt>
      <trkpt lat="49.33555" lon="0.94474">
        <ele>74</ele>
        <time>2015-03-22T07:52:07Z</time>
      </trkpt>
      <trkpt lat="49.33546" lon="0.94459">
        <ele>73</ele>
        <time>2015-03-22T07:52:09Z</time>
      </trkpt>
      <trkpt lat="49.3354" lon="0.94443">
        <ele>72</ele>
        <time>2015-03-22T07:52:11Z</time>
      </trkpt>
      <trkpt lat="49.33537" lon="0.94432">
        <ele>71</ele>
        <time>2015-03-22T07:52:13Z</time>
      </trkpt>
      <trkpt lat="49.3353" lon="0.94428">
        <ele>69</ele>
        <time>2015-03-22T07:52:17Z</time>
      </trkpt>
      <trkpt lat="49.33528" lon="0.94435">
        <ele>69</ele>
        <time>2015-03-22T07:52:19Z</time>
      </trkpt>
      <trkpt lat="49.33525" lon="0.94444">
        <ele>69</ele>
        <time>2015-03-22T07:52:21Z</time>
      </trkpt>
      <trkpt lat="49.33523" lon="0.94458">
        <ele>69</ele>
        <time>2015-03-22T07:52:23Z</time>
      </trkpt>
      <trkpt lat="49.33523" lon="0.9447">
        <ele>68</ele>
        <time>2015-03-22T07:52:25Z</time>
      </trkpt>
      <trkpt lat="49.33522" lon="0.94485">
        <ele>67</ele>
        <time>2015-03-22T07:52:27Z</time>
      </trkpt>
      <trkpt lat="49.33522" lon="0.94501">
        <ele>65</ele>
        <time>2015-03-22T07:52:29Z</time>
      </trkpt>
      <trkpt lat="49.33519" lon="0.94519">
        <ele>66</ele>
        <time>2015-03-22T07:52:31Z</time>
      </trkpt>
      <trkpt lat="49.33514" lon="0.94536">
        <ele>66</ele>
        <time>2015-03-22T07:52:33Z</time>
      </trkpt>
      <trkpt lat="49.33511" lon="0.9455">
        <ele>65</ele>
        <time>2015-03-22T07:52:35Z</time>
      </trkpt>
      <trkpt lat="49.33508" lon="0.94564">
        <ele>63</ele>
        <time>2015-03-22T07:52:37Z</time>
      </trkpt>
      <trkpt lat="49.335" lon="0.94573">
        <ele>59</ele>
        <time>2015-03-22T07:52:39Z</time>
      </trkpt>
      <trkpt lat="49.33497" lon="0.94588">
        <ele>54</ele>
        <time>2015-03-22T07:52:41Z</time>
      </trkpt>
      <trkpt lat="49.33495" lon="0.946">
        <ele>53</ele>
        <time>2015-03-22T07:52:43Z</time>
      </trkpt>
      <trkpt lat="49.33501" lon="0.94615">
        <ele>61</ele>
        <time>2015-03-22T07:52:45Z</time>
      </trkpt>
      <trkpt lat="49.33503" lon="0.94624">
        <ele>62</ele>
        <time>2015-03-22T07:52:47Z</time>
      </trkpt>
      <trkpt lat="49.33505" lon="0.94635">
        <ele>62</ele>
        <time>2015-03-22T07:52:49Z</time>
      </trkpt>
      <trkpt lat="49.33511" lon="0.94643">
        <ele>61</ele>
        <time>2015-03-22T07:52:53Z</time>
      </trkpt>
      <trkpt lat="49.33513" lon="0.94651">
        <ele>60</ele>
        <time>2015-03-22T07:52:57Z</time>
      </trkpt>
      <trkpt lat="49.33515" lon="0.94661">
        <ele>59</ele>
        <time>2015-03-22T07:53:01Z</time>
      </trkpt>
      <trkpt lat="49.33515" lon="0.94669">
        <ele>57</ele>
        <time>2015-03-22T07:53:03Z</time>
      </trkpt>
      <trkpt lat="49.33516" lon="0.94677">
        <ele>57</ele>
        <time>2015-03-22T07:53:05Z</time>
      </trkpt>
      <trkpt lat="49.33519" lon="0.94683">
        <ele>58</ele>
        <time>2015-03-22T07:53:07Z</time>
      </trkpt>
      <trkpt lat="49.33523" lon="0.94689">
        <ele>59</ele>
        <time>2015-03-22T07:53:09Z</time>
      </trkpt>
      <trkpt lat="49.33526" lon="0.94695">
        <ele>60</ele>
        <time>2015-03-22T07:53:11Z</time>
      </trkpt>
      <trkpt lat="49.33529" lon="0.94703">
        <ele>60</ele>
        <time>2015-03-22T07:53:13Z</time>
      </trkpt>
      <trkpt lat="49.33529" lon="0.9471">
        <ele>59</ele>
        <time>2015-03-22T07:53:15Z</time>
      </trkpt>
      <trkpt lat="49.33531" lon="0.94718">
        <ele>59</ele>
        <time>2015-03-22T07:53:17Z</time>
      </trkpt>
      <trkpt lat="49.33535" lon="0.94727">
        <ele>59</ele>
        <time>2015-03-22T07:53:19Z</time>
      </trkpt>
      <trkpt lat="49.33539" lon="0.94737">
        <ele>59</ele>
        <time>2015-03-22T07:53:21Z</time>
      </trkpt>
      <trkpt lat="49.33544" lon="0.94747">
        <ele>60</ele>
        <time>2015-03-22T07:53:25Z</time>
      </trkpt>
      <trkpt lat="49.33548" lon="0.94756">
        <ele>56</ele>
        <time>2015-03-22T07:53:29Z</time>
      </trkpt>
      <trkpt lat="49.33551" lon="0.94762">
        <ele>56</ele>
        <time>2015-03-22T07:53:31Z</time>
      </trkpt>
      <trkpt lat="49.33555" lon="0.94776">
        <ele>56</ele>
        <time>2015-03-22T07:53:35Z</time>
      </trkpt>
      <trkpt lat="49.33556" lon="0.94782">
        <ele>55</ele>
        <time>2015-03-22T07:53:39Z</time>
      </trkpt>
      <trkpt lat="49.33559" lon="0.94794">
        <ele>55</ele>
        <time>2015-03-22T07:53:43Z</time>
      </trkpt>
      <trkpt lat="49.33561" lon="0.94802">
        <ele>54</ele>
        <time>2015-03-22T07:53:47Z</time>
      </trkpt>
      <trkpt lat="49.33564" lon="0.94811">
        <ele>54</ele>
        <time>2015-03-22T07:53:51Z</time>
      </trkpt>
      <trkpt lat="49.33566" lon="0.94819">
        <ele>54</ele>
        <time>2015-03-22T07:53:53Z</time>
      </trkpt>
      <trkpt lat="49.33571" lon="0.94827">
        <ele>54</ele>
        <time>2015-03-22T07:53:59Z</time>
      </trkpt>
      <trkpt lat="49.33577" lon="0.94833">
        <ele>54</ele>
        <time>2015-03-22T07:54:03Z</time>
      </trkpt>
      <trkpt lat="49.33582" lon="0.94835">
        <ele>54</ele>
        <time>2015-03-22T07:54:05Z</time>
      </trkpt>
      <trkpt lat="49.33589" lon="0.94837">
        <ele>56</ele>
        <time>2015-03-22T07:54:09Z</time>
      </trkpt>
      <trkpt lat="49.33599" lon="0.9484">
        <ele>59</ele>
        <time>2015-03-22T07:54:27Z</time>
      </trkpt>
      <trkpt lat="49.33608" lon="0.94851">
        <ele>61</ele>
        <time>2015-03-22T07:54:39Z</time>
      </trkpt>
      <trkpt lat="49.33611" lon="0.94861">
        <ele>61</ele>
        <time>2015-03-22T07:54:41Z</time>
      </trkpt>
      <trkpt lat="49.33617" lon="0.9487">
        <ele>62</ele>
        <time>2015-03-22T07:54:43Z</time>
      </trkpt>
      <trkpt lat="49.33618" lon="0.94881">
        <ele>62</ele>
        <time>2015-03-22T07:54:45Z</time>
      </trkpt>
      <trkpt lat="49.33621" lon="0.94893">
        <ele>61</ele>
        <time>2015-03-22T07:54:47Z</time>
      </trkpt>
      <trkpt lat="49.33624" lon="0.94908">
        <ele>61</ele>
        <time>2015-03-22T07:54:49Z</time>
      </trkpt>
      <trkpt lat="49.33627" lon="0.9492">
        <ele>57</ele>
        <time>2015-03-22T07:54:51Z</time>
      </trkpt>
      <trkpt lat="49.33634" lon="0.94924">
        <ele>58</ele>
        <time>2015-03-22T07:54:53Z</time>
      </trkpt>
      <trkpt lat="49.33641" lon="0.94931">
        <ele>59</ele>
        <time>2015-03-22T07:54:55Z</time>
      </trkpt>
      <trkpt lat="49.33644" lon="0.94938">
        <ele>59</ele>
        <time>2015-03-22T07:54:57Z</time>
      </trkpt>
      <trkpt lat="49.33645" lon="0.94948">
        <ele>58</ele>
        <time>2015-03-22T07:54:59Z</time>
      </trkpt>
      <trkpt lat="49.33647" lon="0.9496">
        <ele>57</ele>
        <time>2015-03-22T07:55:01Z</time>
      </trkpt>
      <trkpt lat="49.33654" lon="0.94968">
        <ele>57</ele>
        <time>2015-03-22T07:55:03Z</time>
      </trkpt>
      <trkpt lat="49.33659" lon="0.94976">
        <ele>57</ele>
        <time>2015-03-22T07:55:05Z</time>
      </trkpt>
      <trkpt lat="49.33663" lon="0.94985">
        <ele>58</ele>
        <time>2015-03-22T07:55:07Z</time>
      </trkpt>
      <trkpt lat="49.33661" lon="0.94997">
        <ele>58</ele>
        <time>2015-03-22T07:55:09Z</time>
      </trkpt>
      <trkpt lat="49.33658" lon="0.95014">
        <ele>55</ele>
        <time>2015-03-22T07:55:11Z</time>
      </trkpt>
      <trkpt lat="49.33656" lon="0.9503">
        <ele>54</ele>
        <time>2015-03-22T07:55:13Z</time>
      </trkpt>
      <trkpt lat="49.33653" lon="0.95053">
        <ele>53</ele>
        <time>2015-03-22T07:55:15Z</time>
      </trkpt>
      <trkpt lat="49.33653" lon="0.9507">
        <ele>53</ele>
        <time>2015-03-22T07:55:17Z</time>
      </trkpt>
      <trkpt lat="49.3365" lon="0.95081">
        <ele>53</ele>
        <time>2015-03-22T07:55:19Z</time>
      </trkpt>
      <trkpt lat="49.33653" lon="0.95094">
        <ele>52</ele>
        <time>2015-03-22T07:55:21Z</time>
      </trkpt>
      <trkpt lat="49.33656" lon="0.95106">
        <ele>52</ele>
        <time>2015-03-22T07:55:23Z</time>
      </trkpt>
      <trkpt lat="49.3366" lon="0.95117">
        <ele>51</ele>
        <time>2015-03-22T07:55:25Z</time>
      </trkpt>
      <trkpt lat="49.33665" lon="0.95128">
        <ele>51</ele>
        <time>2015-03-22T07:55:27Z</time>
      </trkpt>
      <trkpt lat="49.33667" lon="0.95134">
        <ele>51</ele>
        <time>2015-03-22T07:55:29Z</time>
      </trkpt>
      <trkpt lat="49.3367" lon="0.95148">
        <ele>60</ele>
        <time>2015-03-22T07:55:31Z</time>
      </trkpt>
      <trkpt lat="49.33673" lon="0.95161">
        <ele>57</ele>
        <time>2015-03-22T07:55:33Z</time>
      </trkpt>
      <trkpt lat="49.33675" lon="0.95171">
        <ele>57</ele>
        <time>2015-03-22T07:55:35Z</time>
      </trkpt>
      <trkpt lat="49.33672" lon="0.95179">
        <ele>58</ele>
        <time>2015-03-22T07:55:37Z</time>
      </trkpt>
      <trkpt lat="49.33674" lon="0.95191">
        <ele>60</ele>
        <time>2015-03-22T07:55:39Z</time>
      </trkpt>
      <trkpt lat="49.33675" lon="0.95201">
        <ele>61</ele>
        <time>2015-03-22T07:55:41Z</time>
      </trkpt>
      <trkpt lat="49.33676" lon="0.95214">
        <ele>61</ele>
        <time>2015-03-22T07:55:43Z</time>
      </trkpt>
      <trkpt lat="49.33677" lon="0.95229">
        <ele>59</ele>
        <time>2015-03-22T07:55:45Z</time>
      </trkpt>
      <trkpt lat="49.33681" lon="0.95241">
        <ele>58</ele>
        <time>2015-03-22T07:55:47Z</time>
      </trkpt>
      <trkpt lat="49.33688" lon="0.95251">
        <ele>58</ele>
        <time>2015-03-22T07:55:49Z</time>
      </trkpt>
      <trkpt lat="49.33691" lon="0.95265">
        <ele>59</ele>
        <time>2015-03-22T07:55:51Z</time>
      </trkpt>
      <trkpt lat="49.33689" lon="0.95278">
        <ele>59</ele>
        <time>2015-03-22T07:55:53Z</time>
      </trkpt>
      <trkpt lat="49.33691" lon="0.95289">
        <ele>59</ele>
        <time>2015-03-22T07:55:55Z</time>
      </trkpt>
      <trkpt lat="49.33693" lon="0.95297">
        <ele>59</ele>
        <time>2015-03-22T07:55:57Z</time>
      </trkpt>
      <trkpt lat="49.33696" lon="0.95309">
        <ele>59</ele>
        <time>2015-03-22T07:55:59Z</time>
      </trkpt>
      <trkpt lat="49.33696" lon="0.95319">
        <ele>59</ele>
        <time>2015-03-22T07:56:01Z</time>
      </trkpt>
      <trkpt lat="49.33698" lon="0.95327">
        <ele>59</ele>
        <time>2015-03-22T07:56:03Z</time>
      </trkpt>
      <trkpt lat="49.33699" lon="0.95337">
        <ele>58</ele>
        <time>2015-03-22T07:56:05Z</time>
      </trkpt>
      <trkpt lat="49.33698" lon="0.95347">
        <ele>58</ele>
        <time>2015-03-22T07:56:07Z</time>
      </trkpt>
      <trkpt lat="49.33696" lon="0.95361">
        <ele>58</ele>
        <time>2015-03-22T07:56:09Z</time>
      </trkpt>
      <trkpt lat="49.33698" lon="0.95374">
        <ele>59</ele>
        <time>2015-03-22T07:56:11Z</time>
      </trkpt>
      <trkpt lat="49.33697" lon="0.95382">
        <ele>58</ele>
        <time>2015-03-22T07:56:13Z</time>
      </trkpt>
      <trkpt lat="49.33693" lon="0.95394">
        <ele>58</ele>
        <time>2015-03-22T07:56:15Z</time>
      </trkpt>
      <trkpt lat="49.33688" lon="0.95407">
        <ele>56</ele>
        <time>2015-03-22T07:56:17Z</time>
      </trkpt>
      <trkpt lat="49.33687" lon="0.95419">
        <ele>57</ele>
        <time>2015-03-22T07:56:19Z</time>
      </trkpt>
      <trkpt lat="49.33681" lon="0.95426">
        <ele>56</ele>
        <time>2015-03-22T07:56:21Z</time>
      </trkpt>
      <trkpt lat="49.33681" lon="0.95436">
        <ele>57</ele>
        <time>2015-03-22T07:56:23Z</time>
      </trkpt>
      <trkpt lat="49.33677" lon="0.95447">
        <ele>58</ele>
        <time>2015-03-22T07:56:25Z</time>
      </trkpt>
      <trkpt lat="49.33674" lon="0.9546">
        <ele>58</ele>
        <time>2015-03-22T07:56:27Z</time>
      </trkpt>
      <trkpt lat="49.33678" lon="0.95466">
        <ele>58</ele>
        <time>2015-03-22T07:56:29Z</time>
      </trkpt>
      <trkpt lat="49.33673" lon="0.95478">
        <ele>57</ele>
        <time>2015-03-22T07:56:31Z</time>
      </trkpt>
      <trkpt lat="49.33672" lon="0.95487">
        <ele>56</ele>
        <time>2015-03-22T07:56:33Z</time>
      </trkpt>
      <trkpt lat="49.33671" lon="0.95497">
        <ele>54</ele>
        <time>2015-03-22T07:56:35Z</time>
      </trkpt>
      <trkpt lat="49.33667" lon="0.95509">
        <ele>56</ele>
        <time>2015-03-22T07:56:37Z</time>
      </trkpt>
      <trkpt lat="49.33664" lon="0.95519">
        <ele>52</ele>
        <time>2015-03-22T07:56:39Z</time>
      </trkpt>
      <trkpt lat="49.33661" lon="0.95531">
        <ele>52</ele>
        <time>2015-03-22T07:56:41Z</time>
      </trkpt>
      <trkpt lat="49.33658" lon="0.95542">
        <ele>52</ele>
        <time>2015-03-22T07:56:43Z</time>
      </trkpt>
      <trkpt lat="49.33653" lon="0.9555">
        <ele>52</ele>
        <time>2015-03-22T07:56:45Z</time>
      </trkpt>
      <trkpt lat="49.3365" lon="0.95559">
        <ele>52</ele>
        <time>2015-03-22T07:56:47Z</time>
      </trkpt>
      <trkpt lat="49.33648" lon="0.9557">
        <ele>53</ele>
        <time>2015-03-22T07:56:49Z</time>
      </trkpt>
      <trkpt lat="49.33645" lon="0.95581">
        <ele>53</ele>
        <time>2015-03-22T07:56:51Z</time>
      </trkpt>
      <trkpt lat="49.33642" lon="0.95593">
        <ele>52</ele>
        <time>2015-03-22T07:56:53Z</time>
      </trkpt>
      <trkpt lat="49.33641" lon="0.95604">
        <ele>52</ele>
        <time>2015-03-22T07:56:55Z</time>
      </trkpt>
      <trkpt lat="49.33639" lon="0.95613">
        <ele>51</ele>
        <time>2015-03-22T07:56:57Z</time>
      </trkpt>
      <trkpt lat="49.33639" lon="0.95625">
        <ele>51</ele>
        <time>2015-03-22T07:57:01Z</time>
      </trkpt>
      <trkpt lat="49.33639" lon="0.95637">
        <ele>51</ele>
        <time>2015-03-22T07:57:05Z</time>
      </trkpt>
      <trkpt lat="49.33639" lon="0.95646">
        <ele>52</ele>
        <time>2015-03-22T07:57:07Z</time>
      </trkpt>
      <trkpt lat="49.33638" lon="0.95654">
        <ele>52</ele>
        <time>2015-03-22T07:57:09Z</time>
      </trkpt>
      <trkpt lat="49.33637" lon="0.95669">
        <ele>52</ele>
        <time>2015-03-22T07:57:13Z</time>
      </trkpt>
      <trkpt lat="49.33639" lon="0.95681">
        <ele>52</ele>
        <time>2015-03-22T07:57:15Z</time>
      </trkpt>
      <trkpt lat="49.33639" lon="0.95692">
        <ele>52</ele>
        <time>2015-03-22T07:57:17Z</time>
      </trkpt>
      <trkpt lat="49.33639" lon="0.95701">
        <ele>52</ele>
        <time>2015-03-22T07:57:19Z</time>
      </trkpt>
      <trkpt lat="49.33638" lon="0.95711">
        <ele>52</ele>
        <time>2015-03-22T07:57:21Z</time>
      </trkpt>
      <trkpt lat="49.33639" lon="0.95719">
        <ele>52</ele>
        <time>2015-03-22T07:57:23Z</time>
      </trkpt>
      <trkpt lat="49.3364" lon="0.95728">
        <ele>52</ele>
        <time>2015-03-22T07:57:25Z</time>
      </trkpt>
      <trkpt lat="49.33641" lon="0.95738">
        <ele>52</ele>
        <time>2015-03-22T07:57:27Z</time>
      </trkpt>
      <trkpt lat="49.33643" lon="0.95747">
        <ele>52</ele>
        <time>2015-03-22T07:57:29Z</time>
      </trkpt>
      <trkpt lat="49.33643" lon="0.95759">
        <ele>53</ele>
        <time>2015-03-22T07:57:31Z</time>
      </trkpt>
      <trkpt lat="49.33645" lon="0.95769">
        <ele>53</ele>
        <time>2015-03-22T07:57:33Z</time>
      </trkpt>
      <trkpt lat="49.33645" lon="0.95781">
        <ele>53</ele>
        <time>2015-03-22T07:57:35Z</time>
      </trkpt>
      <trkpt lat="49.33644" lon="0.95791">
        <ele>54</ele>
        <time>2015-03-22T07:57:37Z</time>
      </trkpt>
      <trkpt lat="49.33643" lon="0.95803">
        <ele>54</ele>
        <time>2015-03-22T07:57:39Z</time>
      </trkpt>
      <trkpt lat="49.33642" lon="0.95814">
        <ele>54</ele>
        <time>2015-03-22T07:57:41Z</time>
      </trkpt>
      <trkpt lat="49.33644" lon="0.95825">
        <ele>54</ele>
        <time>2015-03-22T07:57:45Z</time>
      </trkpt>
      <trkpt lat="49.3365" lon="0.9583">
        <ele>55</ele>
        <time>2015-03-22T07:57:49Z</time>
      </trkpt>
      <trkpt lat="49.33654" lon="0.95836">
        <ele>57</ele>
        <time>2015-03-22T07:57:53Z</time>
      </trkpt>
      <trkpt lat="49.33661" lon="0.95843">
        <ele>57</ele>
        <time>2015-03-22T07:57:57Z</time>
      </trkpt>
      <trkpt lat="49.33671" lon="0.95841">
        <ele>59</ele>
        <time>2015-03-22T07:58:01Z</time>
      </trkpt>
      <trkpt lat="49.33678" lon="0.95841">
        <ele>60</ele>
        <time>2015-03-22T07:58:05Z</time>
      </trkpt>
      <trkpt lat="49.33683" lon="0.95847">
        <ele>61</ele>
        <time>2015-03-22T07:58:11Z</time>
      </trkpt>
      <trkpt lat="49.33687" lon="0.95849">
        <ele>62</ele>
        <time>2015-03-22T07:58:15Z</time>
      </trkpt>
      <trkpt lat="49.33694" lon="0.95858">
        <ele>63</ele>
        <time>2015-03-22T07:58:19Z</time>
      </trkpt>
      <trkpt lat="49.33697" lon="0.95864">
        <ele>64</ele>
        <time>2015-03-22T07:58:21Z</time>
      </trkpt>
      <trkpt lat="49.33705" lon="0.95868">
        <ele>64</ele>
        <time>2015-03-22T07:58:25Z</time>
      </trkpt>
      <trkpt lat="49.33708" lon="0.95873">
        <ele>65</ele>
        <time>2015-03-22T07:58:31Z</time>
      </trkpt>
      <trkpt lat="49.33711" lon="0.95882">
        <ele>65</ele>
        <time>2015-03-22T07:58:33Z</time>
      </trkpt>
      <trkpt lat="49.33712" lon="0.9589">
        <ele>65</ele>
        <time>2015-03-22T07:58:35Z</time>
      </trkpt>
      <trkpt lat="49.3371" lon="0.95897">
        <ele>65</ele>
        <time>2015-03-22T07:58:37Z</time>
      </trkpt>
      <trkpt lat="49.33711" lon="0.95905">
        <ele>66</ele>
        <time>2015-03-22T07:58:41Z</time>
      </trkpt>
      <trkpt lat="49.33717" lon="0.95907">
        <ele>66</ele>
        <time>2015-03-22T07:58:45Z</time>
      </trkpt>
      <trkpt lat="49.33723" lon="0.95909">
        <ele>66</ele>
        <time>2015-03-22T07:58:49Z</time>
      </trkpt>
      <trkpt lat="49.33729" lon="0.95916">
        <ele>67</ele>
        <time>2015-03-22T07:58:53Z</time>
      </trkpt>
      <trkpt lat="49.33733" lon="0.95921">
        <ele>69</ele>
        <time>2015-03-22T07:58:55Z</time>
      </trkpt>
      <trkpt lat="49.33737" lon="0.95928">
        <ele>69</ele>
        <time>2015-03-22T07:58:57Z</time>
      </trkpt>
      <trkpt lat="49.33741" lon="0.95935">
        <ele>70</ele>
        <time>2015-03-22T07:58:59Z</time>
      </trkpt>
      <trkpt lat="49.33742" lon="0.95943">
        <ele>70</ele>
        <time>2015-03-22T07:59:01Z</time>
      </trkpt>
      <trkpt lat="49.33745" lon="0.95949">
        <ele>70</ele>
        <time>2015-03-22T07:59:03Z</time>
      </trkpt>
      <trkpt lat="49.33746" lon="0.95957">
        <ele>70</ele>
        <time>2015-03-22T07:59:05Z</time>
      </trkpt>
      <trkpt lat="49.33743" lon="0.95965">
        <ele>70</ele>
        <time>2015-03-22T07:59:07Z</time>
      </trkpt>
      <trkpt lat="49.33741" lon="0.95973">
        <ele>71</ele>
        <time>2015-03-22T07:59:09Z</time>
      </trkpt>
      <trkpt lat="49.33742" lon="0.95986">
        <ele>71</ele>
        <time>2015-03-22T07:59:13Z</time>
      </trkpt>
      <trkpt lat="49.33749" lon="0.95989">
        <ele>71</ele>
        <time>2015-03-22T07:59:17Z</time>
      </trkpt>
      <trkpt lat="49.33756" lon="0.95991">
        <ele>73</ele>
        <time>2015-03-22T07:59:19Z</time>
      </trkpt>
      <trkpt lat="49.33761" lon="0.95996">
        <ele>73</ele>
        <time>2015-03-22T07:59:21Z</time>
      </trkpt>
      <trkpt lat="49.33766" lon="0.96001">
        <ele>75</ele>
        <time>2015-03-22T07:59:23Z</time>
      </trkpt>
      <trkpt lat="49.33771" lon="0.96008">
        <ele>75</ele>
        <time>2015-03-22T07:59:25Z</time>
      </trkpt>
      <trkpt lat="49.33775" lon="0.96014">
        <ele>76</ele>
        <time>2015-03-22T07:59:27Z</time>
      </trkpt>
      <trkpt lat="49.33781" lon="0.96022">
        <ele>77</ele>
        <time>2015-03-22T07:59:31Z</time>
      </trkpt>
      <trkpt lat="49.33786" lon="0.96027">
        <ele>77</ele>
        <time>2015-03-22T07:59:33Z</time>
      </trkpt>
      <trkpt lat="49.3379" lon="0.96034">
        <ele>77</ele>
        <time>2015-03-22T07:59:35Z</time>
      </trkpt>
      <trkpt lat="49.33795" lon="0.96039">
        <ele>78</ele>
        <time>2015-03-22T07:59:37Z</time>
      </trkpt>
      <trkpt lat="49.33802" lon="0.96045">
        <ele>78</ele>
        <time>2015-03-22T07:59:41Z</time>
      </trkpt>
      <trkpt lat="49.33809" lon="0.96052">
        <ele>78</ele>
        <time>2015-03-22T07:59:45Z</time>
      </trkpt>
      <trkpt lat="49.33813" lon="0.96055">
        <ele>79</ele>
        <time>2015-03-22T07:59:47Z</time>
      </trkpt>
      <trkpt lat="49.33816" lon="0.9606">
        <ele>79</ele>
        <time>2015-03-22T07:59:49Z</time>
      </trkpt>
      <trkpt lat="49.3382" lon="0.96065">
        <ele>79</ele>
        <time>2015-03-22T07:59:51Z</time>
      </trkpt>
      <trkpt lat="49.33826" lon="0.96072">
        <ele>80</ele>
        <time>2015-03-22T07:59:55Z</time>
      </trkpt>
      <trkpt lat="49.33834" lon="0.96078">
        <ele>81</ele>
        <time>2015-03-22T07:59:59Z</time>
      </trkpt>
      <trkpt lat="49.33838" lon="0.96085">
        <ele>82</ele>
        <time>2015-03-22T08:00:03Z</time>
      </trkpt>
      <trkpt lat="49.33843" lon="0.9609">
        <ele>83</ele>
        <time>2015-03-22T08:00:07Z</time>
      </trkpt>
      <trkpt lat="49.33848" lon="0.96093">
        <ele>83</ele>
        <time>2015-03-22T08:00:09Z</time>
      </trkpt>
      <trkpt lat="49.33852" lon="0.961">
        <ele>84</ele>
        <time>2015-03-22T08:00:13Z</time>
      </trkpt>
      <trkpt lat="49.33855" lon="0.96107">
        <ele>84</ele>
        <time>2015-03-22T08:00:17Z</time>
      </trkpt>
      <trkpt lat="49.3386" lon="0.96113">
        <ele>84</ele>
        <time>2015-03-22T08:00:21Z</time>
      </trkpt>
      <trkpt lat="49.33863" lon="0.96119">
        <ele>85</ele>
        <time>2015-03-22T08:00:23Z</time>
      </trkpt>
      <trkpt lat="49.33867" lon="0.96124">
        <ele>85</ele>
        <time>2015-03-22T08:00:25Z</time>
      </trkpt>
      <trkpt lat="49.33868" lon="0.96133">
        <ele>85</ele>
        <time>2015-03-22T08:00:29Z</time>
      </trkpt>
      <trkpt lat="49.33865" lon="0.96144">
        <ele>85</ele>
        <time>2015-03-22T08:00:33Z</time>
      </trkpt>
      <trkpt lat="49.33863" lon="0.9615">
        <ele>85</ele>
        <time>2015-03-22T08:00:35Z</time>
      </trkpt>
      <trkpt lat="49.33863" lon="0.96158">
        <ele>85</ele>
        <time>2015-03-22T08:00:39Z</time>
      </trkpt>
      <trkpt lat="49.33861" lon="0.96168">
        <ele>88</ele>
        <time>2015-03-22T08:00:43Z</time>
      </trkpt>
      <trkpt lat="49.33859" lon="0.96181">
        <ele>88</ele>
        <time>2015-03-22T08:00:47Z</time>
      </trkpt>
      <trkpt lat="49.33857" lon="0.96192">
        <ele>88</ele>
        <time>2015-03-22T08:00:51Z</time>
      </trkpt>
      <trkpt lat="49.33855" lon="0.96205">
        <ele>88</ele>
        <time>2015-03-22T08:00:55Z</time>
      </trkpt>
      <trkpt lat="49.33855" lon="0.96212">
        <ele>88</ele>
        <time>2015-03-22T08:01:05Z</time>
      </trkpt>
      <trkpt lat="49.33849" lon="0.96214">
        <ele>89</ele>
        <time>2015-03-22T08:01:18Z</time>
      </trkpt>
      <trkpt lat="49.33844" lon="0.96217">
        <ele>89</ele>
        <time>2015-03-22T08:01:20Z</time>
      </trkpt>
      <trkpt lat="49.33837" lon="0.96223">
        <ele>89</ele>
        <time>2015-03-22T08:01:24Z</time>
      </trkpt>
      <trkpt lat="49.33832" lon="0.96227">
        <ele>89</ele>
        <time>2015-03-22T08:01:26Z</time>
      </trkpt>
      <trkpt lat="49.33826" lon="0.96234">
        <ele>89</ele>
        <time>2015-03-22T08:01:28Z</time>
      </trkpt>
      <trkpt lat="49.3382" lon="0.96243">
        <ele>89</ele>
        <time>2015-03-22T08:01:30Z</time>
      </trkpt>
      <trkpt lat="49.33816" lon="0.96248">
        <ele>89</ele>
        <time>2015-03-22T08:01:32Z</time>
      </trkpt>
      <trkpt lat="49.33811" lon="0.96251">
        <ele>93</ele>
        <time>2015-03-22T08:01:34Z</time>
      </trkpt>
      <trkpt lat="49.33806" lon="0.96256">
        <ele>93</ele>
        <time>2015-03-22T08:01:36Z</time>
      </trkpt>
      <trkpt lat="49.33802" lon="0.96265">
        <ele>94</ele>
        <time>2015-03-22T08:01:38Z</time>
      </trkpt>
      <trkpt lat="49.33796" lon="0.96269">
        <ele>94</ele>
        <time>2015-03-22T08:01:40Z</time>
      </trkpt>
      <trkpt lat="49.33788" lon="0.96275">
        <ele>95</ele>
        <time>2015-03-22T08:01:42Z</time>
      </trkpt>
      <trkpt lat="49.3378" lon="0.96279">
        <ele>95</ele>
        <time>2015-03-22T08:01:44Z</time>
      </trkpt>
      <trkpt lat="49.33772" lon="0.96281">
        <ele>95</ele>
        <time>2015-03-22T08:01:46Z</time>
      </trkpt>
      <trkpt lat="49.33763" lon="0.96283">
        <ele>95</ele>
        <time>2015-03-22T08:01:48Z</time>
      </trkpt>
      <trkpt lat="49.33753" lon="0.96285">
        <ele>95</ele>
        <time>2015-03-22T08:01:50Z</time>
      </trkpt>
      <trkpt lat="49.33744" lon="0.96286">
        <ele>94</ele>
        <time>2015-03-22T08:01:52Z</time>
      </trkpt>
      <trkpt lat="49.33734" lon="0.9629">
        <ele>94</ele>
        <time>2015-03-22T08:01:54Z</time>
      </trkpt>
      <trkpt lat="49.33724" lon="0.96292">
        <ele>94</ele>
        <time>2015-03-22T08:01:56Z</time>
      </trkpt>
      <trkpt lat="49.33713" lon="0.96291">
        <ele>93</ele>
        <time>2015-03-22T08:01:58Z</time>
      </trkpt>
      <trkpt lat="49.33704" lon="0.96291">
        <ele>93</ele>
        <time>2015-03-22T08:02:00Z</time>
      </trkpt>
      <trkpt lat="49.33692" lon="0.96295">
        <ele>93</ele>
        <time>2015-03-22T08:02:02Z</time>
      </trkpt>
      <trkpt lat="49.33684" lon="0.96298">
        <ele>93</ele>
        <time>2015-03-22T08:02:04Z</time>
      </trkpt>
      <trkpt lat="49.33677" lon="0.963">
        <ele>93</ele>
        <time>2015-03-22T08:02:06Z</time>
      </trkpt>
      <trkpt lat="49.33668" lon="0.96303">
        <ele>93</ele>
        <time>2015-03-22T08:02:08Z</time>
      </trkpt>
      <trkpt lat="49.33659" lon="0.96307">
        <ele>89</ele>
        <time>2015-03-22T08:02:10Z</time>
      </trkpt>
      <trkpt lat="49.3365" lon="0.96314">
        <ele>89</ele>
        <time>2015-03-22T08:02:12Z</time>
      </trkpt>
      <trkpt lat="49.3364" lon="0.96323">
        <ele>88</ele>
        <time>2015-03-22T08:02:14Z</time>
      </trkpt>
      <trkpt lat="49.33632" lon="0.96333">
        <ele>88</ele>
        <time>2015-03-22T08:02:16Z</time>
      </trkpt>
      <trkpt lat="49.33625" lon="0.96344">
        <ele>87</ele>
        <time>2015-03-22T08:02:18Z</time>
      </trkpt>
      <trkpt lat="49.33618" lon="0.96357">
        <ele>86</ele>
        <time>2015-03-22T08:02:20Z</time>
      </trkpt>
      <trkpt lat="49.33609" lon="0.96367">
        <ele>85</ele>
        <time>2015-03-22T08:02:22Z</time>
      </trkpt>
      <trkpt lat="49.33602" lon="0.96377">
        <ele>85</ele>
        <time>2015-03-22T08:02:24Z</time>
      </trkpt>
      <trkpt lat="49.33599" lon="0.96389">
        <ele>84</ele>
        <time>2015-03-22T08:02:26Z</time>
      </trkpt>
      <trkpt lat="49.33597" lon="0.96405">
        <ele>82</ele>
        <time>2015-03-22T08:02:28Z</time>
      </trkpt>
      <trkpt lat="49.33595" lon="0.96425">
        <ele>80</ele>
        <time>2015-03-22T08:02:30Z</time>
      </trkpt>
      <trkpt lat="49.33594" lon="0.96443">
        <ele>81</ele>
        <time>2015-03-22T08:02:32Z</time>
      </trkpt>
      <trkpt lat="49.33592" lon="0.9646">
        <ele>81</ele>
        <time>2015-03-22T08:02:34Z</time>
      </trkpt>
      <trkpt lat="49.33594" lon="0.9648">
        <ele>80</ele>
        <time>2015-03-22T08:02:36Z</time>
      </trkpt>
      <trkpt lat="49.33592" lon="0.96494">
        <ele>77</ele>
        <time>2015-03-22T08:02:38Z</time>
      </trkpt>
      <trkpt lat="49.3359" lon="0.96503">
        <ele>76</ele>
        <time>2015-03-22T08:02:40Z</time>
      </trkpt>
      <trkpt lat="49.33591" lon="0.96514">
        <ele>77</ele>
        <time>2015-03-22T08:02:42Z</time>
      </trkpt>
      <trkpt lat="49.33593" lon="0.96526">
        <ele>78</ele>
        <time>2015-03-22T08:02:44Z</time>
      </trkpt>
      <trkpt lat="49.33592" lon="0.96537">
        <ele>78</ele>
        <time>2015-03-22T08:02:46Z</time>
      </trkpt>
      <trkpt lat="49.33589" lon="0.96553">
        <ele>77</ele>
        <time>2015-03-22T08:02:48Z</time>
      </trkpt>
      <trkpt lat="49.33586" lon="0.96571">
        <ele>74</ele>
        <time>2015-03-22T08:02:50Z</time>
      </trkpt>
      <trkpt lat="49.33587" lon="0.96591">
        <ele>72</ele>
        <time>2015-03-22T08:02:52Z</time>
      </trkpt>
      <trkpt lat="49.33588" lon="0.9661">
        <ele>76</ele>
        <time>2015-03-22T08:02:54Z</time>
      </trkpt>
      <trkpt lat="49.33589" lon="0.96628">
        <ele>76</ele>
        <time>2015-03-22T08:02:56Z</time>
      </trkpt>
      <trkpt lat="49.33589" lon="0.96644">
        <ele>75</ele>
        <time>2015-03-22T08:02:58Z</time>
      </trkpt>
      <trkpt lat="49.33588" lon="0.96657">
        <ele>73</ele>
        <time>2015-03-22T08:03:00Z</time>
      </trkpt>
      <trkpt lat="49.33584" lon="0.96663">
        <ele>70</ele>
        <time>2015-03-22T08:03:02Z</time>
      </trkpt>
      <trkpt lat="49.33585" lon="0.96678">
        <ele>73</ele>
        <time>2015-03-22T08:03:04Z</time>
      </trkpt>
      <trkpt lat="49.33585" lon="0.9669">
        <ele>75</ele>
        <time>2015-03-22T08:03:06Z</time>
      </trkpt>
      <trkpt lat="49.33583" lon="0.96703">
        <ele>76</ele>
        <time>2015-03-22T08:03:08Z</time>
      </trkpt>
      <trkpt lat="49.33582" lon="0.96714">
        <ele>61</ele>
        <time>2015-03-22T08:03:10Z</time>
      </trkpt>
      <trkpt lat="49.33579" lon="0.96729">
        <ele>62</ele>
        <time>2015-03-22T08:03:12Z</time>
      </trkpt>
      <trkpt lat="49.33576" lon="0.96746">
        <ele>65</ele>
        <time>2015-03-22T08:03:14Z</time>
      </trkpt>
      <trkpt lat="49.33572" lon="0.96763">
        <ele>63</ele>
        <time>2015-03-22T08:03:16Z</time>
      </trkpt>
      <trkpt lat="49.33566" lon="0.96779">
        <ele>61</ele>
        <time>2015-03-22T08:03:18Z</time>
      </trkpt>
      <trkpt lat="49.33562" lon="0.96792">
        <ele>60</ele>
        <time>2015-03-22T08:03:20Z</time>
      </trkpt>
      <trkpt lat="49.33554" lon="0.96804">
        <ele>59</ele>
        <time>2015-03-22T08:03:22Z</time>
      </trkpt>
      <trkpt lat="49.33546" lon="0.96814">
        <ele>58</ele>
        <time>2015-03-22T08:03:24Z</time>
      </trkpt>
      <trkpt lat="49.33542" lon="0.96831">
        <ele>57</ele>
        <time>2015-03-22T08:03:26Z</time>
      </trkpt>
      <trkpt lat="49.33538" lon="0.96851">
        <ele>58</ele>
        <time>2015-03-22T08:03:28Z</time>
      </trkpt>
      <trkpt lat="49.33537" lon="0.96864">
        <ele>58</ele>
        <time>2015-03-22T08:03:30Z</time>
      </trkpt>
      <trkpt lat="49.33535" lon="0.96875">
        <ele>58</ele>
        <time>2015-03-22T08:03:32Z</time>
      </trkpt>
      <trkpt lat="49.3353" lon="0.96889">
        <ele>57</ele>
        <time>2015-03-22T08:03:34Z</time>
      </trkpt>
      <trkpt lat="49.33526" lon="0.969">
        <ele>56</ele>
        <time>2015-03-22T08:03:36Z</time>
      </trkpt>
      <trkpt lat="49.33523" lon="0.96914">
        <ele>55</ele>
        <time>2015-03-22T08:03:38Z</time>
      </trkpt>
      <trkpt lat="49.33519" lon="0.96928">
        <ele>55</ele>
        <time>2015-03-22T08:03:40Z</time>
      </trkpt>
      <trkpt lat="49.33514" lon="0.96943">
        <ele>56</ele>
        <time>2015-03-22T08:03:42Z</time>
      </trkpt>
      <trkpt lat="49.33508" lon="0.96963">
        <ele>56</ele>
        <time>2015-03-22T08:03:44Z</time>
      </trkpt>
      <trkpt lat="49.33502" lon="0.96982">
        <ele>54</ele>
        <time>2015-03-22T08:03:46Z</time>
      </trkpt>
      <trkpt lat="49.33495" lon="0.96999">
        <ele>49</ele>
        <time>2015-03-22T08:03:48Z</time>
      </trkpt>
      <trkpt lat="49.33489" lon="0.97014">
        <ele>49</ele>
        <time>2015-03-22T08:03:50Z</time>
      </trkpt>
      <trkpt lat="49.33481" lon="0.97024">
        <ele>49</ele>
        <time>2015-03-22T08:03:52Z</time>
      </trkpt>
      <trkpt lat="49.33474" lon="0.9703">
        <ele>49</ele>
        <time>2015-03-22T08:03:54Z</time>
      </trkpt>
      <trkpt lat="49.33467" lon="0.9704">
        <ele>49</ele>
        <time>2015-03-22T08:03:56Z</time>
      </trkpt>
      <trkpt lat="49.33462" lon="0.97044">
        <ele>49</ele>
        <time>2015-03-22T08:03:58Z</time>
      </trkpt>
      <trkpt lat="49.33455" lon="0.97045">
        <ele>49</ele>
        <time>2015-03-22T08:04:00Z</time>
      </trkpt>
      <trkpt lat="49.33452" lon="0.97051">
        <ele>49</ele>
        <time>2015-03-22T08:04:02Z</time>
      </trkpt>
      <trkpt lat="49.33452" lon="0.97059">
        <ele>49</ele>
        <time>2015-03-22T08:04:04Z</time>
      </trkpt>
      <trkpt lat="49.33454" lon="0.97071">
        <ele>49</ele>
        <time>2015-03-22T08:04:06Z</time>
      </trkpt>
      <trkpt lat="49.33453" lon="0.97083">
        <ele>49</ele>
        <time>2015-03-22T08:04:08Z</time>
      </trkpt>
      <trkpt lat="49.33448" lon="0.97092">
        <ele>49</ele>
        <time>2015-03-22T08:04:10Z</time>
      </trkpt>
      <trkpt lat="49.33442" lon="0.97102">
        <ele>49</ele>
        <time>2015-03-22T08:04:12Z</time>
      </trkpt>
      <trkpt lat="49.33438" lon="0.97117">
        <ele>49</ele>
        <time>2015-03-22T08:04:14Z</time>
      </trkpt>
      <trkpt lat="49.33435" lon="0.97129">
        <ele>49</ele>
        <time>2015-03-22T08:04:16Z</time>
      </trkpt>
      <trkpt lat="49.33432" lon="0.97137">
        <ele>49</ele>
        <time>2015-03-22T08:04:18Z</time>
      </trkpt>
      <trkpt lat="49.33428" lon="0.97148">
        <ele>49</ele>
        <time>2015-03-22T08:04:20Z</time>
      </trkpt>
      <trkpt lat="49.33424" lon="0.97153">
        <ele>48</ele>
        <time>2015-03-22T08:04:22Z</time>
      </trkpt>
      <trkpt lat="49.33418" lon="0.97168">
        <ele>47</ele>
        <time>2015-03-22T08:04:26Z</time>
      </trkpt>
      <trkpt lat="49.33414" lon="0.9718">
        <ele>46</ele>
        <time>2015-03-22T08:04:28Z</time>
      </trkpt>
      <trkpt lat="49.33413" lon="0.97188">
        <ele>46</ele>
        <time>2015-03-22T08:04:30Z</time>
      </trkpt>
      <trkpt lat="49.33409" lon="0.97193">
        <ele>46</ele>
        <time>2015-03-22T08:04:32Z</time>
      </trkpt>
      <trkpt lat="49.33401" lon="0.97194">
        <ele>46</ele>
        <time>2015-03-22T08:04:34Z</time>
      </trkpt>
      <trkpt lat="49.33392" lon="0.97202">
        <ele>46</ele>
        <time>2015-03-22T08:04:36Z</time>
      </trkpt>
      <trkpt lat="49.33385" lon="0.9721">
        <ele>46</ele>
        <time>2015-03-22T08:04:38Z</time>
      </trkpt>
      <trkpt lat="49.33375" lon="0.97219">
        <ele>46</ele>
        <time>2015-03-22T08:04:42Z</time>
      </trkpt>
      <trkpt lat="49.33371" lon="0.97218">
        <ele>46</ele>
        <time>2015-03-22T08:04:48Z</time>
      </trkpt>
      <trkpt lat="49.33366" lon="0.9721">
        <ele>46</ele>
        <time>2015-03-22T08:04:50Z</time>
      </trkpt>
      <trkpt lat="49.33362" lon="0.972">
        <ele>45</ele>
        <time>2015-03-22T08:04:52Z</time>
      </trkpt>
      <trkpt lat="49.33353" lon="0.97193">
        <ele>45</ele>
        <time>2015-03-22T08:04:54Z</time>
      </trkpt>
      <trkpt lat="49.33348" lon="0.97188">
        <ele>44</ele>
        <time>2015-03-22T08:04:56Z</time>
      </trkpt>
      <trkpt lat="49.33342" lon="0.97182">
        <ele>44</ele>
        <time>2015-03-22T08:04:58Z</time>
      </trkpt>
      <trkpt lat="49.33335" lon="0.97181">
        <ele>44</ele>
        <time>2015-03-22T08:05:00Z</time>
      </trkpt>
      <trkpt lat="49.33328" lon="0.97186">
        <ele>43</ele>
        <time>2015-03-22T08:05:02Z</time>
      </trkpt>
      <trkpt lat="49.3332" lon="0.97189">
        <ele>43</ele>
        <time>2015-03-22T08:05:04Z</time>
      </trkpt>
      <trkpt lat="49.33311" lon="0.97192">
        <ele>43</ele>
        <time>2015-03-22T08:05:06Z</time>
      </trkpt>
      <trkpt lat="49.333" lon="0.97195">
        <ele>43</ele>
        <time>2015-03-22T08:05:08Z</time>
      </trkpt>
      <trkpt lat="49.3329" lon="0.97197">
        <ele>43</ele>
        <time>2015-03-22T08:05:10Z</time>
      </trkpt>
      <trkpt lat="49.33281" lon="0.97198">
        <ele>43</ele>
        <time>2015-03-22T08:05:12Z</time>
      </trkpt>
      <trkpt lat="49.33272" lon="0.97199">
        <ele>44</ele>
        <time>2015-03-22T08:05:14Z</time>
      </trkpt>
      <trkpt lat="49.33266" lon="0.97201">
        <ele>44</ele>
        <time>2015-03-22T08:05:16Z</time>
      </trkpt>
      <trkpt lat="49.33258" lon="0.97205">
        <ele>43</ele>
        <time>2015-03-22T08:05:18Z</time>
      </trkpt>
      <trkpt lat="49.33254" lon="0.97211">
        <ele>43</ele>
        <time>2015-03-22T08:05:20Z</time>
      </trkpt>
      <trkpt lat="49.3325" lon="0.97219">
        <ele>43</ele>
        <time>2015-03-22T08:05:22Z</time>
      </trkpt>
      <trkpt lat="49.33247" lon="0.97232">
        <ele>44</ele>
        <time>2015-03-22T08:05:24Z</time>
      </trkpt>
      <trkpt lat="49.33245" lon="0.97251">
        <ele>41</ele>
        <time>2015-03-22T08:05:26Z</time>
      </trkpt>
      <trkpt lat="49.33236" lon="0.97265">
        <ele>40</ele>
        <time>2015-03-22T08:05:28Z</time>
      </trkpt>
      <trkpt lat="49.33231" lon="0.97281">
        <ele>39</ele>
        <time>2015-03-22T08:05:30Z</time>
      </trkpt>
      <trkpt lat="49.33225" lon="0.97299">
        <ele>38</ele>
        <time>2015-03-22T08:05:32Z</time>
      </trkpt>
      <trkpt lat="49.3322" lon="0.9732">
        <ele>38</ele>
        <time>2015-03-22T08:05:34Z</time>
      </trkpt>
      <trkpt lat="49.33209" lon="0.9734">
        <ele>36</ele>
        <time>2015-03-22T08:05:36Z</time>
      </trkpt>
      <trkpt lat="49.33196" lon="0.9736">
        <ele>36</ele>
        <time>2015-03-22T08:05:38Z</time>
      </trkpt>
      <trkpt lat="49.33182" lon="0.97376">
        <ele>36</ele>
        <time>2015-03-22T08:05:40Z</time>
      </trkpt>
      <trkpt lat="49.33169" lon="0.97391">
        <ele>36</ele>
        <time>2015-03-22T08:05:42Z</time>
      </trkpt>
      <trkpt lat="49.33155" lon="0.97404">
        <ele>34</ele>
        <time>2015-03-22T08:05:44Z</time>
      </trkpt>
      <trkpt lat="49.33143" lon="0.97414">
        <ele>34</ele>
        <time>2015-03-22T08:05:46Z</time>
      </trkpt>
      <trkpt lat="49.33132" lon="0.97425">
        <ele>35</ele>
        <time>2015-03-22T08:05:48Z</time>
      </trkpt>
      <trkpt lat="49.33123" lon="0.97434">
        <ele>35</ele>
        <time>2015-03-22T08:05:50Z</time>
      </trkpt>
      <trkpt lat="49.33112" lon="0.97444">
        <ele>35</ele>
        <time>2015-03-22T08:05:52Z</time>
      </trkpt>
      <trkpt lat="49.331" lon="0.97456">
        <ele>35</ele>
        <time>2015-03-22T08:05:54Z</time>
      </trkpt>
      <trkpt lat="49.33091" lon="0.97464">
        <ele>35</ele>
        <time>2015-03-22T08:05:56Z</time>
      </trkpt>
      <trkpt lat="49.33082" lon="0.9747">
        <ele>33</ele>
        <time>2015-03-22T08:05:58Z</time>
      </trkpt>
      <trkpt lat="49.33073" lon="0.97481">
        <ele>33</ele>
        <time>2015-03-22T08:06:32Z</time>
      </trkpt>
      <trkpt lat="49.33067" lon="0.97481">
        <ele>33</ele>
        <time>2015-03-22T08:07:24Z</time>
      </trkpt>
      <trkpt lat="49.33071" lon="0.97484">
        <ele>33</ele>
        <time>2015-03-22T08:09:42Z</time>
      </trkpt>
      <trkpt lat="49.33074" lon="0.97476">
        <ele>33</ele>
        <time>2015-03-22T08:10:54Z</time>
      </trkpt>
      <trkpt lat="49.33077" lon="0.97482">
        <ele>34</ele>
        <time>2015-03-22T08:12:54Z</time>
      </trkpt>
      <trkpt lat="49.33077" lon="0.97475">
        <ele>33</ele>
        <time>2015-03-22T08:13:28Z</time>
      </trkpt>
      <trkpt lat="49.33083" lon="0.97481">
        <ele>34</ele>
        <time>2015-03-22T08:14:12Z</time>
      </trkpt>
      <trkpt lat="49.33089" lon="0.97481">
        <ele>35</ele>
        <time>2015-03-22T08:14:20Z</time>
      </trkpt>
      <trkpt lat="49.33095" lon="0.97475">
        <ele>35</ele>
        <time>2015-03-22T08:14:24Z</time>
      </trkpt>
      <trkpt lat="49.33099" lon="0.97474">
        <ele>35</ele>
        <time>2015-03-22T08:14:26Z</time>
      </trkpt>
      <trkpt lat="49.33107" lon="0.97474">
        <ele>35</ele>
        <time>2015-03-22T08:14:30Z</time>
      </trkpt>
      <trkpt lat="49.33112" lon="0.97474">
        <ele>35</ele>
        <time>2015-03-22T08:14:32Z</time>
      </trkpt>
      <trkpt lat="49.33119" lon="0.97471">
        <ele>35</ele>
        <time>2015-03-22T08:14:34Z</time>
      </trkpt>
      <trkpt lat="49.33123" lon="0.97463">
        <ele>35</ele>
        <time>2015-03-22T08:14:36Z</time>
      </trkpt>
      <trkpt lat="49.33128" lon="0.97459">
        <ele>35</ele>
        <time>2015-03-22T08:14:38Z</time>
      </trkpt>
      <trkpt lat="49.33134" lon="0.97459">
        <ele>35</ele>
        <time>2015-03-22T08:14:40Z</time>
      </trkpt>
      <trkpt lat="49.33142" lon="0.97455">
        <ele>35</ele>
        <time>2015-03-22T08:14:42Z</time>
      </trkpt>
      <trkpt lat="49.33149" lon="0.97447">
        <ele>35</ele>
        <time>2015-03-22T08:14:44Z</time>
      </trkpt>
      <trkpt lat="49.33156" lon="0.97437">
        <ele>35</ele>
        <time>2015-03-22T08:14:46Z</time>
      </trkpt>
      <trkpt lat="49.33163" lon="0.97427">
        <ele>35</ele>
        <time>2015-03-22T08:14:48Z</time>
      </trkpt>
      <trkpt lat="49.3317" lon="0.97423">
        <ele>36</ele>
        <time>2015-03-22T08:14:50Z</time>
      </trkpt>
      <trkpt lat="49.33176" lon="0.9742">
        <ele>37</ele>
        <time>2015-03-22T08:14:52Z</time>
      </trkpt>
      <trkpt lat="49.33183" lon="0.97416">
        <ele>36</ele>
        <time>2015-03-22T08:14:54Z</time>
      </trkpt>
      <trkpt lat="49.33188" lon="0.97411">
        <ele>36</ele>
        <time>2015-03-22T08:14:56Z</time>
      </trkpt>
      <trkpt lat="49.33193" lon="0.97405">
        <ele>36</ele>
        <time>2015-03-22T08:14:58Z</time>
      </trkpt>
      <trkpt lat="49.33201" lon="0.97408">
        <ele>37</ele>
        <time>2015-03-22T08:15:00Z</time>
      </trkpt>
      <trkpt lat="49.33207" lon="0.97407">
        <ele>37</ele>
        <time>2015-03-22T08:15:02Z</time>
      </trkpt>
      <trkpt lat="49.33211" lon="0.97404">
        <ele>37</ele>
        <time>2015-03-22T08:15:04Z</time>
      </trkpt>
      <trkpt lat="49.3322" lon="0.97399">
        <ele>38</ele>
        <time>2015-03-22T08:15:08Z</time>
      </trkpt>
      <trkpt lat="49.33226" lon="0.97395">
        <ele>38</ele>
        <time>2015-03-22T08:15:10Z</time>
      </trkpt>
      <trkpt lat="49.33233" lon="0.97391">
        <ele>38</ele>
        <time>2015-03-22T08:15:12Z</time>
      </trkpt>
      <trkpt lat="49.3324" lon="0.97387">
        <ele>38</ele>
        <time>2015-03-22T08:15:14Z</time>
      </trkpt>
      <trkpt lat="49.33245" lon="0.97383">
        <ele>38</ele>
        <time>2015-03-22T08:15:16Z</time>
      </trkpt>
      <trkpt lat="49.33251" lon="0.97381">
        <ele>42</ele>
        <time>2015-03-22T08:15:18Z</time>
      </trkpt>
      <trkpt lat="49.33257" lon="0.97378">
        <ele>42</ele>
        <time>2015-03-22T08:15:20Z</time>
      </trkpt>
      <trkpt lat="49.33264" lon="0.97375">
        <ele>42</ele>
        <time>2015-03-22T08:15:24Z</time>
      </trkpt>
      <trkpt lat="49.33271" lon="0.97371">
        <ele>42</ele>
        <time>2015-03-22T08:15:28Z</time>
      </trkpt>
      <trkpt lat="49.33281" lon="0.97368">
        <ele>43</ele>
        <time>2015-03-22T08:15:32Z</time>
      </trkpt>
      <trkpt lat="49.33287" lon="0.97365">
        <ele>43</ele>
        <time>2015-03-22T08:15:34Z</time>
      </trkpt>
      <trkpt lat="49.33293" lon="0.97362">
        <ele>43</ele>
        <time>2015-03-22T08:15:36Z</time>
      </trkpt>
      <trkpt lat="49.33299" lon="0.97358">
        <ele>44</ele>
        <time>2015-03-22T08:15:38Z</time>
      </trkpt>
      <trkpt lat="49.33307" lon="0.97358">
        <ele>44</ele>
        <time>2015-03-22T08:15:40Z</time>
      </trkpt>
      <trkpt lat="49.33315" lon="0.97357">
        <ele>44</ele>
        <time>2015-03-22T08:15:42Z</time>
      </trkpt>
      <trkpt lat="49.33324" lon="0.97357">
        <ele>45</ele>
        <time>2015-03-22T08:15:44Z</time>
      </trkpt>
      <trkpt lat="49.33331" lon="0.97357">
        <ele>45</ele>
        <time>2015-03-22T08:15:46Z</time>
      </trkpt>
      <trkpt lat="49.33336" lon="0.9736">
        <ele>50</ele>
        <time>2015-03-22T08:15:48Z</time>
      </trkpt>
      <trkpt lat="49.33338" lon="0.97367">
        <ele>50</ele>
        <time>2015-03-22T08:15:50Z</time>
      </trkpt>
      <trkpt lat="49.33341" lon="0.97375">
        <ele>51</ele>
        <time>2015-03-22T08:15:52Z</time>
      </trkpt>
      <trkpt lat="49.33345" lon="0.97381">
        <ele>51</ele>
        <time>2015-03-22T08:15:56Z</time>
      </trkpt>
      <trkpt lat="49.3335" lon="0.97388">
        <ele>51</ele>
        <time>2015-03-22T08:16:00Z</time>
      </trkpt>
      <trkpt lat="49.33354" lon="0.97398">
        <ele>51</ele>
        <time>2015-03-22T08:16:04Z</time>
      </trkpt>
      <trkpt lat="49.33357" lon="0.97406">
        <ele>51</ele>
        <time>2015-03-22T08:16:06Z</time>
      </trkpt>
      <trkpt lat="49.33361" lon="0.97412">
        <ele>52</ele>
        <time>2015-03-22T08:16:08Z</time>
      </trkpt>
      <trkpt lat="49.33368" lon="0.97416">
        <ele>52</ele>
        <time>2015-03-22T08:16:12Z</time>
      </trkpt>
      <trkpt lat="49.33375" lon="0.97416">
        <ele>53</ele>
        <time>2015-03-22T08:16:18Z</time>
      </trkpt>
      <trkpt lat="49.33381" lon="0.9742">
        <ele>55</ele>
        <time>2015-03-22T08:16:22Z</time>
      </trkpt>
      <trkpt lat="49.33387" lon="0.97421">
        <ele>55</ele>
        <time>2015-03-22T08:16:26Z</time>
      </trkpt>
      <trkpt lat="49.3339" lon="0.97411">
        <ele>54</ele>
        <time>2015-03-22T08:16:32Z</time>
      </trkpt>
      <trkpt lat="49.33389" lon="0.97401">
        <ele>54</ele>
        <time>2015-03-22T08:16:36Z</time>
      </trkpt>
      <trkpt lat="49.3339" lon="0.97392">
        <ele>53</ele>
        <time>2015-03-22T08:16:40Z</time>
      </trkpt>
      <trkpt lat="49.33392" lon="0.97381">
        <ele>53</ele>
        <time>2015-03-22T08:16:44Z</time>
      </trkpt>
      <trkpt lat="49.33393" lon="0.97372">
        <ele>53</ele>
        <time>2015-03-22T08:16:48Z</time>
      </trkpt>
      <trkpt lat="49.33393" lon="0.97361">
        <ele>53</ele>
        <time>2015-03-22T08:16:58Z</time>
      </trkpt>
      <trkpt lat="49.33397" lon="0.97359">
        <ele>53</ele>
        <time>2015-03-22T08:17:00Z</time>
      </trkpt>
      <trkpt lat="49.33401" lon="0.97354">
        <ele>54</ele>
        <time>2015-03-22T08:17:02Z</time>
      </trkpt>
      <trkpt lat="49.33405" lon="0.97348">
        <ele>54</ele>
        <time>2015-03-22T08:17:04Z</time>
      </trkpt>
      <trkpt lat="49.33409" lon="0.97342">
        <ele>55</ele>
        <time>2015-03-22T08:17:06Z</time>
      </trkpt>
      <trkpt lat="49.33413" lon="0.97336">
        <ele>55</ele>
        <time>2015-03-22T08:17:09Z</time>
      </trkpt>
      <trkpt lat="49.33415" lon="0.97329">
        <ele>55</ele>
        <time>2015-03-22T08:17:11Z</time>
      </trkpt>
      <trkpt lat="49.33419" lon="0.97322">
        <ele>58</ele>
        <time>2015-03-22T08:17:13Z</time>
      </trkpt>
      <trkpt lat="49.33423" lon="0.97314">
        <ele>59</ele>
        <time>2015-03-22T08:17:15Z</time>
      </trkpt>
      <trkpt lat="49.33427" lon="0.9731">
        <ele>59</ele>
        <time>2015-03-22T08:17:17Z</time>
      </trkpt>
      <trkpt lat="49.33434" lon="0.97306">
        <ele>60</ele>
        <time>2015-03-22T08:17:21Z</time>
      </trkpt>
      <trkpt lat="49.33441" lon="0.9731">
        <ele>60</ele>
        <time>2015-03-22T08:17:27Z</time>
      </trkpt>
      <trkpt lat="49.33447" lon="0.97313">
        <ele>61</ele>
        <time>2015-03-22T08:17:31Z</time>
      </trkpt>
      <trkpt lat="49.33448" lon="0.97321">
        <ele>61</ele>
        <time>2015-03-22T08:17:41Z</time>
      </trkpt>
      <trkpt lat="49.3345" lon="0.97328">
        <ele>61</ele>
        <time>2015-03-22T08:17:43Z</time>
      </trkpt>
      <trkpt lat="49.33453" lon="0.97339">
        <ele>63</ele>
        <time>2015-03-22T08:17:47Z</time>
      </trkpt>
      <trkpt lat="49.33458" lon="0.97348">
        <ele>63</ele>
        <time>2015-03-22T08:17:51Z</time>
      </trkpt>
      <trkpt lat="49.33463" lon="0.97352">
        <ele>64</ele>
        <time>2015-03-22T08:17:55Z</time>
      </trkpt>
      <trkpt lat="49.33467" lon="0.97356">
        <ele>64</ele>
        <time>2015-03-22T08:18:01Z</time>
      </trkpt>
      <trkpt lat="49.33474" lon="0.97364">
        <ele>65</ele>
        <time>2015-03-22T08:18:07Z</time>
      </trkpt>
      <trkpt lat="49.33479" lon="0.9737">
        <ele>65</ele>
        <time>2015-03-22T08:18:11Z</time>
      </trkpt>
      <trkpt lat="49.33485" lon="0.97369">
        <ele>65</ele>
        <time>2015-03-22T08:18:17Z</time>
      </trkpt>
      <trkpt lat="49.3349" lon="0.97376">
        <ele>65</ele>
        <time>2015-03-22T08:18:21Z</time>
      </trkpt>
      <trkpt lat="49.33495" lon="0.97384">
        <ele>65</ele>
        <time>2015-03-22T08:18:25Z</time>
      </trkpt>
      <trkpt lat="49.335" lon="0.97395">
        <ele>74</ele>
        <time>2015-03-22T08:18:29Z</time>
      </trkpt>
      <trkpt lat="49.33504" lon="0.974">
        <ele>73</ele>
        <time>2015-03-22T08:18:31Z</time>
      </trkpt>
      <trkpt lat="49.33509" lon="0.97408">
        <ele>73</ele>
        <time>2015-03-22T08:18:33Z</time>
      </trkpt>
      <trkpt lat="49.33516" lon="0.97415">
        <ele>74</ele>
        <time>2015-03-22T08:18:35Z</time>
      </trkpt>
      <trkpt lat="49.33522" lon="0.9742">
        <ele>74</ele>
        <time>2015-03-22T08:18:37Z</time>
      </trkpt>
      <trkpt lat="49.33529" lon="0.97424">
        <ele>75</ele>
        <time>2015-03-22T08:18:39Z</time>
      </trkpt>
      <trkpt lat="49.33534" lon="0.97428">
        <ele>76</ele>
        <time>2015-03-22T08:18:41Z</time>
      </trkpt>
      <trkpt lat="49.3354" lon="0.97432">
        <ele>77</ele>
        <time>2015-03-22T08:18:43Z</time>
      </trkpt>
      <trkpt lat="49.33545" lon="0.97434">
        <ele>78</ele>
        <time>2015-03-22T08:18:45Z</time>
      </trkpt>
      <trkpt lat="49.33549" lon="0.97437">
        <ele>78</ele>
        <time>2015-03-22T08:18:47Z</time>
      </trkpt>
      <trkpt lat="49.33557" lon="0.97443">
        <ele>79</ele>
        <time>2015-03-22T08:18:51Z</time>
      </trkpt>
      <trkpt lat="49.33563" lon="0.97448">
        <ele>79</ele>
        <time>2015-03-22T08:18:55Z</time>
      </trkpt>
      <trkpt lat="49.3357" lon="0.97453">
        <ele>80</ele>
        <time>2015-03-22T08:18:59Z</time>
      </trkpt>
      <trkpt lat="49.33576" lon="0.97456">
        <ele>80</ele>
        <time>2015-03-22T08:19:03Z</time>
      </trkpt>
      <trkpt lat="49.33582" lon="0.97458">
        <ele>80</ele>
        <time>2015-03-22T08:19:07Z</time>
      </trkpt>
      <trkpt lat="49.33589" lon="0.97458">
        <ele>92</ele>
        <time>2015-03-22T08:19:15Z</time>
      </trkpt>
      <trkpt lat="49.33596" lon="0.9746">
        <ele>92</ele>
        <time>2015-03-22T08:19:21Z</time>
      </trkpt>
      <trkpt lat="49.33603" lon="0.97468">
        <ele>92</ele>
        <time>2015-03-22T08:19:25Z</time>
      </trkpt>
      <trkpt lat="49.33606" lon="0.97475">
        <ele>92</ele>
        <time>2015-03-22T08:19:27Z</time>
      </trkpt>
      <trkpt lat="49.33607" lon="0.97482">
        <ele>91</ele>
        <time>2015-03-22T08:19:29Z</time>
      </trkpt>
      <trkpt lat="49.33612" lon="0.97493">
        <ele>91</ele>
        <time>2015-03-22T08:19:33Z</time>
      </trkpt>
      <trkpt lat="49.33614" lon="0.97499">
        <ele>91</ele>
        <time>2015-03-22T08:19:35Z</time>
      </trkpt>
      <trkpt lat="49.33613" lon="0.97508">
        <ele>90</ele>
        <time>2015-03-22T08:19:37Z</time>
      </trkpt>
      <trkpt lat="49.33611" lon="0.97516">
        <ele>90</ele>
        <time>2015-03-22T08:19:39Z</time>
      </trkpt>
      <trkpt lat="49.3361" lon="0.97529">
        <ele>91</ele>
        <time>2015-03-22T08:19:43Z</time>
      </trkpt>
      <trkpt lat="49.33613" lon="0.97536">
        <ele>91</ele>
        <time>2015-03-22T08:19:45Z</time>
      </trkpt>
      <trkpt lat="49.33618" lon="0.97545">
        <ele>92</ele>
        <time>2015-03-22T08:19:49Z</time>
      </trkpt>
      <trkpt lat="49.33622" lon="0.97549">
        <ele>93</ele>
        <time>2015-03-22T08:19:53Z</time>
      </trkpt>
      <trkpt lat="49.33623" lon="0.97561">
        <ele>93</ele>
        <time>2015-03-22T08:19:57Z</time>
      </trkpt>
      <trkpt lat="49.3362" lon="0.97572">
        <ele>93</ele>
        <time>2015-03-22T08:20:01Z</time>
      </trkpt>
      <trkpt lat="49.3362" lon="0.9758">
        <ele>93</ele>
        <time>2015-03-22T08:20:03Z</time>
      </trkpt>
      <trkpt lat="49.33623" lon="0.97589">
        <ele>97</ele>
        <time>2015-03-22T08:20:05Z</time>
      </trkpt>
      <trkpt lat="49.33627" lon="0.97598">
        <ele>97</ele>
        <time>2015-03-22T08:20:07Z</time>
      </trkpt>
      <trkpt lat="49.3363" lon="0.97605">
        <ele>98</ele>
        <time>2015-03-22T08:20:09Z</time>
      </trkpt>
      <trkpt lat="49.33633" lon="0.97611">
        <ele>98</ele>
        <time>2015-03-22T08:20:11Z</time>
      </trkpt>
      <trkpt lat="49.33635" lon="0.97617">
        <ele>98</ele>
        <time>2015-03-22T08:20:13Z</time>
      </trkpt>
      <trkpt lat="49.33637" lon="0.97623">
        <ele>98</ele>
        <time>2015-03-22T08:20:15Z</time>
      </trkpt>
      <trkpt lat="49.33639" lon="0.9763">
        <ele>99</ele>
        <time>2015-03-22T08:20:17Z</time>
      </trkpt>
      <trkpt lat="49.33644" lon="0.97636">
        <ele>99</ele>
        <time>2015-03-22T08:20:21Z</time>
      </trkpt>
      <trkpt lat="49.33647" lon="0.97642">
        <ele>100</ele>
        <time>2015-03-22T08:20:23Z</time>
      </trkpt>
      <trkpt lat="49.33651" lon="0.97654">
        <ele>100</ele>
        <time>2015-03-22T08:20:27Z</time>
      </trkpt>
      <trkpt lat="49.33656" lon="0.97664">
        <ele>101</ele>
        <time>2015-03-22T08:20:31Z</time>
      </trkpt>
      <trkpt lat="49.3366" lon="0.97674">
        <ele>104</ele>
        <time>2015-03-22T08:20:35Z</time>
      </trkpt>
      <trkpt lat="49.33664" lon="0.97682">
        <ele>105</ele>
        <time>2015-03-22T08:20:39Z</time>
      </trkpt>
      <trkpt lat="49.33669" lon="0.97686">
        <ele>107</ele>
        <time>2015-03-22T08:20:43Z</time>
      </trkpt>
      <trkpt lat="49.33674" lon="0.97692">
        <ele>108</ele>
        <time>2015-03-22T08:20:47Z</time>
      </trkpt>
      <trkpt lat="49.33681" lon="0.97697">
        <ele>109</ele>
        <time>2015-03-22T08:20:51Z</time>
      </trkpt>
      <trkpt lat="49.33687" lon="0.97703">
        <ele>110</ele>
        <time>2015-03-22T08:20:55Z</time>
      </trkpt>
      <trkpt lat="49.33695" lon="0.97709">
        <ele>110</ele>
        <time>2015-03-22T08:20:59Z</time>
      </trkpt>
      <trkpt lat="49.33699" lon="0.97713">
        <ele>110</ele>
        <time>2015-03-22T08:21:01Z</time>
      </trkpt>
      <trkpt lat="49.33706" lon="0.97719">
        <ele>111</ele>
        <time>2015-03-22T08:21:05Z</time>
      </trkpt>
      <trkpt lat="49.33714" lon="0.97725">
        <ele>111</ele>
        <time>2015-03-22T08:21:09Z</time>
      </trkpt>
      <trkpt lat="49.3372" lon="0.9773">
        <ele>111</ele>
        <time>2015-03-22T08:21:13Z</time>
      </trkpt>
      <trkpt lat="49.33729" lon="0.97736">
        <ele>111</ele>
        <time>2015-03-22T08:21:17Z</time>
      </trkpt>
      <trkpt lat="49.33733" lon="0.97738">
        <ele>111</ele>
        <time>2015-03-22T08:21:19Z</time>
      </trkpt>
      <trkpt lat="49.33741" lon="0.97743">
        <ele>112</ele>
        <time>2015-03-22T08:21:23Z</time>
      </trkpt>
      <trkpt lat="49.33749" lon="0.97744">
        <ele>112</ele>
        <time>2015-03-22T08:21:27Z</time>
      </trkpt>
      <trkpt lat="49.33755" lon="0.9774">
        <ele>113</ele>
        <time>2015-03-22T08:21:29Z</time>
      </trkpt>
      <trkpt lat="49.3376" lon="0.97737">
        <ele>114</ele>
        <time>2015-03-22T08:21:31Z</time>
      </trkpt>
      <trkpt lat="49.33766" lon="0.97733">
        <ele>114</ele>
        <time>2015-03-22T08:21:35Z</time>
      </trkpt>
      <trkpt lat="49.33764" lon="0.97719">
        <ele>115</ele>
        <time>2015-03-22T08:21:39Z</time>
      </trkpt>
      <trkpt lat="49.33759" lon="0.97707">
        <ele>115</ele>
        <time>2015-03-22T08:21:43Z</time>
      </trkpt>
      <trkpt lat="49.33756" lon="0.97702">
        <ele>115</ele>
        <time>2015-03-22T08:21:45Z</time>
      </trkpt>
      <trkpt lat="49.33752" lon="0.97693">
        <ele>115</ele>
        <time>2015-03-22T08:21:47Z</time>
      </trkpt>
      <trkpt lat="49.33748" lon="0.97686">
        <ele>112</ele>
        <time>2015-03-22T08:21:49Z</time>
      </trkpt>
      <trkpt lat="49.33744" lon="0.97681">
        <ele>112</ele>
        <time>2015-03-22T08:21:51Z</time>
      </trkpt>
      <trkpt lat="49.3374" lon="0.97677">
        <ele>112</ele>
        <time>2015-03-22T08:21:53Z</time>
      </trkpt>
      <trkpt lat="49.33733" lon="0.97672">
        <ele>112</ele>
        <time>2015-03-22T08:21:57Z</time>
      </trkpt>
      <trkpt lat="49.33728" lon="0.97667">
        <ele>111</ele>
        <time>2015-03-22T08:21:59Z</time>
      </trkpt>
      <trkpt lat="49.33724" lon="0.97661">
        <ele>110</ele>
        <time>2015-03-22T08:22:01Z</time>
      </trkpt>
      <trkpt lat="49.33719" lon="0.97655">
        <ele>109</ele>
        <time>2015-03-22T08:22:03Z</time>
      </trkpt>
      <trkpt lat="49.33716" lon="0.97649">
        <ele>109</ele>
        <time>2015-03-22T08:22:05Z</time>
      </trkpt>
      <trkpt lat="49.33712" lon="0.97644">
        <ele>108</ele>
        <time>2015-03-22T08:22:07Z</time>
      </trkpt>
      <trkpt lat="49.33709" lon="0.97636">
        <ele>108</ele>
        <time>2015-03-22T08:22:11Z</time>
      </trkpt>
      <trkpt lat="49.33705" lon="0.97624">
        <ele>108</ele>
        <time>2015-03-22T08:22:15Z</time>
      </trkpt>
      <trkpt lat="49.33703" lon="0.97615">
        <ele>108</ele>
        <time>2015-03-22T08:22:17Z</time>
      </trkpt>
      <trkpt lat="49.33703" lon="0.97607">
        <ele>107</ele>
        <time>2015-03-22T08:22:19Z</time>
      </trkpt>
      <trkpt lat="49.33704" lon="0.97599">
        <ele>107</ele>
        <time>2015-03-22T08:22:21Z</time>
      </trkpt>
      <trkpt lat="49.33708" lon="0.97592">
        <ele>108</ele>
        <time>2015-03-22T08:22:25Z</time>
      </trkpt>
      <trkpt lat="49.33714" lon="0.97589">
        <ele>109</ele>
        <time>2015-03-22T08:22:31Z</time>
      </trkpt>
      <trkpt lat="49.33719" lon="0.97586">
        <ele>109</ele>
        <time>2015-03-22T08:22:35Z</time>
      </trkpt>
      <trkpt lat="49.33724" lon="0.9759">
        <ele>110</ele>
        <time>2015-03-22T08:22:39Z</time>
      </trkpt>
      <trkpt lat="49.33731" lon="0.97596">
        <ele>111</ele>
        <time>2015-03-22T08:22:45Z</time>
      </trkpt>
      <trkpt lat="49.33736" lon="0.97599">
        <ele>111</ele>
        <time>2015-03-22T08:22:49Z</time>
      </trkpt>
      <trkpt lat="49.3374" lon="0.97602">
        <ele>111</ele>
        <time>2015-03-22T08:22:53Z</time>
      </trkpt>
      <trkpt lat="49.33746" lon="0.97607">
        <ele>111</ele>
        <time>2015-03-22T08:22:57Z</time>
      </trkpt>
      <trkpt lat="49.33751" lon="0.9761">
        <ele>117</ele>
        <time>2015-03-22T08:23:01Z</time>
      </trkpt>
      <trkpt lat="49.33757" lon="0.97613">
        <ele>117</ele>
        <time>2015-03-22T08:23:05Z</time>
      </trkpt>
      <trkpt lat="49.33763" lon="0.97621">
        <ele>117</ele>
        <time>2015-03-22T08:23:09Z</time>
      </trkpt>
      <trkpt lat="49.33768" lon="0.97628">
        <ele>117</ele>
        <time>2015-03-22T08:23:13Z</time>
      </trkpt>
      <trkpt lat="49.33773" lon="0.97631">
        <ele>118</ele>
        <time>2015-03-22T08:23:21Z</time>
      </trkpt>
      <trkpt lat="49.33777" lon="0.97634">
        <ele>118</ele>
        <time>2015-03-22T08:23:31Z</time>
      </trkpt>
      <trkpt lat="49.33784" lon="0.97642">
        <ele>118</ele>
        <time>2015-03-22T08:23:41Z</time>
      </trkpt>
      <trkpt lat="49.33789" lon="0.97643">
        <ele>118</ele>
        <time>2015-03-22T08:23:49Z</time>
      </trkpt>
      <trkpt lat="49.33794" lon="0.97641">
        <ele>118</ele>
        <time>2015-03-22T08:23:55Z</time>
      </trkpt>
      <trkpt lat="49.33796" lon="0.97633">
        <ele>119</ele>
        <time>2015-03-22T08:24:03Z</time>
      </trkpt>
      <trkpt lat="49.338" lon="0.9762">
        <ele>119</ele>
        <time>2015-03-22T08:24:07Z</time>
      </trkpt>
      <trkpt lat="49.3383" lon="0.97648">
        <ele>120</ele>
        <time>2015-03-22T08:24:18Z</time>
      </trkpt>
      <trkpt lat="49.33835" lon="0.97653">
        <ele>121</ele>
        <time>2015-03-22T08:24:20Z</time>
      </trkpt>
      <trkpt lat="49.33842" lon="0.97654">
        <ele>121</ele>
        <time>2015-03-22T08:24:22Z</time>
      </trkpt>
      <trkpt lat="49.33848" lon="0.97657">
        <ele>121</ele>
        <time>2015-03-22T08:24:24Z</time>
      </trkpt>
      <trkpt lat="49.33853" lon="0.97658">
        <ele>121</ele>
        <time>2015-03-22T08:24:26Z</time>
      </trkpt>
      <trkpt lat="49.33861" lon="0.97651">
        <ele>121</ele>
        <time>2015-03-22T08:24:30Z</time>
      </trkpt>
      <trkpt lat="49.33863" lon="0.97644">
        <ele>121</ele>
        <time>2015-03-22T08:24:32Z</time>
      </trkpt>
      <trkpt lat="49.33863" lon="0.97635">
        <ele>122</ele>
        <time>2015-03-22T08:24:34Z</time>
      </trkpt>
      <trkpt lat="49.33861" lon="0.97627">
        <ele>122</ele>
        <time>2015-03-22T08:24:36Z</time>
      </trkpt>
      <trkpt lat="49.33859" lon="0.97618">
        <ele>122</ele>
        <time>2015-03-22T08:24:38Z</time>
      </trkpt>
      <trkpt lat="49.33856" lon="0.97609">
        <ele>122</ele>
        <time>2015-03-22T08:24:40Z</time>
      </trkpt>
      <trkpt lat="49.33855" lon="0.97601">
        <ele>122</ele>
        <time>2015-03-22T08:24:42Z</time>
      </trkpt>
      <trkpt lat="49.33853" lon="0.97592">
        <ele>122</ele>
        <time>2015-03-22T08:24:44Z</time>
      </trkpt>
      <trkpt lat="49.33851" lon="0.97584">
        <ele>123</ele>
        <time>2015-03-22T08:24:46Z</time>
      </trkpt>
      <trkpt lat="49.3385" lon="0.97575">
        <ele>122</ele>
        <time>2015-03-22T08:24:48Z</time>
      </trkpt>
      <trkpt lat="49.33851" lon="0.97565">
        <ele>122</ele>
        <time>2015-03-22T08:24:50Z</time>
      </trkpt>
      <trkpt lat="49.3385" lon="0.97556">
        <ele>122</ele>
        <time>2015-03-22T08:24:52Z</time>
      </trkpt>
      <trkpt lat="49.33849" lon="0.97548">
        <ele>121</ele>
        <time>2015-03-22T08:24:54Z</time>
      </trkpt>
      <trkpt lat="49.33848" lon="0.9754">
        <ele>121</ele>
        <time>2015-03-22T08:24:56Z</time>
      </trkpt>
      <trkpt lat="49.33847" lon="0.9753">
        <ele>121</ele>
        <time>2015-03-22T08:24:58Z</time>
      </trkpt>
      <trkpt lat="49.33847" lon="0.97521">
        <ele>121</ele>
        <time>2015-03-22T08:25:00Z</time>
      </trkpt>
      <trkpt lat="49.33845" lon="0.9751">
        <ele>122</ele>
        <time>2015-03-22T08:25:02Z</time>
      </trkpt>
      <trkpt lat="49.33844" lon="0.97495">
        <ele>120</ele>
        <time>2015-03-22T08:25:04Z</time>
      </trkpt>
      <trkpt lat="49.33845" lon="0.9748">
        <ele>118</ele>
        <time>2015-03-22T08:25:06Z</time>
      </trkpt>
      <trkpt lat="49.33845" lon="0.97466">
        <ele>117</ele>
        <time>2015-03-22T08:25:08Z</time>
      </trkpt>
      <trkpt lat="49.33843" lon="0.97457">
        <ele>117</ele>
        <time>2015-03-22T08:25:10Z</time>
      </trkpt>
      <trkpt lat="49.33837" lon="0.97451">
        <ele>117</ele>
        <time>2015-03-22T08:25:12Z</time>
      </trkpt>
      <trkpt lat="49.33835" lon="0.97439">
        <ele>118</ele>
        <time>2015-03-22T08:25:14Z</time>
      </trkpt>
      <trkpt lat="49.33838" lon="0.97429">
        <ele>118</ele>
        <time>2015-03-22T08:25:16Z</time>
      </trkpt>
      <trkpt lat="49.33842" lon="0.97418">
        <ele>119</ele>
        <time>2015-03-22T08:25:18Z</time>
      </trkpt>
      <trkpt lat="49.33843" lon="0.97402">
        <ele>115</ele>
        <time>2015-03-22T08:25:20Z</time>
      </trkpt>
      <trkpt lat="49.33841" lon="0.97388">
        <ele>113</ele>
        <time>2015-03-22T08:25:22Z</time>
      </trkpt>
      <trkpt lat="49.33837" lon="0.97377">
        <ele>113</ele>
        <time>2015-03-22T08:25:24Z</time>
      </trkpt>
      <trkpt lat="49.3384" lon="0.97364">
        <ele>113</ele>
        <time>2015-03-22T08:25:26Z</time>
      </trkpt>
      <trkpt lat="49.33841" lon="0.97352">
        <ele>114</ele>
        <time>2015-03-22T08:25:28Z</time>
      </trkpt>
      <trkpt lat="49.33842" lon="0.97342">
        <ele>116</ele>
        <time>2015-03-22T08:25:30Z</time>
      </trkpt>
      <trkpt lat="49.33841" lon="0.97332">
        <ele>118</ele>
        <time>2015-03-22T08:25:32Z</time>
      </trkpt>
      <trkpt lat="49.33843" lon="0.97325">
        <ele>116</ele>
        <time>2015-03-22T08:25:34Z</time>
      </trkpt>
      <trkpt lat="49.33847" lon="0.97315">
        <ele>114</ele>
        <time>2015-03-22T08:25:36Z</time>
      </trkpt>
      <trkpt lat="49.3385" lon="0.97303">
        <ele>112</ele>
        <time>2015-03-22T08:25:38Z</time>
      </trkpt>
      <trkpt lat="49.33855" lon="0.97293">
        <ele>111</ele>
        <time>2015-03-22T08:25:40Z</time>
      </trkpt>
      <trkpt lat="49.33859" lon="0.97283">
        <ele>111</ele>
        <time>2015-03-22T08:25:42Z</time>
      </trkpt>
      <trkpt lat="49.33864" lon="0.97274">
        <ele>111</ele>
        <time>2015-03-22T08:25:44Z</time>
      </trkpt>
      <trkpt lat="49.33868" lon="0.97267">
        <ele>110</ele>
        <time>2015-03-22T08:25:46Z</time>
      </trkpt>
      <trkpt lat="49.33872" lon="0.9726">
        <ele>110</ele>
        <time>2015-03-22T08:25:48Z</time>
      </trkpt>
      <trkpt lat="49.33877" lon="0.97252">
        <ele>109</ele>
        <time>2015-03-22T08:25:50Z</time>
      </trkpt>
      <trkpt lat="49.33884" lon="0.97243">
        <ele>109</ele>
        <time>2015-03-22T08:25:52Z</time>
      </trkpt>
      <trkpt lat="49.3389" lon="0.9723">
        <ele>108</ele>
        <time>2015-03-22T08:25:54Z</time>
      </trkpt>
      <trkpt lat="49.33897" lon="0.97218">
        <ele>107</ele>
        <time>2015-03-22T08:25:56Z</time>
      </trkpt>
      <trkpt lat="49.33903" lon="0.97206">
        <ele>107</ele>
        <time>2015-03-22T08:25:58Z</time>
      </trkpt>
      <trkpt lat="49.3391" lon="0.97198">
        <ele>106</ele>
        <time>2015-03-22T08:26:00Z</time>
      </trkpt>
      <trkpt lat="49.3392" lon="0.97194">
        <ele>94</ele>
        <time>2015-03-22T08:26:02Z</time>
      </trkpt>
      <trkpt lat="49.33926" lon="0.97186">
        <ele>94</ele>
        <time>2015-03-22T08:26:04Z</time>
      </trkpt>
      <trkpt lat="49.33936" lon="0.97195">
        <ele>92</ele>
        <time>2015-03-22T08:26:06Z</time>
      </trkpt>
      <trkpt lat="49.33941" lon="0.97209">
        <ele>92</ele>
        <time>2015-03-22T08:26:08Z</time>
      </trkpt>
      <trkpt lat="49.33948" lon="0.97222">
        <ele>91</ele>
        <time>2015-03-22T08:26:10Z</time>
      </trkpt>
      <trkpt lat="49.33955" lon="0.97227">
        <ele>90</ele>
        <time>2015-03-22T08:26:12Z</time>
      </trkpt>
      <trkpt lat="49.33966" lon="0.97231">
        <ele>88</ele>
        <time>2015-03-22T08:26:14Z</time>
      </trkpt>
      <trkpt lat="49.33976" lon="0.97232">
        <ele>86</ele>
        <time>2015-03-22T08:26:16Z</time>
      </trkpt>
      <trkpt lat="49.33988" lon="0.97232">
        <ele>84</ele>
        <time>2015-03-22T08:26:18Z</time>
      </trkpt>
      <trkpt lat="49.33993" lon="0.97234">
        <ele>83</ele>
        <time>2015-03-22T08:26:20Z</time>
      </trkpt>
      <trkpt lat="49.33992" lon="0.97244">
        <ele>81</ele>
        <time>2015-03-22T08:26:22Z</time>
      </trkpt>
      <trkpt lat="49.33992" lon="0.97252">
        <ele>78</ele>
        <time>2015-03-22T08:26:24Z</time>
      </trkpt>
      <trkpt lat="49.33983" lon="0.97263">
        <ele>81</ele>
        <time>2015-03-22T08:26:28Z</time>
      </trkpt>
      <trkpt lat="49.33972" lon="0.97273">
        <ele>83</ele>
        <time>2015-03-22T08:26:30Z</time>
      </trkpt>
      <trkpt lat="49.3396" lon="0.97283">
        <ele>84</ele>
        <time>2015-03-22T08:26:32Z</time>
      </trkpt>
      <trkpt lat="49.33949" lon="0.97293">
        <ele>85</ele>
        <time>2015-03-22T08:26:34Z</time>
      </trkpt>
      <trkpt lat="49.33941" lon="0.97302">
        <ele>86</ele>
        <time>2015-03-22T08:26:36Z</time>
      </trkpt>
      <trkpt lat="49.33936" lon="0.97312">
        <ele>87</ele>
        <time>2015-03-22T08:26:38Z</time>
      </trkpt>
      <trkpt lat="49.33933" lon="0.97324">
        <ele>88</ele>
        <time>2015-03-22T08:26:40Z</time>
      </trkpt>
      <trkpt lat="49.33932" lon="0.97338">
        <ele>87</ele>
        <time>2015-03-22T08:26:42Z</time>
      </trkpt>
      <trkpt lat="49.33932" lon="0.97353">
        <ele>86</ele>
        <time>2015-03-22T08:26:44Z</time>
      </trkpt>
      <trkpt lat="49.33931" lon="0.97363">
        <ele>86</ele>
        <time>2015-03-22T08:26:46Z</time>
      </trkpt>
      <trkpt lat="49.3393" lon="0.97372">
        <ele>86</ele>
        <time>2015-03-22T08:26:48Z</time>
      </trkpt>
      <trkpt lat="49.3393" lon="0.9738">
        <ele>86</ele>
        <time>2015-03-22T08:26:50Z</time>
      </trkpt>
      <trkpt lat="49.33932" lon="0.97391">
        <ele>87</ele>
        <time>2015-03-22T08:26:54Z</time>
      </trkpt>
      <trkpt lat="49.33933" lon="0.97402">
        <ele>89</ele>
        <time>2015-03-22T08:26:58Z</time>
      </trkpt>
      <trkpt lat="49.33935" lon="0.97414">
        <ele>90</ele>
        <time>2015-03-22T08:27:02Z</time>
      </trkpt>
      <trkpt lat="49.33935" lon="0.97422">
        <ele>94</ele>
        <time>2015-03-22T08:27:06Z</time>
      </trkpt>
      <trkpt lat="49.33933" lon="0.97434">
        <ele>94</ele>
        <time>2015-03-22T08:27:10Z</time>
      </trkpt>
      <trkpt lat="49.33936" lon="0.97447">
        <ele>94</ele>
        <time>2015-03-22T08:27:14Z</time>
      </trkpt>
      <trkpt lat="49.33938" lon="0.97453">
        <ele>94</ele>
        <time>2015-03-22T08:27:16Z</time>
      </trkpt>
      <trkpt lat="49.33941" lon="0.97462">
        <ele>95</ele>
        <time>2015-03-22T08:27:20Z</time>
      </trkpt>
      <trkpt lat="49.33943" lon="0.97473">
        <ele>96</ele>
        <time>2015-03-22T08:27:24Z</time>
      </trkpt>
      <trkpt lat="49.33947" lon="0.9748">
        <ele>96</ele>
        <time>2015-03-22T08:27:28Z</time>
      </trkpt>
      <trkpt lat="49.33952" lon="0.97488">
        <ele>96</ele>
        <time>2015-03-22T08:27:32Z</time>
      </trkpt>
      <trkpt lat="49.33957" lon="0.97496">
        <ele>95</ele>
        <time>2015-03-22T08:27:36Z</time>
      </trkpt>
      <trkpt lat="49.33958" lon="0.97505">
        <ele>101</ele>
        <time>2015-03-22T08:27:40Z</time>
      </trkpt>
      <trkpt lat="49.33959" lon="0.97515">
        <ele>101</ele>
        <time>2015-03-22T08:27:46Z</time>
      </trkpt>
      <trkpt lat="49.33959" lon="0.97523">
        <ele>102</ele>
        <time>2015-03-22T08:27:50Z</time>
      </trkpt>
      <trkpt lat="49.33958" lon="0.97531">
        <ele>102</ele>
        <time>2015-03-22T08:27:54Z</time>
      </trkpt>
      <trkpt lat="49.33956" lon="0.97541">
        <ele>103</ele>
        <time>2015-03-22T08:27:58Z</time>
      </trkpt>
      <trkpt lat="49.33954" lon="0.97551">
        <ele>104</ele>
        <time>2015-03-22T08:28:04Z</time>
      </trkpt>
      <trkpt lat="49.33951" lon="0.97559">
        <ele>105</ele>
        <time>2015-03-22T08:28:08Z</time>
      </trkpt>
      <trkpt lat="49.33948" lon="0.97566">
        <ele>106</ele>
        <time>2015-03-22T08:28:14Z</time>
      </trkpt>
      <trkpt lat="49.33946" lon="0.97573">
        <ele>107</ele>
        <time>2015-03-22T08:28:18Z</time>
      </trkpt>
      <trkpt lat="49.33944" lon="0.97582">
        <ele>108</ele>
        <time>2015-03-22T08:28:22Z</time>
      </trkpt>
      <trkpt lat="49.33941" lon="0.97589">
        <ele>111</ele>
        <time>2015-03-22T08:28:26Z</time>
      </trkpt>
      <trkpt lat="49.33938" lon="0.97598">
        <ele>112</ele>
        <time>2015-03-22T08:28:30Z</time>
      </trkpt>
      <trkpt lat="49.33938" lon="0.9761">
        <ele>111</ele>
        <time>2015-03-22T08:28:34Z</time>
      </trkpt>
      <trkpt lat="49.33938" lon="0.97619">
        <ele>111</ele>
        <time>2015-03-22T08:28:38Z</time>
      </trkpt>
      <trkpt lat="49.33936" lon="0.97628">
        <ele>111</ele>
        <time>2015-03-22T08:28:42Z</time>
      </trkpt>
      <trkpt lat="49.33936" lon="0.97637">
        <ele>111</ele>
        <time>2015-03-22T08:28:46Z</time>
      </trkpt>
      <trkpt lat="49.33933" lon="0.97646">
        <ele>112</ele>
        <time>2015-03-22T08:28:52Z</time>
      </trkpt>
      <trkpt lat="49.3393" lon="0.97652">
        <ele>114</ele>
        <time>2015-03-22T08:28:56Z</time>
      </trkpt>
      <trkpt lat="49.33925" lon="0.97657">
        <ele>116</ele>
        <time>2015-03-22T08:29:00Z</time>
      </trkpt>
      <trkpt lat="49.33921" lon="0.9766">
        <ele>118</ele>
        <time>2015-03-22T08:29:04Z</time>
      </trkpt>
      <trkpt lat="49.33915" lon="0.97665">
        <ele>121</ele>
        <time>2015-03-22T08:29:08Z</time>
      </trkpt>
      <trkpt lat="49.33916" lon="0.97676">
        <ele>121</ele>
        <time>2015-03-22T08:29:12Z</time>
      </trkpt>
      <trkpt lat="49.33916" lon="0.97684">
        <ele>120</ele>
        <time>2015-03-22T08:29:14Z</time>
      </trkpt>
      <trkpt lat="49.33914" lon="0.97691">
        <ele>120</ele>
        <time>2015-03-22T08:29:16Z</time>
      </trkpt>
      <trkpt lat="49.33914" lon="0.97703">
        <ele>120</ele>
        <time>2015-03-22T08:29:20Z</time>
      </trkpt>
      <trkpt lat="49.33919" lon="0.97715">
        <ele>113</ele>
        <time>2015-03-22T08:29:24Z</time>
      </trkpt>
      <trkpt lat="49.33924" lon="0.97728">
        <ele>113</ele>
        <time>2015-03-22T08:29:26Z</time>
      </trkpt>
      <trkpt lat="49.33926" lon="0.97743">
        <ele>115</ele>
        <time>2015-03-22T08:29:28Z</time>
      </trkpt>
      <trkpt lat="49.33926" lon="0.97753">
        <ele>116</ele>
        <time>2015-03-22T08:29:30Z</time>
      </trkpt>
      <trkpt lat="49.33926" lon="0.97761">
        <ele>115</ele>
        <time>2015-03-22T08:29:32Z</time>
      </trkpt>
      <trkpt lat="49.33925" lon="0.97768">
        <ele>114</ele>
        <time>2015-03-22T08:29:34Z</time>
      </trkpt>
      <trkpt lat="49.3393" lon="0.97774">
        <ele>113</ele>
        <time>2015-03-22T08:29:42Z</time>
      </trkpt>
      <trkpt lat="49.33936" lon="0.97777">
        <ele>112</ele>
        <time>2015-03-22T08:29:44Z</time>
      </trkpt>
      <trkpt lat="49.33943" lon="0.97778">
        <ele>111</ele>
        <time>2015-03-22T08:29:46Z</time>
      </trkpt>
      <trkpt lat="49.33945" lon="0.97787">
        <ele>111</ele>
        <time>2015-03-22T08:29:48Z</time>
      </trkpt>
      <trkpt lat="49.3395" lon="0.97795">
        <ele>110</ele>
        <time>2015-03-22T08:29:50Z</time>
      </trkpt>
      <trkpt lat="49.33956" lon="0.97801">
        <ele>109</ele>
        <time>2015-03-22T08:29:52Z</time>
      </trkpt>
      <trkpt lat="49.3396" lon="0.97808">
        <ele>109</ele>
        <time>2015-03-22T08:29:54Z</time>
      </trkpt>
      <trkpt lat="49.33965" lon="0.97815">
        <ele>108</ele>
        <time>2015-03-22T08:29:56Z</time>
      </trkpt>
      <trkpt lat="49.33968" lon="0.97823">
        <ele>108</ele>
        <time>2015-03-22T08:29:58Z</time>
      </trkpt>
      <trkpt lat="49.33977" lon="0.97832">
        <ele>106</ele>
        <time>2015-03-22T08:30:00Z</time>
      </trkpt>
      <trkpt lat="49.33985" lon="0.9784">
        <ele>108</ele>
        <time>2015-03-22T08:30:02Z</time>
      </trkpt>
      <trkpt lat="49.33991" lon="0.97848">
        <ele>108</ele>
        <time>2015-03-22T08:30:04Z</time>
      </trkpt>
      <trkpt lat="49.34" lon="0.97857">
        <ele>110</ele>
        <time>2015-03-22T08:30:06Z</time>
      </trkpt>
      <trkpt lat="49.34008" lon="0.97869">
        <ele>94</ele>
        <time>2015-03-22T08:30:08Z</time>
      </trkpt>
      <trkpt lat="49.34016" lon="0.97879">
        <ele>94</ele>
        <time>2015-03-22T08:30:10Z</time>
      </trkpt>
      <trkpt lat="49.34026" lon="0.9789">
        <ele>94</ele>
        <time>2015-03-22T08:30:12Z</time>
      </trkpt>
      <trkpt lat="49.34038" lon="0.97902">
        <ele>91</ele>
        <time>2015-03-22T08:30:14Z</time>
      </trkpt>
      <trkpt lat="49.3405" lon="0.97913">
        <ele>87</ele>
        <time>2015-03-22T08:30:16Z</time>
      </trkpt>
      <trkpt lat="49.34059" lon="0.97923">
        <ele>90</ele>
        <time>2015-03-22T08:30:18Z</time>
      </trkpt>
      <trkpt lat="49.34066" lon="0.9793">
        <ele>88</ele>
        <time>2015-03-22T08:30:20Z</time>
      </trkpt>
      <trkpt lat="49.34071" lon="0.97933">
        <ele>87</ele>
        <time>2015-03-22T08:30:22Z</time>
      </trkpt>
      <trkpt lat="49.34078" lon="0.97941">
        <ele>88</ele>
        <time>2015-03-22T08:30:24Z</time>
      </trkpt>
      <trkpt lat="49.34083" lon="0.97951">
        <ele>90</ele>
        <time>2015-03-22T08:30:26Z</time>
      </trkpt>
      <trkpt lat="49.34089" lon="0.9796">
        <ele>71</ele>
        <time>2015-03-22T08:30:28Z</time>
      </trkpt>
      <trkpt lat="49.34093" lon="0.97971">
        <ele>72</ele>
        <time>2015-03-22T08:30:30Z</time>
      </trkpt>
      <trkpt lat="49.34094" lon="0.97982">
        <ele>74</ele>
        <time>2015-03-22T08:30:32Z</time>
      </trkpt>
      <trkpt lat="49.34093" lon="0.97996">
        <ele>78</ele>
        <time>2015-03-22T08:30:34Z</time>
      </trkpt>
      <trkpt lat="49.34094" lon="0.98009">
        <ele>78</ele>
        <time>2015-03-22T08:30:36Z</time>
      </trkpt>
      <trkpt lat="49.34093" lon="0.98022">
        <ele>75</ele>
        <time>2015-03-22T08:30:38Z</time>
      </trkpt>
      <trkpt lat="49.34092" lon="0.98037">
        <ele>74</ele>
        <time>2015-03-22T08:30:40Z</time>
      </trkpt>
      <trkpt lat="49.34093" lon="0.98052">
        <ele>73</ele>
        <time>2015-03-22T08:30:42Z</time>
      </trkpt>
      <trkpt lat="49.34095" lon="0.98064">
        <ele>74</ele>
        <time>2015-03-22T08:30:44Z</time>
      </trkpt>
      <trkpt lat="49.34099" lon="0.98078">
        <ele>74</ele>
        <time>2015-03-22T08:30:46Z</time>
      </trkpt>
      <trkpt lat="49.34102" lon="0.98091">
        <ele>71</ele>
        <time>2015-03-22T08:30:48Z</time>
      </trkpt>
      <trkpt lat="49.34109" lon="0.98093">
        <ele>70</ele>
        <time>2015-03-22T08:30:50Z</time>
      </trkpt>
      <trkpt lat="49.34117" lon="0.9809">
        <ele>68</ele>
        <time>2015-03-22T08:30:52Z</time>
      </trkpt>
      <trkpt lat="49.34121" lon="0.98082">
        <ele>70</ele>
        <time>2015-03-22T08:30:54Z</time>
      </trkpt>
      <trkpt lat="49.34125" lon="0.9807">
        <ele>69</ele>
        <time>2015-03-22T08:30:56Z</time>
      </trkpt>
      <trkpt lat="49.34129" lon="0.98061">
        <ele>68</ele>
        <time>2015-03-22T08:30:58Z</time>
      </trkpt>
      <trkpt lat="49.34136" lon="0.98059">
        <ele>67</ele>
        <time>2015-03-22T08:31:00Z</time>
      </trkpt>
      <trkpt lat="49.34146" lon="0.98061">
        <ele>66</ele>
        <time>2015-03-22T08:31:02Z</time>
      </trkpt>
      <trkpt lat="49.3415" lon="0.98067">
        <ele>65</ele>
        <time>2015-03-22T08:31:04Z</time>
      </trkpt>
      <trkpt lat="49.34151" lon="0.98081">
        <ele>63</ele>
        <time>2015-03-22T08:31:08Z</time>
      </trkpt>
      <trkpt lat="49.34156" lon="0.98097">
        <ele>62</ele>
        <time>2015-03-22T08:31:10Z</time>
      </trkpt>
      <trkpt lat="49.3416" lon="0.9812">
        <ele>63</ele>
        <time>2015-03-22T08:31:12Z</time>
      </trkpt>
      <trkpt lat="49.34166" lon="0.98146">
        <ele>61</ele>
        <time>2015-03-22T08:31:14Z</time>
      </trkpt>
      <trkpt lat="49.34168" lon="0.98161">
        <ele>54</ele>
        <time>2015-03-22T08:31:16Z</time>
      </trkpt>
      <trkpt lat="49.34173" lon="0.9816">
        <ele>53</ele>
        <time>2015-03-22T08:31:18Z</time>
      </trkpt>
      <trkpt lat="49.34225" lon="0.98137">
        <ele>43</ele>
        <time>2015-03-22T08:31:38Z</time>
      </trkpt>
      <trkpt lat="49.34235" lon="0.98152">
        <ele>41</ele>
        <time>2015-03-22T08:31:44Z</time>
      </trkpt>
      <trkpt lat="49.34236" lon="0.98161">
        <ele>40</ele>
        <time>2015-03-22T08:31:46Z</time>
      </trkpt>
      <trkpt lat="49.34237" lon="0.98169">
        <ele>40</ele>
        <time>2015-03-22T08:31:48Z</time>
      </trkpt>
      <trkpt lat="49.34242" lon="0.98182">
        <ele>42</ele>
        <time>2015-03-22T08:31:50Z</time>
      </trkpt>
      <trkpt lat="49.34242" lon="0.98195">
        <ele>44</ele>
        <time>2015-03-22T08:31:52Z</time>
      </trkpt>
      <trkpt lat="49.34242" lon="0.98203">
        <ele>45</ele>
        <time>2015-03-22T08:31:54Z</time>
      </trkpt>
      <trkpt lat="49.34242" lon="0.98212">
        <ele>45</ele>
        <time>2015-03-22T08:31:56Z</time>
      </trkpt>
      <trkpt lat="49.34244" lon="0.98221">
        <ele>45</ele>
        <time>2015-03-22T08:31:58Z</time>
      </trkpt>
      <trkpt lat="49.34246" lon="0.98233">
        <ele>45</ele>
        <time>2015-03-22T08:32:00Z</time>
      </trkpt>
      <trkpt lat="49.3425" lon="0.98247">
        <ele>43</ele>
        <time>2015-03-22T08:32:02Z</time>
      </trkpt>
      <trkpt lat="49.34252" lon="0.9826">
        <ele>39</ele>
        <time>2015-03-22T08:32:04Z</time>
      </trkpt>
      <trkpt lat="49.34252" lon="0.98269">
        <ele>37</ele>
        <time>2015-03-22T08:32:06Z</time>
      </trkpt>
      <trkpt lat="49.34255" lon="0.98279">
        <ele>36</ele>
        <time>2015-03-22T08:32:08Z</time>
      </trkpt>
      <trkpt lat="49.34267" lon="0.98291">
        <ele>35</ele>
        <time>2015-03-22T08:32:10Z</time>
      </trkpt>
      <trkpt lat="49.34275" lon="0.98304">
        <ele>34</ele>
        <time>2015-03-22T08:32:12Z</time>
      </trkpt>
      <trkpt lat="49.34281" lon="0.98321">
        <ele>34</ele>
        <time>2015-03-22T08:32:14Z</time>
      </trkpt>
      <trkpt lat="49.34281" lon="0.98339">
        <ele>36</ele>
        <time>2015-03-22T08:32:16Z</time>
      </trkpt>
      <trkpt lat="49.34284" lon="0.98356">
        <ele>35</ele>
        <time>2015-03-22T08:32:18Z</time>
      </trkpt>
      <trkpt lat="49.34283" lon="0.9837">
        <ele>35</ele>
        <time>2015-03-22T08:32:20Z</time>
      </trkpt>
      <trkpt lat="49.34279" lon="0.98382">
        <ele>36</ele>
        <time>2015-03-22T08:32:22Z</time>
      </trkpt>
      <trkpt lat="49.34282" lon="0.98395">
        <ele>36</ele>
        <time>2015-03-22T08:32:24Z</time>
      </trkpt>
      <trkpt lat="49.34282" lon="0.98407">
        <ele>37</ele>
        <time>2015-03-22T08:32:26Z</time>
      </trkpt>
      <trkpt lat="49.3428" lon="0.98417">
        <ele>39</ele>
        <time>2015-03-22T08:32:28Z</time>
      </trkpt>
      <trkpt lat="49.34277" lon="0.98431">
        <ele>39</ele>
        <time>2015-03-22T08:32:30Z</time>
      </trkpt>
      <trkpt lat="49.34275" lon="0.98442">
        <ele>39</ele>
        <time>2015-03-22T08:32:32Z</time>
      </trkpt>
      <trkpt lat="49.34274" lon="0.9845">
        <ele>39</ele>
        <time>2015-03-22T08:32:34Z</time>
      </trkpt>
      <trkpt lat="49.34273" lon="0.98459">
        <ele>39</ele>
        <time>2015-03-22T08:32:36Z</time>
      </trkpt>
      <trkpt lat="49.34271" lon="0.98468">
        <ele>40</ele>
        <time>2015-03-22T08:32:38Z</time>
      </trkpt>
      <trkpt lat="49.34269" lon="0.98479">
        <ele>41</ele>
        <time>2015-03-22T08:32:40Z</time>
      </trkpt>
      <trkpt lat="49.34266" lon="0.98483">
        <ele>42</ele>
        <time>2015-03-22T08:32:42Z</time>
      </trkpt>
      <trkpt lat="49.34261" lon="0.98492">
        <ele>44</ele>
        <time>2015-03-22T08:32:45Z</time>
      </trkpt>
      <trkpt lat="49.34253" lon="0.985">
        <ele>47</ele>
        <time>2015-03-22T08:32:51Z</time>
      </trkpt>
      <trkpt lat="49.34249" lon="0.98506">
        <ele>50</ele>
        <time>2015-03-22T08:32:53Z</time>
      </trkpt>
      <trkpt lat="49.34247" lon="0.98514">
        <ele>52</ele>
        <time>2015-03-22T08:32:55Z</time>
      </trkpt>
      <trkpt lat="49.34248" lon="0.98522">
        <ele>54</ele>
        <time>2015-03-22T08:32:57Z</time>
      </trkpt>
      <trkpt lat="49.34246" lon="0.98537">
        <ele>55</ele>
        <time>2015-03-22T08:33:15Z</time>
      </trkpt>
      <trkpt lat="49.34237" lon="0.98558">
        <ele>56</ele>
        <time>2015-03-22T08:33:43Z</time>
      </trkpt>
      <trkpt lat="49.34233" lon="0.98567">
        <ele>56</ele>
        <time>2015-03-22T08:33:57Z</time>
      </trkpt>
      <trkpt lat="49.34233" lon="0.98577">
        <ele>56</ele>
        <time>2015-03-22T08:34:07Z</time>
      </trkpt>
      <trkpt lat="49.34234" lon="0.98588">
        <ele>58</ele>
        <time>2015-03-22T08:34:11Z</time>
      </trkpt>
      <trkpt lat="49.34232" lon="0.98599">
        <ele>59</ele>
        <time>2015-03-22T08:34:15Z</time>
      </trkpt>
      <trkpt lat="49.34232" lon="0.98615">
        <ele>61</ele>
        <time>2015-03-22T08:34:25Z</time>
      </trkpt>
      <trkpt lat="49.34234" lon="0.98628">
        <ele>62</ele>
        <time>2015-03-22T08:34:29Z</time>
      </trkpt>
      <trkpt lat="49.34236" lon="0.98634">
        <ele>62</ele>
        <time>2015-03-22T08:34:31Z</time>
      </trkpt>
      <trkpt lat="49.34238" lon="0.98641">
        <ele>62</ele>
        <time>2015-03-22T08:34:33Z</time>
      </trkpt>
      <trkpt lat="49.3424" lon="0.98654">
        <ele>62</ele>
        <time>2015-03-22T08:34:37Z</time>
      </trkpt>
      <trkpt lat="49.34241" lon="0.98661">
        <ele>62</ele>
        <time>2015-03-22T08:34:39Z</time>
      </trkpt>
      <trkpt lat="49.34242" lon="0.98668">
        <ele>63</ele>
        <time>2015-03-22T08:34:41Z</time>
      </trkpt>
      <trkpt lat="49.34244" lon="0.98677">
        <ele>64</ele>
        <time>2015-03-22T08:34:43Z</time>
      </trkpt>
      <trkpt lat="49.34246" lon="0.98686">
        <ele>65</ele>
        <time>2015-03-22T08:34:45Z</time>
      </trkpt>
      <trkpt lat="49.34248" lon="0.98695">
        <ele>66</ele>
        <time>2015-03-22T08:34:47Z</time>
      </trkpt>
      <trkpt lat="49.3425" lon="0.98703">
        <ele>55</ele>
        <time>2015-03-22T08:34:49Z</time>
      </trkpt>
      <trkpt lat="49.34252" lon="0.98711">
        <ele>54</ele>
        <time>2015-03-22T08:34:51Z</time>
      </trkpt>
      <trkpt lat="49.34254" lon="0.98721">
        <ele>55</ele>
        <time>2015-03-22T08:34:53Z</time>
      </trkpt>
      <trkpt lat="49.34257" lon="0.98735">
        <ele>56</ele>
        <time>2015-03-22T08:34:55Z</time>
      </trkpt>
      <trkpt lat="49.34258" lon="0.98748">
        <ele>57</ele>
        <time>2015-03-22T08:34:57Z</time>
      </trkpt>
      <trkpt lat="49.34261" lon="0.98764">
        <ele>56</ele>
        <time>2015-03-22T08:34:59Z</time>
      </trkpt>
      <trkpt lat="49.34265" lon="0.9878">
        <ele>54</ele>
        <time>2015-03-22T08:35:01Z</time>
      </trkpt>
      <trkpt lat="49.34274" lon="0.98793">
        <ele>53</ele>
        <time>2015-03-22T08:35:03Z</time>
      </trkpt>
      <trkpt lat="49.34281" lon="0.98811">
        <ele>52</ele>
        <time>2015-03-22T08:35:05Z</time>
      </trkpt>
      <trkpt lat="49.3429" lon="0.98832">
        <ele>52</ele>
        <time>2015-03-22T08:35:07Z</time>
      </trkpt>
      <trkpt lat="49.34298" lon="0.98849">
        <ele>52</ele>
        <time>2015-03-22T08:35:09Z</time>
      </trkpt>
      <trkpt lat="49.34301" lon="0.98863">
        <ele>53</ele>
        <time>2015-03-22T08:35:11Z</time>
      </trkpt>
      <trkpt lat="49.34303" lon="0.98872">
        <ele>53</ele>
        <time>2015-03-22T08:35:13Z</time>
      </trkpt>
      <trkpt lat="49.34304" lon="0.98882">
        <ele>53</ele>
        <time>2015-03-22T08:35:15Z</time>
      </trkpt>
      <trkpt lat="49.34299" lon="0.98887">
        <ele>53</ele>
        <time>2015-03-22T08:35:17Z</time>
      </trkpt>
      <trkpt lat="49.34294" lon="0.98892">
        <ele>54</ele>
        <time>2015-03-22T08:35:19Z</time>
      </trkpt>
      <trkpt lat="49.3429" lon="0.98896">
        <ele>54</ele>
        <time>2015-03-22T08:35:21Z</time>
      </trkpt>
      <trkpt lat="49.34282" lon="0.98902">
        <ele>55</ele>
        <time>2015-03-22T08:35:27Z</time>
      </trkpt>
      <trkpt lat="49.34274" lon="0.98907">
        <ele>55</ele>
        <time>2015-03-22T08:35:31Z</time>
      </trkpt>
      <trkpt lat="49.3427" lon="0.98912">
        <ele>56</ele>
        <time>2015-03-22T08:35:35Z</time>
      </trkpt>
      <trkpt lat="49.34273" lon="0.9892">
        <ele>59</ele>
        <time>2015-03-22T08:35:49Z</time>
      </trkpt>
      <trkpt lat="49.34275" lon="0.98929">
        <ele>59</ele>
        <time>2015-03-22T08:35:55Z</time>
      </trkpt>
      <trkpt lat="49.34281" lon="0.98945">
        <ele>60</ele>
        <time>2015-03-22T08:36:15Z</time>
      </trkpt>
      <trkpt lat="49.34285" lon="0.98952">
        <ele>60</ele>
        <time>2015-03-22T08:36:19Z</time>
      </trkpt>
      <trkpt lat="49.34287" lon="0.98961">
        <ele>61</ele>
        <time>2015-03-22T08:36:23Z</time>
      </trkpt>
      <trkpt lat="49.3429" lon="0.98972">
        <ele>61</ele>
        <time>2015-03-22T08:36:27Z</time>
      </trkpt>
      <trkpt lat="49.34293" lon="0.98981">
        <ele>61</ele>
        <time>2015-03-22T08:36:31Z</time>
      </trkpt>
      <trkpt lat="49.34298" lon="0.98991">
        <ele>61</ele>
        <time>2015-03-22T08:36:35Z</time>
      </trkpt>
      <trkpt lat="49.34301" lon="0.98999">
        <ele>61</ele>
        <time>2015-03-22T08:36:39Z</time>
      </trkpt>
      <trkpt lat="49.34302" lon="0.99009">
        <ele>67</ele>
        <time>2015-03-22T08:36:43Z</time>
      </trkpt>
      <trkpt lat="49.34304" lon="0.99018">
        <ele>67</ele>
        <time>2015-03-22T08:36:47Z</time>
      </trkpt>
      <trkpt lat="49.34307" lon="0.99024">
        <ele>67</ele>
        <time>2015-03-22T08:36:49Z</time>
      </trkpt>
      <trkpt lat="49.34311" lon="0.99034">
        <ele>67</ele>
        <time>2015-03-22T08:36:53Z</time>
      </trkpt>
      <trkpt lat="49.34317" lon="0.99044">
        <ele>67</ele>
        <time>2015-03-22T08:36:57Z</time>
      </trkpt>
      <trkpt lat="49.34322" lon="0.99057">
        <ele>67</ele>
        <time>2015-03-22T08:37:01Z</time>
      </trkpt>
      <trkpt lat="49.34324" lon="0.99068">
        <ele>67</ele>
        <time>2015-03-22T08:37:05Z</time>
      </trkpt>
      <trkpt lat="49.34315" lon="0.9907">
        <ele>68</ele>
        <time>2015-03-22T08:37:17Z</time>
      </trkpt>
      <trkpt lat="49.3431" lon="0.99069">
        <ele>68</ele>
        <time>2015-03-22T08:37:25Z</time>
      </trkpt>
      <trkpt lat="49.34304" lon="0.99069">
        <ele>69</ele>
        <time>2015-03-22T08:37:41Z</time>
      </trkpt>
      <trkpt lat="49.34297" lon="0.99076">
        <ele>70</ele>
        <time>2015-03-22T08:37:49Z</time>
      </trkpt>
      <trkpt lat="49.34281" lon="0.99071">
        <ele>73</ele>
        <time>2015-03-22T08:39:45Z</time>
      </trkpt>
      <trkpt lat="49.34277" lon="0.99067">
        <ele>74</ele>
        <time>2015-03-22T08:39:47Z</time>
      </trkpt>
      <trkpt lat="49.34272" lon="0.9906">
        <ele>74</ele>
        <time>2015-03-22T08:39:51Z</time>
      </trkpt>
      <trkpt lat="49.34267" lon="0.99057">
        <ele>74</ele>
        <time>2015-03-22T08:39:53Z</time>
      </trkpt>
      <trkpt lat="49.34261" lon="0.99053">
        <ele>74</ele>
        <time>2015-03-22T08:39:55Z</time>
      </trkpt>
      <trkpt lat="49.34255" lon="0.9905">
        <ele>74</ele>
        <time>2015-03-22T08:39:57Z</time>
      </trkpt>
      <trkpt lat="49.34249" lon="0.9905">
        <ele>83</ele>
        <time>2015-03-22T08:39:59Z</time>
      </trkpt>
      <trkpt lat="49.34242" lon="0.99049">
        <ele>83</ele>
        <time>2015-03-22T08:40:01Z</time>
      </trkpt>
      <trkpt lat="49.34237" lon="0.9905">
        <ele>83</ele>
        <time>2015-03-22T08:40:03Z</time>
      </trkpt>
      <trkpt lat="49.34232" lon="0.99051">
        <ele>83</ele>
        <time>2015-03-22T08:40:05Z</time>
      </trkpt>
      <trkpt lat="49.34227" lon="0.9905">
        <ele>84</ele>
        <time>2015-03-22T08:40:07Z</time>
      </trkpt>
      <trkpt lat="49.34219" lon="0.99047">
        <ele>84</ele>
        <time>2015-03-22T08:40:11Z</time>
      </trkpt>
      <trkpt lat="49.34213" lon="0.99046">
        <ele>84</ele>
        <time>2015-03-22T08:40:13Z</time>
      </trkpt>
      <trkpt lat="49.34207" lon="0.99045">
        <ele>84</ele>
        <time>2015-03-22T08:40:15Z</time>
      </trkpt>
      <trkpt lat="49.34201" lon="0.99043">
        <ele>85</ele>
        <time>2015-03-22T08:40:17Z</time>
      </trkpt>
      <trkpt lat="49.34202" lon="0.99051">
        <ele>85</ele>
        <time>2015-03-22T08:40:25Z</time>
      </trkpt>
      <trkpt lat="49.34205" lon="0.99059">
        <ele>86</ele>
        <time>2015-03-22T08:40:29Z</time>
      </trkpt>
      <trkpt lat="49.34211" lon="0.99065">
        <ele>86</ele>
        <time>2015-03-22T08:40:33Z</time>
      </trkpt>
      <trkpt lat="49.34215" lon="0.99069">
        <ele>86</ele>
        <time>2015-03-22T08:40:37Z</time>
      </trkpt>
      <trkpt lat="49.34218" lon="0.99075">
        <ele>86</ele>
        <time>2015-03-22T08:40:41Z</time>
      </trkpt>
      <trkpt lat="49.34223" lon="0.99081">
        <ele>86</ele>
        <time>2015-03-22T08:40:45Z</time>
      </trkpt>
      <trkpt lat="49.34227" lon="0.99086">
        <ele>92</ele>
        <time>2015-03-22T08:40:49Z</time>
      </trkpt>
      <trkpt lat="49.3423" lon="0.99092">
        <ele>92</ele>
        <time>2015-03-22T08:40:53Z</time>
      </trkpt>
      <trkpt lat="49.34229" lon="0.99099">
        <ele>93</ele>
        <time>2015-03-22T08:41:05Z</time>
      </trkpt>
      <trkpt lat="49.34227" lon="0.99106">
        <ele>94</ele>
        <time>2015-03-22T08:41:11Z</time>
      </trkpt>
      <trkpt lat="49.34223" lon="0.99111">
        <ele>95</ele>
        <time>2015-03-22T08:41:17Z</time>
      </trkpt>
      <trkpt lat="49.3422" lon="0.99117">
        <ele>96</ele>
        <time>2015-03-22T08:41:23Z</time>
      </trkpt>
      <trkpt lat="49.34214" lon="0.99123">
        <ele>97</ele>
        <time>2015-03-22T08:41:29Z</time>
      </trkpt>
      <trkpt lat="49.3421" lon="0.9913">
        <ele>98</ele>
        <time>2015-03-22T08:41:37Z</time>
      </trkpt>
      <trkpt lat="49.34205" lon="0.99131">
        <ele>98</ele>
        <time>2015-03-22T08:41:45Z</time>
      </trkpt>
      <trkpt lat="49.342" lon="0.99133">
        <ele>99</ele>
        <time>2015-03-22T08:41:53Z</time>
      </trkpt>
      <trkpt lat="49.34194" lon="0.99135">
        <ele>100</ele>
        <time>2015-03-22T08:42:01Z</time>
      </trkpt>
      <trkpt lat="49.34188" lon="0.99137">
        <ele>102</ele>
        <time>2015-03-22T08:42:07Z</time>
      </trkpt>
      <trkpt lat="49.34184" lon="0.99139">
        <ele>103</ele>
        <time>2015-03-22T08:42:13Z</time>
      </trkpt>
      <trkpt lat="49.34179" lon="0.9914">
        <ele>104</ele>
        <time>2015-03-22T08:42:19Z</time>
      </trkpt>
      <trkpt lat="49.34173" lon="0.99142">
        <ele>105</ele>
        <time>2015-03-22T08:42:27Z</time>
      </trkpt>
      <trkpt lat="49.34169" lon="0.99143">
        <ele>106</ele>
        <time>2015-03-22T08:42:33Z</time>
      </trkpt>
      <trkpt lat="49.34162" lon="0.99144">
        <ele>118</ele>
        <time>2015-03-22T08:42:39Z</time>
      </trkpt>
      <trkpt lat="49.34156" lon="0.99145">
        <ele>119</ele>
        <time>2015-03-22T08:42:47Z</time>
      </trkpt>
      <trkpt lat="49.34151" lon="0.99149">
        <ele>119</ele>
        <time>2015-03-22T08:42:55Z</time>
      </trkpt>
      <trkpt lat="49.34146" lon="0.99152">
        <ele>120</ele>
        <time>2015-03-22T08:43:05Z</time>
      </trkpt>
      <trkpt lat="49.34141" lon="0.99154">
        <ele>121</ele>
        <time>2015-03-22T08:43:15Z</time>
      </trkpt>
      <trkpt lat="49.34135" lon="0.99155">
        <ele>122</ele>
        <time>2015-03-22T08:43:21Z</time>
      </trkpt>
      <trkpt lat="49.3413" lon="0.99155">
        <ele>123</ele>
        <time>2015-03-22T08:43:27Z</time>
      </trkpt>
      <trkpt lat="49.34125" lon="0.99154">
        <ele>123</ele>
        <time>2015-03-22T08:43:33Z</time>
      </trkpt>
      <trkpt lat="49.34119" lon="0.99153">
        <ele>125</ele>
        <time>2015-03-22T08:43:43Z</time>
      </trkpt>
      <trkpt lat="49.34114" lon="0.99151">
        <ele>125</ele>
        <time>2015-03-22T08:43:49Z</time>
      </trkpt>
      <trkpt lat="49.3411" lon="0.99149">
        <ele>126</ele>
        <time>2015-03-22T08:43:55Z</time>
      </trkpt>
      <trkpt lat="49.34104" lon="0.9915">
        <ele>128</ele>
        <time>2015-03-22T08:44:01Z</time>
      </trkpt>
      <trkpt lat="49.34098" lon="0.99151">
        <ele>130</ele>
        <time>2015-03-22T08:44:07Z</time>
      </trkpt>
      <trkpt lat="49.34092" lon="0.99153">
        <ele>131</ele>
        <time>2015-03-22T08:44:13Z</time>
      </trkpt>
      <trkpt lat="49.34087" lon="0.99152">
        <ele>132</ele>
        <time>2015-03-22T08:44:17Z</time>
      </trkpt>
      <trkpt lat="49.34082" lon="0.99151">
        <ele>139</ele>
        <time>2015-03-22T08:44:21Z</time>
      </trkpt>
      <trkpt lat="49.34077" lon="0.99153">
        <ele>139</ele>
        <time>2015-03-22T08:44:27Z</time>
      </trkpt>
      <trkpt lat="49.34072" lon="0.99154">
        <ele>139</ele>
        <time>2015-03-22T08:44:35Z</time>
      </trkpt>
      <trkpt lat="49.34066" lon="0.99156">
        <ele>139</ele>
        <time>2015-03-22T08:44:45Z</time>
      </trkpt>
      <trkpt lat="49.34062" lon="0.9916">
        <ele>139</ele>
        <time>2015-03-22T08:44:53Z</time>
      </trkpt>
      <trkpt lat="49.34056" lon="0.99163">
        <ele>139</ele>
        <time>2015-03-22T08:44:59Z</time>
      </trkpt>
      <trkpt lat="49.34049" lon="0.99168">
        <ele>143</ele>
        <time>2015-03-22T08:45:09Z</time>
      </trkpt>
      <trkpt lat="49.34044" lon="0.9917">
        <ele>143</ele>
        <time>2015-03-22T08:45:11Z</time>
      </trkpt>
      <trkpt lat="49.34039" lon="0.99172">
        <ele>143</ele>
        <time>2015-03-22T08:45:13Z</time>
      </trkpt>
      <trkpt lat="49.34033" lon="0.99175">
        <ele>144</ele>
        <time>2015-03-22T08:45:15Z</time>
      </trkpt>
      <trkpt lat="49.34027" lon="0.99176">
        <ele>144</ele>
        <time>2015-03-22T08:45:17Z</time>
      </trkpt>
      <trkpt lat="49.34021" lon="0.99178">
        <ele>144</ele>
        <time>2015-03-22T08:45:19Z</time>
      </trkpt>
      <trkpt lat="49.34016" lon="0.99182">
        <ele>144</ele>
        <time>2015-03-22T08:45:21Z</time>
      </trkpt>
      <trkpt lat="49.3401" lon="0.99186">
        <ele>144</ele>
        <time>2015-03-22T08:45:23Z</time>
      </trkpt>
      <trkpt lat="49.34006" lon="0.99191">
        <ele>144</ele>
        <time>2015-03-22T08:45:25Z</time>
      </trkpt>
      <trkpt lat="49.34008" lon="0.99208">
        <ele>144</ele>
        <time>2015-03-22T08:45:29Z</time>
      </trkpt>
      <trkpt lat="49.3401" lon="0.99219">
        <ele>144</ele>
        <time>2015-03-22T08:45:31Z</time>
      </trkpt>
      <trkpt lat="49.34013" lon="0.99229">
        <ele>144</ele>
        <time>2015-03-22T08:45:33Z</time>
      </trkpt>
      <trkpt lat="49.34016" lon="0.9924">
        <ele>144</ele>
        <time>2015-03-22T08:45:35Z</time>
      </trkpt>
      <trkpt lat="49.3402" lon="0.99251">
        <ele>145</ele>
        <time>2015-03-22T08:45:37Z</time>
      </trkpt>
      <trkpt lat="49.34023" lon="0.99263">
        <ele>144</ele>
        <time>2015-03-22T08:45:39Z</time>
      </trkpt>
      <trkpt lat="49.34027" lon="0.99275">
        <ele>144</ele>
        <time>2015-03-22T08:45:41Z</time>
      </trkpt>
      <trkpt lat="49.34031" lon="0.99289">
        <ele>144</ele>
        <time>2015-03-22T08:45:43Z</time>
      </trkpt>
      <trkpt lat="49.34036" lon="0.99301">
        <ele>144</ele>
        <time>2015-03-22T08:45:45Z</time>
      </trkpt>
      <trkpt lat="49.34042" lon="0.99314">
        <ele>144</ele>
        <time>2015-03-22T08:45:47Z</time>
      </trkpt>
      <trkpt lat="49.34046" lon="0.99326">
        <ele>144</ele>
        <time>2015-03-22T08:45:49Z</time>
      </trkpt>
      <trkpt lat="49.34051" lon="0.99337">
        <ele>145</ele>
        <time>2015-03-22T08:45:51Z</time>
      </trkpt>
      <trkpt lat="49.34054" lon="0.99348">
        <ele>145</ele>
        <time>2015-03-22T08:45:53Z</time>
      </trkpt>
      <trkpt lat="49.34058" lon="0.9936">
        <ele>145</ele>
        <time>2015-03-22T08:45:55Z</time>
      </trkpt>
      <trkpt lat="49.34062" lon="0.99373">
        <ele>145</ele>
        <time>2015-03-22T08:45:57Z</time>
      </trkpt>
      <trkpt lat="49.34066" lon="0.99386">
        <ele>145</ele>
        <time>2015-03-22T08:45:59Z</time>
      </trkpt>
      <trkpt lat="49.3407" lon="0.99397">
        <ele>145</ele>
        <time>2015-03-22T08:46:01Z</time>
      </trkpt>
      <trkpt lat="49.34074" lon="0.99408">
        <ele>146</ele>
        <time>2015-03-22T08:46:03Z</time>
      </trkpt>
      <trkpt lat="49.34079" lon="0.99421">
        <ele>146</ele>
        <time>2015-03-22T08:46:05Z</time>
      </trkpt>
      <trkpt lat="49.34084" lon="0.99433">
        <ele>145</ele>
        <time>2015-03-22T08:46:07Z</time>
      </trkpt>
      <trkpt lat="49.34088" lon="0.99445">
        <ele>144</ele>
        <time>2015-03-22T08:46:09Z</time>
      </trkpt>
      <trkpt lat="49.34093" lon="0.99458">
        <ele>144</ele>
        <time>2015-03-22T08:46:11Z</time>
      </trkpt>
      <trkpt lat="49.34097" lon="0.9947">
        <ele>144</ele>
        <time>2015-03-22T08:46:13Z</time>
      </trkpt>
      <trkpt lat="49.34101" lon="0.99483">
        <ele>144</ele>
        <time>2015-03-22T08:46:15Z</time>
      </trkpt>
      <trkpt lat="49.34105" lon="0.99496">
        <ele>144</ele>
        <time>2015-03-22T08:46:17Z</time>
      </trkpt>
      <trkpt lat="49.34109" lon="0.99509">
        <ele>146</ele>
        <time>2015-03-22T08:46:19Z</time>
      </trkpt>
      <trkpt lat="49.34113" lon="0.99523">
        <ele>146</ele>
        <time>2015-03-22T08:46:21Z</time>
      </trkpt>
      <trkpt lat="49.34118" lon="0.99536">
        <ele>146</ele>
        <time>2015-03-22T08:46:23Z</time>
      </trkpt>
      <trkpt lat="49.34122" lon="0.9955">
        <ele>146</ele>
        <time>2015-03-22T08:46:25Z</time>
      </trkpt>
      <trkpt lat="49.34126" lon="0.99562">
        <ele>146</ele>
        <time>2015-03-22T08:46:27Z</time>
      </trkpt>
      <trkpt lat="49.34131" lon="0.99576">
        <ele>146</ele>
        <time>2015-03-22T08:46:29Z</time>
      </trkpt>
      <trkpt lat="49.34136" lon="0.99591">
        <ele>146</ele>
        <time>2015-03-22T08:46:31Z</time>
      </trkpt>
      <trkpt lat="49.34141" lon="0.99605">
        <ele>146</ele>
        <time>2015-03-22T08:46:33Z</time>
      </trkpt>
      <trkpt lat="49.34146" lon="0.9962">
        <ele>146</ele>
        <time>2015-03-22T08:46:35Z</time>
      </trkpt>
      <trkpt lat="49.34151" lon="0.99635">
        <ele>145</ele>
        <time>2015-03-22T08:46:37Z</time>
      </trkpt>
      <trkpt lat="49.34154" lon="0.99645">
        <ele>145</ele>
        <time>2015-03-22T08:46:39Z</time>
      </trkpt>
      <trkpt lat="49.34156" lon="0.99652">
        <ele>145</ele>
        <time>2015-03-22T08:46:41Z</time>
      </trkpt>
      <trkpt lat="49.34157" lon="0.99661">
        <ele>145</ele>
        <time>2015-03-22T08:46:45Z</time>
      </trkpt>
      <trkpt lat="49.3416" lon="0.99673">
        <ele>143</ele>
        <time>2015-03-22T08:46:49Z</time>
      </trkpt>
      <trkpt lat="49.34164" lon="0.99685">
        <ele>143</ele>
        <time>2015-03-22T08:46:51Z</time>
      </trkpt>
      <trkpt lat="49.34167" lon="0.99695">
        <ele>138</ele>
        <time>2015-03-22T08:46:53Z</time>
      </trkpt>
      <trkpt lat="49.34168" lon="0.99702">
        <ele>137</ele>
        <time>2015-03-22T08:46:55Z</time>
      </trkpt>
      <trkpt lat="49.34164" lon="0.99706">
        <ele>142</ele>
        <time>2015-03-22T08:46:57Z</time>
      </trkpt>
      <trkpt lat="49.34156" lon="0.99706">
        <ele>142</ele>
        <time>2015-03-22T08:46:59Z</time>
      </trkpt>
      <trkpt lat="49.34146" lon="0.99705">
        <ele>142</ele>
        <time>2015-03-22T08:47:01Z</time>
      </trkpt>
      <trkpt lat="49.34136" lon="0.99705">
        <ele>142</ele>
        <time>2015-03-22T08:47:03Z</time>
      </trkpt>
      <trkpt lat="49.34125" lon="0.99703">
        <ele>143</ele>
        <time>2015-03-22T08:47:05Z</time>
      </trkpt>
      <trkpt lat="49.34115" lon="0.99702">
        <ele>143</ele>
        <time>2015-03-22T08:47:07Z</time>
      </trkpt>
      <trkpt lat="49.34104" lon="0.99701">
        <ele>143</ele>
        <time>2015-03-22T08:47:09Z</time>
      </trkpt>
      <trkpt lat="49.34092" lon="0.99696">
        <ele>143</ele>
        <time>2015-03-22T08:47:11Z</time>
      </trkpt>
      <trkpt lat="49.34079" lon="0.99692">
        <ele>145</ele>
        <time>2015-03-22T08:47:13Z</time>
      </trkpt>
      <trkpt lat="49.34069" lon="0.99693">
        <ele>145</ele>
        <time>2015-03-22T08:47:15Z</time>
      </trkpt>
      <trkpt lat="49.34062" lon="0.99693">
        <ele>145</ele>
        <time>2015-03-22T08:47:17Z</time>
      </trkpt>
      <trkpt lat="49.34055" lon="0.99696">
        <ele>145</ele>
        <time>2015-03-22T08:47:19Z</time>
      </trkpt>
      <trkpt lat="49.34047" lon="0.99698">
        <ele>145</ele>
        <time>2015-03-22T08:47:21Z</time>
      </trkpt>
      <trkpt lat="49.3404" lon="0.99698">
        <ele>145</ele>
        <time>2015-03-22T08:47:23Z</time>
      </trkpt>
      <trkpt lat="49.34031" lon="0.99698">
        <ele>146</ele>
        <time>2015-03-22T08:47:25Z</time>
      </trkpt>
      <trkpt lat="49.34021" lon="0.99697">
        <ele>146</ele>
        <time>2015-03-22T08:47:27Z</time>
      </trkpt>
      <trkpt lat="49.34011" lon="0.99698">
        <ele>146</ele>
        <time>2015-03-22T08:47:29Z</time>
      </trkpt>
      <trkpt lat="49.34" lon="0.99699">
        <ele>146</ele>
        <time>2015-03-22T08:47:31Z</time>
      </trkpt>
      <trkpt lat="49.33991" lon="0.99701">
        <ele>147</ele>
        <time>2015-03-22T08:47:33Z</time>
      </trkpt>
      <trkpt lat="49.33982" lon="0.99703">
        <ele>147</ele>
        <time>2015-03-22T08:47:35Z</time>
      </trkpt>
      <trkpt lat="49.33973" lon="0.99703">
        <ele>147</ele>
        <time>2015-03-22T08:47:37Z</time>
      </trkpt>
      <trkpt lat="49.33963" lon="0.99704">
        <ele>147</ele>
        <time>2015-03-22T08:47:39Z</time>
      </trkpt>
      <trkpt lat="49.33953" lon="0.99704">
        <ele>147</ele>
        <time>2015-03-22T08:47:41Z</time>
      </trkpt>
      <trkpt lat="49.33943" lon="0.99704">
        <ele>147</ele>
        <time>2015-03-22T08:47:43Z</time>
      </trkpt>
      <trkpt lat="49.33935" lon="0.99705">
        <ele>147</ele>
        <time>2015-03-22T08:47:45Z</time>
      </trkpt>
      <trkpt lat="49.33927" lon="0.99707">
        <ele>147</ele>
        <time>2015-03-22T08:47:47Z</time>
      </trkpt>
      <trkpt lat="49.33919" lon="0.99709">
        <ele>147</ele>
        <time>2015-03-22T08:47:49Z</time>
      </trkpt>
      <trkpt lat="49.33909" lon="0.9971">
        <ele>147</ele>
        <time>2015-03-22T08:47:51Z</time>
      </trkpt>
      <trkpt lat="49.33899" lon="0.9971">
        <ele>147</ele>
        <time>2015-03-22T08:47:53Z</time>
      </trkpt>
      <trkpt lat="49.33889" lon="0.99711">
        <ele>147</ele>
        <time>2015-03-22T08:47:55Z</time>
      </trkpt>
      <trkpt lat="49.33878" lon="0.99712">
        <ele>147</ele>
        <time>2015-03-22T08:47:57Z</time>
      </trkpt>
      <trkpt lat="49.33868" lon="0.99712">
        <ele>147</ele>
        <time>2015-03-22T08:47:59Z</time>
      </trkpt>
      <trkpt lat="49.33858" lon="0.99712">
        <ele>147</ele>
        <time>2015-03-22T08:48:01Z</time>
      </trkpt>
      <trkpt lat="49.33848" lon="0.99711">
        <ele>147</ele>
        <time>2015-03-22T08:48:03Z</time>
      </trkpt>
      <trkpt lat="49.33838" lon="0.99711">
        <ele>147</ele>
        <time>2015-03-22T08:48:05Z</time>
      </trkpt>
      <trkpt lat="49.33826" lon="0.99711">
        <ele>145</ele>
        <time>2015-03-22T08:48:07Z</time>
      </trkpt>
      <trkpt lat="49.33815" lon="0.99711">
        <ele>144</ele>
        <time>2015-03-22T08:48:09Z</time>
      </trkpt>
      <trkpt lat="49.33807" lon="0.9971">
        <ele>144</ele>
        <time>2015-03-22T08:48:11Z</time>
      </trkpt>
      <trkpt lat="49.33796" lon="0.99709">
        <ele>144</ele>
        <time>2015-03-22T08:48:13Z</time>
      </trkpt>
      <trkpt lat="49.33784" lon="0.99708">
        <ele>144</ele>
        <time>2015-03-22T08:48:15Z</time>
      </trkpt>
      <trkpt lat="49.33772" lon="0.99708">
        <ele>143</ele>
        <time>2015-03-22T08:48:17Z</time>
      </trkpt>
      <trkpt lat="49.33761" lon="0.9971">
        <ele>143</ele>
        <time>2015-03-22T08:48:19Z</time>
      </trkpt>
      <trkpt lat="49.3375" lon="0.99711">
        <ele>143</ele>
        <time>2015-03-22T08:48:21Z</time>
      </trkpt>
      <trkpt lat="49.3374" lon="0.99712">
        <ele>141</ele>
        <time>2015-03-22T08:48:23Z</time>
      </trkpt>
      <trkpt lat="49.3373" lon="0.99713">
        <ele>141</ele>
        <time>2015-03-22T08:48:26Z</time>
      </trkpt>
      <trkpt lat="49.3372" lon="0.99714">
        <ele>141</ele>
        <time>2015-03-22T08:48:28Z</time>
      </trkpt>
      <trkpt lat="49.33714" lon="0.9971">
        <ele>141</ele>
        <time>2015-03-22T08:48:30Z</time>
      </trkpt>
      <trkpt lat="49.33709" lon="0.99706">
        <ele>141</ele>
        <time>2015-03-22T08:48:32Z</time>
      </trkpt>
      <trkpt lat="49.33711" lon="0.99699">
        <ele>141</ele>
        <time>2015-03-22T08:48:36Z</time>
      </trkpt>
      <trkpt lat="49.3372" lon="0.99698">
        <ele>141</ele>
        <time>2015-03-22T08:48:42Z</time>
      </trkpt>
      <trkpt lat="49.33731" lon="0.99696">
        <ele>141</ele>
        <time>2015-03-22T08:48:46Z</time>
      </trkpt>
      <trkpt lat="49.33737" lon="0.99692">
        <ele>141</ele>
        <time>2015-03-22T08:48:48Z</time>
      </trkpt>
      <trkpt lat="49.33743" lon="0.99692">
        <ele>141</ele>
        <time>2015-03-22T08:48:50Z</time>
      </trkpt>
      <trkpt lat="49.33751" lon="0.99685">
        <ele>143</ele>
        <time>2015-03-22T08:48:52Z</time>
      </trkpt>
      <trkpt lat="49.33759" lon="0.99678">
        <ele>143</ele>
        <time>2015-03-22T08:48:54Z</time>
      </trkpt>
      <trkpt lat="49.33765" lon="0.9967">
        <ele>143</ele>
        <time>2015-03-22T08:48:56Z</time>
      </trkpt>
      <trkpt lat="49.33767" lon="0.99658">
        <ele>144</ele>
        <time>2015-03-22T08:48:58Z</time>
      </trkpt>
      <trkpt lat="49.33771" lon="0.99647">
        <ele>144</ele>
        <time>2015-03-22T08:49:00Z</time>
      </trkpt>
      <trkpt lat="49.33771" lon="0.99637">
        <ele>145</ele>
        <time>2015-03-22T08:49:02Z</time>
      </trkpt>
      <trkpt lat="49.33772" lon="0.99625">
        <ele>145</ele>
        <time>2015-03-22T08:49:04Z</time>
      </trkpt>
      <trkpt lat="49.33772" lon="0.9961">
        <ele>145</ele>
        <time>2015-03-22T08:49:06Z</time>
      </trkpt>
      <trkpt lat="49.33773" lon="0.99597">
        <ele>145</ele>
        <time>2015-03-22T08:49:08Z</time>
      </trkpt>
      <trkpt lat="49.33776" lon="0.99586">
        <ele>145</ele>
        <time>2015-03-22T08:49:10Z</time>
      </trkpt>
      <trkpt lat="49.3378" lon="0.99574">
        <ele>146</ele>
        <time>2015-03-22T08:49:12Z</time>
      </trkpt>
      <trkpt lat="49.33781" lon="0.99561">
        <ele>146</ele>
        <time>2015-03-22T08:49:14Z</time>
      </trkpt>
      <trkpt lat="49.33785" lon="0.99547">
        <ele>146</ele>
        <time>2015-03-22T08:49:16Z</time>
      </trkpt>
      <trkpt lat="49.33785" lon="0.99536">
        <ele>146</ele>
        <time>2015-03-22T08:49:18Z</time>
      </trkpt>
      <trkpt lat="49.33786" lon="0.99524">
        <ele>146</ele>
        <time>2015-03-22T08:49:20Z</time>
      </trkpt>
      <trkpt lat="49.33788" lon="0.99511">
        <ele>146</ele>
        <time>2015-03-22T08:49:22Z</time>
      </trkpt>
      <trkpt lat="49.33788" lon="0.99499">
        <ele>146</ele>
        <time>2015-03-22T08:49:24Z</time>
      </trkpt>
      <trkpt lat="49.33789" lon="0.99484">
        <ele>146</ele>
        <time>2015-03-22T08:49:26Z</time>
      </trkpt>
      <trkpt lat="49.3379" lon="0.99469">
        <ele>145</ele>
        <time>2015-03-22T08:49:28Z</time>
      </trkpt>
      <trkpt lat="49.33791" lon="0.99458">
        <ele>145</ele>
        <time>2015-03-22T08:49:30Z</time>
      </trkpt>
      <trkpt lat="49.33792" lon="0.99447">
        <ele>145</ele>
        <time>2015-03-22T08:49:32Z</time>
      </trkpt>
      <trkpt lat="49.3379" lon="0.99432">
        <ele>145</ele>
        <time>2015-03-22T08:49:34Z</time>
      </trkpt>
      <trkpt lat="49.3379" lon="0.99419">
        <ele>145</ele>
        <time>2015-03-22T08:49:36Z</time>
      </trkpt>
      <trkpt lat="49.33792" lon="0.99408">
        <ele>144</ele>
        <time>2015-03-22T08:49:38Z</time>
      </trkpt>
      <trkpt lat="49.33795" lon="0.99398">
        <ele>144</ele>
        <time>2015-03-22T08:49:40Z</time>
      </trkpt>
      <trkpt lat="49.338" lon="0.99386">
        <ele>144</ele>
        <time>2015-03-22T08:49:42Z</time>
      </trkpt>
      <trkpt lat="49.33804" lon="0.99375">
        <ele>144</ele>
        <time>2015-03-22T08:49:44Z</time>
      </trkpt>
      <trkpt lat="49.33806" lon="0.99364">
        <ele>144</ele>
        <time>2015-03-22T08:49:46Z</time>
      </trkpt>
      <trkpt lat="49.33809" lon="0.99353">
        <ele>144</ele>
        <time>2015-03-22T08:49:48Z</time>
      </trkpt>
      <trkpt lat="49.33807" lon="0.99341">
        <ele>144</ele>
        <time>2015-03-22T08:49:50Z</time>
      </trkpt>
      <trkpt lat="49.33804" lon="0.99328">
        <ele>144</ele>
        <time>2015-03-22T08:49:52Z</time>
      </trkpt>
      <trkpt lat="49.33801" lon="0.99318">
        <ele>144</ele>
        <time>2015-03-22T08:49:54Z</time>
      </trkpt>
      <trkpt lat="49.33796" lon="0.99307">
        <ele>144</ele>
        <time>2015-03-22T08:49:56Z</time>
      </trkpt>
      <trkpt lat="49.33793" lon="0.99293">
        <ele>144</ele>
        <time>2015-03-22T08:49:58Z</time>
      </trkpt>
      <trkpt lat="49.33794" lon="0.99281">
        <ele>144</ele>
        <time>2015-03-22T08:50:00Z</time>
      </trkpt>
      <trkpt lat="49.33793" lon="0.9927">
        <ele>144</ele>
        <time>2015-03-22T08:50:02Z</time>
      </trkpt>
      <trkpt lat="49.33792" lon="0.99258">
        <ele>144</ele>
        <time>2015-03-22T08:50:04Z</time>
      </trkpt>
      <trkpt lat="49.33792" lon="0.99247">
        <ele>143</ele>
        <time>2015-03-22T08:50:06Z</time>
      </trkpt>
      <trkpt lat="49.33793" lon="0.99235">
        <ele>143</ele>
        <time>2015-03-22T08:50:08Z</time>
      </trkpt>
      <trkpt lat="49.33796" lon="0.99227">
        <ele>143</ele>
        <time>2015-03-22T08:50:10Z</time>
      </trkpt>
      <trkpt lat="49.33801" lon="0.99221">
        <ele>143</ele>
        <time>2015-03-22T08:50:12Z</time>
      </trkpt>
      <trkpt lat="49.33805" lon="0.99214">
        <ele>143</ele>
        <time>2015-03-22T08:50:14Z</time>
      </trkpt>
      <trkpt lat="49.33809" lon="0.99202">
        <ele>143</ele>
        <time>2015-03-22T08:50:16Z</time>
      </trkpt>
      <trkpt lat="49.33811" lon="0.99189">
        <ele>142</ele>
        <time>2015-03-22T08:50:18Z</time>
      </trkpt>
      <trkpt lat="49.33812" lon="0.99178">
        <ele>142</ele>
        <time>2015-03-22T08:50:20Z</time>
      </trkpt>
      <trkpt lat="49.33814" lon="0.99167">
        <ele>142</ele>
        <time>2015-03-22T08:50:22Z</time>
      </trkpt>
      <trkpt lat="49.33813" lon="0.99158">
        <ele>142</ele>
        <time>2015-03-22T08:50:24Z</time>
      </trkpt>
      <trkpt lat="49.33812" lon="0.99147">
        <ele>142</ele>
        <time>2015-03-22T08:50:26Z</time>
      </trkpt>
      <trkpt lat="49.3381" lon="0.99134">
        <ele>142</ele>
        <time>2015-03-22T08:50:28Z</time>
      </trkpt>
      <trkpt lat="49.3381" lon="0.9912">
        <ele>142</ele>
        <time>2015-03-22T08:50:30Z</time>
      </trkpt>
      <trkpt lat="49.33809" lon="0.99105">
        <ele>142</ele>
        <time>2015-03-22T08:50:32Z</time>
      </trkpt>
      <trkpt lat="49.33809" lon="0.99089">
        <ele>142</ele>
        <time>2015-03-22T08:50:34Z</time>
      </trkpt>
      <trkpt lat="49.33806" lon="0.99078">
        <ele>142</ele>
        <time>2015-03-22T08:50:36Z</time>
      </trkpt>
      <trkpt lat="49.33803" lon="0.99067">
        <ele>142</ele>
        <time>2015-03-22T08:50:38Z</time>
      </trkpt>
      <trkpt lat="49.33799" lon="0.99057">
        <ele>142</ele>
        <time>2015-03-22T08:50:40Z</time>
      </trkpt>
      <trkpt lat="49.33794" lon="0.99045">
        <ele>142</ele>
        <time>2015-03-22T08:50:42Z</time>
      </trkpt>
      <trkpt lat="49.33792" lon="0.9903">
        <ele>142</ele>
        <time>2015-03-22T08:50:44Z</time>
      </trkpt>
      <trkpt lat="49.33788" lon="0.99019">
        <ele>143</ele>
        <time>2015-03-22T08:50:46Z</time>
      </trkpt>
      <trkpt lat="49.33784" lon="0.99006">
        <ele>143</ele>
        <time>2015-03-22T08:50:48Z</time>
      </trkpt>
      <trkpt lat="49.33783" lon="0.98992">
        <ele>142</ele>
        <time>2015-03-22T08:50:50Z</time>
      </trkpt>
      <trkpt lat="49.33779" lon="0.98987">
        <ele>142</ele>
        <time>2015-03-22T08:50:52Z</time>
      </trkpt>
      <trkpt lat="49.33773" lon="0.98983">
        <ele>142</ele>
        <time>2015-03-22T08:50:54Z</time>
      </trkpt>
      <trkpt lat="49.33773" lon="0.98971">
        <ele>142</ele>
        <time>2015-03-22T08:50:56Z</time>
      </trkpt>
      <trkpt lat="49.33775" lon="0.98955">
        <ele>141</ele>
        <time>2015-03-22T08:50:58Z</time>
      </trkpt>
      <trkpt lat="49.33778" lon="0.98937">
        <ele>141</ele>
        <time>2015-03-22T08:51:00Z</time>
      </trkpt>
      <trkpt lat="49.33778" lon="0.98923">
        <ele>141</ele>
        <time>2015-03-22T08:51:02Z</time>
      </trkpt>
      <trkpt lat="49.33773" lon="0.98911">
        <ele>140</ele>
        <time>2015-03-22T08:51:04Z</time>
      </trkpt>
      <trkpt lat="49.33766" lon="0.98899">
        <ele>140</ele>
        <time>2015-03-22T08:51:06Z</time>
      </trkpt>
      <trkpt lat="49.33759" lon="0.98898">
        <ele>141</ele>
        <time>2015-03-22T08:51:08Z</time>
      </trkpt>
      <trkpt lat="49.33751" lon="0.98891">
        <ele>140</ele>
        <time>2015-03-22T08:51:10Z</time>
      </trkpt>
      <trkpt lat="49.33748" lon="0.98874">
        <ele>142</ele>
        <time>2015-03-22T08:51:12Z</time>
      </trkpt>
      <trkpt lat="49.33742" lon="0.98858">
        <ele>142</ele>
        <time>2015-03-22T08:51:14Z</time>
      </trkpt>
      <trkpt lat="49.33736" lon="0.98842">
        <ele>141</ele>
        <time>2015-03-22T08:51:16Z</time>
      </trkpt>
      <trkpt lat="49.3373" lon="0.98827">
        <ele>141</ele>
        <time>2015-03-22T08:51:18Z</time>
      </trkpt>
      <trkpt lat="49.33723" lon="0.9881">
        <ele>141</ele>
        <time>2015-03-22T08:51:20Z</time>
      </trkpt>
      <trkpt lat="49.33719" lon="0.98795">
        <ele>141</ele>
        <time>2015-03-22T08:51:22Z</time>
      </trkpt>
      <trkpt lat="49.33717" lon="0.9878">
        <ele>141</ele>
        <time>2015-03-22T08:51:24Z</time>
      </trkpt>
      <trkpt lat="49.33716" lon="0.98765">
        <ele>141</ele>
        <time>2015-03-22T08:51:26Z</time>
      </trkpt>
      <trkpt lat="49.33714" lon="0.98755">
        <ele>141</ele>
        <time>2015-03-22T08:51:28Z</time>
      </trkpt>
      <trkpt lat="49.33711" lon="0.98743">
        <ele>140</ele>
        <time>2015-03-22T08:51:30Z</time>
      </trkpt>
      <trkpt lat="49.33705" lon="0.98733">
        <ele>140</ele>
        <time>2015-03-22T08:51:32Z</time>
      </trkpt>
      <trkpt lat="49.33702" lon="0.98722">
        <ele>139</ele>
        <time>2015-03-22T08:51:34Z</time>
      </trkpt>
      <trkpt lat="49.33698" lon="0.98709">
        <ele>139</ele>
        <time>2015-03-22T08:51:36Z</time>
      </trkpt>
      <trkpt lat="49.33694" lon="0.98697">
        <ele>139</ele>
        <time>2015-03-22T08:51:38Z</time>
      </trkpt>
      <trkpt lat="49.33693" lon="0.98682">
        <ele>138</ele>
        <time>2015-03-22T08:51:40Z</time>
      </trkpt>
      <trkpt lat="49.33692" lon="0.98667">
        <ele>138</ele>
        <time>2015-03-22T08:51:42Z</time>
      </trkpt>
      <trkpt lat="49.33691" lon="0.9865">
        <ele>136</ele>
        <time>2015-03-22T08:51:44Z</time>
      </trkpt>
      <trkpt lat="49.33687" lon="0.98637">
        <ele>136</ele>
        <time>2015-03-22T08:51:46Z</time>
      </trkpt>
      <trkpt lat="49.33682" lon="0.98625">
        <ele>135</ele>
        <time>2015-03-22T08:51:48Z</time>
      </trkpt>
      <trkpt lat="49.33679" lon="0.98612">
        <ele>135</ele>
        <time>2015-03-22T08:51:50Z</time>
      </trkpt>
      <trkpt lat="49.33675" lon="0.98603">
        <ele>134</ele>
        <time>2015-03-22T08:51:52Z</time>
      </trkpt>
      <trkpt lat="49.33668" lon="0.98589">
        <ele>132</ele>
        <time>2015-03-22T08:51:54Z</time>
      </trkpt>
      <trkpt lat="49.33664" lon="0.98574">
        <ele>130</ele>
        <time>2015-03-22T08:51:56Z</time>
      </trkpt>
      <trkpt lat="49.33653" lon="0.98561">
        <ele>129</ele>
        <time>2015-03-22T08:51:58Z</time>
      </trkpt>
      <trkpt lat="49.33642" lon="0.98552">
        <ele>129</ele>
        <time>2015-03-22T08:52:00Z</time>
      </trkpt>
      <trkpt lat="49.33633" lon="0.98544">
        <ele>128</ele>
        <time>2015-03-22T08:52:02Z</time>
      </trkpt>
      <trkpt lat="49.33625" lon="0.98538">
        <ele>128</ele>
        <time>2015-03-22T08:52:04Z</time>
      </trkpt>
      <trkpt lat="49.33619" lon="0.98532">
        <ele>128</ele>
        <time>2015-03-22T08:52:06Z</time>
      </trkpt>
      <trkpt lat="49.33611" lon="0.98522">
        <ele>127</ele>
        <time>2015-03-22T08:52:08Z</time>
      </trkpt>
      <trkpt lat="49.33605" lon="0.98508">
        <ele>127</ele>
        <time>2015-03-22T08:52:10Z</time>
      </trkpt>
      <trkpt lat="49.33592" lon="0.98503">
        <ele>125</ele>
        <time>2015-03-22T08:52:12Z</time>
      </trkpt>
      <trkpt lat="49.33582" lon="0.98501">
        <ele>124</ele>
        <time>2015-03-22T08:52:14Z</time>
      </trkpt>
      <trkpt lat="49.33574" lon="0.98494">
        <ele>122</ele>
        <time>2015-03-22T08:52:16Z</time>
      </trkpt>
      <trkpt lat="49.33565" lon="0.98491">
        <ele>120</ele>
        <time>2015-03-22T08:52:18Z</time>
      </trkpt>
      <trkpt lat="49.33554" lon="0.98487">
        <ele>119</ele>
        <time>2015-03-22T08:52:20Z</time>
      </trkpt>
      <trkpt lat="49.33543" lon="0.98484">
        <ele>118</ele>
        <time>2015-03-22T08:52:22Z</time>
      </trkpt>
      <trkpt lat="49.33533" lon="0.98482">
        <ele>118</ele>
        <time>2015-03-22T08:52:24Z</time>
      </trkpt>
      <trkpt lat="49.33521" lon="0.9848">
        <ele>118</ele>
        <time>2015-03-22T08:52:26Z</time>
      </trkpt>
      <trkpt lat="49.33508" lon="0.9848">
        <ele>118</ele>
        <time>2015-03-22T08:52:28Z</time>
      </trkpt>
      <trkpt lat="49.33496" lon="0.98481">
        <ele>117</ele>
        <time>2015-03-22T08:52:30Z</time>
      </trkpt>
      <trkpt lat="49.33486" lon="0.98485">
        <ele>117</ele>
        <time>2015-03-22T08:52:32Z</time>
      </trkpt>
      <trkpt lat="49.33485" lon="0.98496">
        <ele>118</ele>
        <time>2015-03-22T08:52:36Z</time>
      </trkpt>
      <trkpt lat="49.33486" lon="0.98508">
        <ele>122</ele>
        <time>2015-03-22T08:52:40Z</time>
      </trkpt>
      <trkpt lat="49.33485" lon="0.98518">
        <ele>123</ele>
        <time>2015-03-22T08:52:44Z</time>
      </trkpt>
      <trkpt lat="49.33481" lon="0.98529">
        <ele>124</ele>
        <time>2015-03-22T08:52:48Z</time>
      </trkpt>
      <trkpt lat="49.33477" lon="0.98539">
        <ele>125</ele>
        <time>2015-03-22T08:52:52Z</time>
      </trkpt>
      <trkpt lat="49.33472" lon="0.9855">
        <ele>126</ele>
        <time>2015-03-22T08:52:56Z</time>
      </trkpt>
      <trkpt lat="49.33468" lon="0.98555">
        <ele>126</ele>
        <time>2015-03-22T08:52:58Z</time>
      </trkpt>
      <trkpt lat="49.33466" lon="0.98562">
        <ele>126</ele>
        <time>2015-03-22T08:53:00Z</time>
      </trkpt>
      <trkpt lat="49.33464" lon="0.98571">
        <ele>127</ele>
        <time>2015-03-22T08:53:02Z</time>
      </trkpt>
      <trkpt lat="49.33463" lon="0.9858">
        <ele>127</ele>
        <time>2015-03-22T08:53:04Z</time>
      </trkpt>
      <trkpt lat="49.33461" lon="0.98589">
        <ele>131</ele>
        <time>2015-03-22T08:53:06Z</time>
      </trkpt>
      <trkpt lat="49.33459" lon="0.98598">
        <ele>131</ele>
        <time>2015-03-22T08:53:08Z</time>
      </trkpt>
      <trkpt lat="49.33457" lon="0.98607">
        <ele>131</ele>
        <time>2015-03-22T08:53:10Z</time>
      </trkpt>
      <trkpt lat="49.33456" lon="0.98616">
        <ele>131</ele>
        <time>2015-03-22T08:53:12Z</time>
      </trkpt>
      <trkpt lat="49.33453" lon="0.98626">
        <ele>131</ele>
        <time>2015-03-22T08:53:14Z</time>
      </trkpt>
      <trkpt lat="49.3345" lon="0.98638">
        <ele>132</ele>
        <time>2015-03-22T08:53:16Z</time>
      </trkpt>
      <trkpt lat="49.33448" lon="0.98647">
        <ele>132</ele>
        <time>2015-03-22T08:53:18Z</time>
      </trkpt>
      <trkpt lat="49.33446" lon="0.98658">
        <ele>132</ele>
        <time>2015-03-22T08:53:20Z</time>
      </trkpt>
      <trkpt lat="49.33444" lon="0.98668">
        <ele>133</ele>
        <time>2015-03-22T08:53:22Z</time>
      </trkpt>
      <trkpt lat="49.33442" lon="0.9868">
        <ele>133</ele>
        <time>2015-03-22T08:53:24Z</time>
      </trkpt>
      <trkpt lat="49.33439" lon="0.98691">
        <ele>133</ele>
        <time>2015-03-22T08:53:26Z</time>
      </trkpt>
      <trkpt lat="49.33437" lon="0.98703">
        <ele>133</ele>
        <time>2015-03-22T08:53:28Z</time>
      </trkpt>
      <trkpt lat="49.33434" lon="0.98714">
        <ele>133</ele>
        <time>2015-03-22T08:53:30Z</time>
      </trkpt>
      <trkpt lat="49.33434" lon="0.98728">
        <ele>133</ele>
        <time>2015-03-22T08:53:32Z</time>
      </trkpt>
      <trkpt lat="49.33432" lon="0.98739">
        <ele>133</ele>
        <time>2015-03-22T08:53:34Z</time>
      </trkpt>
      <trkpt lat="49.3343" lon="0.98753">
        <ele>134</ele>
        <time>2015-03-22T08:53:36Z</time>
      </trkpt>
      <trkpt lat="49.33427" lon="0.98765">
        <ele>134</ele>
        <time>2015-03-22T08:53:38Z</time>
      </trkpt>
      <trkpt lat="49.33425" lon="0.98776">
        <ele>134</ele>
        <time>2015-03-22T08:53:40Z</time>
      </trkpt>
      <trkpt lat="49.33423" lon="0.98787">
        <ele>134</ele>
        <time>2015-03-22T08:53:42Z</time>
      </trkpt>
      <trkpt lat="49.33419" lon="0.98798">
        <ele>134</ele>
        <time>2015-03-22T08:53:44Z</time>
      </trkpt>
      <trkpt lat="49.33419" lon="0.98813">
        <ele>134</ele>
        <time>2015-03-22T08:53:46Z</time>
      </trkpt>
      <trkpt lat="49.33419" lon="0.9883">
        <ele>135</ele>
        <time>2015-03-22T08:53:48Z</time>
      </trkpt>
      <trkpt lat="49.33417" lon="0.98845">
        <ele>136</ele>
        <time>2015-03-22T08:53:50Z</time>
      </trkpt>
      <trkpt lat="49.33415" lon="0.98861">
        <ele>136</ele>
        <time>2015-03-22T08:53:52Z</time>
      </trkpt>
      <trkpt lat="49.33413" lon="0.98876">
        <ele>136</ele>
        <time>2015-03-22T08:53:54Z</time>
      </trkpt>
      <trkpt lat="49.33411" lon="0.9889">
        <ele>136</ele>
        <time>2015-03-22T08:53:56Z</time>
      </trkpt>
      <trkpt lat="49.33409" lon="0.98904">
        <ele>136</ele>
        <time>2015-03-22T08:53:58Z</time>
      </trkpt>
      <trkpt lat="49.33405" lon="0.98918">
        <ele>137</ele>
        <time>2015-03-22T08:54:00Z</time>
      </trkpt>
      <trkpt lat="49.33402" lon="0.98933">
        <ele>137</ele>
        <time>2015-03-22T08:54:02Z</time>
      </trkpt>
      <trkpt lat="49.33399" lon="0.98948">
        <ele>137</ele>
        <time>2015-03-22T08:54:04Z</time>
      </trkpt>
      <trkpt lat="49.33395" lon="0.98962">
        <ele>137</ele>
        <time>2015-03-22T08:54:06Z</time>
      </trkpt>
      <trkpt lat="49.33391" lon="0.98976">
        <ele>137</ele>
        <time>2015-03-22T08:54:08Z</time>
      </trkpt>
      <trkpt lat="49.33388" lon="0.98991">
        <ele>137</ele>
        <time>2015-03-22T08:54:10Z</time>
      </trkpt>
      <trkpt lat="49.33386" lon="0.99005">
        <ele>137</ele>
        <time>2015-03-22T08:54:12Z</time>
      </trkpt>
      <trkpt lat="49.33383" lon="0.99019">
        <ele>137</ele>
        <time>2015-03-22T08:54:14Z</time>
      </trkpt>
      <trkpt lat="49.33381" lon="0.99032">
        <ele>137</ele>
        <time>2015-03-22T08:54:16Z</time>
      </trkpt>
      <trkpt lat="49.33378" lon="0.99046">
        <ele>137</ele>
        <time>2015-03-22T08:54:18Z</time>
      </trkpt>
      <trkpt lat="49.33375" lon="0.99062">
        <ele>136</ele>
        <time>2015-03-22T08:54:20Z</time>
      </trkpt>
      <trkpt lat="49.33372" lon="0.99077">
        <ele>136</ele>
        <time>2015-03-22T08:54:22Z</time>
      </trkpt>
      <trkpt lat="49.33368" lon="0.99092">
        <ele>136</ele>
        <time>2015-03-22T08:54:24Z</time>
      </trkpt>
      <trkpt lat="49.33365" lon="0.99104">
        <ele>136</ele>
        <time>2015-03-22T08:54:26Z</time>
      </trkpt>
      <trkpt lat="49.3336" lon="0.99119">
        <ele>137</ele>
        <time>2015-03-22T08:54:28Z</time>
      </trkpt>
      <trkpt lat="49.33358" lon="0.99133">
        <ele>137</ele>
        <time>2015-03-22T08:54:30Z</time>
      </trkpt>
      <trkpt lat="49.33355" lon="0.99149">
        <ele>137</ele>
        <time>2015-03-22T08:54:32Z</time>
      </trkpt>
      <trkpt lat="49.33352" lon="0.99165">
        <ele>137</ele>
        <time>2015-03-22T08:54:34Z</time>
      </trkpt>
      <trkpt lat="49.33349" lon="0.99181">
        <ele>138</ele>
        <time>2015-03-22T08:54:36Z</time>
      </trkpt>
      <trkpt lat="49.33345" lon="0.99198">
        <ele>139</ele>
        <time>2015-03-22T08:54:38Z</time>
      </trkpt>
      <trkpt lat="49.33342" lon="0.99213">
        <ele>139</ele>
        <time>2015-03-22T08:54:40Z</time>
      </trkpt>
      <trkpt lat="49.33339" lon="0.99228">
        <ele>139</ele>
        <time>2015-03-22T08:54:42Z</time>
      </trkpt>
      <trkpt lat="49.33336" lon="0.99243">
        <ele>139</ele>
        <time>2015-03-22T08:54:44Z</time>
      </trkpt>
      <trkpt lat="49.33332" lon="0.99259">
        <ele>139</ele>
        <time>2015-03-22T08:54:46Z</time>
      </trkpt>
      <trkpt lat="49.33328" lon="0.99275">
        <ele>139</ele>
        <time>2015-03-22T08:54:48Z</time>
      </trkpt>
      <trkpt lat="49.33325" lon="0.99292">
        <ele>139</ele>
        <time>2015-03-22T08:54:50Z</time>
      </trkpt>
      <trkpt lat="49.33321" lon="0.99309">
        <ele>139</ele>
        <time>2015-03-22T08:54:52Z</time>
      </trkpt>
      <trkpt lat="49.33318" lon="0.99326">
        <ele>139</ele>
        <time>2015-03-22T08:54:54Z</time>
      </trkpt>
      <trkpt lat="49.33315" lon="0.99345">
        <ele>139</ele>
        <time>2015-03-22T08:54:56Z</time>
      </trkpt>
      <trkpt lat="49.33312" lon="0.99362">
        <ele>139</ele>
        <time>2015-03-22T08:54:58Z</time>
      </trkpt>
      <trkpt lat="49.33309" lon="0.99378">
        <ele>139</ele>
        <time>2015-03-22T08:55:00Z</time>
      </trkpt>
      <trkpt lat="49.33305" lon="0.99394">
        <ele>139</ele>
        <time>2015-03-22T08:55:02Z</time>
      </trkpt>
      <trkpt lat="49.33302" lon="0.99413">
        <ele>139</ele>
        <time>2015-03-22T08:55:04Z</time>
      </trkpt>
      <trkpt lat="49.33298" lon="0.9943">
        <ele>139</ele>
        <time>2015-03-22T08:55:06Z</time>
      </trkpt>
      <trkpt lat="49.33296" lon="0.99448">
        <ele>138</ele>
        <time>2015-03-22T08:55:08Z</time>
      </trkpt>
      <trkpt lat="49.33292" lon="0.99464">
        <ele>138</ele>
        <time>2015-03-22T08:55:10Z</time>
      </trkpt>
      <trkpt lat="49.33288" lon="0.99483">
        <ele>138</ele>
        <time>2015-03-22T08:55:12Z</time>
      </trkpt>
      <trkpt lat="49.33284" lon="0.99501">
        <ele>137</ele>
        <time>2015-03-22T08:55:14Z</time>
      </trkpt>
      <trkpt lat="49.33281" lon="0.99519">
        <ele>137</ele>
        <time>2015-03-22T08:55:16Z</time>
      </trkpt>
      <trkpt lat="49.33277" lon="0.99538">
        <ele>138</ele>
        <time>2015-03-22T08:55:18Z</time>
      </trkpt>
      <trkpt lat="49.33274" lon="0.99554">
        <ele>138</ele>
        <time>2015-03-22T08:55:20Z</time>
      </trkpt>
      <trkpt lat="49.33271" lon="0.99573">
        <ele>137</ele>
        <time>2015-03-22T08:55:22Z</time>
      </trkpt>
      <trkpt lat="49.33268" lon="0.99591">
        <ele>136</ele>
        <time>2015-03-22T08:55:24Z</time>
      </trkpt>
      <trkpt lat="49.33265" lon="0.99608">
        <ele>136</ele>
        <time>2015-03-22T08:55:26Z</time>
      </trkpt>
      <trkpt lat="49.33261" lon="0.99625">
        <ele>135</ele>
        <time>2015-03-22T08:55:28Z</time>
      </trkpt>
      <trkpt lat="49.33257" lon="0.99643">
        <ele>134</ele>
        <time>2015-03-22T08:55:30Z</time>
      </trkpt>
      <trkpt lat="49.33254" lon="0.99662">
        <ele>132</ele>
        <time>2015-03-22T08:55:32Z</time>
      </trkpt>
      <trkpt lat="49.33249" lon="0.99675">
        <ele>130</ele>
        <time>2015-03-22T08:55:34Z</time>
      </trkpt>
      <trkpt lat="49.33243" lon="0.99687">
        <ele>128</ele>
        <time>2015-03-22T08:55:36Z</time>
      </trkpt>
      <trkpt lat="49.33237" lon="0.99699">
        <ele>127</ele>
        <time>2015-03-22T08:55:38Z</time>
      </trkpt>
      <trkpt lat="49.33231" lon="0.9971">
        <ele>127</ele>
        <time>2015-03-22T08:55:40Z</time>
      </trkpt>
      <trkpt lat="49.33222" lon="0.99717">
        <ele>126</ele>
        <time>2015-03-22T08:55:42Z</time>
      </trkpt>
      <trkpt lat="49.33213" lon="0.99714">
        <ele>126</ele>
        <time>2015-03-22T08:55:44Z</time>
      </trkpt>
      <trkpt lat="49.33208" lon="0.99705">
        <ele>126</ele>
        <time>2015-03-22T08:55:46Z</time>
      </trkpt>
      <trkpt lat="49.332" lon="0.99706">
        <ele>126</ele>
        <time>2015-03-22T08:55:48Z</time>
      </trkpt>
      <trkpt lat="49.33191" lon="0.99708">
        <ele>126</ele>
        <time>2015-03-22T08:55:50Z</time>
      </trkpt>
      <trkpt lat="49.33184" lon="0.99701">
        <ele>126</ele>
        <time>2015-03-22T08:55:52Z</time>
      </trkpt>
      <trkpt lat="49.33177" lon="0.99702">
        <ele>125</ele>
        <time>2015-03-22T08:55:54Z</time>
      </trkpt>
      <trkpt lat="49.33174" lon="0.99708">
        <ele>125</ele>
        <time>2015-03-22T08:55:56Z</time>
      </trkpt>
      <trkpt lat="49.33169" lon="0.99723">
        <ele>125</ele>
        <time>2015-03-22T08:56:00Z</time>
      </trkpt>
      <trkpt lat="49.33166" lon="0.99732">
        <ele>123</ele>
        <time>2015-03-22T08:56:02Z</time>
      </trkpt>
      <trkpt lat="49.33162" lon="0.99736">
        <ele>123</ele>
        <time>2015-03-22T08:56:04Z</time>
      </trkpt>
      <trkpt lat="49.33153" lon="0.99736">
        <ele>123</ele>
        <time>2015-03-22T08:56:06Z</time>
      </trkpt>
      <trkpt lat="49.33146" lon="0.99735">
        <ele>123</ele>
        <time>2015-03-22T08:56:08Z</time>
      </trkpt>
      <trkpt lat="49.33138" lon="0.99737">
        <ele>123</ele>
        <time>2015-03-22T08:56:10Z</time>
      </trkpt>
      <trkpt lat="49.33132" lon="0.99743">
        <ele>123</ele>
        <time>2015-03-22T08:56:12Z</time>
      </trkpt>
      <trkpt lat="49.33129" lon="0.99751">
        <ele>121</ele>
        <time>2015-03-22T08:56:14Z</time>
      </trkpt>
      <trkpt lat="49.33125" lon="0.99762">
        <ele>121</ele>
        <time>2015-03-22T08:56:16Z</time>
      </trkpt>
      <trkpt lat="49.33117" lon="0.9977">
        <ele>121</ele>
        <time>2015-03-22T08:56:18Z</time>
      </trkpt>
      <trkpt lat="49.3311" lon="0.99779">
        <ele>121</ele>
        <time>2015-03-22T08:56:20Z</time>
      </trkpt>
      <trkpt lat="49.33104" lon="0.99789">
        <ele>121</ele>
        <time>2015-03-22T08:56:22Z</time>
      </trkpt>
      <trkpt lat="49.33096" lon="0.99803">
        <ele>121</ele>
        <time>2015-03-22T08:56:24Z</time>
      </trkpt>
      <trkpt lat="49.33088" lon="0.99813">
        <ele>120</ele>
        <time>2015-03-22T08:56:26Z</time>
      </trkpt>
      <trkpt lat="49.33079" lon="0.99821">
        <ele>119</ele>
        <time>2015-03-22T08:56:28Z</time>
      </trkpt>
      <trkpt lat="49.33076" lon="0.99813">
        <ele>119</ele>
        <time>2015-03-22T08:56:32Z</time>
      </trkpt>
      <trkpt lat="49.33071" lon="0.99811">
        <ele>120</ele>
        <time>2015-03-22T08:56:34Z</time>
      </trkpt>
      <trkpt lat="49.33065" lon="0.99817">
        <ele>119</ele>
        <time>2015-03-22T08:56:38Z</time>
      </trkpt>
      <trkpt lat="49.33064" lon="0.99826">
        <ele>119</ele>
        <time>2015-03-22T08:56:40Z</time>
      </trkpt>
      <trkpt lat="49.33059" lon="0.9983">
        <ele>119</ele>
        <time>2015-03-22T08:56:42Z</time>
      </trkpt>
      <trkpt lat="49.33051" lon="0.99828">
        <ele>119</ele>
        <time>2015-03-22T08:56:44Z</time>
      </trkpt>
      <trkpt lat="49.33044" lon="0.99825">
        <ele>119</ele>
        <time>2015-03-22T08:56:46Z</time>
      </trkpt>
      <trkpt lat="49.3304" lon="0.99816">
        <ele>119</ele>
        <time>2015-03-22T08:56:48Z</time>
      </trkpt>
      <trkpt lat="49.33036" lon="0.99809">
        <ele>120</ele>
        <time>2015-03-22T08:56:50Z</time>
      </trkpt>
      <trkpt lat="49.3303" lon="0.99807">
        <ele>120</ele>
        <time>2015-03-22T08:56:52Z</time>
      </trkpt>
      <trkpt lat="49.33024" lon="0.99812">
        <ele>119</ele>
        <time>2015-03-22T08:56:54Z</time>
      </trkpt>
      <trkpt lat="49.33017" lon="0.9982">
        <ele>119</ele>
        <time>2015-03-22T08:56:56Z</time>
      </trkpt>
      <trkpt lat="49.33012" lon="0.99829">
        <ele>118</ele>
        <time>2015-03-22T08:56:58Z</time>
      </trkpt>
      <trkpt lat="49.33009" lon="0.99843">
        <ele>117</ele>
        <time>2015-03-22T08:57:00Z</time>
      </trkpt>
      <trkpt lat="49.33012" lon="0.99858">
        <ele>116</ele>
        <time>2015-03-22T08:57:02Z</time>
      </trkpt>
      <trkpt lat="49.33015" lon="0.99872">
        <ele>116</ele>
        <time>2015-03-22T08:57:04Z</time>
      </trkpt>
      <trkpt lat="49.33013" lon="0.99884">
        <ele>116</ele>
        <time>2015-03-22T08:57:06Z</time>
      </trkpt>
      <trkpt lat="49.33011" lon="0.99898">
        <ele>115</ele>
        <time>2015-03-22T08:57:08Z</time>
      </trkpt>
      <trkpt lat="49.33008" lon="0.99908">
        <ele>114</ele>
        <time>2015-03-22T08:57:10Z</time>
      </trkpt>
      <trkpt lat="49.33001" lon="0.99916">
        <ele>113</ele>
        <time>2015-03-22T08:57:12Z</time>
      </trkpt>
      <trkpt lat="49.32996" lon="0.99931">
        <ele>112</ele>
        <time>2015-03-22T08:57:14Z</time>
      </trkpt>
      <trkpt lat="49.32993" lon="0.99946">
        <ele>112</ele>
        <time>2015-03-22T08:57:16Z</time>
      </trkpt>
      <trkpt lat="49.32991" lon="0.99962">
        <ele>111</ele>
        <time>2015-03-22T08:57:18Z</time>
      </trkpt>
      <trkpt lat="49.32994" lon="0.99982">
        <ele>110</ele>
        <time>2015-03-22T08:57:20Z</time>
      </trkpt>
      <trkpt lat="49.32997" lon="0.99999">
        <ele>109</ele>
        <time>2015-03-22T08:57:22Z</time>
      </trkpt>
      <trkpt lat="49.32997" lon="1.00017">
        <ele>108</ele>
        <time>2015-03-22T08:57:24Z</time>
      </trkpt>
      <trkpt lat="49.32994" lon="1.00032">
        <ele>107</ele>
        <time>2015-03-22T08:57:26Z</time>
      </trkpt>
      <trkpt lat="49.32993" lon="1.00044">
        <ele>107</ele>
        <time>2015-03-22T08:57:28Z</time>
      </trkpt>
      <trkpt lat="49.32993" lon="1.00058">
        <ele>106</ele>
        <time>2015-03-22T08:57:30Z</time>
      </trkpt>
      <trkpt lat="49.32991" lon="1.00069">
        <ele>106</ele>
        <time>2015-03-22T08:57:32Z</time>
      </trkpt>
      <trkpt lat="49.3299" lon="1.00077">
        <ele>105</ele>
        <time>2015-03-22T08:57:34Z</time>
      </trkpt>
      <trkpt lat="49.32991" lon="1.00084">
        <ele>103</ele>
        <time>2015-03-22T08:57:36Z</time>
      </trkpt>
      <trkpt lat="49.3299" lon="1.00091">
        <ele>103</ele>
        <time>2015-03-22T08:57:38Z</time>
      </trkpt>
      <trkpt lat="49.3299" lon="1.00099">
        <ele>102</ele>
        <time>2015-03-22T08:57:40Z</time>
      </trkpt>
      <trkpt lat="49.32988" lon="1.00106">
        <ele>102</ele>
        <time>2015-03-22T08:57:42Z</time>
      </trkpt>
      <trkpt lat="49.32982" lon="1.00113">
        <ele>101</ele>
        <time>2015-03-22T08:57:44Z</time>
      </trkpt>
      <trkpt lat="49.32976" lon="1.0012">
        <ele>100</ele>
        <time>2015-03-22T08:57:46Z</time>
      </trkpt>
      <trkpt lat="49.32969" lon="1.00122">
        <ele>100</ele>
        <time>2015-03-22T08:57:48Z</time>
      </trkpt>
      <trkpt lat="49.32962" lon="1.00121">
        <ele>100</ele>
        <time>2015-03-22T08:57:50Z</time>
      </trkpt>
      <trkpt lat="49.32955" lon="1.00119">
        <ele>100</ele>
        <time>2015-03-22T08:57:52Z</time>
      </trkpt>
      <trkpt lat="49.32949" lon="1.00116">
        <ele>100</ele>
        <time>2015-03-22T08:57:54Z</time>
      </trkpt>
      <trkpt lat="49.32941" lon="1.00111">
        <ele>100</ele>
        <time>2015-03-22T08:57:56Z</time>
      </trkpt>
      <trkpt lat="49.32932" lon="1.0011">
        <ele>100</ele>
        <time>2015-03-22T08:57:58Z</time>
      </trkpt>
      <trkpt lat="49.32924" lon="1.00108">
        <ele>100</ele>
        <time>2015-03-22T08:58:00Z</time>
      </trkpt>
      <trkpt lat="49.32914" lon="1.00111">
        <ele>97</ele>
        <time>2015-03-22T08:58:02Z</time>
      </trkpt>
      <trkpt lat="49.32906" lon="1.00105">
        <ele>98</ele>
        <time>2015-03-22T08:58:04Z</time>
      </trkpt>
      <trkpt lat="49.32899" lon="1.00102">
        <ele>98</ele>
        <time>2015-03-22T08:58:06Z</time>
      </trkpt>
      <trkpt lat="49.32894" lon="1.00099">
        <ele>97</ele>
        <time>2015-03-22T08:58:08Z</time>
      </trkpt>
      <trkpt lat="49.32888" lon="1.00098">
        <ele>97</ele>
        <time>2015-03-22T08:58:10Z</time>
      </trkpt>
      <trkpt lat="49.32881" lon="1.00097">
        <ele>97</ele>
        <time>2015-03-22T08:58:12Z</time>
      </trkpt>
      <trkpt lat="49.32877" lon="1.00091">
        <ele>97</ele>
        <time>2015-03-22T08:58:14Z</time>
      </trkpt>
      <trkpt lat="49.32876" lon="1.00083">
        <ele>102</ele>
        <time>2015-03-22T08:58:18Z</time>
      </trkpt>
      <trkpt lat="49.32874" lon="1.00074">
        <ele>102</ele>
        <time>2015-03-22T08:58:22Z</time>
      </trkpt>
      <trkpt lat="49.32871" lon="1.00067">
        <ele>102</ele>
        <time>2015-03-22T08:58:26Z</time>
      </trkpt>
      <trkpt lat="49.32868" lon="1.00061">
        <ele>103</ele>
        <time>2015-03-22T08:58:30Z</time>
      </trkpt>
      <trkpt lat="49.32865" lon="1.00055">
        <ele>103</ele>
        <time>2015-03-22T08:58:34Z</time>
      </trkpt>
      <trkpt lat="49.32862" lon="1.0005">
        <ele>103</ele>
        <time>2015-03-22T08:58:38Z</time>
      </trkpt>
      <trkpt lat="49.32856" lon="1.00048">
        <ele>103</ele>
        <time>2015-03-22T08:58:42Z</time>
      </trkpt>
      <trkpt lat="49.3285" lon="1.00043">
        <ele>103</ele>
        <time>2015-03-22T08:58:46Z</time>
      </trkpt>
      <trkpt lat="49.32846" lon="1.00038">
        <ele>103</ele>
        <time>2015-03-22T08:58:48Z</time>
      </trkpt>
      <trkpt lat="49.32845" lon="1.00029">
        <ele>104</ele>
        <time>2015-03-22T08:58:50Z</time>
      </trkpt>
      <trkpt lat="49.32838" lon="1.00023">
        <ele>104</ele>
        <time>2015-03-22T08:58:54Z</time>
      </trkpt>
      <trkpt lat="49.32833" lon="1.00018">
        <ele>105</ele>
        <time>2015-03-22T08:58:56Z</time>
      </trkpt>
      <trkpt lat="49.32828" lon="1.00014">
        <ele>102</ele>
        <time>2015-03-22T08:58:58Z</time>
      </trkpt>
      <trkpt lat="49.32822" lon="1.0001">
        <ele>102</ele>
        <time>2015-03-22T08:59:00Z</time>
      </trkpt>
      <trkpt lat="49.32816" lon="1.00008">
        <ele>102</ele>
        <time>2015-03-22T08:59:02Z</time>
      </trkpt>
      <trkpt lat="49.32812" lon="1.00006">
        <ele>101</ele>
        <time>2015-03-22T08:59:04Z</time>
      </trkpt>
      <trkpt lat="49.32807" lon="1.00003">
        <ele>101</ele>
        <time>2015-03-22T08:59:06Z</time>
      </trkpt>
      <trkpt lat="49.32802" lon="1.00002">
        <ele>100</ele>
        <time>2015-03-22T08:59:08Z</time>
      </trkpt>
      <trkpt lat="49.32797" lon="1.00001">
        <ele>100</ele>
        <time>2015-03-22T08:59:10Z</time>
      </trkpt>
      <trkpt lat="49.32791" lon="1.00001">
        <ele>99</ele>
        <time>2015-03-22T08:59:12Z</time>
      </trkpt>
      <trkpt lat="49.32785" lon="0.99999">
        <ele>105</ele>
        <time>2015-03-22T08:59:14Z</time>
      </trkpt>
      <trkpt lat="49.32778" lon="0.99996">
        <ele>104</ele>
        <time>2015-03-22T08:59:16Z</time>
      </trkpt>
      <trkpt lat="49.32772" lon="0.99991">
        <ele>104</ele>
        <time>2015-03-22T08:59:18Z</time>
      </trkpt>
      <trkpt lat="49.32767" lon="0.99986">
        <ele>104</ele>
        <time>2015-03-22T08:59:20Z</time>
      </trkpt>
      <trkpt lat="49.32764" lon="0.99979">
        <ele>104</ele>
        <time>2015-03-22T08:59:22Z</time>
      </trkpt>
      <trkpt lat="49.32757" lon="0.99971">
        <ele>104</ele>
        <time>2015-03-22T08:59:26Z</time>
      </trkpt>
      <trkpt lat="49.32752" lon="0.99972">
        <ele>104</ele>
        <time>2015-03-22T08:59:28Z</time>
      </trkpt>
      <trkpt lat="49.32744" lon="0.99971">
        <ele>102</ele>
        <time>2015-03-22T08:59:30Z</time>
      </trkpt>
      <trkpt lat="49.32736" lon="0.99969">
        <ele>103</ele>
        <time>2015-03-22T08:59:32Z</time>
      </trkpt>
      <trkpt lat="49.3273" lon="0.99966">
        <ele>103</ele>
        <time>2015-03-22T08:59:34Z</time>
      </trkpt>
      <trkpt lat="49.32723" lon="0.99967">
        <ele>103</ele>
        <time>2015-03-22T08:59:36Z</time>
      </trkpt>
      <trkpt lat="49.32715" lon="0.9997">
        <ele>103</ele>
        <time>2015-03-22T08:59:38Z</time>
      </trkpt>
      <trkpt lat="49.32706" lon="0.99975">
        <ele>102</ele>
        <time>2015-03-22T08:59:40Z</time>
      </trkpt>
      <trkpt lat="49.32698" lon="0.99984">
        <ele>102</ele>
        <time>2015-03-22T08:59:42Z</time>
      </trkpt>
      <trkpt lat="49.32691" lon="0.99994">
        <ele>101</ele>
        <time>2015-03-22T08:59:44Z</time>
      </trkpt>
      <trkpt lat="49.32685" lon="1.00002">
        <ele>95</ele>
        <time>2015-03-22T08:59:46Z</time>
      </trkpt>
      <trkpt lat="49.3268" lon="1.00008">
        <ele>95</ele>
        <time>2015-03-22T08:59:48Z</time>
      </trkpt>
      <trkpt lat="49.32684" lon="1.00017">
        <ele>94</ele>
        <time>2015-03-22T08:59:56Z</time>
      </trkpt>
      <trkpt lat="49.32684" lon="1.00027">
        <ele>93</ele>
        <time>2015-03-22T08:59:58Z</time>
      </trkpt>
      <trkpt lat="49.32682" lon="1.00036">
        <ele>92</ele>
        <time>2015-03-22T09:00:00Z</time>
      </trkpt>
      <trkpt lat="49.32671" lon="1.00034">
        <ele>93</ele>
        <time>2015-03-22T09:00:04Z</time>
      </trkpt>
      <trkpt lat="49.32663" lon="1.00028">
        <ele>87</ele>
        <time>2015-03-22T09:00:06Z</time>
      </trkpt>
      <trkpt lat="49.32654" lon="1.00022">
        <ele>87</ele>
        <time>2015-03-22T09:00:08Z</time>
      </trkpt>
      <trkpt lat="49.32643" lon="1.00015">
        <ele>86</ele>
        <time>2015-03-22T09:00:10Z</time>
      </trkpt>
      <trkpt lat="49.32631" lon="1.00006">
        <ele>84</ele>
        <time>2015-03-22T09:00:12Z</time>
      </trkpt>
      <trkpt lat="49.3262" lon="0.99998">
        <ele>88</ele>
        <time>2015-03-22T09:00:14Z</time>
      </trkpt>
      <trkpt lat="49.32609" lon="0.99985">
        <ele>87</ele>
        <time>2015-03-22T09:00:16Z</time>
      </trkpt>
      <trkpt lat="49.32605" lon="0.99974">
        <ele>87</ele>
        <time>2015-03-22T09:00:18Z</time>
      </trkpt>
      <trkpt lat="49.32603" lon="0.99962">
        <ele>88</ele>
        <time>2015-03-22T09:00:20Z</time>
      </trkpt>
      <trkpt lat="49.32596" lon="0.99956">
        <ele>88</ele>
        <time>2015-03-22T09:00:22Z</time>
      </trkpt>
      <trkpt lat="49.32591" lon="0.99947">
        <ele>88</ele>
        <time>2015-03-22T09:00:24Z</time>
      </trkpt>
      <trkpt lat="49.32585" lon="0.99934">
        <ele>87</ele>
        <time>2015-03-22T09:00:26Z</time>
      </trkpt>
      <trkpt lat="49.32577" lon="0.99919">
        <ele>80</ele>
        <time>2015-03-22T09:00:28Z</time>
      </trkpt>
      <trkpt lat="49.3257" lon="0.99902">
        <ele>79</ele>
        <time>2015-03-22T09:00:30Z</time>
      </trkpt>
      <trkpt lat="49.32561" lon="0.99886">
        <ele>78</ele>
        <time>2015-03-22T09:00:32Z</time>
      </trkpt>
      <trkpt lat="49.32552" lon="0.99866">
        <ele>78</ele>
        <time>2015-03-22T09:00:34Z</time>
      </trkpt>
      <trkpt lat="49.32544" lon="0.99846">
        <ele>77</ele>
        <time>2015-03-22T09:00:36Z</time>
      </trkpt>
      <trkpt lat="49.32537" lon="0.99825">
        <ele>80</ele>
        <time>2015-03-22T09:00:38Z</time>
      </trkpt>
      <trkpt lat="49.32531" lon="0.99806">
        <ele>80</ele>
        <time>2015-03-22T09:00:40Z</time>
      </trkpt>
      <trkpt lat="49.32525" lon="0.99787">
        <ele>79</ele>
        <time>2015-03-22T09:00:42Z</time>
      </trkpt>
      <trkpt lat="49.32519" lon="0.99768">
        <ele>78</ele>
        <time>2015-03-22T09:00:44Z</time>
      </trkpt>
      <trkpt lat="49.32514" lon="0.99749">
        <ele>77</ele>
        <time>2015-03-22T09:00:46Z</time>
      </trkpt>
      <trkpt lat="49.3251" lon="0.99731">
        <ele>79</ele>
        <time>2015-03-22T09:00:48Z</time>
      </trkpt>
      <trkpt lat="49.32507" lon="0.99711">
        <ele>82</ele>
        <time>2015-03-22T09:00:50Z</time>
      </trkpt>
      <trkpt lat="49.32504" lon="0.9969">
        <ele>82</ele>
        <time>2015-03-22T09:00:52Z</time>
      </trkpt>
      <trkpt lat="49.325" lon="0.99673">
        <ele>73</ele>
        <time>2015-03-22T09:00:54Z</time>
      </trkpt>
      <trkpt lat="49.32496" lon="0.9966">
        <ele>75</ele>
        <time>2015-03-22T09:00:56Z</time>
      </trkpt>
      <trkpt lat="49.32492" lon="0.99642">
        <ele>74</ele>
        <time>2015-03-22T09:00:58Z</time>
      </trkpt>
      <trkpt lat="49.32487" lon="0.9963">
        <ele>74</ele>
        <time>2015-03-22T09:01:00Z</time>
      </trkpt>
      <trkpt lat="49.3248" lon="0.99618">
        <ele>75</ele>
        <time>2015-03-22T09:01:02Z</time>
      </trkpt>
      <trkpt lat="49.32472" lon="0.99605">
        <ele>75</ele>
        <time>2015-03-22T09:01:04Z</time>
      </trkpt>
      <trkpt lat="49.32463" lon="0.99593">
        <ele>74</ele>
        <time>2015-03-22T09:01:06Z</time>
      </trkpt>
      <trkpt lat="49.32452" lon="0.99579">
        <ele>82</ele>
        <time>2015-03-22T09:01:08Z</time>
      </trkpt>
      <trkpt lat="49.32443" lon="0.99567">
        <ele>80</ele>
        <time>2015-03-22T09:01:10Z</time>
      </trkpt>
      <trkpt lat="49.32435" lon="0.99556">
        <ele>80</ele>
        <time>2015-03-22T09:01:12Z</time>
      </trkpt>
      <trkpt lat="49.32427" lon="0.99551">
        <ele>80</ele>
        <time>2015-03-22T09:01:14Z</time>
      </trkpt>
      <trkpt lat="49.32418" lon="0.99546">
        <ele>80</ele>
        <time>2015-03-22T09:01:16Z</time>
      </trkpt>
      <trkpt lat="49.32408" lon="0.99539">
        <ele>69</ele>
        <time>2015-03-22T09:01:18Z</time>
      </trkpt>
      <trkpt lat="49.32399" lon="0.99532">
        <ele>69</ele>
        <time>2015-03-22T09:01:20Z</time>
      </trkpt>
      <trkpt lat="49.32393" lon="0.99525">
        <ele>70</ele>
        <time>2015-03-22T09:01:22Z</time>
      </trkpt>
      <trkpt lat="49.32385" lon="0.99519">
        <ele>69</ele>
        <time>2015-03-22T09:01:24Z</time>
      </trkpt>
      <trkpt lat="49.3238" lon="0.99518">
        <ele>69</ele>
        <time>2015-03-22T09:01:26Z</time>
      </trkpt>
      <trkpt lat="49.32374" lon="0.9952">
        <ele>68</ele>
        <time>2015-03-22T09:01:28Z</time>
      </trkpt>
      <trkpt lat="49.32369" lon="0.99522">
        <ele>67</ele>
        <time>2015-03-22T09:01:30Z</time>
      </trkpt>
      <trkpt lat="49.32363" lon="0.99523">
        <ele>67</ele>
        <time>2015-03-22T09:01:32Z</time>
      </trkpt>
      <trkpt lat="49.32355" lon="0.99521">
        <ele>67</ele>
        <time>2015-03-22T09:01:34Z</time>
      </trkpt>
      <trkpt lat="49.32349" lon="0.99517">
        <ele>67</ele>
        <time>2015-03-22T09:01:36Z</time>
      </trkpt>
      <trkpt lat="49.32343" lon="0.99509">
        <ele>68</ele>
        <time>2015-03-22T09:01:38Z</time>
      </trkpt>
      <trkpt lat="49.32337" lon="0.99503">
        <ele>68</ele>
        <time>2015-03-22T09:01:40Z</time>
      </trkpt>
      <trkpt lat="49.3233" lon="0.99498">
        <ele>70</ele>
        <time>2015-03-22T09:01:42Z</time>
      </trkpt>
      <trkpt lat="49.32323" lon="0.99494">
        <ele>71</ele>
        <time>2015-03-22T09:01:44Z</time>
      </trkpt>
      <trkpt lat="49.32314" lon="0.99492">
        <ele>72</ele>
        <time>2015-03-22T09:01:46Z</time>
      </trkpt>
      <trkpt lat="49.32308" lon="0.9949">
        <ele>72</ele>
        <time>2015-03-22T09:01:48Z</time>
      </trkpt>
      <trkpt lat="49.32301" lon="0.9949">
        <ele>72</ele>
        <time>2015-03-22T09:01:50Z</time>
      </trkpt>
      <trkpt lat="49.32292" lon="0.99487">
        <ele>72</ele>
        <time>2015-03-22T09:01:52Z</time>
      </trkpt>
      <trkpt lat="49.32282" lon="0.99485">
        <ele>71</ele>
        <time>2015-03-22T09:01:54Z</time>
      </trkpt>
      <trkpt lat="49.32271" lon="0.99481">
        <ele>70</ele>
        <time>2015-03-22T09:01:56Z</time>
      </trkpt>
      <trkpt lat="49.32261" lon="0.99477">
        <ele>70</ele>
        <time>2015-03-22T09:01:58Z</time>
      </trkpt>
      <trkpt lat="49.32252" lon="0.99474">
        <ele>70</ele>
        <time>2015-03-22T09:02:00Z</time>
      </trkpt>
      <trkpt lat="49.32241" lon="0.99472">
        <ele>66</ele>
        <time>2015-03-22T09:02:02Z</time>
      </trkpt>
      <trkpt lat="49.32233" lon="0.99473">
        <ele>66</ele>
        <time>2015-03-22T09:02:04Z</time>
      </trkpt>
      <trkpt lat="49.32226" lon="0.99471">
        <ele>66</ele>
        <time>2015-03-22T09:02:06Z</time>
      </trkpt>
      <trkpt lat="49.32218" lon="0.9947">
        <ele>66</ele>
        <time>2015-03-22T09:02:08Z</time>
      </trkpt>
      <trkpt lat="49.32211" lon="0.99466">
        <ele>66</ele>
        <time>2015-03-22T09:02:10Z</time>
      </trkpt>
      <trkpt lat="49.32206" lon="0.99462">
        <ele>66</ele>
        <time>2015-03-22T09:02:16Z</time>
      </trkpt>
      <trkpt lat="49.322" lon="0.99456">
        <ele>67</ele>
        <time>2015-03-22T09:02:20Z</time>
      </trkpt>
      <trkpt lat="49.32196" lon="0.99451">
        <ele>67</ele>
        <time>2015-03-22T09:02:22Z</time>
      </trkpt>
      <trkpt lat="49.32191" lon="0.99443">
        <ele>68</ele>
        <time>2015-03-22T09:02:24Z</time>
      </trkpt>
      <trkpt lat="49.32182" lon="0.99439">
        <ele>68</ele>
        <time>2015-03-22T09:02:26Z</time>
      </trkpt>
      <trkpt lat="49.32175" lon="0.99434">
        <ele>69</ele>
        <time>2015-03-22T09:02:28Z</time>
      </trkpt>
      <trkpt lat="49.32168" lon="0.99432">
        <ele>69</ele>
        <time>2015-03-22T09:02:30Z</time>
      </trkpt>
      <trkpt lat="49.32161" lon="0.99429">
        <ele>64</ele>
        <time>2015-03-22T09:02:32Z</time>
      </trkpt>
      <trkpt lat="49.32156" lon="0.99426">
        <ele>64</ele>
        <time>2015-03-22T09:02:34Z</time>
      </trkpt>
      <trkpt lat="49.32151" lon="0.99423">
        <ele>63</ele>
        <time>2015-03-22T09:02:36Z</time>
      </trkpt>
      <trkpt lat="49.32145" lon="0.99422">
        <ele>61</ele>
        <time>2015-03-22T09:02:38Z</time>
      </trkpt>
      <trkpt lat="49.32139" lon="0.99419">
        <ele>60</ele>
        <time>2015-03-22T09:02:40Z</time>
      </trkpt>
      <trkpt lat="49.32133" lon="0.99414">
        <ele>67</ele>
        <time>2015-03-22T09:02:42Z</time>
      </trkpt>
      <trkpt lat="49.32127" lon="0.9941">
        <ele>66</ele>
        <time>2015-03-22T09:02:44Z</time>
      </trkpt>
      <trkpt lat="49.32117" lon="0.99405">
        <ele>64</ele>
        <time>2015-03-22T09:02:46Z</time>
      </trkpt>
      <trkpt lat="49.32108" lon="0.99398">
        <ele>63</ele>
        <time>2015-03-22T09:02:48Z</time>
      </trkpt>
      <trkpt lat="49.32101" lon="0.99388">
        <ele>63</ele>
        <time>2015-03-22T09:02:50Z</time>
      </trkpt>
      <trkpt lat="49.32095" lon="0.99378">
        <ele>64</ele>
        <time>2015-03-22T09:02:52Z</time>
      </trkpt>
      <trkpt lat="49.3209" lon="0.99372">
        <ele>64</ele>
        <time>2015-03-22T09:02:54Z</time>
      </trkpt>
      <trkpt lat="49.32086" lon="0.99365">
        <ele>64</ele>
        <time>2015-03-22T09:02:56Z</time>
      </trkpt>
      <trkpt lat="49.32084" lon="0.99359">
        <ele>64</ele>
        <time>2015-03-22T09:02:58Z</time>
      </trkpt>
      <trkpt lat="49.32081" lon="0.99352">
        <ele>53</ele>
        <time>2015-03-22T09:03:00Z</time>
      </trkpt>
      <trkpt lat="49.32071" lon="0.9935">
        <ele>53</ele>
        <time>2015-03-22T09:03:02Z</time>
      </trkpt>
      <trkpt lat="49.32063" lon="0.99347">
        <ele>51</ele>
        <time>2015-03-22T09:03:04Z</time>
      </trkpt>
      <trkpt lat="49.32052" lon="0.99344">
        <ele>49</ele>
        <time>2015-03-22T09:03:06Z</time>
      </trkpt>
      <trkpt lat="49.32039" lon="0.99345">
        <ele>46</ele>
        <time>2015-03-22T09:03:08Z</time>
      </trkpt>
      <trkpt lat="49.32032" lon="0.99335">
        <ele>45</ele>
        <time>2015-03-22T09:03:10Z</time>
      </trkpt>
      <trkpt lat="49.32028" lon="0.9932">
        <ele>44</ele>
        <time>2015-03-22T09:03:12Z</time>
      </trkpt>
      <trkpt lat="49.32026" lon="0.99307">
        <ele>43</ele>
        <time>2015-03-22T09:03:14Z</time>
      </trkpt>
      <trkpt lat="49.32028" lon="0.99294">
        <ele>43</ele>
        <time>2015-03-22T09:03:16Z</time>
      </trkpt>
      <trkpt lat="49.32031" lon="0.99281">
        <ele>43</ele>
        <time>2015-03-22T09:03:18Z</time>
      </trkpt>
      <trkpt lat="49.32035" lon="0.9927">
        <ele>43</ele>
        <time>2015-03-22T09:03:20Z</time>
      </trkpt>
      <trkpt lat="49.3204" lon="0.99258">
        <ele>44</ele>
        <time>2015-03-22T09:03:22Z</time>
      </trkpt>
      <trkpt lat="49.32046" lon="0.99249">
        <ele>40</ele>
        <time>2015-03-22T09:03:24Z</time>
      </trkpt>
      <trkpt lat="49.3205" lon="0.99241">
        <ele>40</ele>
        <time>2015-03-22T09:03:26Z</time>
      </trkpt>
      <trkpt lat="49.32053" lon="0.99232">
        <ele>40</ele>
        <time>2015-03-22T09:03:28Z</time>
      </trkpt>
      <trkpt lat="49.32057" lon="0.99221">
        <ele>40</ele>
        <time>2015-03-22T09:03:30Z</time>
      </trkpt>
      <trkpt lat="49.32061" lon="0.99211">
        <ele>40</ele>
        <time>2015-03-22T09:03:32Z</time>
      </trkpt>
      <trkpt lat="49.32066" lon="0.99203">
        <ele>40</ele>
        <time>2015-03-22T09:03:34Z</time>
      </trkpt>
      <trkpt lat="49.3207" lon="0.99194">
        <ele>40</ele>
        <time>2015-03-22T09:03:36Z</time>
      </trkpt>
      <trkpt lat="49.32075" lon="0.99187">
        <ele>41</ele>
        <time>2015-03-22T09:03:38Z</time>
      </trkpt>
      <trkpt lat="49.32079" lon="0.99178">
        <ele>43</ele>
        <time>2015-03-22T09:03:40Z</time>
      </trkpt>
      <trkpt lat="49.32084" lon="0.99168">
        <ele>47</ele>
        <time>2015-03-22T09:03:42Z</time>
      </trkpt>
      <trkpt lat="49.32089" lon="0.99159">
        <ele>49</ele>
        <time>2015-03-22T09:03:44Z</time>
      </trkpt>
      <trkpt lat="49.32094" lon="0.99149">
        <ele>52</ele>
        <time>2015-03-22T09:03:46Z</time>
      </trkpt>
      <trkpt lat="49.32099" lon="0.99136">
        <ele>53</ele>
        <time>2015-03-22T09:03:48Z</time>
      </trkpt>
      <trkpt lat="49.32103" lon="0.99124">
        <ele>53</ele>
        <time>2015-03-22T09:03:50Z</time>
      </trkpt>
      <trkpt lat="49.32107" lon="0.9911">
        <ele>52</ele>
        <time>2015-03-22T09:03:52Z</time>
      </trkpt>
      <trkpt lat="49.32114" lon="0.99094">
        <ele>52</ele>
        <time>2015-03-22T09:03:53Z</time>
      </trkpt>
      <trkpt lat="49.32118" lon="0.99079">
        <ele>46</ele>
        <time>2015-03-22T09:03:55Z</time>
      </trkpt>
      <trkpt lat="49.32121" lon="0.99065">
        <ele>47</ele>
        <time>2015-03-22T09:03:57Z</time>
      </trkpt>
      <trkpt lat="49.32125" lon="0.99051">
        <ele>47</ele>
        <time>2015-03-22T09:03:59Z</time>
      </trkpt>
      <trkpt lat="49.3213" lon="0.99043">
        <ele>47</ele>
        <time>2015-03-22T09:04:01Z</time>
      </trkpt>
      <trkpt lat="49.32131" lon="0.99034">
        <ele>47</ele>
        <time>2015-03-22T09:04:03Z</time>
      </trkpt>
      <trkpt lat="49.32133" lon="0.99022">
        <ele>47</ele>
        <time>2015-03-22T09:04:05Z</time>
      </trkpt>
      <trkpt lat="49.32137" lon="0.99017">
        <ele>47</ele>
        <time>2015-03-22T09:04:07Z</time>
      </trkpt>
      <trkpt lat="49.32139" lon="0.99009">
        <ele>48</ele>
        <time>2015-03-22T09:04:09Z</time>
      </trkpt>
      <trkpt lat="49.32142" lon="0.99">
        <ele>44</ele>
        <time>2015-03-22T09:04:11Z</time>
      </trkpt>
      <trkpt lat="49.32143" lon="0.98986">
        <ele>43</ele>
        <time>2015-03-22T09:04:13Z</time>
      </trkpt>
      <trkpt lat="49.32144" lon="0.98975">
        <ele>42</ele>
        <time>2015-03-22T09:04:15Z</time>
      </trkpt>
      <trkpt lat="49.32149" lon="0.98967">
        <ele>42</ele>
        <time>2015-03-22T09:04:17Z</time>
      </trkpt>
      <trkpt lat="49.32154" lon="0.98976">
        <ele>44</ele>
        <time>2015-03-22T09:04:31Z</time>
      </trkpt>
      <trkpt lat="49.32154" lon="0.98983">
        <ele>45</ele>
        <time>2015-03-22T09:04:33Z</time>
      </trkpt>
      <trkpt lat="49.32154" lon="0.98994">
        <ele>47</ele>
        <time>2015-03-22T09:04:37Z</time>
      </trkpt>
      <trkpt lat="49.32152" lon="0.99006">
        <ele>51</ele>
        <time>2015-03-22T09:04:41Z</time>
      </trkpt>
      <trkpt lat="49.32148" lon="0.99016">
        <ele>49</ele>
        <time>2015-03-22T09:04:45Z</time>
      </trkpt>
      <trkpt lat="49.32145" lon="0.99026">
        <ele>49</ele>
        <time>2015-03-22T09:04:49Z</time>
      </trkpt>
      <trkpt lat="49.32144" lon="0.99033">
        <ele>49</ele>
        <time>2015-03-22T09:04:51Z</time>
      </trkpt>
      <trkpt lat="49.32143" lon="0.9904">
        <ele>49</ele>
        <time>2015-03-22T09:04:53Z</time>
      </trkpt>
      <trkpt lat="49.32142" lon="0.99052">
        <ele>50</ele>
        <time>2015-03-22T09:04:57Z</time>
      </trkpt>
      <trkpt lat="49.32141" lon="0.99065">
        <ele>52</ele>
        <time>2015-03-22T09:05:01Z</time>
      </trkpt>
      <trkpt lat="49.32139" lon="0.99071">
        <ele>52</ele>
        <time>2015-03-22T09:05:03Z</time>
      </trkpt>
      <trkpt lat="49.32137" lon="0.99082">
        <ele>52</ele>
        <time>2015-03-22T09:05:07Z</time>
      </trkpt>
      <trkpt lat="49.32135" lon="0.99096">
        <ele>58</ele>
        <time>2015-03-22T09:05:11Z</time>
      </trkpt>
      <trkpt lat="49.32131" lon="0.99108">
        <ele>58</ele>
        <time>2015-03-22T09:05:15Z</time>
      </trkpt>
      <trkpt lat="49.3213" lon="0.99114">
        <ele>58</ele>
        <time>2015-03-22T09:05:17Z</time>
      </trkpt>
      <trkpt lat="49.32127" lon="0.99125">
        <ele>58</ele>
        <time>2015-03-22T09:05:21Z</time>
      </trkpt>
      <trkpt lat="49.32126" lon="0.99138">
        <ele>58</ele>
        <time>2015-03-22T09:05:25Z</time>
      </trkpt>
      <trkpt lat="49.32125" lon="0.99145">
        <ele>59</ele>
        <time>2015-03-22T09:05:27Z</time>
      </trkpt>
      <trkpt lat="49.32124" lon="0.99152">
        <ele>58</ele>
        <time>2015-03-22T09:05:29Z</time>
      </trkpt>
      <trkpt lat="49.32119" lon="0.99164">
        <ele>57</ele>
        <time>2015-03-22T09:05:33Z</time>
      </trkpt>
      <trkpt lat="49.32118" lon="0.99171">
        <ele>63</ele>
        <time>2015-03-22T09:05:35Z</time>
      </trkpt>
      <trkpt lat="49.32114" lon="0.99182">
        <ele>62</ele>
        <time>2015-03-22T09:05:39Z</time>
      </trkpt>
      <trkpt lat="49.32112" lon="0.99189">
        <ele>62</ele>
        <time>2015-03-22T09:05:41Z</time>
      </trkpt>
      <trkpt lat="49.3211" lon="0.99201">
        <ele>63</ele>
        <time>2015-03-22T09:05:45Z</time>
      </trkpt>
      <trkpt lat="49.32108" lon="0.99212">
        <ele>63</ele>
        <time>2015-03-22T09:05:49Z</time>
      </trkpt>
      <trkpt lat="49.32106" lon="0.99224">
        <ele>63</ele>
        <time>2015-03-22T09:05:53Z</time>
      </trkpt>
      <trkpt lat="49.32107" lon="0.99231">
        <ele>63</ele>
        <time>2015-03-22T09:05:55Z</time>
      </trkpt>
      <trkpt lat="49.32107" lon="0.99241">
        <ele>63</ele>
        <time>2015-03-22T09:05:59Z</time>
      </trkpt>
      <trkpt lat="49.32107" lon="0.99251">
        <ele>66</ele>
        <time>2015-03-22T09:06:03Z</time>
      </trkpt>
      <trkpt lat="49.32108" lon="0.99262">
        <ele>67</ele>
        <time>2015-03-22T09:06:07Z</time>
      </trkpt>
      <trkpt lat="49.32109" lon="0.99273">
        <ele>68</ele>
        <time>2015-03-22T09:06:11Z</time>
      </trkpt>
      <trkpt lat="49.3211" lon="0.9928">
        <ele>69</ele>
        <time>2015-03-22T09:06:13Z</time>
      </trkpt>
      <trkpt lat="49.32112" lon="0.99292">
        <ele>69</ele>
        <time>2015-03-22T09:06:17Z</time>
      </trkpt>
      <trkpt lat="49.32113" lon="0.99301">
        <ele>70</ele>
        <time>2015-03-22T09:06:21Z</time>
      </trkpt>
      <trkpt lat="49.32115" lon="0.99311">
        <ele>70</ele>
        <time>2015-03-22T09:06:25Z</time>
      </trkpt>
      <trkpt lat="49.32118" lon="0.9932">
        <ele>70</ele>
        <time>2015-03-22T09:06:29Z</time>
      </trkpt>
      <trkpt lat="49.32121" lon="0.99329">
        <ele>71</ele>
        <time>2015-03-22T09:06:33Z</time>
      </trkpt>
      <trkpt lat="49.32124" lon="0.99338">
        <ele>69</ele>
        <time>2015-03-22T09:06:37Z</time>
      </trkpt>
      <trkpt lat="49.32129" lon="0.99347">
        <ele>70</ele>
        <time>2015-03-22T09:06:41Z</time>
      </trkpt>
      <trkpt lat="49.32134" lon="0.99351">
        <ele>70</ele>
        <time>2015-03-22T09:06:45Z</time>
      </trkpt>
      <trkpt lat="49.3214" lon="0.99354">
        <ele>71</ele>
        <time>2015-03-22T09:06:49Z</time>
      </trkpt>
      <trkpt lat="49.32146" lon="0.99358">
        <ele>72</ele>
        <time>2015-03-22T09:06:53Z</time>
      </trkpt>
      <trkpt lat="49.32152" lon="0.99361">
        <ele>72</ele>
        <time>2015-03-22T09:06:57Z</time>
      </trkpt>
      <trkpt lat="49.32157" lon="0.99363">
        <ele>72</ele>
        <time>2015-03-22T09:07:01Z</time>
      </trkpt>
      <trkpt lat="49.32161" lon="0.99362">
        <ele>73</ele>
        <time>2015-03-22T09:07:03Z</time>
      </trkpt>
      <trkpt lat="49.32167" lon="0.99355">
        <ele>83</ele>
        <time>2015-03-22T09:07:07Z</time>
      </trkpt>
      <trkpt lat="49.32172" lon="0.99347">
        <ele>83</ele>
        <time>2015-03-22T09:07:11Z</time>
      </trkpt>
      <trkpt lat="49.32176" lon="0.99342">
        <ele>84</ele>
        <time>2015-03-22T09:07:15Z</time>
      </trkpt>
      <trkpt lat="49.32181" lon="0.99335">
        <ele>84</ele>
        <time>2015-03-22T09:07:19Z</time>
      </trkpt>
      <trkpt lat="49.32184" lon="0.99327">
        <ele>87</ele>
        <time>2015-03-22T09:07:23Z</time>
      </trkpt>
      <trkpt lat="49.32185" lon="0.99313">
        <ele>88</ele>
        <time>2015-03-22T09:07:27Z</time>
      </trkpt>
      <trkpt lat="49.32185" lon="0.99305">
        <ele>89</ele>
        <time>2015-03-22T09:07:29Z</time>
      </trkpt>
      <trkpt lat="49.32185" lon="0.99298">
        <ele>89</ele>
        <time>2015-03-22T09:07:31Z</time>
      </trkpt>
      <trkpt lat="49.32186" lon="0.99291">
        <ele>89</ele>
        <time>2015-03-22T09:07:33Z</time>
      </trkpt>
      <trkpt lat="49.32187" lon="0.99277">
        <ele>89</ele>
        <time>2015-03-22T09:07:37Z</time>
      </trkpt>
      <trkpt lat="49.32188" lon="0.9927">
        <ele>89</ele>
        <time>2015-03-22T09:07:39Z</time>
      </trkpt>
      <trkpt lat="49.3219" lon="0.99262">
        <ele>89</ele>
        <time>2015-03-22T09:07:41Z</time>
      </trkpt>
      <trkpt lat="49.32191" lon="0.99251">
        <ele>89</ele>
        <time>2015-03-22T09:07:43Z</time>
      </trkpt>
      <trkpt lat="49.32192" lon="0.99238">
        <ele>89</ele>
        <time>2015-03-22T09:07:45Z</time>
      </trkpt>
      <trkpt lat="49.32192" lon="0.99225">
        <ele>89</ele>
        <time>2015-03-22T09:07:47Z</time>
      </trkpt>
      <trkpt lat="49.32194" lon="0.99211">
        <ele>89</ele>
        <time>2015-03-22T09:07:49Z</time>
      </trkpt>
      <trkpt lat="49.32197" lon="0.992">
        <ele>89</ele>
        <time>2015-03-22T09:07:51Z</time>
      </trkpt>
      <trkpt lat="49.32199" lon="0.99188">
        <ele>89</ele>
        <time>2015-03-22T09:07:53Z</time>
      </trkpt>
      <trkpt lat="49.32199" lon="0.99174">
        <ele>88</ele>
        <time>2015-03-22T09:07:55Z</time>
      </trkpt>
      <trkpt lat="49.32199" lon="0.99155">
        <ele>84</ele>
        <time>2015-03-22T09:07:57Z</time>
      </trkpt>
      <trkpt lat="49.32199" lon="0.99135">
        <ele>84</ele>
        <time>2015-03-22T09:07:59Z</time>
      </trkpt>
      <trkpt lat="49.32199" lon="0.99116">
        <ele>83</ele>
        <time>2015-03-22T09:08:01Z</time>
      </trkpt>
      <trkpt lat="49.32203" lon="0.99097">
        <ele>82</ele>
        <time>2015-03-22T09:08:03Z</time>
      </trkpt>
      <trkpt lat="49.32208" lon="0.99078">
        <ele>76</ele>
        <time>2015-03-22T09:08:05Z</time>
      </trkpt>
      <trkpt lat="49.32211" lon="0.99058">
        <ele>76</ele>
        <time>2015-03-22T09:08:07Z</time>
      </trkpt>
      <trkpt lat="49.32215" lon="0.99036">
        <ele>75</ele>
        <time>2015-03-22T09:08:09Z</time>
      </trkpt>
      <trkpt lat="49.32219" lon="0.99015">
        <ele>75</ele>
        <time>2015-03-22T09:08:11Z</time>
      </trkpt>
      <trkpt lat="49.32223" lon="0.98997">
        <ele>71</ele>
        <time>2015-03-22T09:08:13Z</time>
      </trkpt>
      <trkpt lat="49.32229" lon="0.98981">
        <ele>71</ele>
        <time>2015-03-22T09:08:15Z</time>
      </trkpt>
      <trkpt lat="49.32238" lon="0.98968">
        <ele>71</ele>
        <time>2015-03-22T09:08:17Z</time>
      </trkpt>
      <trkpt lat="49.32246" lon="0.98957">
        <ele>71</ele>
        <time>2015-03-22T09:08:19Z</time>
      </trkpt>
      <trkpt lat="49.32253" lon="0.98945">
        <ele>81</ele>
        <time>2015-03-22T09:08:21Z</time>
      </trkpt>
      <trkpt lat="49.32258" lon="0.98936">
        <ele>80</ele>
        <time>2015-03-22T09:08:23Z</time>
      </trkpt>
      <trkpt lat="49.32266" lon="0.98938">
        <ele>81</ele>
        <time>2015-03-22T09:08:25Z</time>
      </trkpt>
      <trkpt lat="49.32273" lon="0.9894">
        <ele>81</ele>
        <time>2015-03-22T09:08:27Z</time>
      </trkpt>
      <trkpt lat="49.32279" lon="0.9894">
        <ele>82</ele>
        <time>2015-03-22T09:08:29Z</time>
      </trkpt>
      <trkpt lat="49.32284" lon="0.9894">
        <ele>82</ele>
        <time>2015-03-22T09:08:31Z</time>
      </trkpt>
      <trkpt lat="49.32291" lon="0.98939">
        <ele>82</ele>
        <time>2015-03-22T09:08:33Z</time>
      </trkpt>
      <trkpt lat="49.32299" lon="0.98942">
        <ele>83</ele>
        <time>2015-03-22T09:08:35Z</time>
      </trkpt>
      <trkpt lat="49.32307" lon="0.9895">
        <ele>83</ele>
        <time>2015-03-22T09:08:37Z</time>
      </trkpt>
      <trkpt lat="49.32318" lon="0.98956">
        <ele>84</ele>
        <time>2015-03-22T09:08:39Z</time>
      </trkpt>
      <trkpt lat="49.32328" lon="0.98963">
        <ele>84</ele>
        <time>2015-03-22T09:08:41Z</time>
      </trkpt>
      <trkpt lat="49.32338" lon="0.98966">
        <ele>90</ele>
        <time>2015-03-22T09:08:43Z</time>
      </trkpt>
      <trkpt lat="49.32346" lon="0.98969">
        <ele>90</ele>
        <time>2015-03-22T09:08:45Z</time>
      </trkpt>
      <trkpt lat="49.32355" lon="0.98973">
        <ele>91</ele>
        <time>2015-03-22T09:08:47Z</time>
      </trkpt>
      <trkpt lat="49.32359" lon="0.98976">
        <ele>91</ele>
        <time>2015-03-22T09:08:49Z</time>
      </trkpt>
      <trkpt lat="49.32364" lon="0.98979">
        <ele>92</ele>
        <time>2015-03-22T09:08:51Z</time>
      </trkpt>
      <trkpt lat="49.32371" lon="0.98985">
        <ele>92</ele>
        <time>2015-03-22T09:08:55Z</time>
      </trkpt>
      <trkpt lat="49.32379" lon="0.98989">
        <ele>93</ele>
        <time>2015-03-22T09:08:59Z</time>
      </trkpt>
      <trkpt lat="49.32383" lon="0.98994">
        <ele>93</ele>
        <time>2015-03-22T09:09:03Z</time>
      </trkpt>
      <trkpt lat="49.32389" lon="0.99">
        <ele>97</ele>
        <time>2015-03-22T09:09:07Z</time>
      </trkpt>
      <trkpt lat="49.32398" lon="0.99009">
        <ele>98</ele>
        <time>2015-03-22T09:09:15Z</time>
      </trkpt>
      <trkpt lat="49.32406" lon="0.99011">
        <ele>98</ele>
        <time>2015-03-22T09:09:19Z</time>
      </trkpt>
      <trkpt lat="49.32411" lon="0.99014">
        <ele>98</ele>
        <time>2015-03-22T09:09:21Z</time>
      </trkpt>
      <trkpt lat="49.32416" lon="0.99016">
        <ele>98</ele>
        <time>2015-03-22T09:09:23Z</time>
      </trkpt>
      <trkpt lat="49.3242" lon="0.99019">
        <ele>101</ele>
        <time>2015-03-22T09:09:25Z</time>
      </trkpt>
      <trkpt lat="49.32427" lon="0.99022">
        <ele>102</ele>
        <time>2015-03-22T09:09:29Z</time>
      </trkpt>
      <trkpt lat="49.32431" lon="0.99026">
        <ele>102</ele>
        <time>2015-03-22T09:09:33Z</time>
      </trkpt>
      <trkpt lat="49.32436" lon="0.99029">
        <ele>103</ele>
        <time>2015-03-22T09:09:37Z</time>
      </trkpt>
      <trkpt lat="49.32441" lon="0.99035">
        <ele>103</ele>
        <time>2015-03-22T09:09:41Z</time>
      </trkpt>
      <trkpt lat="49.32444" lon="0.99041">
        <ele>104</ele>
        <time>2015-03-22T09:09:45Z</time>
      </trkpt>
      <trkpt lat="49.32447" lon="0.99046">
        <ele>104</ele>
        <time>2015-03-22T09:09:47Z</time>
      </trkpt>
      <trkpt lat="49.3246" lon="0.99055">
        <ele>104</ele>
        <time>2015-03-22T09:09:55Z</time>
      </trkpt>
      <trkpt lat="49.32465" lon="0.99054">
        <ele>105</ele>
        <time>2015-03-22T09:09:57Z</time>
      </trkpt>
      <trkpt lat="49.32469" lon="0.99057">
        <ele>105</ele>
        <time>2015-03-22T09:09:59Z</time>
      </trkpt>
      <trkpt lat="49.32477" lon="0.99062">
        <ele>105</ele>
        <time>2015-03-22T09:10:03Z</time>
      </trkpt>
      <trkpt lat="49.32482" lon="0.99065">
        <ele>105</ele>
        <time>2015-03-22T09:10:05Z</time>
      </trkpt>
      <trkpt lat="49.32487" lon="0.99067">
        <ele>106</ele>
        <time>2015-03-22T09:10:09Z</time>
      </trkpt>
      <trkpt lat="49.32492" lon="0.99068">
        <ele>106</ele>
        <time>2015-03-22T09:10:13Z</time>
      </trkpt>
      <trkpt lat="49.32491" lon="0.99058">
        <ele>106</ele>
        <time>2015-03-22T09:10:21Z</time>
      </trkpt>
      <trkpt lat="49.32488" lon="0.99049">
        <ele>105</ele>
        <time>2015-03-22T09:10:25Z</time>
      </trkpt>
      <trkpt lat="49.32484" lon="0.99043">
        <ele>105</ele>
        <time>2015-03-22T09:10:27Z</time>
      </trkpt>
      <trkpt lat="49.32481" lon="0.99036">
        <ele>105</ele>
        <time>2015-03-22T09:10:29Z</time>
      </trkpt>
      <trkpt lat="49.32478" lon="0.99029">
        <ele>105</ele>
        <time>2015-03-22T09:10:31Z</time>
      </trkpt>
      <trkpt lat="49.32475" lon="0.99018">
        <ele>105</ele>
        <time>2015-03-22T09:10:35Z</time>
      </trkpt>
      <trkpt lat="49.32473" lon="0.99006">
        <ele>105</ele>
        <time>2015-03-22T09:10:39Z</time>
      </trkpt>
      <trkpt lat="49.32471" lon="0.98995">
        <ele>105</ele>
        <time>2015-03-22T09:10:43Z</time>
      </trkpt>
      <trkpt lat="49.32467" lon="0.98987">
        <ele>104</ele>
        <time>2015-03-22T09:10:47Z</time>
      </trkpt>
      <trkpt lat="49.32462" lon="0.98979">
        <ele>104</ele>
        <time>2015-03-22T09:10:51Z</time>
      </trkpt>
      <trkpt lat="49.32459" lon="0.98974">
        <ele>104</ele>
        <time>2015-03-22T09:10:53Z</time>
      </trkpt>
      <trkpt lat="49.32453" lon="0.98969">
        <ele>103</ele>
        <time>2015-03-22T09:10:55Z</time>
      </trkpt>
      <trkpt lat="49.32446" lon="0.98964">
        <ele>103</ele>
        <time>2015-03-22T09:10:57Z</time>
      </trkpt>
      <trkpt lat="49.32441" lon="0.98957">
        <ele>103</ele>
        <time>2015-03-22T09:10:59Z</time>
      </trkpt>
      <trkpt lat="49.32434" lon="0.98953">
        <ele>102</ele>
        <time>2015-03-22T09:11:01Z</time>
      </trkpt>
      <trkpt lat="49.32427" lon="0.98949">
        <ele>102</ele>
        <time>2015-03-22T09:11:03Z</time>
      </trkpt>
      <trkpt lat="49.32418" lon="0.9895">
        <ele>101</ele>
        <time>2015-03-22T09:11:05Z</time>
      </trkpt>
      <trkpt lat="49.32413" lon="0.98954">
        <ele>94</ele>
        <time>2015-03-22T09:11:07Z</time>
      </trkpt>
      <trkpt lat="49.32405" lon="0.98948">
        <ele>94</ele>
        <time>2015-03-22T09:11:09Z</time>
      </trkpt>
      <trkpt lat="49.32398" lon="0.9894">
        <ele>93</ele>
        <time>2015-03-22T09:11:11Z</time>
      </trkpt>
      <trkpt lat="49.32394" lon="0.98934">
        <ele>93</ele>
        <time>2015-03-22T09:11:13Z</time>
      </trkpt>
      <trkpt lat="49.32393" lon="0.98923">
        <ele>93</ele>
        <time>2015-03-22T09:11:15Z</time>
      </trkpt>
      <trkpt lat="49.32391" lon="0.98912">
        <ele>91</ele>
        <time>2015-03-22T09:11:17Z</time>
      </trkpt>
      <trkpt lat="49.32387" lon="0.98903">
        <ele>90</ele>
        <time>2015-03-22T09:11:19Z</time>
      </trkpt>
      <trkpt lat="49.32381" lon="0.98891">
        <ele>89</ele>
        <time>2015-03-22T09:11:21Z</time>
      </trkpt>
      <trkpt lat="49.32376" lon="0.9888">
        <ele>88</ele>
        <time>2015-03-22T09:11:23Z</time>
      </trkpt>
      <trkpt lat="49.32373" lon="0.98866">
        <ele>88</ele>
        <time>2015-03-22T09:11:25Z</time>
      </trkpt>
      <trkpt lat="49.32368" lon="0.98852">
        <ele>87</ele>
        <time>2015-03-22T09:11:27Z</time>
      </trkpt>
      <trkpt lat="49.32363" lon="0.98842">
        <ele>86</ele>
        <time>2015-03-22T09:11:29Z</time>
      </trkpt>
      <trkpt lat="49.32361" lon="0.98833">
        <ele>84</ele>
        <time>2015-03-22T09:11:31Z</time>
      </trkpt>
      <trkpt lat="49.32361" lon="0.98822">
        <ele>84</ele>
        <time>2015-03-22T09:11:33Z</time>
      </trkpt>
      <trkpt lat="49.32361" lon="0.98812">
        <ele>85</ele>
        <time>2015-03-22T09:11:35Z</time>
      </trkpt>
      <trkpt lat="49.32364" lon="0.98802">
        <ele>85</ele>
        <time>2015-03-22T09:11:37Z</time>
      </trkpt>
      <trkpt lat="49.32366" lon="0.98794">
        <ele>85</ele>
        <time>2015-03-22T09:11:39Z</time>
      </trkpt>
      <trkpt lat="49.32368" lon="0.98783">
        <ele>85</ele>
        <time>2015-03-22T09:11:41Z</time>
      </trkpt>
      <trkpt lat="49.3237" lon="0.98772">
        <ele>85</ele>
        <time>2015-03-22T09:11:43Z</time>
      </trkpt>
      <trkpt lat="49.32373" lon="0.9876">
        <ele>85</ele>
        <time>2015-03-22T09:11:45Z</time>
      </trkpt>
      <trkpt lat="49.32377" lon="0.9875">
        <ele>86</ele>
        <time>2015-03-22T09:11:47Z</time>
      </trkpt>
      <trkpt lat="49.32381" lon="0.98741">
        <ele>85</ele>
        <time>2015-03-22T09:11:49Z</time>
      </trkpt>
      <trkpt lat="49.32385" lon="0.98732">
        <ele>85</ele>
        <time>2015-03-22T09:11:51Z</time>
      </trkpt>
      <trkpt lat="49.32387" lon="0.98722">
        <ele>85</ele>
        <time>2015-03-22T09:11:53Z</time>
      </trkpt>
      <trkpt lat="49.32393" lon="0.98712">
        <ele>85</ele>
        <time>2015-03-22T09:11:57Z</time>
      </trkpt>
      <trkpt lat="49.32396" lon="0.98707">
        <ele>85</ele>
        <time>2015-03-22T09:11:59Z</time>
      </trkpt>
      <trkpt lat="49.32398" lon="0.98699">
        <ele>85</ele>
        <time>2015-03-22T09:12:01Z</time>
      </trkpt>
      <trkpt lat="49.32401" lon="0.98691">
        <ele>86</ele>
        <time>2015-03-22T09:12:03Z</time>
      </trkpt>
      <trkpt lat="49.32399" lon="0.98678">
        <ele>86</ele>
        <time>2015-03-22T09:12:05Z</time>
      </trkpt>
      <trkpt lat="49.32396" lon="0.98662">
        <ele>83</ele>
        <time>2015-03-22T09:12:07Z</time>
      </trkpt>
      <trkpt lat="49.32393" lon="0.98649">
        <ele>82</ele>
        <time>2015-03-22T09:12:09Z</time>
      </trkpt>
      <trkpt lat="49.32389" lon="0.98634">
        <ele>81</ele>
        <time>2015-03-22T09:12:11Z</time>
      </trkpt>
      <trkpt lat="49.32386" lon="0.98619">
        <ele>80</ele>
        <time>2015-03-22T09:12:13Z</time>
      </trkpt>
      <trkpt lat="49.32381" lon="0.98602">
        <ele>79</ele>
        <time>2015-03-22T09:12:15Z</time>
      </trkpt>
      <trkpt lat="49.32376" lon="0.98587">
        <ele>79</ele>
        <time>2015-03-22T09:12:17Z</time>
      </trkpt>
      <trkpt lat="49.32374" lon="0.98576">
        <ele>76</ele>
        <time>2015-03-22T09:12:19Z</time>
      </trkpt>
      <trkpt lat="49.32374" lon="0.98566">
        <ele>76</ele>
        <time>2015-03-22T09:12:21Z</time>
      </trkpt>
      <trkpt lat="49.32381" lon="0.9856">
        <ele>76</ele>
        <time>2015-03-22T09:12:27Z</time>
      </trkpt>
      <trkpt lat="49.32391" lon="0.98555">
        <ele>77</ele>
        <time>2015-03-22T09:12:31Z</time>
      </trkpt>
      <trkpt lat="49.32396" lon="0.98555">
        <ele>77</ele>
        <time>2015-03-22T09:12:33Z</time>
      </trkpt>
      <trkpt lat="49.32403" lon="0.98555">
        <ele>77</ele>
        <time>2015-03-22T09:12:37Z</time>
      </trkpt>
      <trkpt lat="49.32408" lon="0.98552">
        <ele>77</ele>
        <time>2015-03-22T09:12:39Z</time>
      </trkpt>
      <trkpt lat="49.32413" lon="0.98548">
        <ele>77</ele>
        <time>2015-03-22T09:12:41Z</time>
      </trkpt>
      <trkpt lat="49.32418" lon="0.98545">
        <ele>85</ele>
        <time>2015-03-22T09:12:43Z</time>
      </trkpt>
      <trkpt lat="49.32423" lon="0.98541">
        <ele>85</ele>
        <time>2015-03-22T09:12:45Z</time>
      </trkpt>
      <trkpt lat="49.32427" lon="0.98533">
        <ele>85</ele>
        <time>2015-03-22T09:12:47Z</time>
      </trkpt>
      <trkpt lat="49.32426" lon="0.98524">
        <ele>84</ele>
        <time>2015-03-22T09:12:49Z</time>
      </trkpt>
      <trkpt lat="49.32427" lon="0.98515">
        <ele>83</ele>
        <time>2015-03-22T09:12:51Z</time>
      </trkpt>
      <trkpt lat="49.32431" lon="0.98502">
        <ele>83</ele>
        <time>2015-03-22T09:12:55Z</time>
      </trkpt>
      <trkpt lat="49.32433" lon="0.98495">
        <ele>81</ele>
        <time>2015-03-22T09:12:57Z</time>
      </trkpt>
      <trkpt lat="49.32435" lon="0.98482">
        <ele>82</ele>
        <time>2015-03-22T09:13:01Z</time>
      </trkpt>
      <trkpt lat="49.3244" lon="0.98475">
        <ele>82</ele>
        <time>2015-03-22T09:13:05Z</time>
      </trkpt>
      <trkpt lat="49.32443" lon="0.98467">
        <ele>82</ele>
        <time>2015-03-22T09:13:09Z</time>
      </trkpt>
      <trkpt lat="49.32456" lon="0.98448">
        <ele>83</ele>
        <time>2015-03-22T09:13:23Z</time>
      </trkpt>
      <trkpt lat="49.32461" lon="0.98435">
        <ele>83</ele>
        <time>2015-03-22T09:13:29Z</time>
      </trkpt>
      <trkpt lat="49.32466" lon="0.98433">
        <ele>83</ele>
        <time>2015-03-22T09:13:31Z</time>
      </trkpt>
      <trkpt lat="49.32471" lon="0.98422">
        <ele>83</ele>
        <time>2015-03-22T09:13:33Z</time>
      </trkpt>
      <trkpt lat="49.32478" lon="0.98408">
        <ele>77</ele>
        <time>2015-03-22T09:13:35Z</time>
      </trkpt>
      <trkpt lat="49.32487" lon="0.98399">
        <ele>77</ele>
        <time>2015-03-22T09:13:37Z</time>
      </trkpt>
      <trkpt lat="49.32495" lon="0.98389">
        <ele>76</ele>
        <time>2015-03-22T09:13:39Z</time>
      </trkpt>
      <trkpt lat="49.32506" lon="0.98378">
        <ele>78</ele>
        <time>2015-03-22T09:13:41Z</time>
      </trkpt>
      <trkpt lat="49.32518" lon="0.98373">
        <ele>77</ele>
        <time>2015-03-22T09:13:43Z</time>
      </trkpt>
      <trkpt lat="49.32528" lon="0.98375">
        <ele>78</ele>
        <time>2015-03-22T09:13:45Z</time>
      </trkpt>
      <trkpt lat="49.32533" lon="0.98377">
        <ele>78</ele>
        <time>2015-03-22T09:13:47Z</time>
      </trkpt>
      <trkpt lat="49.3254" lon="0.98375">
        <ele>78</ele>
        <time>2015-03-22T09:13:49Z</time>
      </trkpt>
      <trkpt lat="49.32548" lon="0.98375">
        <ele>79</ele>
        <time>2015-03-22T09:13:51Z</time>
      </trkpt>
      <trkpt lat="49.32554" lon="0.98376">
        <ele>79</ele>
        <time>2015-03-22T09:13:53Z</time>
      </trkpt>
      <trkpt lat="49.32562" lon="0.98378">
        <ele>80</ele>
        <time>2015-03-22T09:13:55Z</time>
      </trkpt>
      <trkpt lat="49.32572" lon="0.98378">
        <ele>80</ele>
        <time>2015-03-22T09:13:59Z</time>
      </trkpt>
      <trkpt lat="49.3258" lon="0.98376">
        <ele>80</ele>
        <time>2015-03-22T09:14:01Z</time>
      </trkpt>
      <trkpt lat="49.32586" lon="0.98376">
        <ele>86</ele>
        <time>2015-03-22T09:14:03Z</time>
      </trkpt>
      <trkpt lat="49.32593" lon="0.98376">
        <ele>86</ele>
        <time>2015-03-22T09:14:05Z</time>
      </trkpt>
      <trkpt lat="49.326" lon="0.98376">
        <ele>86</ele>
        <time>2015-03-22T09:14:07Z</time>
      </trkpt>
      <trkpt lat="49.32608" lon="0.98373">
        <ele>86</ele>
        <time>2015-03-22T09:14:09Z</time>
      </trkpt>
      <trkpt lat="49.3262" lon="0.98368">
        <ele>86</ele>
        <time>2015-03-22T09:14:13Z</time>
      </trkpt>
      <trkpt lat="49.32626" lon="0.98366">
        <ele>86</ele>
        <time>2015-03-22T09:14:15Z</time>
      </trkpt>
      <trkpt lat="49.32633" lon="0.98363">
        <ele>86</ele>
        <time>2015-03-22T09:14:17Z</time>
      </trkpt>
      <trkpt lat="49.32638" lon="0.9836">
        <ele>86</ele>
        <time>2015-03-22T09:14:19Z</time>
      </trkpt>
      <trkpt lat="49.32642" lon="0.98358">
        <ele>86</ele>
        <time>2015-03-22T09:14:21Z</time>
      </trkpt>
      <trkpt lat="49.32649" lon="0.98352">
        <ele>86</ele>
        <time>2015-03-22T09:14:23Z</time>
      </trkpt>
      <trkpt lat="49.32655" lon="0.98349">
        <ele>85</ele>
        <time>2015-03-22T09:14:25Z</time>
      </trkpt>
      <trkpt lat="49.32661" lon="0.98345">
        <ele>84</ele>
        <time>2015-03-22T09:14:27Z</time>
      </trkpt>
      <trkpt lat="49.32668" lon="0.9834">
        <ele>86</ele>
        <time>2015-03-22T09:14:29Z</time>
      </trkpt>
      <trkpt lat="49.32674" lon="0.98334">
        <ele>87</ele>
        <time>2015-03-22T09:14:31Z</time>
      </trkpt>
      <trkpt lat="49.32681" lon="0.98329">
        <ele>82</ele>
        <time>2015-03-22T09:14:33Z</time>
      </trkpt>
      <trkpt lat="49.32688" lon="0.98326">
        <ele>82</ele>
        <time>2015-03-22T09:14:35Z</time>
      </trkpt>
      <trkpt lat="49.32693" lon="0.98323">
        <ele>82</ele>
        <time>2015-03-22T09:14:37Z</time>
      </trkpt>
      <trkpt lat="49.327" lon="0.98317">
        <ele>82</ele>
        <time>2015-03-22T09:14:39Z</time>
      </trkpt>
      <trkpt lat="49.32709" lon="0.98309">
        <ele>82</ele>
        <time>2015-03-22T09:14:41Z</time>
      </trkpt>
      <trkpt lat="49.32719" lon="0.98302">
        <ele>83</ele>
        <time>2015-03-22T09:14:43Z</time>
      </trkpt>
      <trkpt lat="49.32726" lon="0.98296">
        <ele>83</ele>
        <time>2015-03-22T09:14:45Z</time>
      </trkpt>
      <trkpt lat="49.32731" lon="0.9829">
        <ele>83</ele>
        <time>2015-03-22T09:14:47Z</time>
      </trkpt>
      <trkpt lat="49.32738" lon="0.98285">
        <ele>83</ele>
        <time>2015-03-22T09:14:49Z</time>
      </trkpt>
      <trkpt lat="49.32744" lon="0.98277">
        <ele>82</ele>
        <time>2015-03-22T09:14:51Z</time>
      </trkpt>
      <trkpt lat="49.3275" lon="0.98267">
        <ele>90</ele>
        <time>2015-03-22T09:14:53Z</time>
      </trkpt>
      <trkpt lat="49.32755" lon="0.98259">
        <ele>88</ele>
        <time>2015-03-22T09:14:55Z</time>
      </trkpt>
      <trkpt lat="49.32759" lon="0.98253">
        <ele>88</ele>
        <time>2015-03-22T09:14:57Z</time>
      </trkpt>
      <trkpt lat="49.32763" lon="0.98247">
        <ele>84</ele>
        <time>2015-03-22T09:14:59Z</time>
      </trkpt>
      <trkpt lat="49.32767" lon="0.98239">
        <ele>84</ele>
        <time>2015-03-22T09:15:01Z</time>
      </trkpt>
      <trkpt lat="49.32771" lon="0.98232">
        <ele>85</ele>
        <time>2015-03-22T09:15:03Z</time>
      </trkpt>
      <trkpt lat="49.32774" lon="0.9822">
        <ele>84</ele>
        <time>2015-03-22T09:15:05Z</time>
      </trkpt>
      <trkpt lat="49.32779" lon="0.98209">
        <ele>84</ele>
        <time>2015-03-22T09:15:07Z</time>
      </trkpt>
      <trkpt lat="49.32785" lon="0.98194">
        <ele>83</ele>
        <time>2015-03-22T09:15:09Z</time>
      </trkpt>
      <trkpt lat="49.3279" lon="0.9818">
        <ele>83</ele>
        <time>2015-03-22T09:15:11Z</time>
      </trkpt>
      <trkpt lat="49.32794" lon="0.98172">
        <ele>83</ele>
        <time>2015-03-22T09:15:13Z</time>
      </trkpt>
      <trkpt lat="49.32799" lon="0.98165">
        <ele>74</ele>
        <time>2015-03-22T09:15:15Z</time>
      </trkpt>
      <trkpt lat="49.32803" lon="0.9816">
        <ele>75</ele>
        <time>2015-03-22T09:15:17Z</time>
      </trkpt>
      <trkpt lat="49.3281" lon="0.98154">
        <ele>77</ele>
        <time>2015-03-22T09:15:21Z</time>
      </trkpt>
      <trkpt lat="49.32814" lon="0.9815">
        <ele>77</ele>
        <time>2015-03-22T09:15:23Z</time>
      </trkpt>
      <trkpt lat="49.32819" lon="0.98146">
        <ele>77</ele>
        <time>2015-03-22T09:15:25Z</time>
      </trkpt>
      <trkpt lat="49.32827" lon="0.98139">
        <ele>77</ele>
        <time>2015-03-22T09:15:29Z</time>
      </trkpt>
      <trkpt lat="49.32832" lon="0.98132">
        <ele>75</ele>
        <time>2015-03-22T09:15:31Z</time>
      </trkpt>
      <trkpt lat="49.32839" lon="0.98123">
        <ele>81</ele>
        <time>2015-03-22T09:15:35Z</time>
      </trkpt>
      <trkpt lat="49.32844" lon="0.98121">
        <ele>81</ele>
        <time>2015-03-22T09:15:39Z</time>
      </trkpt>
      <trkpt lat="49.32849" lon="0.98111">
        <ele>80</ele>
        <time>2015-03-22T09:15:43Z</time>
      </trkpt>
      <trkpt lat="49.32854" lon="0.98111">
        <ele>80</ele>
        <time>2015-03-22T09:15:45Z</time>
      </trkpt>
      <trkpt lat="49.32856" lon="0.98129">
        <ele>82</ele>
        <time>2015-03-22T09:16:01Z</time>
      </trkpt>
      <trkpt lat="49.32856" lon="0.9814">
        <ele>83</ele>
        <time>2015-03-22T09:16:07Z</time>
      </trkpt>
      <trkpt lat="49.32854" lon="0.98149">
        <ele>84</ele>
        <time>2015-03-22T09:16:13Z</time>
      </trkpt>
      <trkpt lat="49.32852" lon="0.98157">
        <ele>85</ele>
        <time>2015-03-22T09:16:17Z</time>
      </trkpt>
      <trkpt lat="49.32851" lon="0.98165">
        <ele>86</ele>
        <time>2015-03-22T09:16:21Z</time>
      </trkpt>
      <trkpt lat="49.32853" lon="0.98179">
        <ele>92</ele>
        <time>2015-03-22T09:16:35Z</time>
      </trkpt>
      <trkpt lat="49.32852" lon="0.98194">
        <ele>93</ele>
        <time>2015-03-22T09:16:45Z</time>
      </trkpt>
      <trkpt lat="49.32849" lon="0.98209">
        <ele>94</ele>
        <time>2015-03-22T09:16:57Z</time>
      </trkpt>
      <trkpt lat="49.32847" lon="0.98226">
        <ele>96</ele>
        <time>2015-03-22T09:17:23Z</time>
      </trkpt>
      <trkpt lat="49.32845" lon="0.98235">
        <ele>97</ele>
        <time>2015-03-22T09:17:27Z</time>
      </trkpt>
      <trkpt lat="49.32842" lon="0.98245">
        <ele>99</ele>
        <time>2015-03-22T09:17:33Z</time>
      </trkpt>
      <trkpt lat="49.32843" lon="0.98254">
        <ele>103</ele>
        <time>2015-03-22T09:17:37Z</time>
      </trkpt>
      <trkpt lat="49.32843" lon="0.98263">
        <ele>103</ele>
        <time>2015-03-22T09:17:41Z</time>
      </trkpt>
      <trkpt lat="49.32845" lon="0.98273">
        <ele>103</ele>
        <time>2015-03-22T09:17:45Z</time>
      </trkpt>
      <trkpt lat="49.32847" lon="0.98284">
        <ele>104</ele>
        <time>2015-03-22T09:17:49Z</time>
      </trkpt>
      <trkpt lat="49.32847" lon="0.98297">
        <ele>105</ele>
        <time>2015-03-22T09:17:53Z</time>
      </trkpt>
      <trkpt lat="49.32848" lon="0.9831">
        <ele>106</ele>
        <time>2015-03-22T09:17:57Z</time>
      </trkpt>
      <trkpt lat="49.32849" lon="0.98318">
        <ele>107</ele>
        <time>2015-03-22T09:17:59Z</time>
      </trkpt>
      <trkpt lat="49.3285" lon="0.98326">
        <ele>108</ele>
        <time>2015-03-22T09:18:01Z</time>
      </trkpt>
      <trkpt lat="49.3285" lon="0.98334">
        <ele>112</ele>
        <time>2015-03-22T09:18:03Z</time>
      </trkpt>
      <trkpt lat="49.32853" lon="0.98341">
        <ele>113</ele>
        <time>2015-03-22T09:18:05Z</time>
      </trkpt>
      <trkpt lat="49.32857" lon="0.9835">
        <ele>113</ele>
        <time>2015-03-22T09:18:07Z</time>
      </trkpt>
      <trkpt lat="49.32859" lon="0.98358">
        <ele>113</ele>
        <time>2015-03-22T09:18:09Z</time>
      </trkpt>
      <trkpt lat="49.3286" lon="0.98365">
        <ele>113</ele>
        <time>2015-03-22T09:18:11Z</time>
      </trkpt>
      <trkpt lat="49.3286" lon="0.98376">
        <ele>114</ele>
        <time>2015-03-22T09:18:15Z</time>
      </trkpt>
      <trkpt lat="49.32858" lon="0.98383">
        <ele>115</ele>
        <time>2015-03-22T09:18:19Z</time>
      </trkpt>
      <trkpt lat="49.32856" lon="0.98396">
        <ele>116</ele>
        <time>2015-03-22T09:18:23Z</time>
      </trkpt>
      <trkpt lat="49.32855" lon="0.98404">
        <ele>116</ele>
        <time>2015-03-22T09:18:25Z</time>
      </trkpt>
      <trkpt lat="49.32853" lon="0.98411">
        <ele>117</ele>
        <time>2015-03-22T09:18:27Z</time>
      </trkpt>
      <trkpt lat="49.32851" lon="0.98425">
        <ele>121</ele>
        <time>2015-03-22T09:18:31Z</time>
      </trkpt>
      <trkpt lat="49.32848" lon="0.98431">
        <ele>121</ele>
        <time>2015-03-22T09:18:33Z</time>
      </trkpt>
      <trkpt lat="49.32846" lon="0.98444">
        <ele>121</ele>
        <time>2015-03-22T09:18:37Z</time>
      </trkpt>
      <trkpt lat="49.32846" lon="0.98453">
        <ele>121</ele>
        <time>2015-03-22T09:18:39Z</time>
      </trkpt>
      <trkpt lat="49.32848" lon="0.98463">
        <ele>122</ele>
        <time>2015-03-22T09:18:41Z</time>
      </trkpt>
      <trkpt lat="49.32849" lon="0.98474">
        <ele>122</ele>
        <time>2015-03-22T09:18:43Z</time>
      </trkpt>
      <trkpt lat="49.32849" lon="0.98483">
        <ele>122</ele>
        <time>2015-03-22T09:18:45Z</time>
      </trkpt>
      <trkpt lat="49.32847" lon="0.98492">
        <ele>123</ele>
        <time>2015-03-22T09:18:47Z</time>
      </trkpt>
      <trkpt lat="49.32844" lon="0.98501">
        <ele>124</ele>
        <time>2015-03-22T09:18:49Z</time>
      </trkpt>
      <trkpt lat="49.32843" lon="0.9851">
        <ele>124</ele>
        <time>2015-03-22T09:18:51Z</time>
      </trkpt>
      <trkpt lat="49.32843" lon="0.9852">
        <ele>124</ele>
        <time>2015-03-22T09:18:53Z</time>
      </trkpt>
      <trkpt lat="49.32847" lon="0.98532">
        <ele>125</ele>
        <time>2015-03-22T09:18:55Z</time>
      </trkpt>
      <trkpt lat="49.32849" lon="0.9854">
        <ele>125</ele>
        <time>2015-03-22T09:18:57Z</time>
      </trkpt>
      <trkpt lat="49.32852" lon="0.9855">
        <ele>125</ele>
        <time>2015-03-22T09:18:59Z</time>
      </trkpt>
      <trkpt lat="49.32855" lon="0.98559">
        <ele>125</ele>
        <time>2015-03-22T09:19:01Z</time>
      </trkpt>
      <trkpt lat="49.32858" lon="0.98569">
        <ele>125</ele>
        <time>2015-03-22T09:19:03Z</time>
      </trkpt>
      <trkpt lat="49.32862" lon="0.98579">
        <ele>125</ele>
        <time>2015-03-22T09:19:05Z</time>
      </trkpt>
      <trkpt lat="49.32865" lon="0.98588">
        <ele>126</ele>
        <time>2015-03-22T09:19:07Z</time>
      </trkpt>
      <trkpt lat="49.32868" lon="0.98599">
        <ele>126</ele>
        <time>2015-03-22T09:19:09Z</time>
      </trkpt>
      <trkpt lat="49.32871" lon="0.98609">
        <ele>127</ele>
        <time>2015-03-22T09:19:11Z</time>
      </trkpt>
      <trkpt lat="49.32875" lon="0.98619">
        <ele>127</ele>
        <time>2015-03-22T09:19:13Z</time>
      </trkpt>
      <trkpt lat="49.32879" lon="0.98628">
        <ele>127</ele>
        <time>2015-03-22T09:19:15Z</time>
      </trkpt>
      <trkpt lat="49.32883" lon="0.98639">
        <ele>127</ele>
        <time>2015-03-22T09:19:18Z</time>
      </trkpt>
      <trkpt lat="49.32888" lon="0.98651">
        <ele>127</ele>
        <time>2015-03-22T09:19:20Z</time>
      </trkpt>
      <trkpt lat="49.32891" lon="0.98661">
        <ele>127</ele>
        <time>2015-03-22T09:19:22Z</time>
      </trkpt>
      <trkpt lat="49.32895" lon="0.98672">
        <ele>128</ele>
        <time>2015-03-22T09:19:24Z</time>
      </trkpt>
      <trkpt lat="49.32899" lon="0.98684">
        <ele>128</ele>
        <time>2015-03-22T09:19:26Z</time>
      </trkpt>
      <trkpt lat="49.32903" lon="0.98695">
        <ele>128</ele>
        <time>2015-03-22T09:19:28Z</time>
      </trkpt>
      <trkpt lat="49.32907" lon="0.98707">
        <ele>128</ele>
        <time>2015-03-22T09:19:30Z</time>
      </trkpt>
      <trkpt lat="49.32911" lon="0.9872">
        <ele>128</ele>
        <time>2015-03-22T09:19:32Z</time>
      </trkpt>
      <trkpt lat="49.32916" lon="0.98733">
        <ele>128</ele>
        <time>2015-03-22T09:19:34Z</time>
      </trkpt>
      <trkpt lat="49.32921" lon="0.98746">
        <ele>129</ele>
        <time>2015-03-22T09:19:36Z</time>
      </trkpt>
      <trkpt lat="49.32923" lon="0.98758">
        <ele>129</ele>
        <time>2015-03-22T09:19:38Z</time>
      </trkpt>
      <trkpt lat="49.32928" lon="0.98769">
        <ele>129</ele>
        <time>2015-03-22T09:19:40Z</time>
      </trkpt>
      <trkpt lat="49.3293" lon="0.98781">
        <ele>129</ele>
        <time>2015-03-22T09:19:42Z</time>
      </trkpt>
      <trkpt lat="49.32934" lon="0.98793">
        <ele>129</ele>
        <time>2015-03-22T09:19:44Z</time>
      </trkpt>
      <trkpt lat="49.32937" lon="0.98804">
        <ele>129</ele>
        <time>2015-03-22T09:19:46Z</time>
      </trkpt>
      <trkpt lat="49.3294" lon="0.98814">
        <ele>129</ele>
        <time>2015-03-22T09:19:48Z</time>
      </trkpt>
      <trkpt lat="49.32947" lon="0.98823">
        <ele>129</ele>
        <time>2015-03-22T09:19:50Z</time>
      </trkpt>
      <trkpt lat="49.32955" lon="0.98822">
        <ele>129</ele>
        <time>2015-03-22T09:19:52Z</time>
      </trkpt>
      <trkpt lat="49.32964" lon="0.98817">
        <ele>128</ele>
        <time>2015-03-22T09:19:54Z</time>
      </trkpt>
      <trkpt lat="49.32974" lon="0.9881">
        <ele>128</ele>
        <time>2015-03-22T09:19:56Z</time>
      </trkpt>
      <trkpt lat="49.32984" lon="0.98802">
        <ele>128</ele>
        <time>2015-03-22T09:19:58Z</time>
      </trkpt>
      <trkpt lat="49.32995" lon="0.98793">
        <ele>128</ele>
        <time>2015-03-22T09:20:00Z</time>
      </trkpt>
      <trkpt lat="49.33006" lon="0.98785">
        <ele>127</ele>
        <time>2015-03-22T09:20:02Z</time>
      </trkpt>
      <trkpt lat="49.3302" lon="0.98775">
        <ele>126</ele>
        <time>2015-03-22T09:20:04Z</time>
      </trkpt>
      <trkpt lat="49.33033" lon="0.98765">
        <ele>126</ele>
        <time>2015-03-22T09:20:06Z</time>
      </trkpt>
      <trkpt lat="49.33046" lon="0.98754">
        <ele>125</ele>
        <time>2015-03-22T09:20:08Z</time>
      </trkpt>
      <trkpt lat="49.33058" lon="0.98743">
        <ele>124</ele>
        <time>2015-03-22T09:20:10Z</time>
      </trkpt>
      <trkpt lat="49.3307" lon="0.98732">
        <ele>123</ele>
        <time>2015-03-22T09:20:12Z</time>
      </trkpt>
      <trkpt lat="49.33076" lon="0.98723">
        <ele>123</ele>
        <time>2015-03-22T09:20:14Z</time>
      </trkpt>
      <trkpt lat="49.33076" lon="0.98715">
        <ele>123</ele>
        <time>2015-03-22T09:20:16Z</time>
      </trkpt>
      <trkpt lat="49.33075" lon="0.98705">
        <ele>123</ele>
        <time>2015-03-22T09:20:18Z</time>
      </trkpt>
      <trkpt lat="49.33078" lon="0.98696">
        <ele>123</ele>
        <time>2015-03-22T09:20:20Z</time>
      </trkpt>
      <trkpt lat="49.33078" lon="0.98683">
        <ele>122</ele>
        <time>2015-03-22T09:20:24Z</time>
      </trkpt>
      <trkpt lat="49.3308" lon="0.98676">
        <ele>121</ele>
        <time>2015-03-22T09:20:28Z</time>
      </trkpt>
      <trkpt lat="49.33079" lon="0.98662">
        <ele>121</ele>
        <time>2015-03-22T09:20:32Z</time>
      </trkpt>
      <trkpt lat="49.33078" lon="0.98651">
        <ele>121</ele>
        <time>2015-03-22T09:20:34Z</time>
      </trkpt>
      <trkpt lat="49.33077" lon="0.98641">
        <ele>122</ele>
        <time>2015-03-22T09:20:36Z</time>
      </trkpt>
      <trkpt lat="49.33076" lon="0.98626">
        <ele>122</ele>
        <time>2015-03-22T09:20:38Z</time>
      </trkpt>
      <trkpt lat="49.33076" lon="0.98611">
        <ele>122</ele>
        <time>2015-03-22T09:20:40Z</time>
      </trkpt>
      <trkpt lat="49.33076" lon="0.98596">
        <ele>122</ele>
        <time>2015-03-22T09:20:42Z</time>
      </trkpt>
      <trkpt lat="49.33078" lon="0.9858">
        <ele>121</ele>
        <time>2015-03-22T09:20:44Z</time>
      </trkpt>
      <trkpt lat="49.33081" lon="0.98571">
        <ele>120</ele>
        <time>2015-03-22T09:20:46Z</time>
      </trkpt>
      <trkpt lat="49.33082" lon="0.9856">
        <ele>120</ele>
        <time>2015-03-22T09:20:48Z</time>
      </trkpt>
      <trkpt lat="49.33083" lon="0.98548">
        <ele>123</ele>
        <time>2015-03-22T09:20:50Z</time>
      </trkpt>
      <trkpt lat="49.33084" lon="0.98534">
        <ele>123</ele>
        <time>2015-03-22T09:20:52Z</time>
      </trkpt>
      <trkpt lat="49.33088" lon="0.98519">
        <ele>122</ele>
        <time>2015-03-22T09:20:54Z</time>
      </trkpt>
      <trkpt lat="49.33089" lon="0.98509">
        <ele>121</ele>
        <time>2015-03-22T09:20:56Z</time>
      </trkpt>
      <trkpt lat="49.33092" lon="0.98499">
        <ele>121</ele>
        <time>2015-03-22T09:20:58Z</time>
      </trkpt>
      <trkpt lat="49.33095" lon="0.98488">
        <ele>122</ele>
        <time>2015-03-22T09:21:00Z</time>
      </trkpt>
      <trkpt lat="49.33098" lon="0.98481">
        <ele>122</ele>
        <time>2015-03-22T09:21:02Z</time>
      </trkpt>
      <trkpt lat="49.331" lon="0.9847">
        <ele>123</ele>
        <time>2015-03-22T09:21:06Z</time>
      </trkpt>
      <trkpt lat="49.33099" lon="0.98463">
        <ele>123</ele>
        <time>2015-03-22T09:21:08Z</time>
      </trkpt>
      <trkpt lat="49.331" lon="0.98455">
        <ele>123</ele>
        <time>2015-03-22T09:21:10Z</time>
      </trkpt>
      <trkpt lat="49.331" lon="0.98447">
        <ele>123</ele>
        <time>2015-03-22T09:21:12Z</time>
      </trkpt>
      <trkpt lat="49.33094" lon="0.98441">
        <ele>122</ele>
        <time>2015-03-22T09:21:14Z</time>
      </trkpt>
      <trkpt lat="49.3309" lon="0.98435">
        <ele>122</ele>
        <time>2015-03-22T09:21:16Z</time>
      </trkpt>
      <trkpt lat="49.33088" lon="0.98425">
        <ele>121</ele>
        <time>2015-03-22T09:21:18Z</time>
      </trkpt>
      <trkpt lat="49.33086" lon="0.9841">
        <ele>120</ele>
        <time>2015-03-22T09:21:20Z</time>
      </trkpt>
      <trkpt lat="49.33084" lon="0.984">
        <ele>121</ele>
        <time>2015-03-22T09:21:22Z</time>
      </trkpt>
      <trkpt lat="49.3308" lon="0.98386">
        <ele>114</ele>
        <time>2015-03-22T09:21:24Z</time>
      </trkpt>
      <trkpt lat="49.33077" lon="0.98372">
        <ele>114</ele>
        <time>2015-03-22T09:21:26Z</time>
      </trkpt>
      <trkpt lat="49.33072" lon="0.98366">
        <ele>113</ele>
        <time>2015-03-22T09:21:28Z</time>
      </trkpt>
      <trkpt lat="49.33064" lon="0.98358">
        <ele>113</ele>
        <time>2015-03-22T09:21:30Z</time>
      </trkpt>
      <trkpt lat="49.33057" lon="0.98349">
        <ele>113</ele>
        <time>2015-03-22T09:21:32Z</time>
      </trkpt>
      <trkpt lat="49.33051" lon="0.98338">
        <ele>112</ele>
        <time>2015-03-22T09:21:34Z</time>
      </trkpt>
      <trkpt lat="49.33042" lon="0.98329">
        <ele>109</ele>
        <time>2015-03-22T09:21:36Z</time>
      </trkpt>
      <trkpt lat="49.33035" lon="0.98316">
        <ele>108</ele>
        <time>2015-03-22T09:21:38Z</time>
      </trkpt>
      <trkpt lat="49.33032" lon="0.98301">
        <ele>107</ele>
        <time>2015-03-22T09:21:40Z</time>
      </trkpt>
      <trkpt lat="49.33033" lon="0.98284">
        <ele>107</ele>
        <time>2015-03-22T09:21:42Z</time>
      </trkpt>
      <trkpt lat="49.33033" lon="0.9827">
        <ele>107</ele>
        <time>2015-03-22T09:21:44Z</time>
      </trkpt>
      <trkpt lat="49.33034" lon="0.98252">
        <ele>107</ele>
        <time>2015-03-22T09:21:46Z</time>
      </trkpt>
      <trkpt lat="49.33031" lon="0.98235">
        <ele>103</ele>
        <time>2015-03-22T09:21:48Z</time>
      </trkpt>
      <trkpt lat="49.33028" lon="0.98223">
        <ele>103</ele>
        <time>2015-03-22T09:21:50Z</time>
      </trkpt>
      <trkpt lat="49.3303" lon="0.98213">
        <ele>103</ele>
        <time>2015-03-22T09:21:52Z</time>
      </trkpt>
      <trkpt lat="49.33027" lon="0.98199">
        <ele>102</ele>
        <time>2015-03-22T09:21:54Z</time>
      </trkpt>
      <trkpt lat="49.33034" lon="0.98186">
        <ele>102</ele>
        <time>2015-03-22T09:22:08Z</time>
      </trkpt>
      <trkpt lat="49.33037" lon="0.98177">
        <ele>102</ele>
        <time>2015-03-22T09:22:10Z</time>
      </trkpt>
      <trkpt lat="49.3304" lon="0.98163">
        <ele>97</ele>
        <time>2015-03-22T09:22:14Z</time>
      </trkpt>
      <trkpt lat="49.33042" lon="0.98152">
        <ele>97</ele>
        <time>2015-03-22T09:22:16Z</time>
      </trkpt>
      <trkpt lat="49.33042" lon="0.98141">
        <ele>97</ele>
        <time>2015-03-22T09:22:18Z</time>
      </trkpt>
      <trkpt lat="49.33045" lon="0.98133">
        <ele>97</ele>
        <time>2015-03-22T09:22:20Z</time>
      </trkpt>
      <trkpt lat="49.33046" lon="0.98124">
        <ele>96</ele>
        <time>2015-03-22T09:22:22Z</time>
      </trkpt>
      <trkpt lat="49.33049" lon="0.98111">
        <ele>96</ele>
        <time>2015-03-22T09:22:24Z</time>
      </trkpt>
      <trkpt lat="49.33054" lon="0.98103">
        <ele>97</ele>
        <time>2015-03-22T09:22:26Z</time>
      </trkpt>
      <trkpt lat="49.33059" lon="0.98096">
        <ele>98</ele>
        <time>2015-03-22T09:22:28Z</time>
      </trkpt>
      <trkpt lat="49.33063" lon="0.98081">
        <ele>93</ele>
        <time>2015-03-22T09:22:32Z</time>
      </trkpt>
      <trkpt lat="49.33068" lon="0.98068">
        <ele>93</ele>
        <time>2015-03-22T09:22:34Z</time>
      </trkpt>
      <trkpt lat="49.33072" lon="0.98061">
        <ele>92</ele>
        <time>2015-03-22T09:22:36Z</time>
      </trkpt>
      <trkpt lat="49.33076" lon="0.98056">
        <ele>91</ele>
        <time>2015-03-22T09:22:38Z</time>
      </trkpt>
      <trkpt lat="49.33087" lon="0.98059">
        <ele>99</ele>
        <time>2015-03-22T09:22:52Z</time>
      </trkpt>
      <trkpt lat="49.33092" lon="0.98063">
        <ele>100</ele>
        <time>2015-03-22T09:23:00Z</time>
      </trkpt>
      <trkpt lat="49.331" lon="0.9807">
        <ele>100</ele>
        <time>2015-03-22T09:23:12Z</time>
      </trkpt>
      <trkpt lat="49.33105" lon="0.98075">
        <ele>100</ele>
        <time>2015-03-22T09:23:16Z</time>
      </trkpt>
      <trkpt lat="49.33112" lon="0.98077">
        <ele>100</ele>
        <time>2015-03-22T09:23:20Z</time>
      </trkpt>
      <trkpt lat="49.33117" lon="0.98082">
        <ele>100</ele>
        <time>2015-03-22T09:23:26Z</time>
      </trkpt>
      <trkpt lat="49.33124" lon="0.9809">
        <ele>107</ele>
        <time>2015-03-22T09:23:30Z</time>
      </trkpt>
      <trkpt lat="49.3313" lon="0.981">
        <ele>107</ele>
        <time>2015-03-22T09:23:34Z</time>
      </trkpt>
      <trkpt lat="49.33138" lon="0.98108">
        <ele>108</ele>
        <time>2015-03-22T09:23:36Z</time>
      </trkpt>
      <trkpt lat="49.33147" lon="0.98118">
        <ele>108</ele>
        <time>2015-03-22T09:23:38Z</time>
      </trkpt>
      <trkpt lat="49.33155" lon="0.98127">
        <ele>108</ele>
        <time>2015-03-22T09:23:40Z</time>
      </trkpt>
      <trkpt lat="49.33161" lon="0.98138">
        <ele>109</ele>
        <time>2015-03-22T09:23:42Z</time>
      </trkpt>
      <trkpt lat="49.33166" lon="0.98149">
        <ele>110</ele>
        <time>2015-03-22T09:23:44Z</time>
      </trkpt>
      <trkpt lat="49.33168" lon="0.98157">
        <ele>108</ele>
        <time>2015-03-22T09:23:46Z</time>
      </trkpt>
      <trkpt lat="49.33173" lon="0.98165">
        <ele>109</ele>
        <time>2015-03-22T09:23:48Z</time>
      </trkpt>
      <trkpt lat="49.33176" lon="0.98173">
        <ele>110</ele>
        <time>2015-03-22T09:23:50Z</time>
      </trkpt>
      <trkpt lat="49.3318" lon="0.98182">
        <ele>109</ele>
        <time>2015-03-22T09:23:54Z</time>
      </trkpt>
      <trkpt lat="49.33183" lon="0.98188">
        <ele>109</ele>
        <time>2015-03-22T09:23:56Z</time>
      </trkpt>
      <trkpt lat="49.33185" lon="0.98195">
        <ele>109</ele>
        <time>2015-03-22T09:23:58Z</time>
      </trkpt>
      <trkpt lat="49.33187" lon="0.98202">
        <ele>109</ele>
        <time>2015-03-22T09:24:00Z</time>
      </trkpt>
      <trkpt lat="49.3319" lon="0.98209">
        <ele>109</ele>
        <time>2015-03-22T09:24:02Z</time>
      </trkpt>
      <trkpt lat="49.33194" lon="0.98215">
        <ele>109</ele>
        <time>2015-03-22T09:24:04Z</time>
      </trkpt>
      <trkpt lat="49.33198" lon="0.98224">
        <ele>109</ele>
        <time>2015-03-22T09:24:06Z</time>
      </trkpt>
      <trkpt lat="49.33198" lon="0.98233">
        <ele>110</ele>
        <time>2015-03-22T09:24:08Z</time>
      </trkpt>
      <trkpt lat="49.33194" lon="0.98241">
        <ele>111</ele>
        <time>2015-03-22T09:24:12Z</time>
      </trkpt>
      <trkpt lat="49.33191" lon="0.9825">
        <ele>112</ele>
        <time>2015-03-22T09:24:16Z</time>
      </trkpt>
      <trkpt lat="49.33192" lon="0.98259">
        <ele>116</ele>
        <time>2015-03-22T09:24:20Z</time>
      </trkpt>
      <trkpt lat="49.33198" lon="0.98266">
        <ele>116</ele>
        <time>2015-03-22T09:24:24Z</time>
      </trkpt>
      <trkpt lat="49.33208" lon="0.98264">
        <ele>115</ele>
        <time>2015-03-22T09:24:26Z</time>
      </trkpt>
      <trkpt lat="49.33218" lon="0.9827">
        <ele>114</ele>
        <time>2015-03-22T09:24:28Z</time>
      </trkpt>
      <trkpt lat="49.33224" lon="0.98276">
        <ele>113</ele>
        <time>2015-03-22T09:24:30Z</time>
      </trkpt>
      <trkpt lat="49.3323" lon="0.98288">
        <ele>114</ele>
        <time>2015-03-22T09:24:32Z</time>
      </trkpt>
      <trkpt lat="49.33235" lon="0.98297">
        <ele>114</ele>
        <time>2015-03-22T09:24:34Z</time>
      </trkpt>
      <trkpt lat="49.3324" lon="0.98304">
        <ele>115</ele>
        <time>2015-03-22T09:24:36Z</time>
      </trkpt>
      <trkpt lat="49.33245" lon="0.98313">
        <ele>115</ele>
        <time>2015-03-22T09:24:38Z</time>
      </trkpt>
      <trkpt lat="49.33248" lon="0.9832">
        <ele>115</ele>
        <time>2015-03-22T09:24:40Z</time>
      </trkpt>
      <trkpt lat="49.33246" lon="0.98309">
        <ele>115</ele>
        <time>2015-03-22T09:24:46Z</time>
      </trkpt>
      <trkpt lat="49.33241" lon="0.98291">
        <ele>114</ele>
        <time>2015-03-22T09:24:48Z</time>
      </trkpt>
      <trkpt lat="49.33237" lon="0.98273">
        <ele>112</ele>
        <time>2015-03-22T09:24:50Z</time>
      </trkpt>
      <trkpt lat="49.33232" lon="0.98254">
        <ele>110</ele>
        <time>2015-03-22T09:24:52Z</time>
      </trkpt>
      <trkpt lat="49.33226" lon="0.98237">
        <ele>106</ele>
        <time>2015-03-22T09:24:54Z</time>
      </trkpt>
      <trkpt lat="49.33221" lon="0.98222">
        <ele>106</ele>
        <time>2015-03-22T09:24:56Z</time>
      </trkpt>
      <trkpt lat="49.33216" lon="0.98204">
        <ele>106</ele>
        <time>2015-03-22T09:24:58Z</time>
      </trkpt>
      <trkpt lat="49.33213" lon="0.98193">
        <ele>106</ele>
        <time>2015-03-22T09:25:00Z</time>
      </trkpt>
      <trkpt lat="49.3321" lon="0.98176">
        <ele>105</ele>
        <time>2015-03-22T09:25:02Z</time>
      </trkpt>
      <trkpt lat="49.33205" lon="0.9816">
        <ele>100</ele>
        <time>2015-03-22T09:25:04Z</time>
      </trkpt>
      <trkpt lat="49.332" lon="0.98146">
        <ele>100</ele>
        <time>2015-03-22T09:25:06Z</time>
      </trkpt>
      <trkpt lat="49.33196" lon="0.98129">
        <ele>100</ele>
        <time>2015-03-22T09:25:08Z</time>
      </trkpt>
      <trkpt lat="49.33192" lon="0.98116">
        <ele>100</ele>
        <time>2015-03-22T09:25:10Z</time>
      </trkpt>
      <trkpt lat="49.33189" lon="0.98106">
        <ele>100</ele>
        <time>2015-03-22T09:25:12Z</time>
      </trkpt>
      <trkpt lat="49.33188" lon="0.98098">
        <ele>100</ele>
        <time>2015-03-22T09:25:14Z</time>
      </trkpt>
      <trkpt lat="49.33199" lon="0.981">
        <ele>98</ele>
        <time>2015-03-22T09:25:18Z</time>
      </trkpt>
      <trkpt lat="49.33208" lon="0.98099">
        <ele>97</ele>
        <time>2015-03-22T09:25:20Z</time>
      </trkpt>
      <trkpt lat="49.33214" lon="0.98102">
        <ele>96</ele>
        <time>2015-03-22T09:25:22Z</time>
      </trkpt>
      <trkpt lat="49.33218" lon="0.98107">
        <ele>96</ele>
        <time>2015-03-22T09:25:24Z</time>
      </trkpt>
      <trkpt lat="49.33222" lon="0.98115">
        <ele>96</ele>
        <time>2015-03-22T09:25:30Z</time>
      </trkpt>
      <trkpt lat="49.33227" lon="0.98125">
        <ele>96</ele>
        <time>2015-03-22T09:25:32Z</time>
      </trkpt>
      <trkpt lat="49.33231" lon="0.9813">
        <ele>96</ele>
        <time>2015-03-22T09:25:34Z</time>
      </trkpt>
      <trkpt lat="49.3324" lon="0.98139">
        <ele>96</ele>
        <time>2015-03-22T09:25:36Z</time>
      </trkpt>
      <trkpt lat="49.33248" lon="0.98149">
        <ele>95</ele>
        <time>2015-03-22T09:25:38Z</time>
      </trkpt>
      <trkpt lat="49.33257" lon="0.98161">
        <ele>90</ele>
        <time>2015-03-22T09:25:40Z</time>
      </trkpt>
      <trkpt lat="49.33265" lon="0.98176">
        <ele>92</ele>
        <time>2015-03-22T09:25:42Z</time>
      </trkpt>
      <trkpt lat="49.33272" lon="0.98189">
        <ele>92</ele>
        <time>2015-03-22T09:25:44Z</time>
      </trkpt>
      <trkpt lat="49.33281" lon="0.98202">
        <ele>92</ele>
        <time>2015-03-22T09:25:46Z</time>
      </trkpt>
      <trkpt lat="49.33289" lon="0.98219">
        <ele>92</ele>
        <time>2015-03-22T09:25:48Z</time>
      </trkpt>
      <trkpt lat="49.33294" lon="0.98237">
        <ele>92</ele>
        <time>2015-03-22T09:25:50Z</time>
      </trkpt>
      <trkpt lat="49.33297" lon="0.98246">
        <ele>92</ele>
        <time>2015-03-22T09:25:52Z</time>
      </trkpt>
      <trkpt lat="49.33301" lon="0.98258">
        <ele>97</ele>
        <time>2015-03-22T09:25:54Z</time>
      </trkpt>
      <trkpt lat="49.33308" lon="0.98269">
        <ele>97</ele>
        <time>2015-03-22T09:25:56Z</time>
      </trkpt>
      <trkpt lat="49.33314" lon="0.98279">
        <ele>97</ele>
        <time>2015-03-22T09:25:58Z</time>
      </trkpt>
      <trkpt lat="49.33321" lon="0.98285">
        <ele>97</ele>
        <time>2015-03-22T09:26:00Z</time>
      </trkpt>
      <trkpt lat="49.33328" lon="0.98288">
        <ele>97</ele>
        <time>2015-03-22T09:26:02Z</time>
      </trkpt>
      <trkpt lat="49.33335" lon="0.98292">
        <ele>93</ele>
        <time>2015-03-22T09:26:04Z</time>
      </trkpt>
      <trkpt lat="49.3334" lon="0.98296">
        <ele>93</ele>
        <time>2015-03-22T09:26:06Z</time>
      </trkpt>
      <trkpt lat="49.33348" lon="0.98293">
        <ele>93</ele>
        <time>2015-03-22T09:26:08Z</time>
      </trkpt>
      <trkpt lat="49.33359" lon="0.9829">
        <ele>93</ele>
        <time>2015-03-22T09:26:10Z</time>
      </trkpt>
      <trkpt lat="49.33367" lon="0.98285">
        <ele>93</ele>
        <time>2015-03-22T09:26:12Z</time>
      </trkpt>
      <trkpt lat="49.33375" lon="0.98277">
        <ele>93</ele>
        <time>2015-03-22T09:26:14Z</time>
      </trkpt>
      <trkpt lat="49.3338" lon="0.98261">
        <ele>92</ele>
        <time>2015-03-22T09:26:16Z</time>
      </trkpt>
      <trkpt lat="49.33383" lon="0.98253">
        <ele>92</ele>
        <time>2015-03-22T09:26:18Z</time>
      </trkpt>
      <trkpt lat="49.33389" lon="0.98251">
        <ele>92</ele>
        <time>2015-03-22T09:26:20Z</time>
      </trkpt>
      <trkpt lat="49.33393" lon="0.98235">
        <ele>89</ele>
        <time>2015-03-22T09:26:26Z</time>
      </trkpt>
      <trkpt lat="49.33393" lon="0.98225">
        <ele>89</ele>
        <time>2015-03-22T09:26:30Z</time>
      </trkpt>
      <trkpt lat="49.3339" lon="0.98216">
        <ele>89</ele>
        <time>2015-03-22T09:26:34Z</time>
      </trkpt>
      <trkpt lat="49.33388" lon="0.98205">
        <ele>89</ele>
        <time>2015-03-22T09:26:38Z</time>
      </trkpt>
      <trkpt lat="49.33388" lon="0.98193">
        <ele>89</ele>
        <time>2015-03-22T09:26:42Z</time>
      </trkpt>
      <trkpt lat="49.33389" lon="0.98183">
        <ele>89</ele>
        <time>2015-03-22T09:26:44Z</time>
      </trkpt>
      <trkpt lat="49.3339" lon="0.98175">
        <ele>89</ele>
        <time>2015-03-22T09:26:46Z</time>
      </trkpt>
      <trkpt lat="49.33391" lon="0.98168">
        <ele>89</ele>
        <time>2015-03-22T09:26:50Z</time>
      </trkpt>
      <trkpt lat="49.33394" lon="0.9816">
        <ele>88</ele>
        <time>2015-03-22T09:26:54Z</time>
      </trkpt>
      <trkpt lat="49.33395" lon="0.98152">
        <ele>88</ele>
        <time>2015-03-22T09:26:56Z</time>
      </trkpt>
      <trkpt lat="49.33396" lon="0.98139">
        <ele>88</ele>
        <time>2015-03-22T09:27:02Z</time>
      </trkpt>
      <trkpt lat="49.334" lon="0.98133">
        <ele>88</ele>
        <time>2015-03-22T09:27:06Z</time>
      </trkpt>
      <trkpt lat="49.33404" lon="0.98125">
        <ele>88</ele>
        <time>2015-03-22T09:27:10Z</time>
      </trkpt>
      <trkpt lat="49.33403" lon="0.98118">
        <ele>88</ele>
        <time>2015-03-22T09:27:12Z</time>
      </trkpt>
      <trkpt lat="49.33401" lon="0.98107">
        <ele>89</ele>
        <time>2015-03-22T09:27:14Z</time>
      </trkpt>
      <trkpt lat="49.33401" lon="0.98091">
        <ele>90</ele>
        <time>2015-03-22T09:27:16Z</time>
      </trkpt>
      <trkpt lat="49.33403" lon="0.9808">
        <ele>89</ele>
        <time>2015-03-22T09:27:18Z</time>
      </trkpt>
      <trkpt lat="49.33406" lon="0.98066">
        <ele>88</ele>
        <time>2015-03-22T09:27:20Z</time>
      </trkpt>
      <trkpt lat="49.33408" lon="0.98053">
        <ele>86</ele>
        <time>2015-03-22T09:27:22Z</time>
      </trkpt>
      <trkpt lat="49.3341" lon="0.9804">
        <ele>85</ele>
        <time>2015-03-22T09:27:24Z</time>
      </trkpt>
      <trkpt lat="49.33411" lon="0.98025">
        <ele>86</ele>
        <time>2015-03-22T09:27:26Z</time>
      </trkpt>
      <trkpt lat="49.33414" lon="0.98014">
        <ele>87</ele>
        <time>2015-03-22T09:27:28Z</time>
      </trkpt>
      <trkpt lat="49.33417" lon="0.98006">
        <ele>93</ele>
        <time>2015-03-22T09:27:30Z</time>
      </trkpt>
      <trkpt lat="49.33422" lon="0.97995">
        <ele>92</ele>
        <time>2015-03-22T09:27:32Z</time>
      </trkpt>
      <trkpt lat="49.33426" lon="0.97991">
        <ele>93</ele>
        <time>2015-03-22T09:27:34Z</time>
      </trkpt>
      <trkpt lat="49.33433" lon="0.97982">
        <ele>95</ele>
        <time>2015-03-22T09:27:38Z</time>
      </trkpt>
      <trkpt lat="49.33436" lon="0.97972">
        <ele>96</ele>
        <time>2015-03-22T09:27:40Z</time>
      </trkpt>
      <trkpt lat="49.33441" lon="0.97967">
        <ele>96</ele>
        <time>2015-03-22T09:27:42Z</time>
      </trkpt>
      <trkpt lat="49.33447" lon="0.97957">
        <ele>97</ele>
        <time>2015-03-22T09:27:46Z</time>
      </trkpt>
      <trkpt lat="49.33452" lon="0.97951">
        <ele>97</ele>
        <time>2015-03-22T09:27:48Z</time>
      </trkpt>
      <trkpt lat="49.33456" lon="0.97941">
        <ele>97</ele>
        <time>2015-03-22T09:27:50Z</time>
      </trkpt>
      <trkpt lat="49.3346" lon="0.97928">
        <ele>98</ele>
        <time>2015-03-22T09:27:52Z</time>
      </trkpt>
      <trkpt lat="49.33463" lon="0.9792">
        <ele>98</ele>
        <time>2015-03-22T09:27:54Z</time>
      </trkpt>
      <trkpt lat="49.33465" lon="0.9791">
        <ele>94</ele>
        <time>2015-03-22T09:27:56Z</time>
      </trkpt>
      <trkpt lat="49.33464" lon="0.97901">
        <ele>93</ele>
        <time>2015-03-22T09:27:58Z</time>
      </trkpt>
      <trkpt lat="49.33468" lon="0.97894">
        <ele>94</ele>
        <time>2015-03-22T09:28:02Z</time>
      </trkpt>
      <trkpt lat="49.33473" lon="0.97884">
        <ele>94</ele>
        <time>2015-03-22T09:28:06Z</time>
      </trkpt>
      <trkpt lat="49.33474" lon="0.97875">
        <ele>94</ele>
        <time>2015-03-22T09:28:08Z</time>
      </trkpt>
      <trkpt lat="49.33475" lon="0.97865">
        <ele>93</ele>
        <time>2015-03-22T09:28:10Z</time>
      </trkpt>
      <trkpt lat="49.33476" lon="0.97852">
        <ele>93</ele>
        <time>2015-03-22T09:28:12Z</time>
      </trkpt>
      <trkpt lat="49.33477" lon="0.97845">
        <ele>94</ele>
        <time>2015-03-22T09:28:14Z</time>
      </trkpt>
      <trkpt lat="49.33476" lon="0.97835">
        <ele>94</ele>
        <time>2015-03-22T09:28:16Z</time>
      </trkpt>
      <trkpt lat="49.33476" lon="0.97827">
        <ele>90</ele>
        <time>2015-03-22T09:28:18Z</time>
      </trkpt>
      <trkpt lat="49.33479" lon="0.97819">
        <ele>90</ele>
        <time>2015-03-22T09:28:20Z</time>
      </trkpt>
      <trkpt lat="49.33484" lon="0.97814">
        <ele>91</ele>
        <time>2015-03-22T09:28:24Z</time>
      </trkpt>
      <trkpt lat="49.33488" lon="0.97802">
        <ele>90</ele>
        <time>2015-03-22T09:28:28Z</time>
      </trkpt>
      <trkpt lat="49.3349" lon="0.97793">
        <ele>89</ele>
        <time>2015-03-22T09:28:30Z</time>
      </trkpt>
      <trkpt lat="49.33492" lon="0.97786">
        <ele>89</ele>
        <time>2015-03-22T09:28:32Z</time>
      </trkpt>
      <trkpt lat="49.33495" lon="0.9778">
        <ele>89</ele>
        <time>2015-03-22T09:28:34Z</time>
      </trkpt>
      <trkpt lat="49.33498" lon="0.97774">
        <ele>90</ele>
        <time>2015-03-22T09:28:36Z</time>
      </trkpt>
      <trkpt lat="49.33504" lon="0.97772">
        <ele>100</ele>
        <time>2015-03-22T09:28:42Z</time>
      </trkpt>
      <trkpt lat="49.33511" lon="0.9777">
        <ele>100</ele>
        <time>2015-03-22T09:28:46Z</time>
      </trkpt>
      <trkpt lat="49.33516" lon="0.9777">
        <ele>101</ele>
        <time>2015-03-22T09:28:50Z</time>
      </trkpt>
      <trkpt lat="49.33522" lon="0.97769">
        <ele>101</ele>
        <time>2015-03-22T09:28:54Z</time>
      </trkpt>
      <trkpt lat="49.33528" lon="0.9777">
        <ele>102</ele>
        <time>2015-03-22T09:28:58Z</time>
      </trkpt>
      <trkpt lat="49.33534" lon="0.97771">
        <ele>103</ele>
        <time>2015-03-22T09:29:02Z</time>
      </trkpt>
      <trkpt lat="49.33546" lon="0.97777">
        <ele>104</ele>
        <time>2015-03-22T09:29:28Z</time>
      </trkpt>
      <trkpt lat="49.33547" lon="0.97783">
        <ele>104</ele>
        <time>2015-03-22T09:29:34Z</time>
      </trkpt>
      <trkpt lat="49.33546" lon="0.97792">
        <ele>105</ele>
        <time>2015-03-22T09:29:38Z</time>
      </trkpt>
      <trkpt lat="49.33543" lon="0.97799">
        <ele>105</ele>
        <time>2015-03-22T09:29:42Z</time>
      </trkpt>
      <trkpt lat="49.33541" lon="0.9781">
        <ele>105</ele>
        <time>2015-03-22T09:29:46Z</time>
      </trkpt>
      <trkpt lat="49.33544" lon="0.9782">
        <ele>105</ele>
        <time>2015-03-22T09:29:50Z</time>
      </trkpt>
      <trkpt lat="49.3355" lon="0.97823">
        <ele>106</ele>
        <time>2015-03-22T09:29:54Z</time>
      </trkpt>
      <trkpt lat="49.33556" lon="0.97825">
        <ele>107</ele>
        <time>2015-03-22T09:29:58Z</time>
      </trkpt>
      <trkpt lat="49.33562" lon="0.97828">
        <ele>108</ele>
        <time>2015-03-22T09:30:02Z</time>
      </trkpt>
      <trkpt lat="49.33566" lon="0.97831">
        <ele>109</ele>
        <time>2015-03-22T09:30:06Z</time>
      </trkpt>
      <trkpt lat="49.33562" lon="0.97813">
        <ele>107</ele>
        <time>2015-03-22T09:30:14Z</time>
      </trkpt>
      <trkpt lat="49.33558" lon="0.97794">
        <ele>106</ele>
        <time>2015-03-22T09:30:16Z</time>
      </trkpt>
      <trkpt lat="49.33555" lon="0.97777">
        <ele>105</ele>
        <time>2015-03-22T09:30:18Z</time>
      </trkpt>
      <trkpt lat="49.33551" lon="0.97758">
        <ele>104</ele>
        <time>2015-03-22T09:30:20Z</time>
      </trkpt>
      <trkpt lat="49.33547" lon="0.97744">
        <ele>99</ele>
        <time>2015-03-22T09:30:22Z</time>
      </trkpt>
      <trkpt lat="49.33543" lon="0.97732">
        <ele>98</ele>
        <time>2015-03-22T09:30:24Z</time>
      </trkpt>
      <trkpt lat="49.3354" lon="0.97719">
        <ele>97</ele>
        <time>2015-03-22T09:30:26Z</time>
      </trkpt>
      <trkpt lat="49.33537" lon="0.97705">
        <ele>96</ele>
        <time>2015-03-22T09:30:28Z</time>
      </trkpt>
      <trkpt lat="49.33531" lon="0.97687">
        <ele>95</ele>
        <time>2015-03-22T09:30:30Z</time>
      </trkpt>
      <trkpt lat="49.33526" lon="0.97671">
        <ele>93</ele>
        <time>2015-03-22T09:30:32Z</time>
      </trkpt>
      <trkpt lat="49.33521" lon="0.9766">
        <ele>87</ele>
        <time>2015-03-22T09:30:34Z</time>
      </trkpt>
      <trkpt lat="49.33516" lon="0.97646">
        <ele>87</ele>
        <time>2015-03-22T09:30:42Z</time>
      </trkpt>
      <trkpt lat="49.33515" lon="0.97637">
        <ele>87</ele>
        <time>2015-03-22T09:30:44Z</time>
      </trkpt>
      <trkpt lat="49.33509" lon="0.97626">
        <ele>86</ele>
        <time>2015-03-22T09:30:46Z</time>
      </trkpt>
      <trkpt lat="49.33506" lon="0.9762">
        <ele>85</ele>
        <time>2015-03-22T09:30:48Z</time>
      </trkpt>
      <trkpt lat="49.33499" lon="0.976">
        <ele>77</ele>
        <time>2015-03-22T09:30:52Z</time>
      </trkpt>
      <trkpt lat="49.33496" lon="0.97583">
        <ele>77</ele>
        <time>2015-03-22T09:30:54Z</time>
      </trkpt>
      <trkpt lat="49.33492" lon="0.97566">
        <ele>73</ele>
        <time>2015-03-22T09:30:56Z</time>
      </trkpt>
      <trkpt lat="49.33488" lon="0.97551">
        <ele>71</ele>
        <time>2015-03-22T09:30:58Z</time>
      </trkpt>
      <trkpt lat="49.33481" lon="0.97538">
        <ele>70</ele>
        <time>2015-03-22T09:31:00Z</time>
      </trkpt>
      <trkpt lat="49.33475" lon="0.97528">
        <ele>69</ele>
        <time>2015-03-22T09:31:02Z</time>
      </trkpt>
      <trkpt lat="49.33472" lon="0.97514">
        <ele>69</ele>
        <time>2015-03-22T09:31:04Z</time>
      </trkpt>
      <trkpt lat="49.33471" lon="0.97498">
        <ele>66</ele>
        <time>2015-03-22T09:31:06Z</time>
      </trkpt>
      <trkpt lat="49.33467" lon="0.97491">
        <ele>65</ele>
        <time>2015-03-22T09:31:08Z</time>
      </trkpt>
      <trkpt lat="49.33465" lon="0.97481">
        <ele>65</ele>
        <time>2015-03-22T09:31:10Z</time>
      </trkpt>
      <trkpt lat="49.33457" lon="0.97476">
        <ele>64</ele>
        <time>2015-03-22T09:31:12Z</time>
      </trkpt>
      <trkpt lat="49.33445" lon="0.97473">
        <ele>64</ele>
        <time>2015-03-22T09:31:14Z</time>
      </trkpt>
      <trkpt lat="49.33432" lon="0.97467">
        <ele>63</ele>
        <time>2015-03-22T09:31:16Z</time>
      </trkpt>
      <trkpt lat="49.33416" lon="0.97461">
        <ele>57</ele>
        <time>2015-03-22T09:31:18Z</time>
      </trkpt>
      <trkpt lat="49.33402" lon="0.97452">
        <ele>56</ele>
        <time>2015-03-22T09:31:20Z</time>
      </trkpt>
      <trkpt lat="49.33384" lon="0.97445">
        <ele>55</ele>
        <time>2015-03-22T09:31:22Z</time>
      </trkpt>
      <trkpt lat="49.33365" lon="0.97441">
        <ele>54</ele>
        <time>2015-03-22T09:31:24Z</time>
      </trkpt>
      <trkpt lat="49.33344" lon="0.97437">
        <ele>52</ele>
        <time>2015-03-22T09:31:26Z</time>
      </trkpt>
      <trkpt lat="49.33324" lon="0.97433">
        <ele>48</ele>
        <time>2015-03-22T09:31:28Z</time>
      </trkpt>
      <trkpt lat="49.33306" lon="0.97435">
        <ele>47</ele>
        <time>2015-03-22T09:31:30Z</time>
      </trkpt>
      <trkpt lat="49.33292" lon="0.97448">
        <ele>46</ele>
        <time>2015-03-22T09:31:32Z</time>
      </trkpt>
      <trkpt lat="49.3328" lon="0.97461">
        <ele>46</ele>
        <time>2015-03-22T09:31:34Z</time>
      </trkpt>
      <trkpt lat="49.33265" lon="0.97474">
        <ele>46</ele>
        <time>2015-03-22T09:31:36Z</time>
      </trkpt>
      <trkpt lat="49.33249" lon="0.97483">
        <ele>43</ele>
        <time>2015-03-22T09:31:38Z</time>
      </trkpt>
      <trkpt lat="49.3323" lon="0.97486">
        <ele>42</ele>
        <time>2015-03-22T09:31:40Z</time>
      </trkpt>
      <trkpt lat="49.3321" lon="0.97489">
        <ele>41</ele>
        <time>2015-03-22T09:31:42Z</time>
      </trkpt>
      <trkpt lat="49.33192" lon="0.97492">
        <ele>40</ele>
        <time>2015-03-22T09:31:44Z</time>
      </trkpt>
      <trkpt lat="49.33172" lon="0.97493">
        <ele>39</ele>
        <time>2015-03-22T09:31:46Z</time>
      </trkpt>
      <trkpt lat="49.33155" lon="0.97494">
        <ele>37</ele>
        <time>2015-03-22T09:31:48Z</time>
      </trkpt>
      <trkpt lat="49.33139" lon="0.97492">
        <ele>36</ele>
        <time>2015-03-22T09:31:50Z</time>
      </trkpt>
      <trkpt lat="49.33123" lon="0.97491">
        <ele>36</ele>
        <time>2015-03-22T09:31:52Z</time>
      </trkpt>
      <trkpt lat="49.33107" lon="0.9749">
        <ele>36</ele>
        <time>2015-03-22T09:31:54Z</time>
      </trkpt>
      <trkpt lat="49.33094" lon="0.9749">
        <ele>36</ele>
        <time>2015-03-22T09:31:56Z</time>
      </trkpt>
      <trkpt lat="49.33083" lon="0.97488">
        <ele>34</ele>
        <time>2015-03-22T09:31:58Z</time>
      </trkpt>
      <trkpt lat="49.33077" lon="0.97485">
        <ele>34</ele>
        <time>2015-03-22T09:32:00Z</time>
      </trkpt>
      <trkpt lat="49.33067" lon="0.97484">
        <ele>33</ele>
        <time>2015-03-22T09:34:49Z</time>
      </trkpt>
      <trkpt lat="49.33074" lon="0.97484">
        <ele>34</ele>
        <time>2015-03-22T09:36:55Z</time>
      </trkpt>
      <trkpt lat="49.33076" lon="0.97491">
        <ele>34</ele>
        <time>2015-03-22T09:37:33Z</time>
      </trkpt>
      <trkpt lat="49.3307" lon="0.97492">
        <ele>34</ele>
        <time>2015-03-22T09:37:49Z</time>
      </trkpt>
      <trkpt lat="49.33064" lon="0.97495">
        <ele>33</ele>
        <time>2015-03-22T09:37:53Z</time>
      </trkpt>
      <trkpt lat="49.33057" lon="0.97503">
        <ele>36</ele>
        <time>2015-03-22T09:37:57Z</time>
      </trkpt>
      <trkpt lat="49.33052" lon="0.97509">
        <ele>35</ele>
        <time>2015-03-22T09:37:59Z</time>
      </trkpt>
      <trkpt lat="49.33048" lon="0.97515">
        <ele>35</ele>
        <time>2015-03-22T09:38:01Z</time>
      </trkpt>
      <trkpt lat="49.33043" lon="0.97522">
        <ele>35</ele>
        <time>2015-03-22T09:38:03Z</time>
      </trkpt>
      <trkpt lat="49.33037" lon="0.9753">
        <ele>35</ele>
        <time>2015-03-22T09:38:05Z</time>
      </trkpt>
      <trkpt lat="49.33031" lon="0.9754">
        <ele>35</ele>
        <time>2015-03-22T09:38:07Z</time>
      </trkpt>
      <trkpt lat="49.33025" lon="0.97547">
        <ele>36</ele>
        <time>2015-03-22T09:38:09Z</time>
      </trkpt>
      <trkpt lat="49.33019" lon="0.97553">
        <ele>36</ele>
        <time>2015-03-22T09:38:11Z</time>
      </trkpt>
      <trkpt lat="49.33014" lon="0.97561">
        <ele>36</ele>
        <time>2015-03-22T09:38:13Z</time>
      </trkpt>
      <trkpt lat="49.33009" lon="0.97567">
        <ele>35</ele>
        <time>2015-03-22T09:38:15Z</time>
      </trkpt>
      <trkpt lat="49.33006" lon="0.97575">
        <ele>35</ele>
        <time>2015-03-22T09:38:17Z</time>
      </trkpt>
      <trkpt lat="49.33004" lon="0.97583">
        <ele>35</ele>
        <time>2015-03-22T09:38:19Z</time>
      </trkpt>
      <trkpt lat="49.33003" lon="0.97592">
        <ele>37</ele>
        <time>2015-03-22T09:38:21Z</time>
      </trkpt>
      <trkpt lat="49.33003" lon="0.97599">
        <ele>38</ele>
        <time>2015-03-22T09:38:23Z</time>
      </trkpt>
      <trkpt lat="49.33002" lon="0.97606">
        <ele>38</ele>
        <time>2015-03-22T09:38:25Z</time>
      </trkpt>
      <trkpt lat="49.33001" lon="0.97614">
        <ele>39</ele>
        <time>2015-03-22T09:38:27Z</time>
      </trkpt>
      <trkpt lat="49.33" lon="0.97622">
        <ele>39</ele>
        <time>2015-03-22T09:38:29Z</time>
      </trkpt>
      <trkpt lat="49.32999" lon="0.9763">
        <ele>36</ele>
        <time>2015-03-22T09:38:31Z</time>
      </trkpt>
      <trkpt lat="49.32998" lon="0.97638">
        <ele>36</ele>
        <time>2015-03-22T09:38:33Z</time>
      </trkpt>
      <trkpt lat="49.32996" lon="0.97645">
        <ele>36</ele>
        <time>2015-03-22T09:38:35Z</time>
      </trkpt>
      <trkpt lat="49.32994" lon="0.97653">
        <ele>37</ele>
        <time>2015-03-22T09:38:37Z</time>
      </trkpt>
      <trkpt lat="49.32993" lon="0.97662">
        <ele>37</ele>
        <time>2015-03-22T09:38:39Z</time>
      </trkpt>
      <trkpt lat="49.32993" lon="0.97669">
        <ele>38</ele>
        <time>2015-03-22T09:38:41Z</time>
      </trkpt>
      <trkpt lat="49.32992" lon="0.97676">
        <ele>39</ele>
        <time>2015-03-22T09:38:43Z</time>
      </trkpt>
      <trkpt lat="49.32992" lon="0.97684">
        <ele>39</ele>
        <time>2015-03-22T09:38:45Z</time>
      </trkpt>
      <trkpt lat="49.32992" lon="0.97692">
        <ele>40</ele>
        <time>2015-03-22T09:38:47Z</time>
      </trkpt>
      <trkpt lat="49.32991" lon="0.97699">
        <ele>40</ele>
        <time>2015-03-22T09:38:49Z</time>
      </trkpt>
      <trkpt lat="49.3299" lon="0.97706">
        <ele>41</ele>
        <time>2015-03-22T09:38:51Z</time>
      </trkpt>
      <trkpt lat="49.3299" lon="0.97714">
        <ele>41</ele>
        <time>2015-03-22T09:38:53Z</time>
      </trkpt>
      <trkpt lat="49.32989" lon="0.97727">
        <ele>42</ele>
        <time>2015-03-22T09:38:57Z</time>
      </trkpt>
      <trkpt lat="49.32989" lon="0.97735">
        <ele>42</ele>
        <time>2015-03-22T09:38:59Z</time>
      </trkpt>
      <trkpt lat="49.32989" lon="0.97742">
        <ele>42</ele>
        <time>2015-03-22T09:39:01Z</time>
      </trkpt>
      <trkpt lat="49.32988" lon="0.9775">
        <ele>42</ele>
        <time>2015-03-22T09:39:03Z</time>
      </trkpt>
      <trkpt lat="49.32988" lon="0.97757">
        <ele>45</ele>
        <time>2015-03-22T09:39:05Z</time>
      </trkpt>
      <trkpt lat="49.32987" lon="0.97764">
        <ele>45</ele>
        <time>2015-03-22T09:39:07Z</time>
      </trkpt>
      <trkpt lat="49.32986" lon="0.97776">
        <ele>46</ele>
        <time>2015-03-22T09:39:11Z</time>
      </trkpt>
      <trkpt lat="49.32984" lon="0.9779">
        <ele>47</ele>
        <time>2015-03-22T09:39:15Z</time>
      </trkpt>
      <trkpt lat="49.32983" lon="0.97798">
        <ele>48</ele>
        <time>2015-03-22T09:39:17Z</time>
      </trkpt>
      <trkpt lat="49.32983" lon="0.97806">
        <ele>48</ele>
        <time>2015-03-22T09:39:19Z</time>
      </trkpt>
      <trkpt lat="49.32984" lon="0.97813">
        <ele>48</ele>
        <time>2015-03-22T09:39:21Z</time>
      </trkpt>
      <trkpt lat="49.32984" lon="0.9782">
        <ele>48</ele>
        <time>2015-03-22T09:39:23Z</time>
      </trkpt>
      <trkpt lat="49.32984" lon="0.97827">
        <ele>48</ele>
        <time>2015-03-22T09:39:25Z</time>
      </trkpt>
      <trkpt lat="49.32985" lon="0.97842">
        <ele>51</ele>
        <time>2015-03-22T09:39:29Z</time>
      </trkpt>
      <trkpt lat="49.32985" lon="0.97849">
        <ele>52</ele>
        <time>2015-03-22T09:39:31Z</time>
      </trkpt>
      <trkpt lat="49.32985" lon="0.97857">
        <ele>52</ele>
        <time>2015-03-22T09:39:33Z</time>
      </trkpt>
      <trkpt lat="49.32984" lon="0.97864">
        <ele>53</ele>
        <time>2015-03-22T09:39:35Z</time>
      </trkpt>
      <trkpt lat="49.32983" lon="0.97877">
        <ele>54</ele>
        <time>2015-03-22T09:39:39Z</time>
      </trkpt>
      <trkpt lat="49.32982" lon="0.97884">
        <ele>54</ele>
        <time>2015-03-22T09:39:41Z</time>
      </trkpt>
      <trkpt lat="49.32981" lon="0.97891">
        <ele>54</ele>
        <time>2015-03-22T09:39:43Z</time>
      </trkpt>
      <trkpt lat="49.3298" lon="0.97899">
        <ele>55</ele>
        <time>2015-03-22T09:39:45Z</time>
      </trkpt>
      <trkpt lat="49.32979" lon="0.97906">
        <ele>55</ele>
        <time>2015-03-22T09:39:47Z</time>
      </trkpt>
      <trkpt lat="49.32978" lon="0.97913">
        <ele>55</ele>
        <time>2015-03-22T09:39:49Z</time>
      </trkpt>
      <trkpt lat="49.32975" lon="0.97925">
        <ele>59</ele>
        <time>2015-03-22T09:39:53Z</time>
      </trkpt>
      <trkpt lat="49.32974" lon="0.97932">
        <ele>59</ele>
        <time>2015-03-22T09:39:55Z</time>
      </trkpt>
      <trkpt lat="49.32972" lon="0.97939">
        <ele>60</ele>
        <time>2015-03-22T09:39:57Z</time>
      </trkpt>
      <trkpt lat="49.32972" lon="0.97946">
        <ele>60</ele>
        <time>2015-03-22T09:39:59Z</time>
      </trkpt>
      <trkpt lat="49.32972" lon="0.97953">
        <ele>61</ele>
        <time>2015-03-22T09:40:01Z</time>
      </trkpt>
      <trkpt lat="49.32971" lon="0.97968">
        <ele>61</ele>
        <time>2015-03-22T09:40:05Z</time>
      </trkpt>
      <trkpt lat="49.3297" lon="0.97981">
        <ele>62</ele>
        <time>2015-03-22T09:40:09Z</time>
      </trkpt>
      <trkpt lat="49.32969" lon="0.97989">
        <ele>62</ele>
        <time>2015-03-22T09:40:11Z</time>
      </trkpt>
      <trkpt lat="49.32968" lon="0.98001">
        <ele>67</ele>
        <time>2015-03-22T09:40:15Z</time>
      </trkpt>
      <trkpt lat="49.32966" lon="0.98014">
        <ele>68</ele>
        <time>2015-03-22T09:40:19Z</time>
      </trkpt>
      <trkpt lat="49.32965" lon="0.98025">
        <ele>68</ele>
        <time>2015-03-22T09:40:23Z</time>
      </trkpt>
      <trkpt lat="49.32965" lon="0.98033">
        <ele>69</ele>
        <time>2015-03-22T09:40:25Z</time>
      </trkpt>
      <trkpt lat="49.32964" lon="0.9804">
        <ele>69</ele>
        <time>2015-03-22T09:40:27Z</time>
      </trkpt>
      <trkpt lat="49.32962" lon="0.9805">
        <ele>70</ele>
        <time>2015-03-22T09:40:31Z</time>
      </trkpt>
      <trkpt lat="49.32962" lon="0.98062">
        <ele>70</ele>
        <time>2015-03-22T09:40:35Z</time>
      </trkpt>
      <trkpt lat="49.32961" lon="0.98073">
        <ele>71</ele>
        <time>2015-03-22T09:40:39Z</time>
      </trkpt>
      <trkpt lat="49.3296" lon="0.98086">
        <ele>78</ele>
        <time>2015-03-22T09:40:43Z</time>
      </trkpt>
      <trkpt lat="49.32957" lon="0.98095">
        <ele>78</ele>
        <time>2015-03-22T09:40:47Z</time>
      </trkpt>
      <trkpt lat="49.32953" lon="0.98103">
        <ele>79</ele>
        <time>2015-03-22T09:40:51Z</time>
      </trkpt>
      <trkpt lat="49.3295" lon="0.98116">
        <ele>80</ele>
        <time>2015-03-22T09:40:55Z</time>
      </trkpt>
      <trkpt lat="49.32951" lon="0.98127">
        <ele>80</ele>
        <time>2015-03-22T09:40:59Z</time>
      </trkpt>
      <trkpt lat="49.32952" lon="0.98141">
        <ele>82</ele>
        <time>2015-03-22T09:41:03Z</time>
      </trkpt>
      <trkpt lat="49.32952" lon="0.98152">
        <ele>82</ele>
        <time>2015-03-22T09:41:07Z</time>
      </trkpt>
      <trkpt lat="49.32951" lon="0.98161">
        <ele>83</ele>
        <time>2015-03-22T09:41:11Z</time>
      </trkpt>
      <trkpt lat="49.32952" lon="0.98174">
        <ele>90</ele>
        <time>2015-03-22T09:41:15Z</time>
      </trkpt>
      <trkpt lat="49.32952" lon="0.98185">
        <ele>90</ele>
        <time>2015-03-22T09:41:19Z</time>
      </trkpt>
      <trkpt lat="49.32947" lon="0.98186">
        <ele>90</ele>
        <time>2015-03-22T09:41:25Z</time>
      </trkpt>
      <trkpt lat="49.32944" lon="0.98177">
        <ele>90</ele>
        <time>2015-03-22T09:41:27Z</time>
      </trkpt>
      <trkpt lat="49.3294" lon="0.98168">
        <ele>89</ele>
        <time>2015-03-22T09:41:29Z</time>
      </trkpt>
      <trkpt lat="49.32939" lon="0.98154">
        <ele>82</ele>
        <time>2015-03-22T09:41:33Z</time>
      </trkpt>
      <trkpt lat="49.32935" lon="0.98139">
        <ele>81</ele>
        <time>2015-03-22T09:41:37Z</time>
      </trkpt>
      <trkpt lat="49.32936" lon="0.98127">
        <ele>80</ele>
        <time>2015-03-22T09:41:41Z</time>
      </trkpt>
      <trkpt lat="49.32938" lon="0.98118">
        <ele>79</ele>
        <time>2015-03-22T09:41:43Z</time>
      </trkpt>
      <trkpt lat="49.32941" lon="0.98108">
        <ele>79</ele>
        <time>2015-03-22T09:41:45Z</time>
      </trkpt>
      <trkpt lat="49.32942" lon="0.98092">
        <ele>77</ele>
        <time>2015-03-22T09:41:47Z</time>
      </trkpt>
      <trkpt lat="49.32942" lon="0.98078">
        <ele>71</ele>
        <time>2015-03-22T09:41:49Z</time>
      </trkpt>
      <trkpt lat="49.32937" lon="0.98066">
        <ele>70</ele>
        <time>2015-03-22T09:41:53Z</time>
      </trkpt>
      <trkpt lat="49.32938" lon="0.98058">
        <ele>70</ele>
        <time>2015-03-22T09:41:55Z</time>
      </trkpt>
      <trkpt lat="49.32939" lon="0.9805">
        <ele>69</ele>
        <time>2015-03-22T09:41:57Z</time>
      </trkpt>
      <trkpt lat="49.32939" lon="0.98041">
        <ele>69</ele>
        <time>2015-03-22T09:41:59Z</time>
      </trkpt>
      <trkpt lat="49.3294" lon="0.98031">
        <ele>68</ele>
        <time>2015-03-22T09:42:01Z</time>
      </trkpt>
      <trkpt lat="49.32937" lon="0.98021">
        <ele>68</ele>
        <time>2015-03-22T09:42:03Z</time>
      </trkpt>
      <trkpt lat="49.32934" lon="0.98014">
        <ele>67</ele>
        <time>2015-03-22T09:42:05Z</time>
      </trkpt>
      <trkpt lat="49.32934" lon="0.98006">
        <ele>67</ele>
        <time>2015-03-22T09:42:07Z</time>
      </trkpt>
      <trkpt lat="49.32934" lon="0.97997">
        <ele>63</ele>
        <time>2015-03-22T09:42:09Z</time>
      </trkpt>
      <trkpt lat="49.32933" lon="0.97989">
        <ele>63</ele>
        <time>2015-03-22T09:42:11Z</time>
      </trkpt>
      <trkpt lat="49.32931" lon="0.97981">
        <ele>62</ele>
        <time>2015-03-22T09:42:13Z</time>
      </trkpt>
      <trkpt lat="49.32931" lon="0.97974">
        <ele>62</ele>
        <time>2015-03-22T09:42:15Z</time>
      </trkpt>
      <trkpt lat="49.3293" lon="0.97966">
        <ele>62</ele>
        <time>2015-03-22T09:42:17Z</time>
      </trkpt>
      <trkpt lat="49.32925" lon="0.97964">
        <ele>62</ele>
        <time>2015-03-22T09:42:29Z</time>
      </trkpt>
      <trkpt lat="49.32919" lon="0.97961">
        <ele>61</ele>
        <time>2015-03-22T09:42:43Z</time>
      </trkpt>
      <trkpt lat="49.32912" lon="0.97961">
        <ele>59</ele>
        <time>2015-03-22T09:42:51Z</time>
      </trkpt>
      <trkpt lat="49.32907" lon="0.97961">
        <ele>58</ele>
        <time>2015-03-22T09:42:53Z</time>
      </trkpt>
      <trkpt lat="49.32903" lon="0.97955">
        <ele>58</ele>
        <time>2015-03-22T09:42:59Z</time>
      </trkpt>
      <trkpt lat="49.32899" lon="0.97944">
        <ele>58</ele>
        <time>2015-03-22T09:43:05Z</time>
      </trkpt>
      <trkpt lat="49.32901" lon="0.97935">
        <ele>58</ele>
        <time>2015-03-22T09:43:31Z</time>
      </trkpt>
      <trkpt lat="49.32901" lon="0.97927">
        <ele>58</ele>
        <time>2015-03-22T09:43:37Z</time>
      </trkpt>
      <trkpt lat="49.32902" lon="0.9792">
        <ele>58</ele>
        <time>2015-03-22T09:43:41Z</time>
      </trkpt>
      <trkpt lat="49.32902" lon="0.97909">
        <ele>56</ele>
        <time>2015-03-22T09:43:45Z</time>
      </trkpt>
      <trkpt lat="49.32902" lon="0.97901">
        <ele>55</ele>
        <time>2015-03-22T09:43:47Z</time>
      </trkpt>
      <trkpt lat="49.32905" lon="0.97896">
        <ele>55</ele>
        <time>2015-03-22T09:43:49Z</time>
      </trkpt>
      <trkpt lat="49.32909" lon="0.97891">
        <ele>54</ele>
        <time>2015-03-22T09:43:51Z</time>
      </trkpt>
      <trkpt lat="49.32912" lon="0.97886">
        <ele>54</ele>
        <time>2015-03-22T09:43:53Z</time>
      </trkpt>
      <trkpt lat="49.32912" lon="0.97877">
        <ele>54</ele>
        <time>2015-03-22T09:43:55Z</time>
      </trkpt>
      <trkpt lat="49.32911" lon="0.9787">
        <ele>53</ele>
        <time>2015-03-22T09:43:57Z</time>
      </trkpt>
      <trkpt lat="49.3291" lon="0.97861">
        <ele>53</ele>
        <time>2015-03-22T09:43:59Z</time>
      </trkpt>
      <trkpt lat="49.32907" lon="0.97849">
        <ele>53</ele>
        <time>2015-03-22T09:44:01Z</time>
      </trkpt>
      <trkpt lat="49.32906" lon="0.9784">
        <ele>54</ele>
        <time>2015-03-22T09:44:03Z</time>
      </trkpt>
      <trkpt lat="49.32907" lon="0.9783">
        <ele>53</ele>
        <time>2015-03-22T09:44:05Z</time>
      </trkpt>
      <trkpt lat="49.32907" lon="0.97818">
        <ele>51</ele>
        <time>2015-03-22T09:44:07Z</time>
      </trkpt>
      <trkpt lat="49.32907" lon="0.97806">
        <ele>50</ele>
        <time>2015-03-22T09:44:09Z</time>
      </trkpt>
      <trkpt lat="49.32906" lon="0.97794">
        <ele>49</ele>
        <time>2015-03-22T09:44:11Z</time>
      </trkpt>
      <trkpt lat="49.32903" lon="0.97787">
        <ele>49</ele>
        <time>2015-03-22T09:44:13Z</time>
      </trkpt>
      <trkpt lat="49.32901" lon="0.9778">
        <ele>49</ele>
        <time>2015-03-22T09:44:15Z</time>
      </trkpt>
      <trkpt lat="49.32905" lon="0.9777">
        <ele>48</ele>
        <time>2015-03-22T09:44:19Z</time>
      </trkpt>
      <trkpt lat="49.3291" lon="0.97767">
        <ele>48</ele>
        <time>2015-03-22T09:44:21Z</time>
      </trkpt>
      <trkpt lat="49.32915" lon="0.97768">
        <ele>48</ele>
        <time>2015-03-22T09:44:23Z</time>
      </trkpt>
      <trkpt lat="49.32919" lon="0.97762">
        <ele>48</ele>
        <time>2015-03-22T09:44:27Z</time>
      </trkpt>
      <trkpt lat="49.32917" lon="0.97746">
        <ele>47</ele>
        <time>2015-03-22T09:44:31Z</time>
      </trkpt>
      <trkpt lat="49.32911" lon="0.97735">
        <ele>46</ele>
        <time>2015-03-22T09:44:33Z</time>
      </trkpt>
      <trkpt lat="49.32906" lon="0.9772">
        <ele>45</ele>
        <time>2015-03-22T09:44:35Z</time>
      </trkpt>
      <trkpt lat="49.329" lon="0.97709">
        <ele>45</ele>
        <time>2015-03-22T09:44:37Z</time>
      </trkpt>
      <trkpt lat="49.32894" lon="0.97694">
        <ele>44</ele>
        <time>2015-03-22T09:44:39Z</time>
      </trkpt>
      <trkpt lat="49.32887" lon="0.97685">
        <ele>44</ele>
        <time>2015-03-22T09:44:41Z</time>
      </trkpt>
      <trkpt lat="49.32883" lon="0.97676">
        <ele>44</ele>
        <time>2015-03-22T09:44:43Z</time>
      </trkpt>
      <trkpt lat="49.32877" lon="0.97666">
        <ele>41</ele>
        <time>2015-03-22T09:44:45Z</time>
      </trkpt>
      <trkpt lat="49.32871" lon="0.97659">
        <ele>42</ele>
        <time>2015-03-22T09:44:47Z</time>
      </trkpt>
      <trkpt lat="49.32865" lon="0.97653">
        <ele>42</ele>
        <time>2015-03-22T09:44:49Z</time>
      </trkpt>
      <trkpt lat="49.32861" lon="0.97645">
        <ele>42</ele>
        <time>2015-03-22T09:44:51Z</time>
      </trkpt>
      <trkpt lat="49.32858" lon="0.97633">
        <ele>42</ele>
        <time>2015-03-22T09:44:53Z</time>
      </trkpt>
      <trkpt lat="49.32856" lon="0.97623">
        <ele>41</ele>
        <time>2015-03-22T09:44:55Z</time>
      </trkpt>
      <trkpt lat="49.32853" lon="0.97615">
        <ele>41</ele>
        <time>2015-03-22T09:44:57Z</time>
      </trkpt>
      <trkpt lat="49.32849" lon="0.97606">
        <ele>41</ele>
        <time>2015-03-22T09:44:59Z</time>
      </trkpt>
      <trkpt lat="49.32846" lon="0.97596">
        <ele>42</ele>
        <time>2015-03-22T09:45:01Z</time>
      </trkpt>
      <trkpt lat="49.32844" lon="0.97587">
        <ele>42</ele>
        <time>2015-03-22T09:45:03Z</time>
      </trkpt>
      <trkpt lat="49.3284" lon="0.97579">
        <ele>41</ele>
        <time>2015-03-22T09:45:05Z</time>
      </trkpt>
      <trkpt lat="49.32837" lon="0.9757">
        <ele>40</ele>
        <time>2015-03-22T09:45:07Z</time>
      </trkpt>
      <trkpt lat="49.32835" lon="0.97563">
        <ele>39</ele>
        <time>2015-03-22T09:45:09Z</time>
      </trkpt>
      <trkpt lat="49.32832" lon="0.97556">
        <ele>41</ele>
        <time>2015-03-22T09:45:11Z</time>
      </trkpt>
      <trkpt lat="49.32831" lon="0.97539">
        <ele>40</ele>
        <time>2015-03-22T09:45:15Z</time>
      </trkpt>
      <trkpt lat="49.32828" lon="0.97529">
        <ele>40</ele>
        <time>2015-03-22T09:45:17Z</time>
      </trkpt>
      <trkpt lat="49.32824" lon="0.97522">
        <ele>40</ele>
        <time>2015-03-22T09:45:19Z</time>
      </trkpt>
      <trkpt lat="49.32819" lon="0.97515">
        <ele>39</ele>
        <time>2015-03-22T09:45:21Z</time>
      </trkpt>
      <trkpt lat="49.32815" lon="0.97508">
        <ele>39</ele>
        <time>2015-03-22T09:45:23Z</time>
      </trkpt>
      <trkpt lat="49.3281" lon="0.97503">
        <ele>40</ele>
        <time>2015-03-22T09:45:25Z</time>
      </trkpt>
      <trkpt lat="49.32809" lon="0.97494">
        <ele>37</ele>
        <time>2015-03-22T09:45:27Z</time>
      </trkpt>
      <trkpt lat="49.32807" lon="0.97482">
        <ele>37</ele>
        <time>2015-03-22T09:45:29Z</time>
      </trkpt>
      <trkpt lat="49.32802" lon="0.97467">
        <ele>36</ele>
        <time>2015-03-22T09:45:31Z</time>
      </trkpt>
      <trkpt lat="49.32797" lon="0.97455">
        <ele>36</ele>
        <time>2015-03-22T09:45:33Z</time>
      </trkpt>
      <trkpt lat="49.32791" lon="0.97447">
        <ele>36</ele>
        <time>2015-03-22T09:45:35Z</time>
      </trkpt>
      <trkpt lat="49.32785" lon="0.9744">
        <ele>36</ele>
        <time>2015-03-22T09:45:37Z</time>
      </trkpt>
      <trkpt lat="49.32778" lon="0.97438">
        <ele>36</ele>
        <time>2015-03-22T09:45:39Z</time>
      </trkpt>
      <trkpt lat="49.32775" lon="0.97444">
        <ele>36</ele>
        <time>2015-03-22T09:45:43Z</time>
      </trkpt>
      <trkpt lat="49.32771" lon="0.97451">
        <ele>36</ele>
        <time>2015-03-22T09:45:45Z</time>
      </trkpt>
      <trkpt lat="49.32767" lon="0.97457">
        <ele>37</ele>
        <time>2015-03-22T09:45:47Z</time>
      </trkpt>
      <trkpt lat="49.32762" lon="0.9746">
        <ele>37</ele>
        <time>2015-03-22T09:45:51Z</time>
      </trkpt>
      <trkpt lat="49.32758" lon="0.97465">
        <ele>37</ele>
        <time>2015-03-22T09:45:53Z</time>
      </trkpt>
      <trkpt lat="49.32754" lon="0.97471">
        <ele>37</ele>
        <time>2015-03-22T09:45:55Z</time>
      </trkpt>
      <trkpt lat="49.32756" lon="0.97479">
        <ele>38</ele>
        <time>2015-03-22T09:45:59Z</time>
      </trkpt>
      <trkpt lat="49.32756" lon="0.97491">
        <ele>39</ele>
        <time>2015-03-22T09:46:03Z</time>
      </trkpt>
      <trkpt lat="49.32756" lon="0.97498">
        <ele>39</ele>
        <time>2015-03-22T09:46:05Z</time>
      </trkpt>
      <trkpt lat="49.32755" lon="0.97505">
        <ele>40</ele>
        <time>2015-03-22T09:46:07Z</time>
      </trkpt>
      <trkpt lat="49.32754" lon="0.97515">
        <ele>40</ele>
        <time>2015-03-22T09:46:09Z</time>
      </trkpt>
      <trkpt lat="49.32755" lon="0.97524">
        <ele>40</ele>
        <time>2015-03-22T09:46:11Z</time>
      </trkpt>
      <trkpt lat="49.32757" lon="0.97531">
        <ele>40</ele>
        <time>2015-03-22T09:46:13Z</time>
      </trkpt>
      <trkpt lat="49.32758" lon="0.97539">
        <ele>40</ele>
        <time>2015-03-22T09:46:15Z</time>
      </trkpt>
      <trkpt lat="49.32758" lon="0.97548">
        <ele>41</ele>
        <time>2015-03-22T09:46:19Z</time>
      </trkpt>
      <trkpt lat="49.32758" lon="0.97559">
        <ele>41</ele>
        <time>2015-03-22T09:46:21Z</time>
      </trkpt>
      <trkpt lat="49.32762" lon="0.97572">
        <ele>41</ele>
        <time>2015-03-22T09:46:23Z</time>
      </trkpt>
      <trkpt lat="49.32762" lon="0.9758">
        <ele>41</ele>
        <time>2015-03-22T09:46:25Z</time>
      </trkpt>
      <trkpt lat="49.32763" lon="0.97588">
        <ele>41</ele>
        <time>2015-03-22T09:46:27Z</time>
      </trkpt>
      <trkpt lat="49.32767" lon="0.97603">
        <ele>41</ele>
        <time>2015-03-22T09:46:31Z</time>
      </trkpt>
      <trkpt lat="49.3277" lon="0.9761">
        <ele>41</ele>
        <time>2015-03-22T09:46:33Z</time>
      </trkpt>
      <trkpt lat="49.32771" lon="0.97617">
        <ele>41</ele>
        <time>2015-03-22T09:46:35Z</time>
      </trkpt>
      <trkpt lat="49.32774" lon="0.97627">
        <ele>41</ele>
        <time>2015-03-22T09:46:37Z</time>
      </trkpt>
      <trkpt lat="49.32777" lon="0.97635">
        <ele>40</ele>
        <time>2015-03-22T09:46:39Z</time>
      </trkpt>
      <trkpt lat="49.32781" lon="0.97643">
        <ele>41</ele>
        <time>2015-03-22T09:46:41Z</time>
      </trkpt>
      <trkpt lat="49.32786" lon="0.97652">
        <ele>41</ele>
        <time>2015-03-22T09:46:43Z</time>
      </trkpt>
      <trkpt lat="49.3279" lon="0.97661">
        <ele>41</ele>
        <time>2015-03-22T09:46:45Z</time>
      </trkpt>
      <trkpt lat="49.32794" lon="0.97668">
        <ele>40</ele>
        <time>2015-03-22T09:46:47Z</time>
      </trkpt>
      <trkpt lat="49.32798" lon="0.97674">
        <ele>40</ele>
        <time>2015-03-22T09:46:49Z</time>
      </trkpt>
      <trkpt lat="49.32803" lon="0.97679">
        <ele>41</ele>
        <time>2015-03-22T09:46:53Z</time>
      </trkpt>
      <trkpt lat="49.32806" lon="0.97686">
        <ele>41</ele>
        <time>2015-03-22T09:46:57Z</time>
      </trkpt>
      <trkpt lat="49.3281" lon="0.97695">
        <ele>41</ele>
        <time>2015-03-22T09:47:03Z</time>
      </trkpt>
      <trkpt lat="49.32813" lon="0.97701">
        <ele>41</ele>
        <time>2015-03-22T09:47:05Z</time>
      </trkpt>
      <trkpt lat="49.3282" lon="0.97712">
        <ele>41</ele>
        <time>2015-03-22T09:47:09Z</time>
      </trkpt>
      <trkpt lat="49.32823" lon="0.97725">
        <ele>41</ele>
        <time>2015-03-22T09:47:13Z</time>
      </trkpt>
      <trkpt lat="49.32827" lon="0.97735">
        <ele>42</ele>
        <time>2015-03-22T09:47:17Z</time>
      </trkpt>
      <trkpt lat="49.32831" lon="0.97729">
        <ele>42</ele>
        <time>2015-03-22T09:47:29Z</time>
      </trkpt>
      <trkpt lat="49.32832" lon="0.97722">
        <ele>42</ele>
        <time>2015-03-22T09:47:33Z</time>
      </trkpt>
      <trkpt lat="49.32836" lon="0.97717">
        <ele>45</ele>
        <time>2015-03-22T09:47:39Z</time>
      </trkpt>
      <trkpt lat="49.32841" lon="0.97714">
        <ele>45</ele>
        <time>2015-03-22T09:47:43Z</time>
      </trkpt>
      <trkpt lat="49.32849" lon="0.97717">
        <ele>45</ele>
        <time>2015-03-22T09:47:47Z</time>
      </trkpt>
      <trkpt lat="49.32853" lon="0.97721">
        <ele>45</ele>
        <time>2015-03-22T09:47:49Z</time>
      </trkpt>
      <trkpt lat="49.32858" lon="0.9773">
        <ele>45</ele>
        <time>2015-03-22T09:47:53Z</time>
      </trkpt>
      <trkpt lat="49.32863" lon="0.97739">
        <ele>45</ele>
        <time>2015-03-22T09:47:57Z</time>
      </trkpt>
      <trkpt lat="49.32866" lon="0.97745">
        <ele>45</ele>
        <time>2015-03-22T09:47:59Z</time>
      </trkpt>
      <trkpt lat="49.32869" lon="0.97752">
        <ele>47</ele>
        <time>2015-03-22T09:48:01Z</time>
      </trkpt>
      <trkpt lat="49.32871" lon="0.97759">
        <ele>47</ele>
        <time>2015-03-22T09:48:03Z</time>
      </trkpt>
      <trkpt lat="49.32872" lon="0.97766">
        <ele>47</ele>
        <time>2015-03-22T09:48:05Z</time>
      </trkpt>
      <trkpt lat="49.32874" lon="0.97779">
        <ele>48</ele>
        <time>2015-03-22T09:48:09Z</time>
      </trkpt>
      <trkpt lat="49.32877" lon="0.97793">
        <ele>48</ele>
        <time>2015-03-22T09:48:13Z</time>
      </trkpt>
      <trkpt lat="49.32878" lon="0.97802">
        <ele>48</ele>
        <time>2015-03-22T09:48:15Z</time>
      </trkpt>
      <trkpt lat="49.32878" lon="0.97809">
        <ele>49</ele>
        <time>2015-03-22T09:48:17Z</time>
      </trkpt>
      <trkpt lat="49.32876" lon="0.97822">
        <ele>49</ele>
        <time>2015-03-22T09:48:21Z</time>
      </trkpt>
      <trkpt lat="49.32874" lon="0.9783">
        <ele>48</ele>
        <time>2015-03-22T09:48:23Z</time>
      </trkpt>
      <trkpt lat="49.32872" lon="0.97842">
        <ele>50</ele>
        <time>2015-03-22T09:48:25Z</time>
      </trkpt>
      <trkpt lat="49.32868" lon="0.97851">
        <ele>50</ele>
        <time>2015-03-22T09:48:27Z</time>
      </trkpt>
      <trkpt lat="49.32868" lon="0.97863">
        <ele>50</ele>
        <time>2015-03-22T09:48:29Z</time>
      </trkpt>
      <trkpt lat="49.32869" lon="0.97874">
        <ele>51</ele>
        <time>2015-03-22T09:48:31Z</time>
      </trkpt>
      <trkpt lat="49.32869" lon="0.97886">
        <ele>51</ele>
        <time>2015-03-22T09:48:35Z</time>
      </trkpt>
      <trkpt lat="49.32864" lon="0.97896">
        <ele>51</ele>
        <time>2015-03-22T09:48:39Z</time>
      </trkpt>
      <trkpt lat="49.32861" lon="0.97904">
        <ele>50</ele>
        <time>2015-03-22T09:48:41Z</time>
      </trkpt>
      <trkpt lat="49.32859" lon="0.97913">
        <ele>50</ele>
        <time>2015-03-22T09:48:43Z</time>
      </trkpt>
      <trkpt lat="49.32856" lon="0.97922">
        <ele>53</ele>
        <time>2015-03-22T09:48:45Z</time>
      </trkpt>
      <trkpt lat="49.32855" lon="0.97933">
        <ele>53</ele>
        <time>2015-03-22T09:48:47Z</time>
      </trkpt>
      <trkpt lat="49.32856" lon="0.97943">
        <ele>54</ele>
        <time>2015-03-22T09:48:49Z</time>
      </trkpt>
      <trkpt lat="49.32855" lon="0.97954">
        <ele>55</ele>
        <time>2015-03-22T09:48:51Z</time>
      </trkpt>
      <trkpt lat="49.32852" lon="0.97963">
        <ele>55</ele>
        <time>2015-03-22T09:48:53Z</time>
      </trkpt>
      <trkpt lat="49.32851" lon="0.97974">
        <ele>56</ele>
        <time>2015-03-22T09:48:55Z</time>
      </trkpt>
      <trkpt lat="49.32849" lon="0.97982">
        <ele>56</ele>
        <time>2015-03-22T09:48:57Z</time>
      </trkpt>
      <trkpt lat="49.32845" lon="0.97991">
        <ele>56</ele>
        <time>2015-03-22T09:48:59Z</time>
      </trkpt>
      <trkpt lat="49.32839" lon="0.98">
        <ele>58</ele>
        <time>2015-03-22T09:49:01Z</time>
      </trkpt>
      <trkpt lat="49.32833" lon="0.98012">
        <ele>55</ele>
        <time>2015-03-22T09:49:03Z</time>
      </trkpt>
      <trkpt lat="49.32826" lon="0.98017">
        <ele>54</ele>
        <time>2015-03-22T09:49:05Z</time>
      </trkpt>
      <trkpt lat="49.3282" lon="0.98024">
        <ele>54</ele>
        <time>2015-03-22T09:49:07Z</time>
      </trkpt>
      <trkpt lat="49.32814" lon="0.98033">
        <ele>54</ele>
        <time>2015-03-22T09:49:09Z</time>
      </trkpt>
      <trkpt lat="49.32808" lon="0.98042">
        <ele>54</ele>
        <time>2015-03-22T09:49:11Z</time>
      </trkpt>
      <trkpt lat="49.32803" lon="0.98046">
        <ele>54</ele>
        <time>2015-03-22T09:49:13Z</time>
      </trkpt>
      <trkpt lat="49.32796" lon="0.9805">
        <ele>53</ele>
        <time>2015-03-22T09:49:15Z</time>
      </trkpt>
      <trkpt lat="49.32793" lon="0.98058">
        <ele>53</ele>
        <time>2015-03-22T09:49:17Z</time>
      </trkpt>
      <trkpt lat="49.32786" lon="0.98064">
        <ele>53</ele>
        <time>2015-03-22T09:49:19Z</time>
      </trkpt>
      <trkpt lat="49.3278" lon="0.98071">
        <ele>51</ele>
        <time>2015-03-22T09:49:21Z</time>
      </trkpt>
      <trkpt lat="49.32773" lon="0.98079">
        <ele>50</ele>
        <time>2015-03-22T09:49:23Z</time>
      </trkpt>
      <trkpt lat="49.32767" lon="0.98087">
        <ele>57</ele>
        <time>2015-03-22T09:49:25Z</time>
      </trkpt>
      <trkpt lat="49.32761" lon="0.98096">
        <ele>57</ele>
        <time>2015-03-22T09:49:27Z</time>
      </trkpt>
      <trkpt lat="49.32753" lon="0.98103">
        <ele>58</ele>
        <time>2015-03-22T09:49:29Z</time>
      </trkpt>
      <trkpt lat="49.32746" lon="0.98114">
        <ele>47</ele>
        <time>2015-03-22T09:49:31Z</time>
      </trkpt>
      <trkpt lat="49.32739" lon="0.98123">
        <ele>48</ele>
        <time>2015-03-22T09:49:33Z</time>
      </trkpt>
      <trkpt lat="49.32731" lon="0.98132">
        <ele>49</ele>
        <time>2015-03-22T09:49:36Z</time>
      </trkpt>
      <trkpt lat="49.32724" lon="0.98137">
        <ele>49</ele>
        <time>2015-03-22T09:49:38Z</time>
      </trkpt>
      <trkpt lat="49.32718" lon="0.98144">
        <ele>49</ele>
        <time>2015-03-22T09:49:40Z</time>
      </trkpt>
      <trkpt lat="49.32713" lon="0.98151">
        <ele>49</ele>
        <time>2015-03-22T09:49:42Z</time>
      </trkpt>
      <trkpt lat="49.32709" lon="0.98159">
        <ele>49</ele>
        <time>2015-03-22T09:49:44Z</time>
      </trkpt>
      <trkpt lat="49.32706" lon="0.98166">
        <ele>48</ele>
        <time>2015-03-22T09:49:46Z</time>
      </trkpt>
      <trkpt lat="49.32702" lon="0.98174">
        <ele>58</ele>
        <time>2015-03-22T09:49:48Z</time>
      </trkpt>
      <trkpt lat="49.32698" lon="0.98183">
        <ele>58</ele>
        <time>2015-03-22T09:49:50Z</time>
      </trkpt>
      <trkpt lat="49.32693" lon="0.98192">
        <ele>59</ele>
        <time>2015-03-22T09:49:52Z</time>
      </trkpt>
      <trkpt lat="49.32686" lon="0.982">
        <ele>59</ele>
        <time>2015-03-22T09:49:54Z</time>
      </trkpt>
      <trkpt lat="49.32681" lon="0.98206">
        <ele>59</ele>
        <time>2015-03-22T09:49:56Z</time>
      </trkpt>
      <trkpt lat="49.32674" lon="0.9821">
        <ele>59</ele>
        <time>2015-03-22T09:49:58Z</time>
      </trkpt>
      <trkpt lat="49.32667" lon="0.98217">
        <ele>60</ele>
        <time>2015-03-22T09:50:02Z</time>
      </trkpt>
      <trkpt lat="49.32662" lon="0.98225">
        <ele>52</ele>
        <time>2015-03-22T09:50:06Z</time>
      </trkpt>
      <trkpt lat="49.32654" lon="0.98232">
        <ele>52</ele>
        <time>2015-03-22T09:50:10Z</time>
      </trkpt>
      <trkpt lat="49.3265" lon="0.98236">
        <ele>53</ele>
        <time>2015-03-22T09:50:12Z</time>
      </trkpt>
      <trkpt lat="49.32646" lon="0.98241">
        <ele>53</ele>
        <time>2015-03-22T09:50:14Z</time>
      </trkpt>
      <trkpt lat="49.32641" lon="0.98248">
        <ele>52</ele>
        <time>2015-03-22T09:50:18Z</time>
      </trkpt>
      <trkpt lat="49.32637" lon="0.98256">
        <ele>63</ele>
        <time>2015-03-22T09:50:22Z</time>
      </trkpt>
      <trkpt lat="49.32631" lon="0.9826">
        <ele>63</ele>
        <time>2015-03-22T09:50:24Z</time>
      </trkpt>
      <trkpt lat="49.32625" lon="0.98262">
        <ele>63</ele>
        <time>2015-03-22T09:50:26Z</time>
      </trkpt>
      <trkpt lat="49.32621" lon="0.98265">
        <ele>63</ele>
        <time>2015-03-22T09:50:28Z</time>
      </trkpt>
      <trkpt lat="49.32616" lon="0.98266">
        <ele>62</ele>
        <time>2015-03-22T09:50:30Z</time>
      </trkpt>
      <trkpt lat="49.3261" lon="0.98268">
        <ele>62</ele>
        <time>2015-03-22T09:50:32Z</time>
      </trkpt>
      <trkpt lat="49.32605" lon="0.9827">
        <ele>62</ele>
        <time>2015-03-22T09:50:34Z</time>
      </trkpt>
      <trkpt lat="49.326" lon="0.98273">
        <ele>61</ele>
        <time>2015-03-22T09:50:36Z</time>
      </trkpt>
      <trkpt lat="49.32592" lon="0.98274">
        <ele>61</ele>
        <time>2015-03-22T09:50:38Z</time>
      </trkpt>
      <trkpt lat="49.32583" lon="0.98278">
        <ele>56</ele>
        <time>2015-03-22T09:50:40Z</time>
      </trkpt>
      <trkpt lat="49.32576" lon="0.98281">
        <ele>57</ele>
        <time>2015-03-22T09:50:42Z</time>
      </trkpt>
      <trkpt lat="49.3257" lon="0.98281">
        <ele>57</ele>
        <time>2015-03-22T09:50:44Z</time>
      </trkpt>
      <trkpt lat="49.32562" lon="0.98283">
        <ele>57</ele>
        <time>2015-03-22T09:50:48Z</time>
      </trkpt>
      <trkpt lat="49.32557" lon="0.9828">
        <ele>56</ele>
        <time>2015-03-22T09:50:50Z</time>
      </trkpt>
      <trkpt lat="49.3255" lon="0.98279">
        <ele>56</ele>
        <time>2015-03-22T09:50:52Z</time>
      </trkpt>
      <trkpt lat="49.32541" lon="0.98284">
        <ele>56</ele>
        <time>2015-03-22T09:50:54Z</time>
      </trkpt>
      <trkpt lat="49.32531" lon="0.98286">
        <ele>56</ele>
        <time>2015-03-22T09:50:56Z</time>
      </trkpt>
      <trkpt lat="49.32523" lon="0.98288">
        <ele>56</ele>
        <time>2015-03-22T09:50:58Z</time>
      </trkpt>
      <trkpt lat="49.32512" lon="0.98291">
        <ele>56</ele>
        <time>2015-03-22T09:51:00Z</time>
      </trkpt>
      <trkpt lat="49.32503" lon="0.98292">
        <ele>56</ele>
        <time>2015-03-22T09:51:02Z</time>
      </trkpt>
      <trkpt lat="49.32494" lon="0.98295">
        <ele>54</ele>
        <time>2015-03-22T09:51:04Z</time>
      </trkpt>
      <trkpt lat="49.32485" lon="0.98298">
        <ele>55</ele>
        <time>2015-03-22T09:51:06Z</time>
      </trkpt>
      <trkpt lat="49.32477" lon="0.983">
        <ele>55</ele>
        <time>2015-03-22T09:51:08Z</time>
      </trkpt>
      <trkpt lat="49.32471" lon="0.98302">
        <ele>55</ele>
        <time>2015-03-22T09:51:10Z</time>
      </trkpt>
      <trkpt lat="49.32464" lon="0.98305">
        <ele>55</ele>
        <time>2015-03-22T09:51:12Z</time>
      </trkpt>
      <trkpt lat="49.32458" lon="0.98307">
        <ele>55</ele>
        <time>2015-03-22T09:51:14Z</time>
      </trkpt>
      <trkpt lat="49.32452" lon="0.98307">
        <ele>55</ele>
        <time>2015-03-22T09:51:16Z</time>
      </trkpt>
      <trkpt lat="49.32445" lon="0.98307">
        <ele>55</ele>
        <time>2015-03-22T09:51:18Z</time>
      </trkpt>
      <trkpt lat="49.3244" lon="0.98306">
        <ele>55</ele>
        <time>2015-03-22T09:51:20Z</time>
      </trkpt>
      <trkpt lat="49.32435" lon="0.98308">
        <ele>56</ele>
        <time>2015-03-22T09:51:22Z</time>
      </trkpt>
      <trkpt lat="49.32429" lon="0.98309">
        <ele>56</ele>
        <time>2015-03-22T09:51:24Z</time>
      </trkpt>
      <trkpt lat="49.32423" lon="0.98309">
        <ele>57</ele>
        <time>2015-03-22T09:51:26Z</time>
      </trkpt>
      <trkpt lat="49.32417" lon="0.98309">
        <ele>57</ele>
        <time>2015-03-22T09:51:28Z</time>
      </trkpt>
      <trkpt lat="49.32412" lon="0.98309">
        <ele>57</ele>
        <time>2015-03-22T09:51:30Z</time>
      </trkpt>
      <trkpt lat="49.32406" lon="0.98308">
        <ele>57</ele>
        <time>2015-03-22T09:51:32Z</time>
      </trkpt>
      <trkpt lat="49.32401" lon="0.98305">
        <ele>56</ele>
        <time>2015-03-22T09:51:34Z</time>
      </trkpt>
      <trkpt lat="49.32397" lon="0.98301">
        <ele>55</ele>
        <time>2015-03-22T09:51:36Z</time>
      </trkpt>
      <trkpt lat="49.32391" lon="0.98296">
        <ele>54</ele>
        <time>2015-03-22T09:51:38Z</time>
      </trkpt>
      <trkpt lat="49.32384" lon="0.98289">
        <ele>54</ele>
        <time>2015-03-22T09:51:40Z</time>
      </trkpt>
      <trkpt lat="49.32375" lon="0.98283">
        <ele>53</ele>
        <time>2015-03-22T09:51:42Z</time>
      </trkpt>
      <trkpt lat="49.32367" lon="0.98276">
        <ele>53</ele>
        <time>2015-03-22T09:51:44Z</time>
      </trkpt>
      <trkpt lat="49.32359" lon="0.98267">
        <ele>52</ele>
        <time>2015-03-22T09:51:46Z</time>
      </trkpt>
      <trkpt lat="49.3235" lon="0.9826">
        <ele>51</ele>
        <time>2015-03-22T09:51:48Z</time>
      </trkpt>
      <trkpt lat="49.32343" lon="0.98254">
        <ele>50</ele>
        <time>2015-03-22T09:51:50Z</time>
      </trkpt>
      <trkpt lat="49.32335" lon="0.9825">
        <ele>48</ele>
        <time>2015-03-22T09:51:52Z</time>
      </trkpt>
      <trkpt lat="49.32327" lon="0.98245">
        <ele>47</ele>
        <time>2015-03-22T09:51:54Z</time>
      </trkpt>
      <trkpt lat="49.3232" lon="0.98243">
        <ele>46</ele>
        <time>2015-03-22T09:51:56Z</time>
      </trkpt>
      <trkpt lat="49.32316" lon="0.98246">
        <ele>46</ele>
        <time>2015-03-22T09:51:58Z</time>
      </trkpt>
      <trkpt lat="49.32311" lon="0.98248">
        <ele>46</ele>
        <time>2015-03-22T09:52:00Z</time>
      </trkpt>
      <trkpt lat="49.32306" lon="0.98253">
        <ele>51</ele>
        <time>2015-03-22T09:52:02Z</time>
      </trkpt>
      <trkpt lat="49.32303" lon="0.9826">
        <ele>52</ele>
        <time>2015-03-22T09:52:04Z</time>
      </trkpt>
      <trkpt lat="49.323" lon="0.98273">
        <ele>52</ele>
        <time>2015-03-22T09:52:08Z</time>
      </trkpt>
      <trkpt lat="49.32297" lon="0.98279">
        <ele>52</ele>
        <time>2015-03-22T09:52:10Z</time>
      </trkpt>
      <trkpt lat="49.32292" lon="0.98283">
        <ele>53</ele>
        <time>2015-03-22T09:52:12Z</time>
      </trkpt>
      <trkpt lat="49.32285" lon="0.98289">
        <ele>53</ele>
        <time>2015-03-22T09:52:14Z</time>
      </trkpt>
      <trkpt lat="49.3228" lon="0.98303">
        <ele>53</ele>
        <time>2015-03-22T09:52:16Z</time>
      </trkpt>
      <trkpt lat="49.32278" lon="0.98316">
        <ele>53</ele>
        <time>2015-03-22T09:52:18Z</time>
      </trkpt>
      <trkpt lat="49.32275" lon="0.98327">
        <ele>54</ele>
        <time>2015-03-22T09:52:20Z</time>
      </trkpt>
      <trkpt lat="49.32271" lon="0.98339">
        <ele>57</ele>
        <time>2015-03-22T09:52:22Z</time>
      </trkpt>
      <trkpt lat="49.32267" lon="0.98351">
        <ele>57</ele>
        <time>2015-03-22T09:52:24Z</time>
      </trkpt>
      <trkpt lat="49.32262" lon="0.98363">
        <ele>57</ele>
        <time>2015-03-22T09:52:26Z</time>
      </trkpt>
      <trkpt lat="49.32258" lon="0.98374">
        <ele>58</ele>
        <time>2015-03-22T09:52:28Z</time>
      </trkpt>
      <trkpt lat="49.32254" lon="0.98384">
        <ele>58</ele>
        <time>2015-03-22T09:52:30Z</time>
      </trkpt>
      <trkpt lat="49.3225" lon="0.98396">
        <ele>58</ele>
        <time>2015-03-22T09:52:32Z</time>
      </trkpt>
      <trkpt lat="49.32247" lon="0.98408">
        <ele>56</ele>
        <time>2015-03-22T09:52:34Z</time>
      </trkpt>
      <trkpt lat="49.32243" lon="0.98422">
        <ele>57</ele>
        <time>2015-03-22T09:52:36Z</time>
      </trkpt>
      <trkpt lat="49.32239" lon="0.98435">
        <ele>56</ele>
        <time>2015-03-22T09:52:38Z</time>
      </trkpt>
      <trkpt lat="49.32234" lon="0.98449">
        <ele>56</ele>
        <time>2015-03-22T09:52:40Z</time>
      </trkpt>
      <trkpt lat="49.3223" lon="0.98462">
        <ele>56</ele>
        <time>2015-03-22T09:52:42Z</time>
      </trkpt>
      <trkpt lat="49.32226" lon="0.98474">
        <ele>56</ele>
        <time>2015-03-22T09:52:44Z</time>
      </trkpt>
      <trkpt lat="49.32222" lon="0.98486">
        <ele>57</ele>
        <time>2015-03-22T09:52:46Z</time>
      </trkpt>
      <trkpt lat="49.32218" lon="0.98499">
        <ele>56</ele>
        <time>2015-03-22T09:52:48Z</time>
      </trkpt>
      <trkpt lat="49.32213" lon="0.9851">
        <ele>56</ele>
        <time>2015-03-22T09:52:50Z</time>
      </trkpt>
      <trkpt lat="49.32207" lon="0.98521">
        <ele>55</ele>
        <time>2015-03-22T09:52:52Z</time>
      </trkpt>
      <trkpt lat="49.322" lon="0.98532">
        <ele>55</ele>
        <time>2015-03-22T09:52:54Z</time>
      </trkpt>
      <trkpt lat="49.32193" lon="0.98544">
        <ele>54</ele>
        <time>2015-03-22T09:52:56Z</time>
      </trkpt>
      <trkpt lat="49.32185" lon="0.98555">
        <ele>53</ele>
        <time>2015-03-22T09:52:58Z</time>
      </trkpt>
      <trkpt lat="49.32177" lon="0.98567">
        <ele>52</ele>
        <time>2015-03-22T09:53:00Z</time>
      </trkpt>
      <trkpt lat="49.32169" lon="0.98578">
        <ele>49</ele>
        <time>2015-03-22T09:53:02Z</time>
      </trkpt>
      <trkpt lat="49.32164" lon="0.98585">
        <ele>46</ele>
        <time>2015-03-22T09:53:04Z</time>
      </trkpt>
      <trkpt lat="49.32158" lon="0.98591">
        <ele>42</ele>
        <time>2015-03-22T09:53:06Z</time>
      </trkpt>
      <trkpt lat="49.32154" lon="0.98586">
        <ele>41</ele>
        <time>2015-03-22T09:53:10Z</time>
      </trkpt>
      <trkpt lat="49.3215" lon="0.98576">
        <ele>46</ele>
        <time>2015-03-22T09:53:12Z</time>
      </trkpt>
      <trkpt lat="49.32146" lon="0.98565">
        <ele>46</ele>
        <time>2015-03-22T09:53:14Z</time>
      </trkpt>
      <trkpt lat="49.32142" lon="0.98555">
        <ele>46</ele>
        <time>2015-03-22T09:53:16Z</time>
      </trkpt>
      <trkpt lat="49.32134" lon="0.98547">
        <ele>45</ele>
        <time>2015-03-22T09:53:18Z</time>
      </trkpt>
      <trkpt lat="49.32126" lon="0.98538">
        <ele>46</ele>
        <time>2015-03-22T09:53:20Z</time>
      </trkpt>
      <trkpt lat="49.32119" lon="0.98528">
        <ele>46</ele>
        <time>2015-03-22T09:53:22Z</time>
      </trkpt>
      <trkpt lat="49.32111" lon="0.98519">
        <ele>46</ele>
        <time>2015-03-22T09:53:24Z</time>
      </trkpt>
      <trkpt lat="49.32103" lon="0.9851">
        <ele>47</ele>
        <time>2015-03-22T09:53:26Z</time>
      </trkpt>
      <trkpt lat="49.32095" lon="0.985">
        <ele>49</ele>
        <time>2015-03-22T09:53:28Z</time>
      </trkpt>
      <trkpt lat="49.32088" lon="0.98489">
        <ele>49</ele>
        <time>2015-03-22T09:53:30Z</time>
      </trkpt>
      <trkpt lat="49.32082" lon="0.98481">
        <ele>48</ele>
        <time>2015-03-22T09:53:32Z</time>
      </trkpt>
      <trkpt lat="49.3208" lon="0.98472">
        <ele>48</ele>
        <time>2015-03-22T09:53:34Z</time>
      </trkpt>
      <trkpt lat="49.32077" lon="0.98465">
        <ele>48</ele>
        <time>2015-03-22T09:53:36Z</time>
      </trkpt>
      <trkpt lat="49.32069" lon="0.98461">
        <ele>48</ele>
        <time>2015-03-22T09:53:38Z</time>
      </trkpt>
      <trkpt lat="49.3206" lon="0.98458">
        <ele>48</ele>
        <time>2015-03-22T09:53:40Z</time>
      </trkpt>
      <trkpt lat="49.32051" lon="0.98455">
        <ele>48</ele>
        <time>2015-03-22T09:53:42Z</time>
      </trkpt>
      <trkpt lat="49.32043" lon="0.98455">
        <ele>47</ele>
        <time>2015-03-22T09:53:44Z</time>
      </trkpt>
      <trkpt lat="49.32036" lon="0.98455">
        <ele>47</ele>
        <time>2015-03-22T09:53:46Z</time>
      </trkpt>
      <trkpt lat="49.32029" lon="0.98453">
        <ele>47</ele>
        <time>2015-03-22T09:53:48Z</time>
      </trkpt>
      <trkpt lat="49.32023" lon="0.98454">
        <ele>47</ele>
        <time>2015-03-22T09:53:50Z</time>
      </trkpt>
      <trkpt lat="49.32015" lon="0.98457">
        <ele>47</ele>
        <time>2015-03-22T09:53:52Z</time>
      </trkpt>
      <trkpt lat="49.32007" lon="0.98461">
        <ele>46</ele>
        <time>2015-03-22T09:53:54Z</time>
      </trkpt>
      <trkpt lat="49.31997" lon="0.98466">
        <ele>43</ele>
        <time>2015-03-22T09:53:56Z</time>
      </trkpt>
      <trkpt lat="49.31987" lon="0.9847">
        <ele>43</ele>
        <time>2015-03-22T09:53:58Z</time>
      </trkpt>
      <trkpt lat="49.31981" lon="0.98472">
        <ele>43</ele>
        <time>2015-03-22T09:54:00Z</time>
      </trkpt>
      <trkpt lat="49.31976" lon="0.98472">
        <ele>43</ele>
        <time>2015-03-22T09:54:02Z</time>
      </trkpt>
      <trkpt lat="49.3197" lon="0.98477">
        <ele>43</ele>
        <time>2015-03-22T09:54:04Z</time>
      </trkpt>
      <trkpt lat="49.31963" lon="0.98479">
        <ele>43</ele>
        <time>2015-03-22T09:54:06Z</time>
      </trkpt>
      <trkpt lat="49.31956" lon="0.98481">
        <ele>42</ele>
        <time>2015-03-22T09:54:08Z</time>
      </trkpt>
      <trkpt lat="49.31948" lon="0.98484">
        <ele>42</ele>
        <time>2015-03-22T09:54:10Z</time>
      </trkpt>
      <trkpt lat="49.31939" lon="0.98487">
        <ele>42</ele>
        <time>2015-03-22T09:54:12Z</time>
      </trkpt>
      <trkpt lat="49.31925" lon="0.9849">
        <ele>42</ele>
        <time>2015-03-22T09:54:14Z</time>
      </trkpt>
      <trkpt lat="49.31913" lon="0.98494">
        <ele>40</ele>
        <time>2015-03-22T09:54:16Z</time>
      </trkpt>
      <trkpt lat="49.31903" lon="0.98497">
        <ele>38</ele>
        <time>2015-03-22T09:54:18Z</time>
      </trkpt>
      <trkpt lat="49.31894" lon="0.98499">
        <ele>37</ele>
        <time>2015-03-22T09:54:20Z</time>
      </trkpt>
      <trkpt lat="49.31884" lon="0.98501">
        <ele>34</ele>
        <time>2015-03-22T09:54:22Z</time>
      </trkpt>
      <trkpt lat="49.31874" lon="0.98497">
        <ele>35</ele>
        <time>2015-03-22T09:54:24Z</time>
      </trkpt>
      <trkpt lat="49.31867" lon="0.98497">
        <ele>34</ele>
        <time>2015-03-22T09:54:26Z</time>
      </trkpt>
      <trkpt lat="49.31859" lon="0.98495">
        <ele>33</ele>
        <time>2015-03-22T09:54:28Z</time>
      </trkpt>
      <trkpt lat="49.31852" lon="0.9849">
        <ele>33</ele>
        <time>2015-03-22T09:54:30Z</time>
      </trkpt>
      <trkpt lat="49.31843" lon="0.98486">
        <ele>32</ele>
        <time>2015-03-22T09:54:32Z</time>
      </trkpt>
      <trkpt lat="49.31837" lon="0.98481">
        <ele>32</ele>
        <time>2015-03-22T09:54:34Z</time>
      </trkpt>
      <trkpt lat="49.31835" lon="0.98471">
        <ele>33</ele>
        <time>2015-03-22T09:54:36Z</time>
      </trkpt>
      <trkpt lat="49.31835" lon="0.98462">
        <ele>33</ele>
        <time>2015-03-22T09:54:38Z</time>
      </trkpt>
      <trkpt lat="49.3184" lon="0.98452">
        <ele>33</ele>
        <time>2015-03-22T09:54:40Z</time>
      </trkpt>
      <trkpt lat="49.31845" lon="0.98444">
        <ele>32</ele>
        <time>2015-03-22T09:54:42Z</time>
      </trkpt>
      <trkpt lat="49.3185" lon="0.98433">
        <ele>32</ele>
        <time>2015-03-22T09:54:44Z</time>
      </trkpt>
      <trkpt lat="49.31855" lon="0.98423">
        <ele>32</ele>
        <time>2015-03-22T09:54:46Z</time>
      </trkpt>
      <trkpt lat="49.31858" lon="0.98414">
        <ele>32</ele>
        <time>2015-03-22T09:54:48Z</time>
      </trkpt>
      <trkpt lat="49.31862" lon="0.98405">
        <ele>32</ele>
        <time>2015-03-22T09:54:50Z</time>
      </trkpt>
      <trkpt lat="49.31864" lon="0.98396">
        <ele>32</ele>
        <time>2015-03-22T09:54:52Z</time>
      </trkpt>
      <trkpt lat="49.31868" lon="0.98386">
        <ele>33</ele>
        <time>2015-03-22T09:54:54Z</time>
      </trkpt>
      <trkpt lat="49.31872" lon="0.9838">
        <ele>33</ele>
        <time>2015-03-22T09:54:56Z</time>
      </trkpt>
      <trkpt lat="49.31877" lon="0.98371">
        <ele>33</ele>
        <time>2015-03-22T09:54:58Z</time>
      </trkpt>
      <trkpt lat="49.31883" lon="0.98363">
        <ele>33</ele>
        <time>2015-03-22T09:55:00Z</time>
      </trkpt>
      <trkpt lat="49.31888" lon="0.98358">
        <ele>33</ele>
        <time>2015-03-22T09:55:02Z</time>
      </trkpt>
      <trkpt lat="49.31892" lon="0.98353">
        <ele>33</ele>
        <time>2015-03-22T09:55:04Z</time>
      </trkpt>
      <trkpt lat="49.31897" lon="0.98345">
        <ele>33</ele>
        <time>2015-03-22T09:55:06Z</time>
      </trkpt>
      <trkpt lat="49.31901" lon="0.98338">
        <ele>32</ele>
        <time>2015-03-22T09:55:08Z</time>
      </trkpt>
      <trkpt lat="49.31905" lon="0.98332">
        <ele>32</ele>
        <time>2015-03-22T09:55:10Z</time>
      </trkpt>
      <trkpt lat="49.31911" lon="0.98324">
        <ele>32</ele>
        <time>2015-03-22T09:55:12Z</time>
      </trkpt>
      <trkpt lat="49.31917" lon="0.98317">
        <ele>32</ele>
        <time>2015-03-22T09:55:14Z</time>
      </trkpt>
      <trkpt lat="49.31924" lon="0.9831">
        <ele>33</ele>
        <time>2015-03-22T09:55:16Z</time>
      </trkpt>
      <trkpt lat="49.3193" lon="0.98302">
        <ele>33</ele>
        <time>2015-03-22T09:55:18Z</time>
      </trkpt>
      <trkpt lat="49.31936" lon="0.98291">
        <ele>32</ele>
        <time>2015-03-22T09:55:20Z</time>
      </trkpt>
      <trkpt lat="49.31943" lon="0.98282">
        <ele>32</ele>
        <time>2015-03-22T09:55:22Z</time>
      </trkpt>
      <trkpt lat="49.31949" lon="0.98275">
        <ele>32</ele>
        <time>2015-03-22T09:55:24Z</time>
      </trkpt>
      <trkpt lat="49.31954" lon="0.98269">
        <ele>32</ele>
        <time>2015-03-22T09:55:26Z</time>
      </trkpt>
      <trkpt lat="49.31958" lon="0.98263">
        <ele>32</ele>
        <time>2015-03-22T09:55:28Z</time>
      </trkpt>
      <trkpt lat="49.31963" lon="0.98254">
        <ele>32</ele>
        <time>2015-03-22T09:55:30Z</time>
      </trkpt>
      <trkpt lat="49.31969" lon="0.98244">
        <ele>29</ele>
        <time>2015-03-22T09:55:32Z</time>
      </trkpt>
      <trkpt lat="49.31975" lon="0.98235">
        <ele>29</ele>
        <time>2015-03-22T09:55:34Z</time>
      </trkpt>
      <trkpt lat="49.31982" lon="0.98226">
        <ele>29</ele>
        <time>2015-03-22T09:55:36Z</time>
      </trkpt>
      <trkpt lat="49.3199" lon="0.98219">
        <ele>29</ele>
        <time>2015-03-22T09:55:38Z</time>
      </trkpt>
      <trkpt lat="49.31997" lon="0.98211">
        <ele>28</ele>
        <time>2015-03-22T09:55:40Z</time>
      </trkpt>
      <trkpt lat="49.32003" lon="0.98202">
        <ele>29</ele>
        <time>2015-03-22T09:55:42Z</time>
      </trkpt>
      <trkpt lat="49.32011" lon="0.98194">
        <ele>28</ele>
        <time>2015-03-22T09:55:44Z</time>
      </trkpt>
      <trkpt lat="49.32018" lon="0.98188">
        <ele>28</ele>
        <time>2015-03-22T09:55:46Z</time>
      </trkpt>
      <trkpt lat="49.32025" lon="0.98184">
        <ele>29</ele>
        <time>2015-03-22T09:55:48Z</time>
      </trkpt>
      <trkpt lat="49.3203" lon="0.98179">
        <ele>29</ele>
        <time>2015-03-22T09:55:50Z</time>
      </trkpt>
      <trkpt lat="49.32037" lon="0.98173">
        <ele>29</ele>
        <time>2015-03-22T09:55:52Z</time>
      </trkpt>
      <trkpt lat="49.32044" lon="0.98167">
        <ele>29</ele>
        <time>2015-03-22T09:55:54Z</time>
      </trkpt>
      <trkpt lat="49.32052" lon="0.98162">
        <ele>28</ele>
        <time>2015-03-22T09:55:56Z</time>
      </trkpt>
      <trkpt lat="49.32058" lon="0.98157">
        <ele>28</ele>
        <time>2015-03-22T09:55:58Z</time>
      </trkpt>
      <trkpt lat="49.32065" lon="0.98153">
        <ele>28</ele>
        <time>2015-03-22T09:56:00Z</time>
      </trkpt>
      <trkpt lat="49.32072" lon="0.98155">
        <ele>29</ele>
        <time>2015-03-22T09:56:04Z</time>
      </trkpt>
      <trkpt lat="49.32078" lon="0.9814">
        <ele>28</ele>
        <time>2015-03-22T09:56:08Z</time>
      </trkpt>
      <trkpt lat="49.32084" lon="0.98129">
        <ele>29</ele>
        <time>2015-03-22T09:56:10Z</time>
      </trkpt>
      <trkpt lat="49.3209" lon="0.98117">
        <ele>29</ele>
        <time>2015-03-22T09:56:12Z</time>
      </trkpt>
      <trkpt lat="49.32097" lon="0.98108">
        <ele>29</ele>
        <time>2015-03-22T09:56:14Z</time>
      </trkpt>
      <trkpt lat="49.32104" lon="0.98101">
        <ele>28</ele>
        <time>2015-03-22T09:56:16Z</time>
      </trkpt>
      <trkpt lat="49.3211" lon="0.98095">
        <ele>29</ele>
        <time>2015-03-22T09:56:18Z</time>
      </trkpt>
      <trkpt lat="49.32117" lon="0.98088">
        <ele>29</ele>
        <time>2015-03-22T09:56:20Z</time>
      </trkpt>
      <trkpt lat="49.32125" lon="0.98082">
        <ele>28</ele>
        <time>2015-03-22T09:56:22Z</time>
      </trkpt>
      <trkpt lat="49.32133" lon="0.98076">
        <ele>28</ele>
        <time>2015-03-22T09:56:24Z</time>
      </trkpt>
      <trkpt lat="49.32142" lon="0.98069">
        <ele>28</ele>
        <time>2015-03-22T09:56:26Z</time>
      </trkpt>
      <trkpt lat="49.32151" lon="0.98062">
        <ele>27</ele>
        <time>2015-03-22T09:56:28Z</time>
      </trkpt>
      <trkpt lat="49.3216" lon="0.98056">
        <ele>27</ele>
        <time>2015-03-22T09:56:30Z</time>
      </trkpt>
      <trkpt lat="49.32166" lon="0.98052">
        <ele>27</ele>
        <time>2015-03-22T09:56:32Z</time>
      </trkpt>
      <trkpt lat="49.32172" lon="0.98051">
        <ele>26</ele>
        <time>2015-03-22T09:56:34Z</time>
      </trkpt>
      <trkpt lat="49.3218" lon="0.98048">
        <ele>26</ele>
        <time>2015-03-22T09:56:36Z</time>
      </trkpt>
      <trkpt lat="49.32188" lon="0.98046">
        <ele>26</ele>
        <time>2015-03-22T09:56:38Z</time>
      </trkpt>
      <trkpt lat="49.32197" lon="0.98044">
        <ele>26</ele>
        <time>2015-03-22T09:56:40Z</time>
      </trkpt>
      <trkpt lat="49.32205" lon="0.98044">
        <ele>26</ele>
        <time>2015-03-22T09:56:42Z</time>
      </trkpt>
      <trkpt lat="49.32211" lon="0.98043">
        <ele>26</ele>
        <time>2015-03-22T09:56:44Z</time>
      </trkpt>
      <trkpt lat="49.32217" lon="0.98044">
        <ele>26</ele>
        <time>2015-03-22T09:56:46Z</time>
      </trkpt>
      <trkpt lat="49.32225" lon="0.98044">
        <ele>26</ele>
        <time>2015-03-22T09:56:48Z</time>
      </trkpt>
      <trkpt lat="49.32234" lon="0.98045">
        <ele>27</ele>
        <time>2015-03-22T09:56:50Z</time>
      </trkpt>
      <trkpt lat="49.32243" lon="0.98046">
        <ele>27</ele>
        <time>2015-03-22T09:56:52Z</time>
      </trkpt>
      <trkpt lat="49.32253" lon="0.98048">
        <ele>27</ele>
        <time>2015-03-22T09:56:54Z</time>
      </trkpt>
      <trkpt lat="49.32261" lon="0.98053">
        <ele>27</ele>
        <time>2015-03-22T09:56:56Z</time>
      </trkpt>
      <trkpt lat="49.32269" lon="0.98058">
        <ele>27</ele>
        <time>2015-03-22T09:56:58Z</time>
      </trkpt>
      <trkpt lat="49.32276" lon="0.98062">
        <ele>27</ele>
        <time>2015-03-22T09:57:00Z</time>
      </trkpt>
      <trkpt lat="49.32281" lon="0.98067">
        <ele>27</ele>
        <time>2015-03-22T09:57:02Z</time>
      </trkpt>
      <trkpt lat="49.32286" lon="0.98075">
        <ele>27</ele>
        <time>2015-03-22T09:57:04Z</time>
      </trkpt>
      <trkpt lat="49.3229" lon="0.98082">
        <ele>26</ele>
        <time>2015-03-22T09:57:06Z</time>
      </trkpt>
      <trkpt lat="49.32296" lon="0.98086">
        <ele>29</ele>
        <time>2015-03-22T09:57:08Z</time>
      </trkpt>
      <trkpt lat="49.32302" lon="0.98089">
        <ele>29</ele>
        <time>2015-03-22T09:57:10Z</time>
      </trkpt>
      <trkpt lat="49.32309" lon="0.98093">
        <ele>28</ele>
        <time>2015-03-22T09:57:12Z</time>
      </trkpt>
      <trkpt lat="49.32314" lon="0.98098">
        <ele>28</ele>
        <time>2015-03-22T09:57:14Z</time>
      </trkpt>
      <trkpt lat="49.32321" lon="0.98105">
        <ele>28</ele>
        <time>2015-03-22T09:57:18Z</time>
      </trkpt>
      <trkpt lat="49.32325" lon="0.98112">
        <ele>29</ele>
        <time>2015-03-22T09:57:22Z</time>
      </trkpt>
      <trkpt lat="49.3233" lon="0.98118">
        <ele>29</ele>
        <time>2015-03-22T09:57:26Z</time>
      </trkpt>
      <trkpt lat="49.32331" lon="0.98125">
        <ele>30</ele>
        <time>2015-03-22T09:57:34Z</time>
      </trkpt>
      <trkpt lat="49.32334" lon="0.98134">
        <ele>28</ele>
        <time>2015-03-22T09:57:40Z</time>
      </trkpt>
      <trkpt lat="49.32335" lon="0.98141">
        <ele>29</ele>
        <time>2015-03-22T09:57:44Z</time>
      </trkpt>
      <trkpt lat="49.32338" lon="0.98149">
        <ele>30</ele>
        <time>2015-03-22T09:57:52Z</time>
      </trkpt>
      <trkpt lat="49.32339" lon="0.98155">
        <ele>31</ele>
        <time>2015-03-22T09:57:58Z</time>
      </trkpt>
      <trkpt lat="49.32345" lon="0.98165">
        <ele>31</ele>
        <time>2015-03-22T09:58:08Z</time>
      </trkpt>
      <trkpt lat="49.32348" lon="0.98171">
        <ele>36</ele>
        <time>2015-03-22T09:58:10Z</time>
      </trkpt>
      <trkpt lat="49.32351" lon="0.9818">
        <ele>36</ele>
        <time>2015-03-22T09:58:14Z</time>
      </trkpt>
      <trkpt lat="49.32353" lon="0.98187">
        <ele>37</ele>
        <time>2015-03-22T09:58:18Z</time>
      </trkpt>
      <trkpt lat="49.32357" lon="0.98191">
        <ele>37</ele>
        <time>2015-03-22T09:58:22Z</time>
      </trkpt>
      <trkpt lat="49.32363" lon="0.98199">
        <ele>38</ele>
        <time>2015-03-22T09:58:26Z</time>
      </trkpt>
      <trkpt lat="49.3237" lon="0.98205">
        <ele>38</ele>
        <time>2015-03-22T09:58:30Z</time>
      </trkpt>
      <trkpt lat="49.32375" lon="0.98209">
        <ele>38</ele>
        <time>2015-03-22T09:58:34Z</time>
      </trkpt>
      <trkpt lat="49.3238" lon="0.98215">
        <ele>38</ele>
        <time>2015-03-22T09:58:38Z</time>
      </trkpt>
      <trkpt lat="49.32385" lon="0.98216">
        <ele>38</ele>
        <time>2015-03-22T09:58:44Z</time>
      </trkpt>
      <trkpt lat="49.32392" lon="0.98217">
        <ele>38</ele>
        <time>2015-03-22T09:58:48Z</time>
      </trkpt>
      <trkpt lat="49.32399" lon="0.98222">
        <ele>38</ele>
        <time>2015-03-22T09:58:52Z</time>
      </trkpt>
      <trkpt lat="49.32404" lon="0.98226">
        <ele>39</ele>
        <time>2015-03-22T09:58:56Z</time>
      </trkpt>
      <trkpt lat="49.3241" lon="0.98233">
        <ele>40</ele>
        <time>2015-03-22T09:59:04Z</time>
      </trkpt>
      <trkpt lat="49.32413" lon="0.98226">
        <ele>39</ele>
        <time>2015-03-22T09:59:10Z</time>
      </trkpt>
      <trkpt lat="49.32415" lon="0.98217">
        <ele>38</ele>
        <time>2015-03-22T09:59:12Z</time>
      </trkpt>
      <trkpt lat="49.32418" lon="0.98207">
        <ele>34</ele>
        <time>2015-03-22T09:59:14Z</time>
      </trkpt>
      <trkpt lat="49.32422" lon="0.982">
        <ele>34</ele>
        <time>2015-03-22T09:59:16Z</time>
      </trkpt>
      <trkpt lat="49.3243" lon="0.98195">
        <ele>33</ele>
        <time>2015-03-22T09:59:18Z</time>
      </trkpt>
      <trkpt lat="49.32438" lon="0.98187">
        <ele>32</ele>
        <time>2015-03-22T09:59:20Z</time>
      </trkpt>
      <trkpt lat="49.32443" lon="0.98176">
        <ele>32</ele>
        <time>2015-03-22T09:59:22Z</time>
      </trkpt>
      <trkpt lat="49.32451" lon="0.98165">
        <ele>27</ele>
        <time>2015-03-22T09:59:24Z</time>
      </trkpt>
      <trkpt lat="49.32456" lon="0.98159">
        <ele>26</ele>
        <time>2015-03-22T09:59:26Z</time>
      </trkpt>
      <trkpt lat="49.32462" lon="0.98151">
        <ele>26</ele>
        <time>2015-03-22T09:59:32Z</time>
      </trkpt>
      <trkpt lat="49.32463" lon="0.98139">
        <ele>26</ele>
        <time>2015-03-22T09:59:38Z</time>
      </trkpt>
      <trkpt lat="49.32468" lon="0.98135">
        <ele>26</ele>
        <time>2015-03-22T09:59:40Z</time>
      </trkpt>
      <trkpt lat="49.32474" lon="0.98132">
        <ele>26</ele>
        <time>2015-03-22T09:59:42Z</time>
      </trkpt>
      <trkpt lat="49.32478" lon="0.98127">
        <ele>26</ele>
        <time>2015-03-22T09:59:44Z</time>
      </trkpt>
      <trkpt lat="49.32484" lon="0.9812">
        <ele>26</ele>
        <time>2015-03-22T09:59:48Z</time>
      </trkpt>
      <trkpt lat="49.3249" lon="0.98111">
        <ele>26</ele>
        <time>2015-03-22T09:59:52Z</time>
      </trkpt>
      <trkpt lat="49.32494" lon="0.98104">
        <ele>26</ele>
        <time>2015-03-22T09:59:54Z</time>
      </trkpt>
      <trkpt lat="49.325" lon="0.98096">
        <ele>26</ele>
        <time>2015-03-22T09:59:56Z</time>
      </trkpt>
      <trkpt lat="49.32504" lon="0.98091">
        <ele>27</ele>
        <time>2015-03-22T09:59:58Z</time>
      </trkpt>
      <trkpt lat="49.32509" lon="0.98086">
        <ele>27</ele>
        <time>2015-03-22T10:00:00Z</time>
      </trkpt>
      <trkpt lat="49.32511" lon="0.98077">
        <ele>28</ele>
        <time>2015-03-22T10:00:02Z</time>
      </trkpt>
      <trkpt lat="49.32516" lon="0.98073">
        <ele>28</ele>
        <time>2015-03-22T10:00:04Z</time>
      </trkpt>
      <trkpt lat="49.32521" lon="0.98068">
        <ele>29</ele>
        <time>2015-03-22T10:00:06Z</time>
      </trkpt>
      <trkpt lat="49.32526" lon="0.98064">
        <ele>29</ele>
        <time>2015-03-22T10:00:08Z</time>
      </trkpt>
      <trkpt lat="49.3253" lon="0.98058">
        <ele>29</ele>
        <time>2015-03-22T10:00:10Z</time>
      </trkpt>
      <trkpt lat="49.32535" lon="0.98054">
        <ele>30</ele>
        <time>2015-03-22T10:00:12Z</time>
      </trkpt>
      <trkpt lat="49.32541" lon="0.98049">
        <ele>30</ele>
        <time>2015-03-22T10:00:14Z</time>
      </trkpt>
      <trkpt lat="49.32546" lon="0.98046">
        <ele>30</ele>
        <time>2015-03-22T10:00:18Z</time>
      </trkpt>
      <trkpt lat="49.32551" lon="0.98042">
        <ele>30</ele>
        <time>2015-03-22T10:00:22Z</time>
      </trkpt>
      <trkpt lat="49.3256" lon="0.98038">
        <ele>30</ele>
        <time>2015-03-22T10:00:26Z</time>
      </trkpt>
      <trkpt lat="49.32563" lon="0.98032">
        <ele>30</ele>
        <time>2015-03-22T10:00:28Z</time>
      </trkpt>
      <trkpt lat="49.32565" lon="0.98027">
        <ele>31</ele>
        <time>2015-03-22T10:00:32Z</time>
      </trkpt>
      <trkpt lat="49.32567" lon="0.98019">
        <ele>31</ele>
        <time>2015-03-22T10:00:36Z</time>
      </trkpt>
      <trkpt lat="49.32568" lon="0.98012">
        <ele>31</ele>
        <time>2015-03-22T10:00:40Z</time>
      </trkpt>
      <trkpt lat="49.32571" lon="0.97999">
        <ele>33</ele>
        <time>2015-03-22T10:00:44Z</time>
      </trkpt>
      <trkpt lat="49.32573" lon="0.97991">
        <ele>33</ele>
        <time>2015-03-22T10:00:48Z</time>
      </trkpt>
      <trkpt lat="49.32576" lon="0.97987">
        <ele>33</ele>
        <time>2015-03-22T10:00:52Z</time>
      </trkpt>
      <trkpt lat="49.32583" lon="0.97981">
        <ele>33</ele>
        <time>2015-03-22T10:00:58Z</time>
      </trkpt>
      <trkpt lat="49.32589" lon="0.97975">
        <ele>32</ele>
        <time>2015-03-22T10:01:02Z</time>
      </trkpt>
      <trkpt lat="49.32595" lon="0.97969">
        <ele>32</ele>
        <time>2015-03-22T10:01:06Z</time>
      </trkpt>
      <trkpt lat="49.326" lon="0.97962">
        <ele>32</ele>
        <time>2015-03-22T10:01:10Z</time>
      </trkpt>
      <trkpt lat="49.3261" lon="0.97957">
        <ele>31</ele>
        <time>2015-03-22T10:01:14Z</time>
      </trkpt>
      <trkpt lat="49.32617" lon="0.97953">
        <ele>31</ele>
        <time>2015-03-22T10:01:16Z</time>
      </trkpt>
      <trkpt lat="49.32621" lon="0.97945">
        <ele>31</ele>
        <time>2015-03-22T10:01:18Z</time>
      </trkpt>
      <trkpt lat="49.32623" lon="0.97929">
        <ele>31</ele>
        <time>2015-03-22T10:01:22Z</time>
      </trkpt>
      <trkpt lat="49.32625" lon="0.97921">
        <ele>31</ele>
        <time>2015-03-22T10:01:24Z</time>
      </trkpt>
      <trkpt lat="49.32628" lon="0.97915">
        <ele>33</ele>
        <time>2015-03-22T10:01:26Z</time>
      </trkpt>
      <trkpt lat="49.32632" lon="0.97908">
        <ele>33</ele>
        <time>2015-03-22T10:01:28Z</time>
      </trkpt>
      <trkpt lat="49.32638" lon="0.97905">
        <ele>32</ele>
        <time>2015-03-22T10:01:30Z</time>
      </trkpt>
      <trkpt lat="49.32646" lon="0.97898">
        <ele>32</ele>
        <time>2015-03-22T10:01:34Z</time>
      </trkpt>
      <trkpt lat="49.32652" lon="0.97893">
        <ele>32</ele>
        <time>2015-03-22T10:01:36Z</time>
      </trkpt>
      <trkpt lat="49.32661" lon="0.97888">
        <ele>32</ele>
        <time>2015-03-22T10:01:38Z</time>
      </trkpt>
      <trkpt lat="49.32671" lon="0.97883">
        <ele>28</ele>
        <time>2015-03-22T10:01:40Z</time>
      </trkpt>
      <trkpt lat="49.32677" lon="0.97875">
        <ele>28</ele>
        <time>2015-03-22T10:01:42Z</time>
      </trkpt>
      <trkpt lat="49.32683" lon="0.97865">
        <ele>28</ele>
        <time>2015-03-22T10:01:44Z</time>
      </trkpt>
      <trkpt lat="49.32691" lon="0.97857">
        <ele>28</ele>
        <time>2015-03-22T10:01:46Z</time>
      </trkpt>
      <trkpt lat="49.32698" lon="0.9785">
        <ele>28</ele>
        <time>2015-03-22T10:01:48Z</time>
      </trkpt>
      <trkpt lat="49.32705" lon="0.97846">
        <ele>28</ele>
        <time>2015-03-22T10:01:50Z</time>
      </trkpt>
      <trkpt lat="49.32713" lon="0.9784">
        <ele>27</ele>
        <time>2015-03-22T10:01:52Z</time>
      </trkpt>
      <trkpt lat="49.32719" lon="0.97832">
        <ele>28</ele>
        <time>2015-03-22T10:01:54Z</time>
      </trkpt>
      <trkpt lat="49.32725" lon="0.97825">
        <ele>27</ele>
        <time>2015-03-22T10:01:56Z</time>
      </trkpt>
      <trkpt lat="49.3273" lon="0.97821">
        <ele>27</ele>
        <time>2015-03-22T10:01:58Z</time>
      </trkpt>
      <trkpt lat="49.32736" lon="0.97812">
        <ele>27</ele>
        <time>2015-03-22T10:02:02Z</time>
      </trkpt>
      <trkpt lat="49.32733" lon="0.97801">
        <ele>28</ele>
        <time>2015-03-22T10:02:04Z</time>
      </trkpt>
      <trkpt lat="49.32729" lon="0.97795">
        <ele>28</ele>
        <time>2015-03-22T10:02:06Z</time>
      </trkpt>
      <trkpt lat="49.32725" lon="0.97785">
        <ele>28</ele>
        <time>2015-03-22T10:02:08Z</time>
      </trkpt>
      <trkpt lat="49.32719" lon="0.97775">
        <ele>28</ele>
        <time>2015-03-22T10:02:10Z</time>
      </trkpt>
      <trkpt lat="49.32713" lon="0.97763">
        <ele>28</ele>
        <time>2015-03-22T10:02:12Z</time>
      </trkpt>
      <trkpt lat="49.32709" lon="0.97752">
        <ele>28</ele>
        <time>2015-03-22T10:02:14Z</time>
      </trkpt>
      <trkpt lat="49.32706" lon="0.97745">
        <ele>29</ele>
        <time>2015-03-22T10:02:16Z</time>
      </trkpt>
      <trkpt lat="49.32702" lon="0.97749">
        <ele>29</ele>
        <time>2015-03-22T10:02:18Z</time>
      </trkpt>
      <trkpt lat="49.32699" lon="0.97757">
        <ele>28</ele>
        <time>2015-03-22T10:02:20Z</time>
      </trkpt>
      <trkpt lat="49.32696" lon="0.97765">
        <ele>28</ele>
        <time>2015-03-22T10:02:22Z</time>
      </trkpt>
      <trkpt lat="49.32693" lon="0.97774">
        <ele>29</ele>
        <time>2015-03-22T10:02:24Z</time>
      </trkpt>
      <trkpt lat="49.32689" lon="0.9778">
        <ele>29</ele>
        <time>2015-03-22T10:02:26Z</time>
      </trkpt>
      <trkpt lat="49.32683" lon="0.97781">
        <ele>29</ele>
        <time>2015-03-22T10:02:28Z</time>
      </trkpt>
      <trkpt lat="49.32678" lon="0.97782">
        <ele>29</ele>
        <time>2015-03-22T10:02:30Z</time>
      </trkpt>
      <trkpt lat="49.32673" lon="0.97783">
        <ele>29</ele>
        <time>2015-03-22T10:02:32Z</time>
      </trkpt>
      <trkpt lat="49.32668" lon="0.97784">
        <ele>29</ele>
        <time>2015-03-22T10:02:34Z</time>
      </trkpt>
      <trkpt lat="49.32662" lon="0.97785">
        <ele>32</ele>
        <time>2015-03-22T10:02:36Z</time>
      </trkpt>
      <trkpt lat="49.32657" lon="0.97785">
        <ele>32</ele>
        <time>2015-03-22T10:02:38Z</time>
      </trkpt>
      <trkpt lat="49.32652" lon="0.97788">
        <ele>32</ele>
        <time>2015-03-22T10:02:40Z</time>
      </trkpt>
      <trkpt lat="49.32647" lon="0.97791">
        <ele>32</ele>
        <time>2015-03-22T10:02:42Z</time>
      </trkpt>
      <trkpt lat="49.32642" lon="0.97791">
        <ele>33</ele>
        <time>2015-03-22T10:02:44Z</time>
      </trkpt>
      <trkpt lat="49.32637" lon="0.9779">
        <ele>33</ele>
        <time>2015-03-22T10:02:46Z</time>
      </trkpt>
      <trkpt lat="49.3263" lon="0.97788">
        <ele>33</ele>
        <time>2015-03-22T10:02:48Z</time>
      </trkpt>
      <trkpt lat="49.32624" lon="0.97787">
        <ele>33</ele>
        <time>2015-03-22T10:02:50Z</time>
      </trkpt>
      <trkpt lat="49.32618" lon="0.97785">
        <ele>33</ele>
        <time>2015-03-22T10:02:52Z</time>
      </trkpt>
      <trkpt lat="49.32611" lon="0.97783">
        <ele>34</ele>
        <time>2015-03-22T10:02:54Z</time>
      </trkpt>
      <trkpt lat="49.32605" lon="0.97781">
        <ele>34</ele>
        <time>2015-03-22T10:02:56Z</time>
      </trkpt>
      <trkpt lat="49.32598" lon="0.97778">
        <ele>34</ele>
        <time>2015-03-22T10:02:58Z</time>
      </trkpt>
      <trkpt lat="49.32591" lon="0.97775">
        <ele>34</ele>
        <time>2015-03-22T10:03:00Z</time>
      </trkpt>
      <trkpt lat="49.32585" lon="0.97774">
        <ele>34</ele>
        <time>2015-03-22T10:03:02Z</time>
      </trkpt>
      <trkpt lat="49.32578" lon="0.97772">
        <ele>38</ele>
        <time>2015-03-22T10:03:04Z</time>
      </trkpt>
      <trkpt lat="49.32573" lon="0.97771">
        <ele>38</ele>
        <time>2015-03-22T10:03:06Z</time>
      </trkpt>
      <trkpt lat="49.32568" lon="0.9777">
        <ele>38</ele>
        <time>2015-03-22T10:03:08Z</time>
      </trkpt>
      <trkpt lat="49.3256" lon="0.97768">
        <ele>39</ele>
        <time>2015-03-22T10:03:12Z</time>
      </trkpt>
      <trkpt lat="49.32555" lon="0.97767">
        <ele>39</ele>
        <time>2015-03-22T10:03:14Z</time>
      </trkpt>
      <trkpt lat="49.32549" lon="0.97765">
        <ele>40</ele>
        <time>2015-03-22T10:03:16Z</time>
      </trkpt>
      <trkpt lat="49.32542" lon="0.97763">
        <ele>40</ele>
        <time>2015-03-22T10:03:18Z</time>
      </trkpt>
      <trkpt lat="49.32537" lon="0.97762">
        <ele>41</ele>
        <time>2015-03-22T10:03:20Z</time>
      </trkpt>
      <trkpt lat="49.32531" lon="0.9776">
        <ele>41</ele>
        <time>2015-03-22T10:03:24Z</time>
      </trkpt>
      <trkpt lat="49.32525" lon="0.97757">
        <ele>42</ele>
        <time>2015-03-22T10:03:28Z</time>
      </trkpt>
      <trkpt lat="49.32521" lon="0.97755">
        <ele>42</ele>
        <time>2015-03-22T10:03:32Z</time>
      </trkpt>
      <trkpt lat="49.32515" lon="0.97752">
        <ele>43</ele>
        <time>2015-03-22T10:03:36Z</time>
      </trkpt>
      <trkpt lat="49.32507" lon="0.9775">
        <ele>43</ele>
        <time>2015-03-22T10:03:40Z</time>
      </trkpt>
      <trkpt lat="49.32501" lon="0.9775">
        <ele>45</ele>
        <time>2015-03-22T10:03:44Z</time>
      </trkpt>
      <trkpt lat="49.32494" lon="0.97748">
        <ele>46</ele>
        <time>2015-03-22T10:03:50Z</time>
      </trkpt>
      <trkpt lat="49.3249" lon="0.97746">
        <ele>46</ele>
        <time>2015-03-22T10:03:54Z</time>
      </trkpt>
      <trkpt lat="49.32483" lon="0.97745">
        <ele>47</ele>
        <time>2015-03-22T10:03:58Z</time>
      </trkpt>
      <trkpt lat="49.32477" lon="0.97741">
        <ele>48</ele>
        <time>2015-03-22T10:04:02Z</time>
      </trkpt>
      <trkpt lat="49.3247" lon="0.97737">
        <ele>48</ele>
        <time>2015-03-22T10:04:06Z</time>
      </trkpt>
      <trkpt lat="49.32464" lon="0.97735">
        <ele>49</ele>
        <time>2015-03-22T10:04:12Z</time>
      </trkpt>
      <trkpt lat="49.32458" lon="0.97734">
        <ele>49</ele>
        <time>2015-03-22T10:04:18Z</time>
      </trkpt>
      <trkpt lat="49.32453" lon="0.9773">
        <ele>50</ele>
        <time>2015-03-22T10:04:22Z</time>
      </trkpt>
      <trkpt lat="49.32448" lon="0.97727">
        <ele>50</ele>
        <time>2015-03-22T10:04:27Z</time>
      </trkpt>
      <trkpt lat="49.32442" lon="0.97727">
        <ele>51</ele>
        <time>2015-03-22T10:04:31Z</time>
      </trkpt>
      <trkpt lat="49.32435" lon="0.97726">
        <ele>51</ele>
        <time>2015-03-22T10:04:35Z</time>
      </trkpt>
      <trkpt lat="49.32429" lon="0.97725">
        <ele>52</ele>
        <time>2015-03-22T10:04:39Z</time>
      </trkpt>
      <trkpt lat="49.32423" lon="0.97723">
        <ele>52</ele>
        <time>2015-03-22T10:04:43Z</time>
      </trkpt>
      <trkpt lat="49.32417" lon="0.97722">
        <ele>52</ele>
        <time>2015-03-22T10:04:47Z</time>
      </trkpt>
      <trkpt lat="49.32412" lon="0.97717">
        <ele>58</ele>
        <time>2015-03-22T10:04:53Z</time>
      </trkpt>
      <trkpt lat="49.32409" lon="0.97707">
        <ele>58</ele>
        <time>2015-03-22T10:04:57Z</time>
      </trkpt>
      <trkpt lat="49.32404" lon="0.97696">
        <ele>57</ele>
        <time>2015-03-22T10:05:01Z</time>
      </trkpt>
      <trkpt lat="49.32402" lon="0.97685">
        <ele>57</ele>
        <time>2015-03-22T10:05:05Z</time>
      </trkpt>
      <trkpt lat="49.324" lon="0.97674">
        <ele>56</ele>
        <time>2015-03-22T10:05:07Z</time>
      </trkpt>
      <trkpt lat="49.32398" lon="0.9766">
        <ele>55</ele>
        <time>2015-03-22T10:05:09Z</time>
      </trkpt>
      <trkpt lat="49.32393" lon="0.97646">
        <ele>55</ele>
        <time>2015-03-22T10:05:11Z</time>
      </trkpt>
      <trkpt lat="49.3239" lon="0.97636">
        <ele>55</ele>
        <time>2015-03-22T10:05:13Z</time>
      </trkpt>
      <trkpt lat="49.32384" lon="0.97627">
        <ele>55</ele>
        <time>2015-03-22T10:05:15Z</time>
      </trkpt>
      <trkpt lat="49.32377" lon="0.97622">
        <ele>56</ele>
        <time>2015-03-22T10:05:17Z</time>
      </trkpt>
      <trkpt lat="49.32371" lon="0.97618">
        <ele>56</ele>
        <time>2015-03-22T10:05:19Z</time>
      </trkpt>
      <trkpt lat="49.32366" lon="0.97617">
        <ele>56</ele>
        <time>2015-03-22T10:05:23Z</time>
      </trkpt>
      <trkpt lat="49.32358" lon="0.97612">
        <ele>57</ele>
        <time>2015-03-22T10:05:27Z</time>
      </trkpt>
      <trkpt lat="49.32354" lon="0.97609">
        <ele>57</ele>
        <time>2015-03-22T10:05:29Z</time>
      </trkpt>
      <trkpt lat="49.3235" lon="0.97604">
        <ele>57</ele>
        <time>2015-03-22T10:05:39Z</time>
      </trkpt>
      <trkpt lat="49.32343" lon="0.97599">
        <ele>57</ele>
        <time>2015-03-22T10:05:43Z</time>
      </trkpt>
      <trkpt lat="49.32339" lon="0.97594">
        <ele>58</ele>
        <time>2015-03-22T10:05:45Z</time>
      </trkpt>
      <trkpt lat="49.32332" lon="0.9759">
        <ele>61</ele>
        <time>2015-03-22T10:05:49Z</time>
      </trkpt>
      <trkpt lat="49.32327" lon="0.97589">
        <ele>62</ele>
        <time>2015-03-22T10:05:53Z</time>
      </trkpt>
      <trkpt lat="49.32321" lon="0.97589">
        <ele>63</ele>
        <time>2015-03-22T10:05:57Z</time>
      </trkpt>
      <trkpt lat="49.32316" lon="0.97589">
        <ele>64</ele>
        <time>2015-03-22T10:06:03Z</time>
      </trkpt>
      <trkpt lat="49.3231" lon="0.97592">
        <ele>65</ele>
        <time>2015-03-22T10:06:11Z</time>
      </trkpt>
      <trkpt lat="49.32308" lon="0.97598">
        <ele>66</ele>
        <time>2015-03-22T10:06:25Z</time>
      </trkpt>
      <trkpt lat="49.3231" lon="0.97607">
        <ele>66</ele>
        <time>2015-03-22T10:06:43Z</time>
      </trkpt>
      <trkpt lat="49.32312" lon="0.97616">
        <ele>67</ele>
        <time>2015-03-22T10:06:51Z</time>
      </trkpt>
      <trkpt lat="49.32313" lon="0.97625">
        <ele>67</ele>
        <time>2015-03-22T10:06:53Z</time>
      </trkpt>
      <trkpt lat="49.32311" lon="0.97633">
        <ele>67</ele>
        <time>2015-03-22T10:06:55Z</time>
      </trkpt>
      <trkpt lat="49.32307" lon="0.97638">
        <ele>67</ele>
        <time>2015-03-22T10:06:59Z</time>
      </trkpt>
      <trkpt lat="49.32301" lon="0.97642">
        <ele>68</ele>
        <time>2015-03-22T10:07:03Z</time>
      </trkpt>
      <trkpt lat="49.32297" lon="0.97646">
        <ele>68</ele>
        <time>2015-03-22T10:07:07Z</time>
      </trkpt>
      <trkpt lat="49.32291" lon="0.97648">
        <ele>69</ele>
        <time>2015-03-22T10:07:11Z</time>
      </trkpt>
      <trkpt lat="49.32286" lon="0.97647">
        <ele>70</ele>
        <time>2015-03-22T10:07:15Z</time>
      </trkpt>
      <trkpt lat="49.32281" lon="0.97647">
        <ele>70</ele>
        <time>2015-03-22T10:07:19Z</time>
      </trkpt>
      <trkpt lat="49.32276" lon="0.97649">
        <ele>71</ele>
        <time>2015-03-22T10:07:23Z</time>
      </trkpt>
      <trkpt lat="49.32269" lon="0.97646">
        <ele>71</ele>
        <time>2015-03-22T10:07:29Z</time>
      </trkpt>
      <trkpt lat="49.32263" lon="0.97643">
        <ele>72</ele>
        <time>2015-03-22T10:07:33Z</time>
      </trkpt>
      <trkpt lat="49.32259" lon="0.97639">
        <ele>72</ele>
        <time>2015-03-22T10:07:37Z</time>
      </trkpt>
      <trkpt lat="49.32251" lon="0.97636">
        <ele>72</ele>
        <time>2015-03-22T10:07:41Z</time>
      </trkpt>
      <trkpt lat="49.32243" lon="0.97634">
        <ele>80</ele>
        <time>2015-03-22T10:07:45Z</time>
      </trkpt>
      <trkpt lat="49.32237" lon="0.97626">
        <ele>80</ele>
        <time>2015-03-22T10:07:49Z</time>
      </trkpt>
      <trkpt lat="49.32235" lon="0.97616">
        <ele>80</ele>
        <time>2015-03-22T10:07:53Z</time>
      </trkpt>
      <trkpt lat="49.3223" lon="0.9761">
        <ele>80</ele>
        <time>2015-03-22T10:07:55Z</time>
      </trkpt>
      <trkpt lat="49.32224" lon="0.97603">
        <ele>80</ele>
        <time>2015-03-22T10:07:57Z</time>
      </trkpt>
      <trkpt lat="49.32219" lon="0.97595">
        <ele>80</ele>
        <time>2015-03-22T10:07:59Z</time>
      </trkpt>
      <trkpt lat="49.32215" lon="0.97591">
        <ele>81</ele>
        <time>2015-03-22T10:08:01Z</time>
      </trkpt>
      <trkpt lat="49.32211" lon="0.97583">
        <ele>77</ele>
        <time>2015-03-22T10:08:05Z</time>
      </trkpt>
      <trkpt lat="49.32206" lon="0.97577">
        <ele>77</ele>
        <time>2015-03-22T10:08:09Z</time>
      </trkpt>
      <trkpt lat="49.32203" lon="0.97568">
        <ele>77</ele>
        <time>2015-03-22T10:08:11Z</time>
      </trkpt>
      <trkpt lat="49.32199" lon="0.97558">
        <ele>77</ele>
        <time>2015-03-22T10:08:13Z</time>
      </trkpt>
      <trkpt lat="49.32194" lon="0.9755">
        <ele>76</ele>
        <time>2015-03-22T10:08:15Z</time>
      </trkpt>
      <trkpt lat="49.3219" lon="0.97545">
        <ele>76</ele>
        <time>2015-03-22T10:08:17Z</time>
      </trkpt>
      <trkpt lat="49.32182" lon="0.97537">
        <ele>76</ele>
        <time>2015-03-22T10:08:21Z</time>
      </trkpt>
      <trkpt lat="49.32175" lon="0.9753">
        <ele>76</ele>
        <time>2015-03-22T10:08:25Z</time>
      </trkpt>
      <trkpt lat="49.32169" lon="0.97528">
        <ele>76</ele>
        <time>2015-03-22T10:08:29Z</time>
      </trkpt>
      <trkpt lat="49.32163" lon="0.9753">
        <ele>84</ele>
        <time>2015-03-22T10:08:33Z</time>
      </trkpt>
      <trkpt lat="49.32158" lon="0.97525">
        <ele>83</ele>
        <time>2015-03-22T10:08:39Z</time>
      </trkpt>
      <trkpt lat="49.3215" lon="0.97526">
        <ele>84</ele>
        <time>2015-03-22T10:08:43Z</time>
      </trkpt>
      <trkpt lat="49.3214" lon="0.97528">
        <ele>86</ele>
        <time>2015-03-22T10:08:49Z</time>
      </trkpt>
      <trkpt lat="49.32133" lon="0.97532">
        <ele>87</ele>
        <time>2015-03-22T10:08:53Z</time>
      </trkpt>
      <trkpt lat="49.32128" lon="0.97534">
        <ele>87</ele>
        <time>2015-03-22T10:08:55Z</time>
      </trkpt>
      <trkpt lat="49.32122" lon="0.97535">
        <ele>88</ele>
        <time>2015-03-22T10:08:59Z</time>
      </trkpt>
      <trkpt lat="49.32117" lon="0.97537">
        <ele>88</ele>
        <time>2015-03-22T10:09:03Z</time>
      </trkpt>
      <trkpt lat="49.32112" lon="0.97536">
        <ele>88</ele>
        <time>2015-03-22T10:09:07Z</time>
      </trkpt>
      <trkpt lat="49.32104" lon="0.97533">
        <ele>89</ele>
        <time>2015-03-22T10:09:11Z</time>
      </trkpt>
      <trkpt lat="49.32097" lon="0.97532">
        <ele>89</ele>
        <time>2015-03-22T10:09:15Z</time>
      </trkpt>
      <trkpt lat="49.32092" lon="0.97529">
        <ele>89</ele>
        <time>2015-03-22T10:09:19Z</time>
      </trkpt>
      <trkpt lat="49.32085" lon="0.97526">
        <ele>90</ele>
        <time>2015-03-22T10:09:23Z</time>
      </trkpt>
      <trkpt lat="49.3208" lon="0.97524">
        <ele>94</ele>
        <time>2015-03-22T10:09:25Z</time>
      </trkpt>
      <trkpt lat="49.32075" lon="0.97523">
        <ele>94</ele>
        <time>2015-03-22T10:09:27Z</time>
      </trkpt>
      <trkpt lat="49.32068" lon="0.97524">
        <ele>95</ele>
        <time>2015-03-22T10:09:31Z</time>
      </trkpt>
      <trkpt lat="49.32064" lon="0.97526">
        <ele>95</ele>
        <time>2015-03-22T10:09:33Z</time>
      </trkpt>
      <trkpt lat="49.32056" lon="0.97528">
        <ele>95</ele>
        <time>2015-03-22T10:09:37Z</time>
      </trkpt>
      <trkpt lat="49.32052" lon="0.97526">
        <ele>95</ele>
        <time>2015-03-22T10:09:39Z</time>
      </trkpt>
      <trkpt lat="49.32046" lon="0.97524">
        <ele>96</ele>
        <time>2015-03-22T10:09:41Z</time>
      </trkpt>
      <trkpt lat="49.32042" lon="0.97523">
        <ele>96</ele>
        <time>2015-03-22T10:09:43Z</time>
      </trkpt>
      <trkpt lat="49.32032" lon="0.9752">
        <ele>96</ele>
        <time>2015-03-22T10:09:47Z</time>
      </trkpt>
      <trkpt lat="49.32022" lon="0.97519">
        <ele>96</ele>
        <time>2015-03-22T10:09:51Z</time>
      </trkpt>
      <trkpt lat="49.32016" lon="0.97518">
        <ele>96</ele>
        <time>2015-03-22T10:09:53Z</time>
      </trkpt>
      <trkpt lat="49.32011" lon="0.97517">
        <ele>97</ele>
        <time>2015-03-22T10:09:55Z</time>
      </trkpt>
      <trkpt lat="49.32006" lon="0.97516">
        <ele>97</ele>
        <time>2015-03-22T10:09:57Z</time>
      </trkpt>
      <trkpt lat="49.32" lon="0.97515">
        <ele>98</ele>
        <time>2015-03-22T10:09:59Z</time>
      </trkpt>
      <trkpt lat="49.31994" lon="0.97513">
        <ele>98</ele>
        <time>2015-03-22T10:10:01Z</time>
      </trkpt>
      <trkpt lat="49.31989" lon="0.97511">
        <ele>98</ele>
        <time>2015-03-22T10:10:03Z</time>
      </trkpt>
      <trkpt lat="49.31984" lon="0.97509">
        <ele>99</ele>
        <time>2015-03-22T10:10:05Z</time>
      </trkpt>
      <trkpt lat="49.31977" lon="0.97506">
        <ele>99</ele>
        <time>2015-03-22T10:10:07Z</time>
      </trkpt>
      <trkpt lat="49.31971" lon="0.97507">
        <ele>99</ele>
        <time>2015-03-22T10:10:09Z</time>
      </trkpt>
      <trkpt lat="49.31963" lon="0.97505">
        <ele>99</ele>
        <time>2015-03-22T10:10:11Z</time>
      </trkpt>
      <trkpt lat="49.31956" lon="0.97503">
        <ele>100</ele>
        <time>2015-03-22T10:10:13Z</time>
      </trkpt>
      <trkpt lat="49.31951" lon="0.97501">
        <ele>100</ele>
        <time>2015-03-22T10:10:15Z</time>
      </trkpt>
      <trkpt lat="49.31945" lon="0.97499">
        <ele>97</ele>
        <time>2015-03-22T10:10:17Z</time>
      </trkpt>
      <trkpt lat="49.31939" lon="0.97499">
        <ele>97</ele>
        <time>2015-03-22T10:10:19Z</time>
      </trkpt>
      <trkpt lat="49.31934" lon="0.97497">
        <ele>98</ele>
        <time>2015-03-22T10:10:21Z</time>
      </trkpt>
      <trkpt lat="49.31927" lon="0.97494">
        <ele>99</ele>
        <time>2015-03-22T10:10:23Z</time>
      </trkpt>
      <trkpt lat="49.31919" lon="0.97491">
        <ele>99</ele>
        <time>2015-03-22T10:10:25Z</time>
      </trkpt>
      <trkpt lat="49.31912" lon="0.97488">
        <ele>101</ele>
        <time>2015-03-22T10:10:27Z</time>
      </trkpt>
      <trkpt lat="49.31907" lon="0.97485">
        <ele>101</ele>
        <time>2015-03-22T10:10:29Z</time>
      </trkpt>
      <trkpt lat="49.31902" lon="0.97482">
        <ele>101</ele>
        <time>2015-03-22T10:10:31Z</time>
      </trkpt>
      <trkpt lat="49.31895" lon="0.9748">
        <ele>101</ele>
        <time>2015-03-22T10:10:33Z</time>
      </trkpt>
      <trkpt lat="49.31889" lon="0.97478">
        <ele>101</ele>
        <time>2015-03-22T10:10:35Z</time>
      </trkpt>
      <trkpt lat="49.31882" lon="0.97474">
        <ele>101</ele>
        <time>2015-03-22T10:10:37Z</time>
      </trkpt>
      <trkpt lat="49.31876" lon="0.97469">
        <ele>101</ele>
        <time>2015-03-22T10:10:39Z</time>
      </trkpt>
      <trkpt lat="49.3187" lon="0.97464">
        <ele>101</ele>
        <time>2015-03-22T10:10:41Z</time>
      </trkpt>
      <trkpt lat="49.31865" lon="0.97459">
        <ele>101</ele>
        <time>2015-03-22T10:10:43Z</time>
      </trkpt>
      <trkpt lat="49.31857" lon="0.97455">
        <ele>102</ele>
        <time>2015-03-22T10:10:47Z</time>
      </trkpt>
      <trkpt lat="49.31852" lon="0.97452">
        <ele>102</ele>
        <time>2015-03-22T10:10:49Z</time>
      </trkpt>
      <trkpt lat="49.31847" lon="0.97451">
        <ele>102</ele>
        <time>2015-03-22T10:10:51Z</time>
      </trkpt>
      <trkpt lat="49.31842" lon="0.97451">
        <ele>102</ele>
        <time>2015-03-22T10:10:53Z</time>
      </trkpt>
      <trkpt lat="49.31837" lon="0.9745">
        <ele>102</ele>
        <time>2015-03-22T10:10:55Z</time>
      </trkpt>
      <trkpt lat="49.31832" lon="0.97448">
        <ele>106</ele>
        <time>2015-03-22T10:10:57Z</time>
      </trkpt>
      <trkpt lat="49.31826" lon="0.97446">
        <ele>106</ele>
        <time>2015-03-22T10:10:59Z</time>
      </trkpt>
      <trkpt lat="49.3182" lon="0.97445">
        <ele>106</ele>
        <time>2015-03-22T10:11:01Z</time>
      </trkpt>
      <trkpt lat="49.31815" lon="0.97445">
        <ele>106</ele>
        <time>2015-03-22T10:11:03Z</time>
      </trkpt>
      <trkpt lat="49.3181" lon="0.97446">
        <ele>107</ele>
        <time>2015-03-22T10:11:05Z</time>
      </trkpt>
      <trkpt lat="49.31806" lon="0.97448">
        <ele>107</ele>
        <time>2015-03-22T10:11:07Z</time>
      </trkpt>
      <trkpt lat="49.318" lon="0.97447">
        <ele>107</ele>
        <time>2015-03-22T10:11:09Z</time>
      </trkpt>
      <trkpt lat="49.31792" lon="0.97443">
        <ele>107</ele>
        <time>2015-03-22T10:11:11Z</time>
      </trkpt>
      <trkpt lat="49.31784" lon="0.97437">
        <ele>108</ele>
        <time>2015-03-22T10:11:13Z</time>
      </trkpt>
      <trkpt lat="49.31775" lon="0.97431">
        <ele>108</ele>
        <time>2015-03-22T10:11:15Z</time>
      </trkpt>
      <trkpt lat="49.31769" lon="0.97423">
        <ele>108</ele>
        <time>2015-03-22T10:11:17Z</time>
      </trkpt>
      <trkpt lat="49.31762" lon="0.97416">
        <ele>107</ele>
        <time>2015-03-22T10:11:19Z</time>
      </trkpt>
      <trkpt lat="49.31756" lon="0.97408">
        <ele>108</ele>
        <time>2015-03-22T10:11:21Z</time>
      </trkpt>
      <trkpt lat="49.31749" lon="0.97401">
        <ele>110</ele>
        <time>2015-03-22T10:11:23Z</time>
      </trkpt>
      <trkpt lat="49.31744" lon="0.97391">
        <ele>110</ele>
        <time>2015-03-22T10:11:25Z</time>
      </trkpt>
      <trkpt lat="49.31738" lon="0.97382">
        <ele>109</ele>
        <time>2015-03-22T10:11:27Z</time>
      </trkpt>
      <trkpt lat="49.31733" lon="0.9737">
        <ele>109</ele>
        <time>2015-03-22T10:11:29Z</time>
      </trkpt>
      <trkpt lat="49.31729" lon="0.9736">
        <ele>109</ele>
        <time>2015-03-22T10:11:31Z</time>
      </trkpt>
      <trkpt lat="49.31724" lon="0.9735">
        <ele>109</ele>
        <time>2015-03-22T10:11:33Z</time>
      </trkpt>
      <trkpt lat="49.31722" lon="0.97341">
        <ele>109</ele>
        <time>2015-03-22T10:11:35Z</time>
      </trkpt>
      <trkpt lat="49.31717" lon="0.97331">
        <ele>107</ele>
        <time>2015-03-22T10:11:37Z</time>
      </trkpt>
      <trkpt lat="49.3171" lon="0.9732">
        <ele>108</ele>
        <time>2015-03-22T10:11:39Z</time>
      </trkpt>
      <trkpt lat="49.31703" lon="0.9731">
        <ele>108</ele>
        <time>2015-03-22T10:11:41Z</time>
      </trkpt>
      <trkpt lat="49.31698" lon="0.97301">
        <ele>108</ele>
        <time>2015-03-22T10:11:43Z</time>
      </trkpt>
      <trkpt lat="49.31692" lon="0.97292">
        <ele>108</ele>
        <time>2015-03-22T10:11:45Z</time>
      </trkpt>
      <trkpt lat="49.31686" lon="0.97282">
        <ele>109</ele>
        <time>2015-03-22T10:11:47Z</time>
      </trkpt>
      <trkpt lat="49.3168" lon="0.97273">
        <ele>109</ele>
        <time>2015-03-22T10:11:49Z</time>
      </trkpt>
      <trkpt lat="49.31675" lon="0.97263">
        <ele>110</ele>
        <time>2015-03-22T10:11:51Z</time>
      </trkpt>
      <trkpt lat="49.31669" lon="0.97251">
        <ele>112</ele>
        <time>2015-03-22T10:11:53Z</time>
      </trkpt>
      <trkpt lat="49.31662" lon="0.9724">
        <ele>113</ele>
        <time>2015-03-22T10:11:55Z</time>
      </trkpt>
      <trkpt lat="49.31657" lon="0.97231">
        <ele>113</ele>
        <time>2015-03-22T10:11:57Z</time>
      </trkpt>
      <trkpt lat="49.31652" lon="0.9722">
        <ele>113</ele>
        <time>2015-03-22T10:11:59Z</time>
      </trkpt>
      <trkpt lat="49.31647" lon="0.97209">
        <ele>114</ele>
        <time>2015-03-22T10:12:01Z</time>
      </trkpt>
      <trkpt lat="49.31643" lon="0.97199">
        <ele>114</ele>
        <time>2015-03-22T10:12:03Z</time>
      </trkpt>
      <trkpt lat="49.31638" lon="0.97189">
        <ele>114</ele>
        <time>2015-03-22T10:12:05Z</time>
      </trkpt>
      <trkpt lat="49.31633" lon="0.9718">
        <ele>114</ele>
        <time>2015-03-22T10:12:07Z</time>
      </trkpt>
      <trkpt lat="49.31628" lon="0.97172">
        <ele>114</ele>
        <time>2015-03-22T10:12:09Z</time>
      </trkpt>
      <trkpt lat="49.31622" lon="0.97164">
        <ele>113</ele>
        <time>2015-03-22T10:12:11Z</time>
      </trkpt>
      <trkpt lat="49.31618" lon="0.97154">
        <ele>113</ele>
        <time>2015-03-22T10:12:13Z</time>
      </trkpt>
      <trkpt lat="49.31613" lon="0.97144">
        <ele>113</ele>
        <time>2015-03-22T10:12:15Z</time>
      </trkpt>
      <trkpt lat="49.31609" lon="0.97135">
        <ele>113</ele>
        <time>2015-03-22T10:12:17Z</time>
      </trkpt>
      <trkpt lat="49.31603" lon="0.97128">
        <ele>113</ele>
        <time>2015-03-22T10:12:19Z</time>
      </trkpt>
      <trkpt lat="49.31598" lon="0.9712">
        <ele>113</ele>
        <time>2015-03-22T10:12:21Z</time>
      </trkpt>
      <trkpt lat="49.31592" lon="0.97114">
        <ele>113</ele>
        <time>2015-03-22T10:12:23Z</time>
      </trkpt>
      <trkpt lat="49.31587" lon="0.97107">
        <ele>114</ele>
        <time>2015-03-22T10:12:25Z</time>
      </trkpt>
      <trkpt lat="49.31582" lon="0.97101">
        <ele>117</ele>
        <time>2015-03-22T10:12:27Z</time>
      </trkpt>
      <trkpt lat="49.31577" lon="0.97094">
        <ele>116</ele>
        <time>2015-03-22T10:12:29Z</time>
      </trkpt>
      <trkpt lat="49.31573" lon="0.97087">
        <ele>116</ele>
        <time>2015-03-22T10:12:31Z</time>
      </trkpt>
      <trkpt lat="49.3157" lon="0.9708">
        <ele>115</ele>
        <time>2015-03-22T10:12:33Z</time>
      </trkpt>
      <trkpt lat="49.31566" lon="0.97072">
        <ele>115</ele>
        <time>2015-03-22T10:12:35Z</time>
      </trkpt>
      <trkpt lat="49.31562" lon="0.97065">
        <ele>116</ele>
        <time>2015-03-22T10:12:37Z</time>
      </trkpt>
      <trkpt lat="49.31558" lon="0.97059">
        <ele>116</ele>
        <time>2015-03-22T10:12:39Z</time>
      </trkpt>
      <trkpt lat="49.31553" lon="0.97052">
        <ele>116</ele>
        <time>2015-03-22T10:12:41Z</time>
      </trkpt>
      <trkpt lat="49.31547" lon="0.97046">
        <ele>116</ele>
        <time>2015-03-22T10:12:43Z</time>
      </trkpt>
      <trkpt lat="49.31542" lon="0.97039">
        <ele>116</ele>
        <time>2015-03-22T10:12:45Z</time>
      </trkpt>
      <trkpt lat="49.31537" lon="0.97033">
        <ele>116</ele>
        <time>2015-03-22T10:12:47Z</time>
      </trkpt>
      <trkpt lat="49.31531" lon="0.97026">
        <ele>116</ele>
        <time>2015-03-22T10:12:49Z</time>
      </trkpt>
      <trkpt lat="49.31526" lon="0.97019">
        <ele>116</ele>
        <time>2015-03-22T10:12:51Z</time>
      </trkpt>
      <trkpt lat="49.31522" lon="0.97012">
        <ele>116</ele>
        <time>2015-03-22T10:12:53Z</time>
      </trkpt>
      <trkpt lat="49.31518" lon="0.97006">
        <ele>117</ele>
        <time>2015-03-22T10:12:55Z</time>
      </trkpt>
      <trkpt lat="49.31513" lon="0.96999">
        <ele>116</ele>
        <time>2015-03-22T10:12:57Z</time>
      </trkpt>
      <trkpt lat="49.31509" lon="0.96991">
        <ele>116</ele>
        <time>2015-03-22T10:12:59Z</time>
      </trkpt>
      <trkpt lat="49.31504" lon="0.96983">
        <ele>115</ele>
        <time>2015-03-22T10:13:01Z</time>
      </trkpt>
      <trkpt lat="49.31499" lon="0.96974">
        <ele>119</ele>
        <time>2015-03-22T10:13:03Z</time>
      </trkpt>
      <trkpt lat="49.31494" lon="0.96967">
        <ele>119</ele>
        <time>2015-03-22T10:13:05Z</time>
      </trkpt>
      <trkpt lat="49.31488" lon="0.96961">
        <ele>119</ele>
        <time>2015-03-22T10:13:07Z</time>
      </trkpt>
      <trkpt lat="49.31482" lon="0.96956">
        <ele>119</ele>
        <time>2015-03-22T10:13:09Z</time>
      </trkpt>
      <trkpt lat="49.31477" lon="0.96952">
        <ele>119</ele>
        <time>2015-03-22T10:13:11Z</time>
      </trkpt>
      <trkpt lat="49.31472" lon="0.96946">
        <ele>119</ele>
        <time>2015-03-22T10:13:13Z</time>
      </trkpt>
      <trkpt lat="49.31467" lon="0.96939">
        <ele>119</ele>
        <time>2015-03-22T10:13:15Z</time>
      </trkpt>
      <trkpt lat="49.31461" lon="0.96932">
        <ele>119</ele>
        <time>2015-03-22T10:13:17Z</time>
      </trkpt>
      <trkpt lat="49.31456" lon="0.96925">
        <ele>120</ele>
        <time>2015-03-22T10:13:19Z</time>
      </trkpt>
      <trkpt lat="49.31451" lon="0.96919">
        <ele>120</ele>
        <time>2015-03-22T10:13:21Z</time>
      </trkpt>
      <trkpt lat="49.31446" lon="0.96913">
        <ele>119</ele>
        <time>2015-03-22T10:13:23Z</time>
      </trkpt>
      <trkpt lat="49.31441" lon="0.96907">
        <ele>120</ele>
        <time>2015-03-22T10:13:25Z</time>
      </trkpt>
      <trkpt lat="49.31435" lon="0.96902">
        <ele>120</ele>
        <time>2015-03-22T10:13:27Z</time>
      </trkpt>
      <trkpt lat="49.3143" lon="0.96897">
        <ele>120</ele>
        <time>2015-03-22T10:13:29Z</time>
      </trkpt>
      <trkpt lat="49.31423" lon="0.96892">
        <ele>120</ele>
        <time>2015-03-22T10:13:31Z</time>
      </trkpt>
      <trkpt lat="49.31417" lon="0.96888">
        <ele>120</ele>
        <time>2015-03-22T10:13:33Z</time>
      </trkpt>
      <trkpt lat="49.31411" lon="0.96886">
        <ele>124</ele>
        <time>2015-03-22T10:13:35Z</time>
      </trkpt>
      <trkpt lat="49.31403" lon="0.96882">
        <ele>124</ele>
        <time>2015-03-22T10:13:39Z</time>
      </trkpt>
      <trkpt lat="49.31395" lon="0.96877">
        <ele>124</ele>
        <time>2015-03-22T10:13:43Z</time>
      </trkpt>
      <trkpt lat="49.31391" lon="0.96874">
        <ele>124</ele>
        <time>2015-03-22T10:13:45Z</time>
      </trkpt>
      <trkpt lat="49.31385" lon="0.96869">
        <ele>124</ele>
        <time>2015-03-22T10:13:47Z</time>
      </trkpt>
      <trkpt lat="49.3138" lon="0.96863">
        <ele>124</ele>
        <time>2015-03-22T10:13:49Z</time>
      </trkpt>
      <trkpt lat="49.31373" lon="0.96856">
        <ele>124</ele>
        <time>2015-03-22T10:13:51Z</time>
      </trkpt>
      <trkpt lat="49.31366" lon="0.96849">
        <ele>125</ele>
        <time>2015-03-22T10:13:53Z</time>
      </trkpt>
      <trkpt lat="49.31358" lon="0.96843">
        <ele>125</ele>
        <time>2015-03-22T10:13:55Z</time>
      </trkpt>
      <trkpt lat="49.31351" lon="0.96839">
        <ele>126</ele>
        <time>2015-03-22T10:13:57Z</time>
      </trkpt>
      <trkpt lat="49.31342" lon="0.96836">
        <ele>126</ele>
        <time>2015-03-22T10:13:59Z</time>
      </trkpt>
      <trkpt lat="49.31334" lon="0.96832">
        <ele>127</ele>
        <time>2015-03-22T10:14:01Z</time>
      </trkpt>
      <trkpt lat="49.31327" lon="0.9683">
        <ele>127</ele>
        <time>2015-03-22T10:14:03Z</time>
      </trkpt>
      <trkpt lat="49.3132" lon="0.96827">
        <ele>127</ele>
        <time>2015-03-22T10:14:05Z</time>
      </trkpt>
      <trkpt lat="49.31313" lon="0.96823">
        <ele>127</ele>
        <time>2015-03-22T10:14:07Z</time>
      </trkpt>
      <trkpt lat="49.31307" lon="0.96819">
        <ele>127</ele>
        <time>2015-03-22T10:14:09Z</time>
      </trkpt>
      <trkpt lat="49.31303" lon="0.9681">
        <ele>127</ele>
        <time>2015-03-22T10:14:11Z</time>
      </trkpt>
      <trkpt lat="49.31297" lon="0.96807">
        <ele>127</ele>
        <time>2015-03-22T10:14:13Z</time>
      </trkpt>
      <trkpt lat="49.31291" lon="0.96812">
        <ele>127</ele>
        <time>2015-03-22T10:14:15Z</time>
      </trkpt>
      <trkpt lat="49.31285" lon="0.96813">
        <ele>127</ele>
        <time>2015-03-22T10:14:17Z</time>
      </trkpt>
      <trkpt lat="49.31278" lon="0.9681">
        <ele>127</ele>
        <time>2015-03-22T10:14:19Z</time>
      </trkpt>
      <trkpt lat="49.31272" lon="0.96804">
        <ele>128</ele>
        <time>2015-03-22T10:14:21Z</time>
      </trkpt>
      <trkpt lat="49.31266" lon="0.96798">
        <ele>127</ele>
        <time>2015-03-22T10:14:23Z</time>
      </trkpt>
      <trkpt lat="49.3126" lon="0.96793">
        <ele>128</ele>
        <time>2015-03-22T10:14:25Z</time>
      </trkpt>
      <trkpt lat="49.31255" lon="0.96787">
        <ele>127</ele>
        <time>2015-03-22T10:14:27Z</time>
      </trkpt>
      <trkpt lat="49.31256" lon="0.9678">
        <ele>127</ele>
        <time>2015-03-22T10:14:29Z</time>
      </trkpt>
      <trkpt lat="49.31256" lon="0.96773">
        <ele>127</ele>
        <time>2015-03-22T10:14:31Z</time>
      </trkpt>
      <trkpt lat="49.31264" lon="0.96764">
        <ele>127</ele>
        <time>2015-03-22T10:14:35Z</time>
      </trkpt>
      <trkpt lat="49.31267" lon="0.96757">
        <ele>127</ele>
        <time>2015-03-22T10:14:37Z</time>
      </trkpt>
      <trkpt lat="49.31272" lon="0.96749">
        <ele>126</ele>
        <time>2015-03-22T10:14:39Z</time>
      </trkpt>
      <trkpt lat="49.31278" lon="0.96743">
        <ele>125</ele>
        <time>2015-03-22T10:14:41Z</time>
      </trkpt>
      <trkpt lat="49.31283" lon="0.96736">
        <ele>125</ele>
        <time>2015-03-22T10:14:43Z</time>
      </trkpt>
      <trkpt lat="49.31288" lon="0.9673">
        <ele>124</ele>
        <time>2015-03-22T10:14:45Z</time>
      </trkpt>
      <trkpt lat="49.31294" lon="0.96723">
        <ele>124</ele>
        <time>2015-03-22T10:14:47Z</time>
      </trkpt>
      <trkpt lat="49.313" lon="0.96714">
        <ele>124</ele>
        <time>2015-03-22T10:14:49Z</time>
      </trkpt>
      <trkpt lat="49.31308" lon="0.96705">
        <ele>123</ele>
        <time>2015-03-22T10:14:51Z</time>
      </trkpt>
      <trkpt lat="49.31313" lon="0.96694">
        <ele>122</ele>
        <time>2015-03-22T10:14:53Z</time>
      </trkpt>
      <trkpt lat="49.3132" lon="0.96685">
        <ele>121</ele>
        <time>2015-03-22T10:14:55Z</time>
      </trkpt>
      <trkpt lat="49.31327" lon="0.96675">
        <ele>119</ele>
        <time>2015-03-22T10:14:57Z</time>
      </trkpt>
      <trkpt lat="49.31333" lon="0.96665">
        <ele>117</ele>
        <time>2015-03-22T10:14:59Z</time>
      </trkpt>
      <trkpt lat="49.31336" lon="0.96657">
        <ele>115</ele>
        <time>2015-03-22T10:15:01Z</time>
      </trkpt>
      <trkpt lat="49.31336" lon="0.96648">
        <ele>114</ele>
        <time>2015-03-22T10:15:05Z</time>
      </trkpt>
      <trkpt lat="49.31332" lon="0.96642">
        <ele>117</ele>
        <time>2015-03-22T10:15:07Z</time>
      </trkpt>
      <trkpt lat="49.31324" lon="0.96635">
        <ele>117</ele>
        <time>2015-03-22T10:15:09Z</time>
      </trkpt>
      <trkpt lat="49.31318" lon="0.96625">
        <ele>117</ele>
        <time>2015-03-22T10:15:11Z</time>
      </trkpt>
      <trkpt lat="49.31311" lon="0.96617">
        <ele>117</ele>
        <time>2015-03-22T10:15:13Z</time>
      </trkpt>
      <trkpt lat="49.31304" lon="0.96607">
        <ele>117</ele>
        <time>2015-03-22T10:15:15Z</time>
      </trkpt>
      <trkpt lat="49.31295" lon="0.96598">
        <ele>117</ele>
        <time>2015-03-22T10:15:17Z</time>
      </trkpt>
      <trkpt lat="49.31288" lon="0.96591">
        <ele>118</ele>
        <time>2015-03-22T10:15:19Z</time>
      </trkpt>
      <trkpt lat="49.3128" lon="0.9659">
        <ele>118</ele>
        <time>2015-03-22T10:15:21Z</time>
      </trkpt>
      <trkpt lat="49.31272" lon="0.9659">
        <ele>119</ele>
        <time>2015-03-22T10:15:25Z</time>
      </trkpt>
      <trkpt lat="49.31266" lon="0.96586">
        <ele>119</ele>
        <time>2015-03-22T10:15:29Z</time>
      </trkpt>
      <trkpt lat="49.31259" lon="0.96582">
        <ele>119</ele>
        <time>2015-03-22T10:15:35Z</time>
      </trkpt>
      <trkpt lat="49.31255" lon="0.96577">
        <ele>119</ele>
        <time>2015-03-22T10:15:37Z</time>
      </trkpt>
      <trkpt lat="49.31249" lon="0.96568">
        <ele>120</ele>
        <time>2015-03-22T10:15:41Z</time>
      </trkpt>
      <trkpt lat="49.31245" lon="0.9656">
        <ele>120</ele>
        <time>2015-03-22T10:15:43Z</time>
      </trkpt>
      <trkpt lat="49.31241" lon="0.96552">
        <ele>120</ele>
        <time>2015-03-22T10:15:45Z</time>
      </trkpt>
      <trkpt lat="49.31235" lon="0.96538">
        <ele>120</ele>
        <time>2015-03-22T10:15:47Z</time>
      </trkpt>
      <trkpt lat="49.31231" lon="0.96528">
        <ele>120</ele>
        <time>2015-03-22T10:15:49Z</time>
      </trkpt>
      <trkpt lat="49.31226" lon="0.96521">
        <ele>120</ele>
        <time>2015-03-22T10:15:51Z</time>
      </trkpt>
      <trkpt lat="49.31222" lon="0.96515">
        <ele>120</ele>
        <time>2015-03-22T10:15:53Z</time>
      </trkpt>
      <trkpt lat="49.31219" lon="0.96507">
        <ele>120</ele>
        <time>2015-03-22T10:15:55Z</time>
      </trkpt>
      <trkpt lat="49.31215" lon="0.96497">
        <ele>119</ele>
        <time>2015-03-22T10:15:57Z</time>
      </trkpt>
      <trkpt lat="49.31209" lon="0.9649">
        <ele>119</ele>
        <time>2015-03-22T10:15:59Z</time>
      </trkpt>
      <trkpt lat="49.31205" lon="0.96482">
        <ele>119</ele>
        <time>2015-03-22T10:16:01Z</time>
      </trkpt>
      <trkpt lat="49.31201" lon="0.96476">
        <ele>119</ele>
        <time>2015-03-22T10:16:03Z</time>
      </trkpt>
      <trkpt lat="49.31196" lon="0.96471">
        <ele>119</ele>
        <time>2015-03-22T10:16:05Z</time>
      </trkpt>
      <trkpt lat="49.31192" lon="0.96463">
        <ele>119</ele>
        <time>2015-03-22T10:16:07Z</time>
      </trkpt>
      <trkpt lat="49.3119" lon="0.96451">
        <ele>119</ele>
        <time>2015-03-22T10:16:09Z</time>
      </trkpt>
      <trkpt lat="49.31189" lon="0.96441">
        <ele>119</ele>
        <time>2015-03-22T10:16:11Z</time>
      </trkpt>
      <trkpt lat="49.3119" lon="0.9643">
        <ele>119</ele>
        <time>2015-03-22T10:16:13Z</time>
      </trkpt>
      <trkpt lat="49.31186" lon="0.96422">
        <ele>119</ele>
        <time>2015-03-22T10:16:15Z</time>
      </trkpt>
      <trkpt lat="49.31184" lon="0.96412">
        <ele>119</ele>
        <time>2015-03-22T10:16:17Z</time>
      </trkpt>
      <trkpt lat="49.31182" lon="0.96404">
        <ele>119</ele>
        <time>2015-03-22T10:16:19Z</time>
      </trkpt>
      <trkpt lat="49.31181" lon="0.96392">
        <ele>119</ele>
        <time>2015-03-22T10:16:21Z</time>
      </trkpt>
      <trkpt lat="49.31178" lon="0.96384">
        <ele>119</ele>
        <time>2015-03-22T10:16:23Z</time>
      </trkpt>
      <trkpt lat="49.31175" lon="0.96373">
        <ele>118</ele>
        <time>2015-03-22T10:16:25Z</time>
      </trkpt>
      <trkpt lat="49.31172" lon="0.9636">
        <ele>118</ele>
        <time>2015-03-22T10:16:27Z</time>
      </trkpt>
      <trkpt lat="49.31168" lon="0.96348">
        <ele>118</ele>
        <time>2015-03-22T10:16:29Z</time>
      </trkpt>
      <trkpt lat="49.31169" lon="0.96338">
        <ele>117</ele>
        <time>2015-03-22T10:16:31Z</time>
      </trkpt>
      <trkpt lat="49.3117" lon="0.96324">
        <ele>118</ele>
        <time>2015-03-22T10:16:41Z</time>
      </trkpt>
      <trkpt lat="49.31169" lon="0.96314">
        <ele>118</ele>
        <time>2015-03-22T10:16:43Z</time>
      </trkpt>
      <trkpt lat="49.31169" lon="0.96306">
        <ele>118</ele>
        <time>2015-03-22T10:16:45Z</time>
      </trkpt>
      <trkpt lat="49.31174" lon="0.96297">
        <ele>118</ele>
        <time>2015-03-22T10:16:49Z</time>
      </trkpt>
      <trkpt lat="49.31178" lon="0.96291">
        <ele>119</ele>
        <time>2015-03-22T10:16:51Z</time>
      </trkpt>
      <trkpt lat="49.31182" lon="0.96286">
        <ele>119</ele>
        <time>2015-03-22T10:16:53Z</time>
      </trkpt>
      <trkpt lat="49.31188" lon="0.96286">
        <ele>119</ele>
        <time>2015-03-22T10:16:55Z</time>
      </trkpt>
      <trkpt lat="49.31192" lon="0.96282">
        <ele>119</ele>
        <time>2015-03-22T10:16:57Z</time>
      </trkpt>
      <trkpt lat="49.31196" lon="0.96277">
        <ele>119</ele>
        <time>2015-03-22T10:16:59Z</time>
      </trkpt>
      <trkpt lat="49.31199" lon="0.96272">
        <ele>119</ele>
        <time>2015-03-22T10:17:01Z</time>
      </trkpt>
      <trkpt lat="49.31203" lon="0.96267">
        <ele>119</ele>
        <time>2015-03-22T10:17:03Z</time>
      </trkpt>
      <trkpt lat="49.3121" lon="0.96261">
        <ele>120</ele>
        <time>2015-03-22T10:17:07Z</time>
      </trkpt>
      <trkpt lat="49.31214" lon="0.96257">
        <ele>120</ele>
        <time>2015-03-22T10:17:09Z</time>
      </trkpt>
      <trkpt lat="49.31221" lon="0.9625">
        <ele>120</ele>
        <time>2015-03-22T10:17:13Z</time>
      </trkpt>
      <trkpt lat="49.31229" lon="0.96244">
        <ele>121</ele>
        <time>2015-03-22T10:17:17Z</time>
      </trkpt>
      <trkpt lat="49.31236" lon="0.96234">
        <ele>121</ele>
        <time>2015-03-22T10:17:21Z</time>
      </trkpt>
      <trkpt lat="49.31239" lon="0.96224">
        <ele>121</ele>
        <time>2015-03-22T10:17:23Z</time>
      </trkpt>
      <trkpt lat="49.31243" lon="0.96214">
        <ele>121</ele>
        <time>2015-03-22T10:17:25Z</time>
      </trkpt>
      <trkpt lat="49.31247" lon="0.96205">
        <ele>121</ele>
        <time>2015-03-22T10:17:27Z</time>
      </trkpt>
      <trkpt lat="49.3125" lon="0.96197">
        <ele>121</ele>
        <time>2015-03-22T10:17:29Z</time>
      </trkpt>
      <trkpt lat="49.31253" lon="0.9619">
        <ele>124</ele>
        <time>2015-03-22T10:17:31Z</time>
      </trkpt>
      <trkpt lat="49.31257" lon="0.96184">
        <ele>124</ele>
        <time>2015-03-22T10:17:33Z</time>
      </trkpt>
      <trkpt lat="49.31263" lon="0.96179">
        <ele>124</ele>
        <time>2015-03-22T10:17:35Z</time>
      </trkpt>
      <trkpt lat="49.31268" lon="0.96176">
        <ele>124</ele>
        <time>2015-03-22T10:17:37Z</time>
      </trkpt>
      <trkpt lat="49.31275" lon="0.96177">
        <ele>125</ele>
        <time>2015-03-22T10:17:41Z</time>
      </trkpt>
      <trkpt lat="49.31283" lon="0.96173">
        <ele>125</ele>
        <time>2015-03-22T10:17:45Z</time>
      </trkpt>
      <trkpt lat="49.31284" lon="0.96166">
        <ele>125</ele>
        <time>2015-03-22T10:17:47Z</time>
      </trkpt>
      <trkpt lat="49.3129" lon="0.96157">
        <ele>125</ele>
        <time>2015-03-22T10:17:49Z</time>
      </trkpt>
      <trkpt lat="49.31296" lon="0.96145">
        <ele>125</ele>
        <time>2015-03-22T10:17:51Z</time>
      </trkpt>
      <trkpt lat="49.31299" lon="0.96136">
        <ele>125</ele>
        <time>2015-03-22T10:17:53Z</time>
      </trkpt>
      <trkpt lat="49.31304" lon="0.96126">
        <ele>125</ele>
        <time>2015-03-22T10:17:55Z</time>
      </trkpt>
      <trkpt lat="49.31308" lon="0.96115">
        <ele>125</ele>
        <time>2015-03-22T10:17:57Z</time>
      </trkpt>
      <trkpt lat="49.31311" lon="0.96103">
        <ele>126</ele>
        <time>2015-03-22T10:17:59Z</time>
      </trkpt>
      <trkpt lat="49.31314" lon="0.96092">
        <ele>126</ele>
        <time>2015-03-22T10:18:01Z</time>
      </trkpt>
      <trkpt lat="49.31316" lon="0.96078">
        <ele>126</ele>
        <time>2015-03-22T10:18:03Z</time>
      </trkpt>
      <trkpt lat="49.31317" lon="0.96066">
        <ele>125</ele>
        <time>2015-03-22T10:18:05Z</time>
      </trkpt>
      <trkpt lat="49.31319" lon="0.96053">
        <ele>125</ele>
        <time>2015-03-22T10:18:07Z</time>
      </trkpt>
      <trkpt lat="49.31321" lon="0.9604">
        <ele>125</ele>
        <time>2015-03-22T10:18:09Z</time>
      </trkpt>
      <trkpt lat="49.31324" lon="0.96029">
        <ele>125</ele>
        <time>2015-03-22T10:18:11Z</time>
      </trkpt>
      <trkpt lat="49.31326" lon="0.96016">
        <ele>126</ele>
        <time>2015-03-22T10:18:13Z</time>
      </trkpt>
      <trkpt lat="49.31329" lon="0.96002">
        <ele>126</ele>
        <time>2015-03-22T10:18:15Z</time>
      </trkpt>
      <trkpt lat="49.3133" lon="0.95991">
        <ele>126</ele>
        <time>2015-03-22T10:18:17Z</time>
      </trkpt>
      <trkpt lat="49.31331" lon="0.9598">
        <ele>126</ele>
        <time>2015-03-22T10:18:19Z</time>
      </trkpt>
      <trkpt lat="49.31331" lon="0.95968">
        <ele>126</ele>
        <time>2015-03-22T10:18:21Z</time>
      </trkpt>
      <trkpt lat="49.31331" lon="0.95956">
        <ele>126</ele>
        <time>2015-03-22T10:18:23Z</time>
      </trkpt>
      <trkpt lat="49.31329" lon="0.95942">
        <ele>126</ele>
        <time>2015-03-22T10:18:25Z</time>
      </trkpt>
      <trkpt lat="49.31329" lon="0.95928">
        <ele>127</ele>
        <time>2015-03-22T10:18:27Z</time>
      </trkpt>
      <trkpt lat="49.3133" lon="0.95916">
        <ele>129</ele>
        <time>2015-03-22T10:18:29Z</time>
      </trkpt>
      <trkpt lat="49.31333" lon="0.95909">
        <ele>128</ele>
        <time>2015-03-22T10:18:31Z</time>
      </trkpt>
      <trkpt lat="49.3134" lon="0.95904">
        <ele>129</ele>
        <time>2015-03-22T10:18:35Z</time>
      </trkpt>
      <trkpt lat="49.31345" lon="0.95899">
        <ele>130</ele>
        <time>2015-03-22T10:18:37Z</time>
      </trkpt>
      <trkpt lat="49.31349" lon="0.95889">
        <ele>130</ele>
        <time>2015-03-22T10:18:39Z</time>
      </trkpt>
      <trkpt lat="49.3135" lon="0.95879">
        <ele>130</ele>
        <time>2015-03-22T10:18:41Z</time>
      </trkpt>
      <trkpt lat="49.3135" lon="0.95868">
        <ele>130</ele>
        <time>2015-03-22T10:18:43Z</time>
      </trkpt>
      <trkpt lat="49.31348" lon="0.95857">
        <ele>130</ele>
        <time>2015-03-22T10:18:45Z</time>
      </trkpt>
      <trkpt lat="49.31348" lon="0.95848">
        <ele>130</ele>
        <time>2015-03-22T10:18:47Z</time>
      </trkpt>
      <trkpt lat="49.31348" lon="0.95836">
        <ele>131</ele>
        <time>2015-03-22T10:18:49Z</time>
      </trkpt>
      <trkpt lat="49.31347" lon="0.95826">
        <ele>131</ele>
        <time>2015-03-22T10:18:51Z</time>
      </trkpt>
      <trkpt lat="49.31346" lon="0.95818">
        <ele>131</ele>
        <time>2015-03-22T10:18:53Z</time>
      </trkpt>
      <trkpt lat="49.31342" lon="0.95809">
        <ele>131</ele>
        <time>2015-03-22T10:18:55Z</time>
      </trkpt>
      <trkpt lat="49.31339" lon="0.958">
        <ele>131</ele>
        <time>2015-03-22T10:18:57Z</time>
      </trkpt>
      <trkpt lat="49.31336" lon="0.95793">
        <ele>131</ele>
        <time>2015-03-22T10:18:59Z</time>
      </trkpt>
      <trkpt lat="49.31334" lon="0.95783">
        <ele>131</ele>
        <time>2015-03-22T10:19:01Z</time>
      </trkpt>
      <trkpt lat="49.31332" lon="0.95772">
        <ele>131</ele>
        <time>2015-03-22T10:19:03Z</time>
      </trkpt>
      <trkpt lat="49.3133" lon="0.9576">
        <ele>132</ele>
        <time>2015-03-22T10:19:05Z</time>
      </trkpt>
      <trkpt lat="49.31325" lon="0.95751">
        <ele>132</ele>
        <time>2015-03-22T10:19:07Z</time>
      </trkpt>
      <trkpt lat="49.31323" lon="0.9574">
        <ele>132</ele>
        <time>2015-03-22T10:19:09Z</time>
      </trkpt>
      <trkpt lat="49.31319" lon="0.95734">
        <ele>132</ele>
        <time>2015-03-22T10:19:11Z</time>
      </trkpt>
      <trkpt lat="49.31313" lon="0.95728">
        <ele>132</ele>
        <time>2015-03-22T10:19:13Z</time>
      </trkpt>
      <trkpt lat="49.31309" lon="0.95716">
        <ele>132</ele>
        <time>2015-03-22T10:19:15Z</time>
      </trkpt>
      <trkpt lat="49.3131" lon="0.95707">
        <ele>132</ele>
        <time>2015-03-22T10:19:18Z</time>
      </trkpt>
      <trkpt lat="49.31311" lon="0.95697">
        <ele>133</ele>
        <time>2015-03-22T10:19:20Z</time>
      </trkpt>
      <trkpt lat="49.31314" lon="0.95684">
        <ele>133</ele>
        <time>2015-03-22T10:19:24Z</time>
      </trkpt>
      <trkpt lat="49.31315" lon="0.95675">
        <ele>133</ele>
        <time>2015-03-22T10:19:26Z</time>
      </trkpt>
      <trkpt lat="49.31315" lon="0.95665">
        <ele>133</ele>
        <time>2015-03-22T10:19:28Z</time>
      </trkpt>
      <trkpt lat="49.31319" lon="0.9566">
        <ele>133</ele>
        <time>2015-03-22T10:19:30Z</time>
      </trkpt>
      <trkpt lat="49.31323" lon="0.95654">
        <ele>133</ele>
        <time>2015-03-22T10:19:32Z</time>
      </trkpt>
      <trkpt lat="49.31328" lon="0.95648">
        <ele>133</ele>
        <time>2015-03-22T10:19:34Z</time>
      </trkpt>
      <trkpt lat="49.31331" lon="0.95639">
        <ele>133</ele>
        <time>2015-03-22T10:19:36Z</time>
      </trkpt>
      <trkpt lat="49.31336" lon="0.95628">
        <ele>134</ele>
        <time>2015-03-22T10:19:38Z</time>
      </trkpt>
      <trkpt lat="49.31338" lon="0.95613">
        <ele>134</ele>
        <time>2015-03-22T10:19:40Z</time>
      </trkpt>
      <trkpt lat="49.3134" lon="0.956">
        <ele>134</ele>
        <time>2015-03-22T10:19:42Z</time>
      </trkpt>
      <trkpt lat="49.31342" lon="0.95588">
        <ele>134</ele>
        <time>2015-03-22T10:19:44Z</time>
      </trkpt>
      <trkpt lat="49.31344" lon="0.95577">
        <ele>134</ele>
        <time>2015-03-22T10:19:46Z</time>
      </trkpt>
      <trkpt lat="49.31344" lon="0.95565">
        <ele>134</ele>
        <time>2015-03-22T10:19:48Z</time>
      </trkpt>
      <trkpt lat="49.31346" lon="0.95556">
        <ele>134</ele>
        <time>2015-03-22T10:19:50Z</time>
      </trkpt>
      <trkpt lat="49.31349" lon="0.95546">
        <ele>133</ele>
        <time>2015-03-22T10:19:52Z</time>
      </trkpt>
      <trkpt lat="49.31353" lon="0.95537">
        <ele>133</ele>
        <time>2015-03-22T10:19:54Z</time>
      </trkpt>
      <trkpt lat="49.31354" lon="0.95525">
        <ele>133</ele>
        <time>2015-03-22T10:19:56Z</time>
      </trkpt>
      <trkpt lat="49.31356" lon="0.95515">
        <ele>133</ele>
        <time>2015-03-22T10:19:58Z</time>
      </trkpt>
      <trkpt lat="49.31357" lon="0.95502">
        <ele>133</ele>
        <time>2015-03-22T10:20:00Z</time>
      </trkpt>
      <trkpt lat="49.3136" lon="0.9549">
        <ele>133</ele>
        <time>2015-03-22T10:20:02Z</time>
      </trkpt>
      <trkpt lat="49.31364" lon="0.9548">
        <ele>133</ele>
        <time>2015-03-22T10:20:04Z</time>
      </trkpt>
      <trkpt lat="49.31369" lon="0.95469">
        <ele>133</ele>
        <time>2015-03-22T10:20:06Z</time>
      </trkpt>
      <trkpt lat="49.31375" lon="0.95457">
        <ele>133</ele>
        <time>2015-03-22T10:20:08Z</time>
      </trkpt>
      <trkpt lat="49.3138" lon="0.95442">
        <ele>133</ele>
        <time>2015-03-22T10:20:10Z</time>
      </trkpt>
      <trkpt lat="49.31386" lon="0.95427">
        <ele>133</ele>
        <time>2015-03-22T10:20:12Z</time>
      </trkpt>
      <trkpt lat="49.31391" lon="0.95414">
        <ele>133</ele>
        <time>2015-03-22T10:20:14Z</time>
      </trkpt>
      <trkpt lat="49.31396" lon="0.954">
        <ele>133</ele>
        <time>2015-03-22T10:20:16Z</time>
      </trkpt>
      <trkpt lat="49.314" lon="0.95385">
        <ele>133</ele>
        <time>2015-03-22T10:20:18Z</time>
      </trkpt>
      <trkpt lat="49.31406" lon="0.95368">
        <ele>133</ele>
        <time>2015-03-22T10:20:20Z</time>
      </trkpt>
      <trkpt lat="49.31411" lon="0.95353">
        <ele>133</ele>
        <time>2015-03-22T10:20:22Z</time>
      </trkpt>
      <trkpt lat="49.31415" lon="0.95339">
        <ele>133</ele>
        <time>2015-03-22T10:20:24Z</time>
      </trkpt>
      <trkpt lat="49.3142" lon="0.95325">
        <ele>132</ele>
        <time>2015-03-22T10:20:26Z</time>
      </trkpt>
      <trkpt lat="49.31424" lon="0.95308">
        <ele>132</ele>
        <time>2015-03-22T10:20:28Z</time>
      </trkpt>
      <trkpt lat="49.31429" lon="0.95294">
        <ele>131</ele>
        <time>2015-03-22T10:20:30Z</time>
      </trkpt>
      <trkpt lat="49.31434" lon="0.95282">
        <ele>131</ele>
        <time>2015-03-22T10:20:32Z</time>
      </trkpt>
      <trkpt lat="49.3144" lon="0.9527">
        <ele>131</ele>
        <time>2015-03-22T10:20:34Z</time>
      </trkpt>
      <trkpt lat="49.31447" lon="0.95257">
        <ele>131</ele>
        <time>2015-03-22T10:20:36Z</time>
      </trkpt>
      <trkpt lat="49.31455" lon="0.95247">
        <ele>131</ele>
        <time>2015-03-22T10:20:38Z</time>
      </trkpt>
      <trkpt lat="49.31463" lon="0.95239">
        <ele>131</ele>
        <time>2015-03-22T10:20:40Z</time>
      </trkpt>
      <trkpt lat="49.31471" lon="0.9523">
        <ele>131</ele>
        <time>2015-03-22T10:20:42Z</time>
      </trkpt>
      <trkpt lat="49.31479" lon="0.9522">
        <ele>131</ele>
        <time>2015-03-22T10:20:44Z</time>
      </trkpt>
      <trkpt lat="49.31487" lon="0.95212">
        <ele>131</ele>
        <time>2015-03-22T10:20:46Z</time>
      </trkpt>
      <trkpt lat="49.31493" lon="0.95202">
        <ele>131</ele>
        <time>2015-03-22T10:20:48Z</time>
      </trkpt>
      <trkpt lat="49.31501" lon="0.95193">
        <ele>128</ele>
        <time>2015-03-22T10:20:50Z</time>
      </trkpt>
      <trkpt lat="49.31508" lon="0.95182">
        <ele>129</ele>
        <time>2015-03-22T10:20:52Z</time>
      </trkpt>
      <trkpt lat="49.31515" lon="0.95172">
        <ele>129</ele>
        <time>2015-03-22T10:20:54Z</time>
      </trkpt>
      <trkpt lat="49.3152" lon="0.95163">
        <ele>129</ele>
        <time>2015-03-22T10:20:56Z</time>
      </trkpt>
      <trkpt lat="49.31526" lon="0.95152">
        <ele>129</ele>
        <time>2015-03-22T10:20:58Z</time>
      </trkpt>
      <trkpt lat="49.3153" lon="0.9514">
        <ele>129</ele>
        <time>2015-03-22T10:21:00Z</time>
      </trkpt>
      <trkpt lat="49.31533" lon="0.9513">
        <ele>129</ele>
        <time>2015-03-22T10:21:02Z</time>
      </trkpt>
      <trkpt lat="49.31536" lon="0.95116">
        <ele>129</ele>
        <time>2015-03-22T10:21:04Z</time>
      </trkpt>
      <trkpt lat="49.31541" lon="0.95104">
        <ele>129</ele>
        <time>2015-03-22T10:21:06Z</time>
      </trkpt>
      <trkpt lat="49.31544" lon="0.95091">
        <ele>129</ele>
        <time>2015-03-22T10:21:08Z</time>
      </trkpt>
      <trkpt lat="49.31552" lon="0.9508">
        <ele>129</ele>
        <time>2015-03-22T10:21:12Z</time>
      </trkpt>
      <trkpt lat="49.31554" lon="0.95072">
        <ele>129</ele>
        <time>2015-03-22T10:21:14Z</time>
      </trkpt>
      <trkpt lat="49.31555" lon="0.95065">
        <ele>129</ele>
        <time>2015-03-22T10:21:16Z</time>
      </trkpt>
      <trkpt lat="49.31561" lon="0.95056">
        <ele>128</ele>
        <time>2015-03-22T10:21:18Z</time>
      </trkpt>
      <trkpt lat="49.31567" lon="0.95048">
        <ele>128</ele>
        <time>2015-03-22T10:21:20Z</time>
      </trkpt>
      <trkpt lat="49.31572" lon="0.95037">
        <ele>128</ele>
        <time>2015-03-22T10:21:22Z</time>
      </trkpt>
      <trkpt lat="49.31577" lon="0.95025">
        <ele>127</ele>
        <time>2015-03-22T10:21:24Z</time>
      </trkpt>
      <trkpt lat="49.3158" lon="0.95009">
        <ele>126</ele>
        <time>2015-03-22T10:21:26Z</time>
      </trkpt>
      <trkpt lat="49.31584" lon="0.94992">
        <ele>124</ele>
        <time>2015-03-22T10:21:28Z</time>
      </trkpt>
      <trkpt lat="49.31588" lon="0.94976">
        <ele>123</ele>
        <time>2015-03-22T10:21:30Z</time>
      </trkpt>
      <trkpt lat="49.31592" lon="0.94968">
        <ele>123</ele>
        <time>2015-03-22T10:21:32Z</time>
      </trkpt>
      <trkpt lat="49.316" lon="0.94967">
        <ele>123</ele>
        <time>2015-03-22T10:21:34Z</time>
      </trkpt>
      <trkpt lat="49.31607" lon="0.94966">
        <ele>123</ele>
        <time>2015-03-22T10:21:36Z</time>
      </trkpt>
      <trkpt lat="49.31614" lon="0.94956">
        <ele>123</ele>
        <time>2015-03-22T10:21:38Z</time>
      </trkpt>
      <trkpt lat="49.31623" lon="0.94946">
        <ele>122</ele>
        <time>2015-03-22T10:21:40Z</time>
      </trkpt>
      <trkpt lat="49.31631" lon="0.94936">
        <ele>122</ele>
        <time>2015-03-22T10:21:42Z</time>
      </trkpt>
      <trkpt lat="49.31641" lon="0.94927">
        <ele>122</ele>
        <time>2015-03-22T10:21:44Z</time>
      </trkpt>
      <trkpt lat="49.31649" lon="0.94918">
        <ele>122</ele>
        <time>2015-03-22T10:21:46Z</time>
      </trkpt>
      <trkpt lat="49.31657" lon="0.94909">
        <ele>121</ele>
        <time>2015-03-22T10:21:48Z</time>
      </trkpt>
      <trkpt lat="49.31666" lon="0.94898">
        <ele>121</ele>
        <time>2015-03-22T10:21:50Z</time>
      </trkpt>
      <trkpt lat="49.31675" lon="0.94887">
        <ele>120</ele>
        <time>2015-03-22T10:21:52Z</time>
      </trkpt>
      <trkpt lat="49.31684" lon="0.94877">
        <ele>120</ele>
        <time>2015-03-22T10:21:54Z</time>
      </trkpt>
      <trkpt lat="49.31693" lon="0.94866">
        <ele>120</ele>
        <time>2015-03-22T10:21:56Z</time>
      </trkpt>
      <trkpt lat="49.31702" lon="0.94855">
        <ele>119</ele>
        <time>2015-03-22T10:21:58Z</time>
      </trkpt>
      <trkpt lat="49.31712" lon="0.94844">
        <ele>119</ele>
        <time>2015-03-22T10:22:00Z</time>
      </trkpt>
      <trkpt lat="49.3172" lon="0.94835">
        <ele>119</ele>
        <time>2015-03-22T10:22:02Z</time>
      </trkpt>
      <trkpt lat="49.31727" lon="0.94825">
        <ele>121</ele>
        <time>2015-03-22T10:22:04Z</time>
      </trkpt>
      <trkpt lat="49.31735" lon="0.94814">
        <ele>121</ele>
        <time>2015-03-22T10:22:06Z</time>
      </trkpt>
      <trkpt lat="49.31741" lon="0.94802">
        <ele>122</ele>
        <time>2015-03-22T10:22:08Z</time>
      </trkpt>
      <trkpt lat="49.31747" lon="0.94791">
        <ele>123</ele>
        <time>2015-03-22T10:22:10Z</time>
      </trkpt>
      <trkpt lat="49.31753" lon="0.94783">
        <ele>122</ele>
        <time>2015-03-22T10:22:12Z</time>
      </trkpt>
      <trkpt lat="49.31759" lon="0.94773">
        <ele>122</ele>
        <time>2015-03-22T10:22:14Z</time>
      </trkpt>
      <trkpt lat="49.31768" lon="0.94764">
        <ele>123</ele>
        <time>2015-03-22T10:22:16Z</time>
      </trkpt>
      <trkpt lat="49.31776" lon="0.94755">
        <ele>122</ele>
        <time>2015-03-22T10:22:18Z</time>
      </trkpt>
      <trkpt lat="49.31784" lon="0.94745">
        <ele>125</ele>
        <time>2015-03-22T10:22:20Z</time>
      </trkpt>
      <trkpt lat="49.31793" lon="0.94733">
        <ele>125</ele>
        <time>2015-03-22T10:22:22Z</time>
      </trkpt>
      <trkpt lat="49.31802" lon="0.94721">
        <ele>125</ele>
        <time>2015-03-22T10:22:24Z</time>
      </trkpt>
      <trkpt lat="49.3181" lon="0.94708">
        <ele>125</ele>
        <time>2015-03-22T10:22:26Z</time>
      </trkpt>
      <trkpt lat="49.31817" lon="0.94696">
        <ele>126</ele>
        <time>2015-03-22T10:22:28Z</time>
      </trkpt>
      <trkpt lat="49.31823" lon="0.94683">
        <ele>126</ele>
        <time>2015-03-22T10:22:30Z</time>
      </trkpt>
      <trkpt lat="49.31829" lon="0.94674">
        <ele>125</ele>
        <time>2015-03-22T10:22:32Z</time>
      </trkpt>
      <trkpt lat="49.31835" lon="0.94665">
        <ele>125</ele>
        <time>2015-03-22T10:22:34Z</time>
      </trkpt>
      <trkpt lat="49.3184" lon="0.94654">
        <ele>125</ele>
        <time>2015-03-22T10:22:36Z</time>
      </trkpt>
      <trkpt lat="49.31846" lon="0.94643">
        <ele>125</ele>
        <time>2015-03-22T10:22:38Z</time>
      </trkpt>
      <trkpt lat="49.31849" lon="0.9463">
        <ele>125</ele>
        <time>2015-03-22T10:22:40Z</time>
      </trkpt>
      <trkpt lat="49.31846" lon="0.94617">
        <ele>125</ele>
        <time>2015-03-22T10:22:42Z</time>
      </trkpt>
      <trkpt lat="49.31839" lon="0.94611">
        <ele>126</ele>
        <time>2015-03-22T10:22:44Z</time>
      </trkpt>
      <trkpt lat="49.3183" lon="0.94609">
        <ele>129</ele>
        <time>2015-03-22T10:22:46Z</time>
      </trkpt>
      <trkpt lat="49.3182" lon="0.94608">
        <ele>129</ele>
        <time>2015-03-22T10:22:48Z</time>
      </trkpt>
      <trkpt lat="49.3181" lon="0.94605">
        <ele>130</ele>
        <time>2015-03-22T10:22:50Z</time>
      </trkpt>
      <trkpt lat="49.31801" lon="0.94602">
        <ele>130</ele>
        <time>2015-03-22T10:22:52Z</time>
      </trkpt>
      <trkpt lat="49.31791" lon="0.94603">
        <ele>131</ele>
        <time>2015-03-22T10:22:54Z</time>
      </trkpt>
      <trkpt lat="49.31781" lon="0.94606">
        <ele>131</ele>
        <time>2015-03-22T10:22:56Z</time>
      </trkpt>
      <trkpt lat="49.31772" lon="0.9461">
        <ele>131</ele>
        <time>2015-03-22T10:22:58Z</time>
      </trkpt>
      <trkpt lat="49.31762" lon="0.94613">
        <ele>132</ele>
        <time>2015-03-22T10:23:00Z</time>
      </trkpt>
      <trkpt lat="49.31753" lon="0.94614">
        <ele>132</ele>
        <time>2015-03-22T10:23:02Z</time>
      </trkpt>
      <trkpt lat="49.31744" lon="0.94614">
        <ele>135</ele>
        <time>2015-03-22T10:23:04Z</time>
      </trkpt>
      <trkpt lat="49.31736" lon="0.94614">
        <ele>135</ele>
        <time>2015-03-22T10:23:06Z</time>
      </trkpt>
      <trkpt lat="49.31728" lon="0.94613">
        <ele>135</ele>
        <time>2015-03-22T10:23:08Z</time>
      </trkpt>
      <trkpt lat="49.31719" lon="0.94612">
        <ele>135</ele>
        <time>2015-03-22T10:23:10Z</time>
      </trkpt>
      <trkpt lat="49.31711" lon="0.94611">
        <ele>135</ele>
        <time>2015-03-22T10:23:12Z</time>
      </trkpt>
      <trkpt lat="49.31703" lon="0.9461">
        <ele>135</ele>
        <time>2015-03-22T10:23:14Z</time>
      </trkpt>
      <trkpt lat="49.31694" lon="0.94609">
        <ele>136</ele>
        <time>2015-03-22T10:23:16Z</time>
      </trkpt>
      <trkpt lat="49.31686" lon="0.94606">
        <ele>136</ele>
        <time>2015-03-22T10:23:18Z</time>
      </trkpt>
      <trkpt lat="49.31678" lon="0.94602">
        <ele>136</ele>
        <time>2015-03-22T10:23:20Z</time>
      </trkpt>
      <trkpt lat="49.31671" lon="0.94597">
        <ele>136</ele>
        <time>2015-03-22T10:23:22Z</time>
      </trkpt>
      <trkpt lat="49.31663" lon="0.94593">
        <ele>137</ele>
        <time>2015-03-22T10:23:24Z</time>
      </trkpt>
      <trkpt lat="49.31655" lon="0.9459">
        <ele>137</ele>
        <time>2015-03-22T10:23:26Z</time>
      </trkpt>
      <trkpt lat="49.31646" lon="0.94585">
        <ele>138</ele>
        <time>2015-03-22T10:23:28Z</time>
      </trkpt>
      <trkpt lat="49.31637" lon="0.9458">
        <ele>138</ele>
        <time>2015-03-22T10:23:30Z</time>
      </trkpt>
      <trkpt lat="49.31629" lon="0.94576">
        <ele>139</ele>
        <time>2015-03-22T10:23:32Z</time>
      </trkpt>
      <trkpt lat="49.31622" lon="0.94571">
        <ele>139</ele>
        <time>2015-03-22T10:23:34Z</time>
      </trkpt>
      <trkpt lat="49.31614" lon="0.94565">
        <ele>139</ele>
        <time>2015-03-22T10:23:36Z</time>
      </trkpt>
      <trkpt lat="49.31607" lon="0.94558">
        <ele>139</ele>
        <time>2015-03-22T10:23:38Z</time>
      </trkpt>
      <trkpt lat="49.31601" lon="0.94553">
        <ele>139</ele>
        <time>2015-03-22T10:23:40Z</time>
      </trkpt>
      <trkpt lat="49.31592" lon="0.94547">
        <ele>139</ele>
        <time>2015-03-22T10:23:42Z</time>
      </trkpt>
      <trkpt lat="49.31584" lon="0.94542">
        <ele>139</ele>
        <time>2015-03-22T10:23:44Z</time>
      </trkpt>
      <trkpt lat="49.31576" lon="0.94538">
        <ele>139</ele>
        <time>2015-03-22T10:23:46Z</time>
      </trkpt>
      <trkpt lat="49.31569" lon="0.94534">
        <ele>139</ele>
        <time>2015-03-22T10:23:48Z</time>
      </trkpt>
      <trkpt lat="49.31561" lon="0.94529">
        <ele>139</ele>
        <time>2015-03-22T10:23:50Z</time>
      </trkpt>
      <trkpt lat="49.31551" lon="0.94524">
        <ele>138</ele>
        <time>2015-03-22T10:23:52Z</time>
      </trkpt>
      <trkpt lat="49.31542" lon="0.94519">
        <ele>138</ele>
        <time>2015-03-22T10:23:54Z</time>
      </trkpt>
      <trkpt lat="49.3153" lon="0.94514">
        <ele>138</ele>
        <time>2015-03-22T10:23:56Z</time>
      </trkpt>
      <trkpt lat="49.31519" lon="0.94509">
        <ele>137</ele>
        <time>2015-03-22T10:23:58Z</time>
      </trkpt>
      <trkpt lat="49.31511" lon="0.94506">
        <ele>137</ele>
        <time>2015-03-22T10:24:00Z</time>
      </trkpt>
      <trkpt lat="49.31502" lon="0.94503">
        <ele>136</ele>
        <time>2015-03-22T10:24:02Z</time>
      </trkpt>
      <trkpt lat="49.31492" lon="0.94499">
        <ele>136</ele>
        <time>2015-03-22T10:24:04Z</time>
      </trkpt>
      <trkpt lat="49.31482" lon="0.94497">
        <ele>135</ele>
        <time>2015-03-22T10:24:06Z</time>
      </trkpt>
      <trkpt lat="49.31472" lon="0.94491">
        <ele>135</ele>
        <time>2015-03-22T10:24:08Z</time>
      </trkpt>
      <trkpt lat="49.31462" lon="0.94486">
        <ele>135</ele>
        <time>2015-03-22T10:24:10Z</time>
      </trkpt>
      <trkpt lat="49.31454" lon="0.94481">
        <ele>135</ele>
        <time>2015-03-22T10:24:12Z</time>
      </trkpt>
      <trkpt lat="49.31446" lon="0.94474">
        <ele>135</ele>
        <time>2015-03-22T10:24:14Z</time>
      </trkpt>
      <trkpt lat="49.31444" lon="0.94461">
        <ele>135</ele>
        <time>2015-03-22T10:24:16Z</time>
      </trkpt>
      <trkpt lat="49.31445" lon="0.94448">
        <ele>135</ele>
        <time>2015-03-22T10:24:18Z</time>
      </trkpt>
      <trkpt lat="49.31445" lon="0.94433">
        <ele>135</ele>
        <time>2015-03-22T10:24:20Z</time>
      </trkpt>
      <trkpt lat="49.31445" lon="0.94417">
        <ele>135</ele>
        <time>2015-03-22T10:24:22Z</time>
      </trkpt>
      <trkpt lat="49.31444" lon="0.94403">
        <ele>133</ele>
        <time>2015-03-22T10:24:24Z</time>
      </trkpt>
      <trkpt lat="49.31441" lon="0.94392">
        <ele>133</ele>
        <time>2015-03-22T10:24:26Z</time>
      </trkpt>
      <trkpt lat="49.31438" lon="0.94379">
        <ele>133</ele>
        <time>2015-03-22T10:24:28Z</time>
      </trkpt>
      <trkpt lat="49.31439" lon="0.94367">
        <ele>132</ele>
        <time>2015-03-22T10:24:30Z</time>
      </trkpt>
      <trkpt lat="49.3144" lon="0.94352">
        <ele>132</ele>
        <time>2015-03-22T10:24:32Z</time>
      </trkpt>
      <trkpt lat="49.3144" lon="0.94338">
        <ele>131</ele>
        <time>2015-03-22T10:24:34Z</time>
      </trkpt>
      <trkpt lat="49.31444" lon="0.94326">
        <ele>127</ele>
        <time>2015-03-22T10:24:36Z</time>
      </trkpt>
      <trkpt lat="49.31447" lon="0.94309">
        <ele>126</ele>
        <time>2015-03-22T10:24:38Z</time>
      </trkpt>
      <trkpt lat="49.31443" lon="0.94293">
        <ele>124</ele>
        <time>2015-03-22T10:24:40Z</time>
      </trkpt>
      <trkpt lat="49.31429" lon="0.94283">
        <ele>123</ele>
        <time>2015-03-22T10:24:42Z</time>
      </trkpt>
      <trkpt lat="49.31412" lon="0.94271">
        <ele>123</ele>
        <time>2015-03-22T10:24:44Z</time>
      </trkpt>
      <trkpt lat="49.31396" lon="0.94259">
        <ele>123</ele>
        <time>2015-03-22T10:24:46Z</time>
      </trkpt>
      <trkpt lat="49.31381" lon="0.94247">
        <ele>120</ele>
        <time>2015-03-22T10:24:48Z</time>
      </trkpt>
      <trkpt lat="49.31366" lon="0.94236">
        <ele>120</ele>
        <time>2015-03-22T10:24:50Z</time>
      </trkpt>
      <trkpt lat="49.3135" lon="0.94223">
        <ele>120</ele>
        <time>2015-03-22T10:24:52Z</time>
      </trkpt>
      <trkpt lat="49.31337" lon="0.94212">
        <ele>120</ele>
        <time>2015-03-22T10:24:54Z</time>
      </trkpt>
      <trkpt lat="49.3133" lon="0.94203">
        <ele>118</ele>
        <time>2015-03-22T10:24:56Z</time>
      </trkpt>
      <trkpt lat="49.31328" lon="0.94189">
        <ele>118</ele>
        <time>2015-03-22T10:24:58Z</time>
      </trkpt>
      <trkpt lat="49.31327" lon="0.94178">
        <ele>117</ele>
        <time>2015-03-22T10:25:00Z</time>
      </trkpt>
      <trkpt lat="49.31326" lon="0.94162">
        <ele>117</ele>
        <time>2015-03-22T10:25:04Z</time>
      </trkpt>
      <trkpt lat="49.31322" lon="0.94153">
        <ele>117</ele>
        <time>2015-03-22T10:25:06Z</time>
      </trkpt>
      <trkpt lat="49.3132" lon="0.94142">
        <ele>118</ele>
        <time>2015-03-22T10:25:08Z</time>
      </trkpt>
      <trkpt lat="49.31316" lon="0.94135">
        <ele>118</ele>
        <time>2015-03-22T10:25:10Z</time>
      </trkpt>
      <trkpt lat="49.31312" lon="0.94132">
        <ele>118</ele>
        <time>2015-03-22T10:25:12Z</time>
      </trkpt>
      <trkpt lat="49.31307" lon="0.94126">
        <ele>118</ele>
        <time>2015-03-22T10:25:14Z</time>
      </trkpt>
      <trkpt lat="49.31302" lon="0.94122">
        <ele>118</ele>
        <time>2015-03-22T10:25:16Z</time>
      </trkpt>
      <trkpt lat="49.31296" lon="0.94123">
        <ele>118</ele>
        <time>2015-03-22T10:25:20Z</time>
      </trkpt>
      <trkpt lat="49.31287" lon="0.94125">
        <ele>118</ele>
        <time>2015-03-22T10:25:24Z</time>
      </trkpt>
      <trkpt lat="49.31282" lon="0.94122">
        <ele>118</ele>
        <time>2015-03-22T10:25:26Z</time>
      </trkpt>
      <trkpt lat="49.31276" lon="0.94115">
        <ele>118</ele>
        <time>2015-03-22T10:25:28Z</time>
      </trkpt>
      <trkpt lat="49.31272" lon="0.94111">
        <ele>118</ele>
        <time>2015-03-22T10:25:30Z</time>
      </trkpt>
      <trkpt lat="49.3127" lon="0.94103">
        <ele>118</ele>
        <time>2015-03-22T10:25:32Z</time>
      </trkpt>
      <trkpt lat="49.31268" lon="0.94097">
        <ele>119</ele>
        <time>2015-03-22T10:25:34Z</time>
      </trkpt>
      <trkpt lat="49.31263" lon="0.94091">
        <ele>119</ele>
        <time>2015-03-22T10:25:36Z</time>
      </trkpt>
      <trkpt lat="49.31258" lon="0.94086">
        <ele>119</ele>
        <time>2015-03-22T10:25:38Z</time>
      </trkpt>
      <trkpt lat="49.31254" lon="0.9408">
        <ele>120</ele>
        <time>2015-03-22T10:25:40Z</time>
      </trkpt>
      <trkpt lat="49.31249" lon="0.94073">
        <ele>119</ele>
        <time>2015-03-22T10:25:42Z</time>
      </trkpt>
      <trkpt lat="49.31248" lon="0.94062">
        <ele>119</ele>
        <time>2015-03-22T10:25:44Z</time>
      </trkpt>
      <trkpt lat="49.31245" lon="0.94051">
        <ele>120</ele>
        <time>2015-03-22T10:25:46Z</time>
      </trkpt>
      <trkpt lat="49.31246" lon="0.94041">
        <ele>120</ele>
        <time>2015-03-22T10:25:48Z</time>
      </trkpt>
      <trkpt lat="49.31244" lon="0.94031">
        <ele>120</ele>
        <time>2015-03-22T10:25:50Z</time>
      </trkpt>
      <trkpt lat="49.31242" lon="0.94025">
        <ele>121</ele>
        <time>2015-03-22T10:25:52Z</time>
      </trkpt>
      <trkpt lat="49.3124" lon="0.94018">
        <ele>121</ele>
        <time>2015-03-22T10:25:54Z</time>
      </trkpt>
      <trkpt lat="49.31241" lon="0.94008">
        <ele>122</ele>
        <time>2015-03-22T10:25:56Z</time>
      </trkpt>
      <trkpt lat="49.31244" lon="0.93996">
        <ele>123</ele>
        <time>2015-03-22T10:26:00Z</time>
      </trkpt>
      <trkpt lat="49.3124" lon="0.93985">
        <ele>123</ele>
        <time>2015-03-22T10:26:02Z</time>
      </trkpt>
      <trkpt lat="49.31237" lon="0.93977">
        <ele>123</ele>
        <time>2015-03-22T10:26:04Z</time>
      </trkpt>
      <trkpt lat="49.31234" lon="0.93967">
        <ele>123</ele>
        <time>2015-03-22T10:26:06Z</time>
      </trkpt>
      <trkpt lat="49.31232" lon="0.93956">
        <ele>123</ele>
        <time>2015-03-22T10:26:08Z</time>
      </trkpt>
      <trkpt lat="49.3123" lon="0.93947">
        <ele>123</ele>
        <time>2015-03-22T10:26:10Z</time>
      </trkpt>
      <trkpt lat="49.31228" lon="0.93938">
        <ele>123</ele>
        <time>2015-03-22T10:26:12Z</time>
      </trkpt>
      <trkpt lat="49.31227" lon="0.93928">
        <ele>123</ele>
        <time>2015-03-22T10:26:14Z</time>
      </trkpt>
      <trkpt lat="49.31227" lon="0.93917">
        <ele>124</ele>
        <time>2015-03-22T10:26:16Z</time>
      </trkpt>
      <trkpt lat="49.31226" lon="0.93907">
        <ele>124</ele>
        <time>2015-03-22T10:26:18Z</time>
      </trkpt>
      <trkpt lat="49.31225" lon="0.93896">
        <ele>124</ele>
        <time>2015-03-22T10:26:20Z</time>
      </trkpt>
      <trkpt lat="49.31224" lon="0.93885">
        <ele>124</ele>
        <time>2015-03-22T10:26:22Z</time>
      </trkpt>
      <trkpt lat="49.31223" lon="0.93872">
        <ele>124</ele>
        <time>2015-03-22T10:26:24Z</time>
      </trkpt>
      <trkpt lat="49.31221" lon="0.93857">
        <ele>124</ele>
        <time>2015-03-22T10:26:26Z</time>
      </trkpt>
      <trkpt lat="49.3122" lon="0.93848">
        <ele>124</ele>
        <time>2015-03-22T10:26:28Z</time>
      </trkpt>
      <trkpt lat="49.3122" lon="0.93837">
        <ele>124</ele>
        <time>2015-03-22T10:26:30Z</time>
      </trkpt>
      <trkpt lat="49.31219" lon="0.93825">
        <ele>125</ele>
        <time>2015-03-22T10:26:32Z</time>
      </trkpt>
      <trkpt lat="49.31217" lon="0.93812">
        <ele>125</ele>
        <time>2015-03-22T10:26:34Z</time>
      </trkpt>
      <trkpt lat="49.31217" lon="0.93801">
        <ele>125</ele>
        <time>2015-03-22T10:26:36Z</time>
      </trkpt>
      <trkpt lat="49.31215" lon="0.93792">
        <ele>125</ele>
        <time>2015-03-22T10:26:38Z</time>
      </trkpt>
      <trkpt lat="49.31213" lon="0.93779">
        <ele>125</ele>
        <time>2015-03-22T10:26:40Z</time>
      </trkpt>
      <trkpt lat="49.31212" lon="0.93769">
        <ele>125</ele>
        <time>2015-03-22T10:26:42Z</time>
      </trkpt>
      <trkpt lat="49.3121" lon="0.93758">
        <ele>125</ele>
        <time>2015-03-22T10:26:44Z</time>
      </trkpt>
      <trkpt lat="49.31208" lon="0.93748">
        <ele>126</ele>
        <time>2015-03-22T10:26:46Z</time>
      </trkpt>
      <trkpt lat="49.31206" lon="0.9374">
        <ele>126</ele>
        <time>2015-03-22T10:26:48Z</time>
      </trkpt>
      <trkpt lat="49.31204" lon="0.93728">
        <ele>126</ele>
        <time>2015-03-22T10:26:50Z</time>
      </trkpt>
      <trkpt lat="49.31205" lon="0.93718">
        <ele>126</ele>
        <time>2015-03-22T10:26:52Z</time>
      </trkpt>
      <trkpt lat="49.31206" lon="0.93708">
        <ele>126</ele>
        <time>2015-03-22T10:26:54Z</time>
      </trkpt>
      <trkpt lat="49.31204" lon="0.93695">
        <ele>126</ele>
        <time>2015-03-22T10:26:56Z</time>
      </trkpt>
      <trkpt lat="49.31202" lon="0.93686">
        <ele>126</ele>
        <time>2015-03-22T10:26:58Z</time>
      </trkpt>
      <trkpt lat="49.31201" lon="0.93671">
        <ele>126</ele>
        <time>2015-03-22T10:27:00Z</time>
      </trkpt>
      <trkpt lat="49.31198" lon="0.93656">
        <ele>126</ele>
        <time>2015-03-22T10:27:02Z</time>
      </trkpt>
      <trkpt lat="49.31194" lon="0.93646">
        <ele>126</ele>
        <time>2015-03-22T10:27:04Z</time>
      </trkpt>
      <trkpt lat="49.31191" lon="0.93634">
        <ele>126</ele>
        <time>2015-03-22T10:27:06Z</time>
      </trkpt>
      <trkpt lat="49.3119" lon="0.93622">
        <ele>126</ele>
        <time>2015-03-22T10:27:08Z</time>
      </trkpt>
      <trkpt lat="49.31189" lon="0.93609">
        <ele>127</ele>
        <time>2015-03-22T10:27:10Z</time>
      </trkpt>
      <trkpt lat="49.31187" lon="0.93595">
        <ele>127</ele>
        <time>2015-03-22T10:27:12Z</time>
      </trkpt>
      <trkpt lat="49.31188" lon="0.93578">
        <ele>127</ele>
        <time>2015-03-22T10:27:14Z</time>
      </trkpt>
      <trkpt lat="49.31185" lon="0.93563">
        <ele>127</ele>
        <time>2015-03-22T10:27:16Z</time>
      </trkpt>
      <trkpt lat="49.31184" lon="0.93549">
        <ele>128</ele>
        <time>2015-03-22T10:27:18Z</time>
      </trkpt>
      <trkpt lat="49.31182" lon="0.93533">
        <ele>128</ele>
        <time>2015-03-22T10:27:20Z</time>
      </trkpt>
      <trkpt lat="49.31178" lon="0.9352">
        <ele>128</ele>
        <time>2015-03-22T10:27:22Z</time>
      </trkpt>
      <trkpt lat="49.31174" lon="0.9351">
        <ele>128</ele>
        <time>2015-03-22T10:27:24Z</time>
      </trkpt>
      <trkpt lat="49.3117" lon="0.93499">
        <ele>128</ele>
        <time>2015-03-22T10:27:26Z</time>
      </trkpt>
      <trkpt lat="49.3117" lon="0.93485">
        <ele>129</ele>
        <time>2015-03-22T10:27:28Z</time>
      </trkpt>
      <trkpt lat="49.31167" lon="0.93473">
        <ele>129</ele>
        <time>2015-03-22T10:27:30Z</time>
      </trkpt>
      <trkpt lat="49.31164" lon="0.9346">
        <ele>127</ele>
        <time>2015-03-22T10:27:32Z</time>
      </trkpt>
      <trkpt lat="49.31161" lon="0.93448">
        <ele>127</ele>
        <time>2015-03-22T10:27:34Z</time>
      </trkpt>
      <trkpt lat="49.3116" lon="0.93435">
        <ele>127</ele>
        <time>2015-03-22T10:27:36Z</time>
      </trkpt>
      <trkpt lat="49.31156" lon="0.93425">
        <ele>128</ele>
        <time>2015-03-22T10:27:38Z</time>
      </trkpt>
      <trkpt lat="49.31153" lon="0.93413">
        <ele>128</ele>
        <time>2015-03-22T10:27:40Z</time>
      </trkpt>
      <trkpt lat="49.31148" lon="0.93401">
        <ele>128</ele>
        <time>2015-03-22T10:27:42Z</time>
      </trkpt>
      <trkpt lat="49.31145" lon="0.93389">
        <ele>128</ele>
        <time>2015-03-22T10:27:44Z</time>
      </trkpt>
      <trkpt lat="49.31143" lon="0.93379">
        <ele>128</ele>
        <time>2015-03-22T10:27:46Z</time>
      </trkpt>
      <trkpt lat="49.31141" lon="0.93369">
        <ele>128</ele>
        <time>2015-03-22T10:27:48Z</time>
      </trkpt>
      <trkpt lat="49.3114" lon="0.9336">
        <ele>129</ele>
        <time>2015-03-22T10:27:50Z</time>
      </trkpt>
      <trkpt lat="49.31141" lon="0.9335">
        <ele>129</ele>
        <time>2015-03-22T10:27:52Z</time>
      </trkpt>
      <trkpt lat="49.3114" lon="0.93341">
        <ele>129</ele>
        <time>2015-03-22T10:27:54Z</time>
      </trkpt>
      <trkpt lat="49.31134" lon="0.93332">
        <ele>130</ele>
        <time>2015-03-22T10:27:56Z</time>
      </trkpt>
      <trkpt lat="49.31132" lon="0.93323">
        <ele>130</ele>
        <time>2015-03-22T10:27:58Z</time>
      </trkpt>
      <trkpt lat="49.3113" lon="0.93315">
        <ele>129</ele>
        <time>2015-03-22T10:28:00Z</time>
      </trkpt>
      <trkpt lat="49.31127" lon="0.93306">
        <ele>129</ele>
        <time>2015-03-22T10:28:02Z</time>
      </trkpt>
      <trkpt lat="49.31127" lon="0.93298">
        <ele>129</ele>
        <time>2015-03-22T10:28:04Z</time>
      </trkpt>
      <trkpt lat="49.31125" lon="0.93288">
        <ele>129</ele>
        <time>2015-03-22T10:28:06Z</time>
      </trkpt>
      <trkpt lat="49.31124" lon="0.93279">
        <ele>129</ele>
        <time>2015-03-22T10:28:08Z</time>
      </trkpt>
      <trkpt lat="49.31123" lon="0.93268">
        <ele>129</ele>
        <time>2015-03-22T10:28:10Z</time>
      </trkpt>
      <trkpt lat="49.31121" lon="0.93255">
        <ele>129</ele>
        <time>2015-03-22T10:28:12Z</time>
      </trkpt>
      <trkpt lat="49.31119" lon="0.93242">
        <ele>130</ele>
        <time>2015-03-22T10:28:14Z</time>
      </trkpt>
      <trkpt lat="49.31116" lon="0.93229">
        <ele>130</ele>
        <time>2015-03-22T10:28:16Z</time>
      </trkpt>
      <trkpt lat="49.31114" lon="0.93218">
        <ele>130</ele>
        <time>2015-03-22T10:28:18Z</time>
      </trkpt>
      <trkpt lat="49.31112" lon="0.93208">
        <ele>130</ele>
        <time>2015-03-22T10:28:20Z</time>
      </trkpt>
      <trkpt lat="49.3111" lon="0.93199">
        <ele>130</ele>
        <time>2015-03-22T10:28:22Z</time>
      </trkpt>
      <trkpt lat="49.31107" lon="0.93186">
        <ele>130</ele>
        <time>2015-03-22T10:28:24Z</time>
      </trkpt>
      <trkpt lat="49.31106" lon="0.93173">
        <ele>130</ele>
        <time>2015-03-22T10:28:26Z</time>
      </trkpt>
      <trkpt lat="49.31105" lon="0.93162">
        <ele>130</ele>
        <time>2015-03-22T10:28:28Z</time>
      </trkpt>
      <trkpt lat="49.31106" lon="0.9315">
        <ele>131</ele>
        <time>2015-03-22T10:28:30Z</time>
      </trkpt>
      <trkpt lat="49.31106" lon="0.93135">
        <ele>131</ele>
        <time>2015-03-22T10:28:32Z</time>
      </trkpt>
      <trkpt lat="49.31107" lon="0.93124">
        <ele>131</ele>
        <time>2015-03-22T10:28:34Z</time>
      </trkpt>
      <trkpt lat="49.31105" lon="0.93111">
        <ele>131</ele>
        <time>2015-03-22T10:28:36Z</time>
      </trkpt>
      <trkpt lat="49.31104" lon="0.931">
        <ele>131</ele>
        <time>2015-03-22T10:28:38Z</time>
      </trkpt>
      <trkpt lat="49.31102" lon="0.93089">
        <ele>131</ele>
        <time>2015-03-22T10:28:40Z</time>
      </trkpt>
      <trkpt lat="49.311" lon="0.93079">
        <ele>131</ele>
        <time>2015-03-22T10:28:42Z</time>
      </trkpt>
      <trkpt lat="49.31097" lon="0.93065">
        <ele>131</ele>
        <time>2015-03-22T10:28:44Z</time>
      </trkpt>
      <trkpt lat="49.31094" lon="0.93051">
        <ele>131</ele>
        <time>2015-03-22T10:28:46Z</time>
      </trkpt>
      <trkpt lat="49.3109" lon="0.93035">
        <ele>131</ele>
        <time>2015-03-22T10:28:48Z</time>
      </trkpt>
      <trkpt lat="49.31085" lon="0.93019">
        <ele>131</ele>
        <time>2015-03-22T10:28:50Z</time>
      </trkpt>
      <trkpt lat="49.31081" lon="0.93007">
        <ele>130</ele>
        <time>2015-03-22T10:28:52Z</time>
      </trkpt>
      <trkpt lat="49.31076" lon="0.92993">
        <ele>130</ele>
        <time>2015-03-22T10:28:54Z</time>
      </trkpt>
      <trkpt lat="49.31073" lon="0.9298">
        <ele>129</ele>
        <time>2015-03-22T10:28:56Z</time>
      </trkpt>
      <trkpt lat="49.3107" lon="0.92967">
        <ele>129</ele>
        <time>2015-03-22T10:28:58Z</time>
      </trkpt>
      <trkpt lat="49.31067" lon="0.92953">
        <ele>129</ele>
        <time>2015-03-22T10:29:00Z</time>
      </trkpt>
      <trkpt lat="49.31065" lon="0.92938">
        <ele>129</ele>
        <time>2015-03-22T10:29:02Z</time>
      </trkpt>
      <trkpt lat="49.31061" lon="0.92922">
        <ele>129</ele>
        <time>2015-03-22T10:29:04Z</time>
      </trkpt>
      <trkpt lat="49.31057" lon="0.92909">
        <ele>129</ele>
        <time>2015-03-22T10:29:06Z</time>
      </trkpt>
      <trkpt lat="49.31053" lon="0.92896">
        <ele>129</ele>
        <time>2015-03-22T10:29:08Z</time>
      </trkpt>
      <trkpt lat="49.31049" lon="0.92882">
        <ele>129</ele>
        <time>2015-03-22T10:29:10Z</time>
      </trkpt>
      <trkpt lat="49.31047" lon="0.92868">
        <ele>129</ele>
        <time>2015-03-22T10:29:12Z</time>
      </trkpt>
      <trkpt lat="49.31044" lon="0.92854">
        <ele>129</ele>
        <time>2015-03-22T10:29:14Z</time>
      </trkpt>
      <trkpt lat="49.31042" lon="0.9284">
        <ele>129</ele>
        <time>2015-03-22T10:29:16Z</time>
      </trkpt>
      <trkpt lat="49.31039" lon="0.92826">
        <ele>128</ele>
        <time>2015-03-22T10:29:18Z</time>
      </trkpt>
      <trkpt lat="49.31037" lon="0.92811">
        <ele>127</ele>
        <time>2015-03-22T10:29:20Z</time>
      </trkpt>
      <trkpt lat="49.31035" lon="0.92797">
        <ele>127</ele>
        <time>2015-03-22T10:29:22Z</time>
      </trkpt>
      <trkpt lat="49.31032" lon="0.92783">
        <ele>126</ele>
        <time>2015-03-22T10:29:24Z</time>
      </trkpt>
      <trkpt lat="49.31032" lon="0.92772">
        <ele>126</ele>
        <time>2015-03-22T10:29:26Z</time>
      </trkpt>
      <trkpt lat="49.31031" lon="0.92758">
        <ele>126</ele>
        <time>2015-03-22T10:29:28Z</time>
      </trkpt>
      <trkpt lat="49.31028" lon="0.92746">
        <ele>123</ele>
        <time>2015-03-22T10:29:30Z</time>
      </trkpt>
      <trkpt lat="49.31022" lon="0.92741">
        <ele>123</ele>
        <time>2015-03-22T10:29:34Z</time>
      </trkpt>
      <trkpt lat="49.31015" lon="0.92743">
        <ele>123</ele>
        <time>2015-03-22T10:29:36Z</time>
      </trkpt>
      <trkpt lat="49.31008" lon="0.92745">
        <ele>123</ele>
        <time>2015-03-22T10:29:38Z</time>
      </trkpt>
      <trkpt lat="49.31" lon="0.92748">
        <ele>123</ele>
        <time>2015-03-22T10:29:40Z</time>
      </trkpt>
      <trkpt lat="49.30992" lon="0.9275">
        <ele>123</ele>
        <time>2015-03-22T10:29:42Z</time>
      </trkpt>
      <trkpt lat="49.30982" lon="0.92753">
        <ele>123</ele>
        <time>2015-03-22T10:29:44Z</time>
      </trkpt>
      <trkpt lat="49.30972" lon="0.92756">
        <ele>123</ele>
        <time>2015-03-22T10:29:46Z</time>
      </trkpt>
      <trkpt lat="49.30963" lon="0.92759">
        <ele>123</ele>
        <time>2015-03-22T10:29:48Z</time>
      </trkpt>
      <trkpt lat="49.30954" lon="0.92762">
        <ele>123</ele>
        <time>2015-03-22T10:29:50Z</time>
      </trkpt>
      <trkpt lat="49.30943" lon="0.92765">
        <ele>123</ele>
        <time>2015-03-22T10:29:52Z</time>
      </trkpt>
      <trkpt lat="49.30932" lon="0.92768">
        <ele>123</ele>
        <time>2015-03-22T10:29:54Z</time>
      </trkpt>
      <trkpt lat="49.30921" lon="0.92771">
        <ele>123</ele>
        <time>2015-03-22T10:29:56Z</time>
      </trkpt>
      <trkpt lat="49.30911" lon="0.92774">
        <ele>123</ele>
        <time>2015-03-22T10:29:58Z</time>
      </trkpt>
      <trkpt lat="49.30901" lon="0.92777">
        <ele>123</ele>
        <time>2015-03-22T10:30:00Z</time>
      </trkpt>
      <trkpt lat="49.30891" lon="0.9278">
        <ele>123</ele>
        <time>2015-03-22T10:30:02Z</time>
      </trkpt>
      <trkpt lat="49.30881" lon="0.92783">
        <ele>123</ele>
        <time>2015-03-22T10:30:04Z</time>
      </trkpt>
      <trkpt lat="49.30872" lon="0.92786">
        <ele>124</ele>
        <time>2015-03-22T10:30:06Z</time>
      </trkpt>
      <trkpt lat="49.30862" lon="0.92789">
        <ele>124</ele>
        <time>2015-03-22T10:30:08Z</time>
      </trkpt>
      <trkpt lat="49.30853" lon="0.92792">
        <ele>124</ele>
        <time>2015-03-22T10:30:10Z</time>
      </trkpt>
      <trkpt lat="49.30842" lon="0.92796">
        <ele>124</ele>
        <time>2015-03-22T10:30:12Z</time>
      </trkpt>
      <trkpt lat="49.30832" lon="0.928">
        <ele>125</ele>
        <time>2015-03-22T10:30:14Z</time>
      </trkpt>
      <trkpt lat="49.30823" lon="0.92803">
        <ele>125</ele>
        <time>2015-03-22T10:30:16Z</time>
      </trkpt>
      <trkpt lat="49.30813" lon="0.92806">
        <ele>125</ele>
        <time>2015-03-22T10:30:18Z</time>
      </trkpt>
      <trkpt lat="49.30804" lon="0.9281">
        <ele>125</ele>
        <time>2015-03-22T10:30:20Z</time>
      </trkpt>
      <trkpt lat="49.30793" lon="0.92814">
        <ele>126</ele>
        <time>2015-03-22T10:30:22Z</time>
      </trkpt>
      <trkpt lat="49.30783" lon="0.92817">
        <ele>126</ele>
        <time>2015-03-22T10:30:24Z</time>
      </trkpt>
      <trkpt lat="49.30773" lon="0.92821">
        <ele>126</ele>
        <time>2015-03-22T10:30:26Z</time>
      </trkpt>
      <trkpt lat="49.30763" lon="0.92824">
        <ele>126</ele>
        <time>2015-03-22T10:30:28Z</time>
      </trkpt>
      <trkpt lat="49.30755" lon="0.92826">
        <ele>127</ele>
        <time>2015-03-22T10:30:30Z</time>
      </trkpt>
      <trkpt lat="49.30746" lon="0.92829">
        <ele>127</ele>
        <time>2015-03-22T10:30:32Z</time>
      </trkpt>
      <trkpt lat="49.30737" lon="0.92833">
        <ele>127</ele>
        <time>2015-03-22T10:30:34Z</time>
      </trkpt>
      <trkpt lat="49.30728" lon="0.92836">
        <ele>128</ele>
        <time>2015-03-22T10:30:36Z</time>
      </trkpt>
      <trkpt lat="49.30719" lon="0.92839">
        <ele>128</ele>
        <time>2015-03-22T10:30:38Z</time>
      </trkpt>
      <trkpt lat="49.30711" lon="0.92842">
        <ele>128</ele>
        <time>2015-03-22T10:30:40Z</time>
      </trkpt>
      <trkpt lat="49.30702" lon="0.92845">
        <ele>128</ele>
        <time>2015-03-22T10:30:42Z</time>
      </trkpt>
      <trkpt lat="49.30693" lon="0.92848">
        <ele>129</ele>
        <time>2015-03-22T10:30:44Z</time>
      </trkpt>
      <trkpt lat="49.30684" lon="0.92851">
        <ele>129</ele>
        <time>2015-03-22T10:30:46Z</time>
      </trkpt>
      <trkpt lat="49.30675" lon="0.92854">
        <ele>129</ele>
        <time>2015-03-22T10:30:48Z</time>
      </trkpt>
      <trkpt lat="49.30667" lon="0.92857">
        <ele>129</ele>
        <time>2015-03-22T10:30:50Z</time>
      </trkpt>
      <trkpt lat="49.30659" lon="0.9286">
        <ele>131</ele>
        <time>2015-03-22T10:30:52Z</time>
      </trkpt>
      <trkpt lat="49.30651" lon="0.92862">
        <ele>131</ele>
        <time>2015-03-22T10:30:54Z</time>
      </trkpt>
      <trkpt lat="49.30643" lon="0.92865">
        <ele>131</ele>
        <time>2015-03-22T10:30:56Z</time>
      </trkpt>
      <trkpt lat="49.30635" lon="0.92867">
        <ele>131</ele>
        <time>2015-03-22T10:30:58Z</time>
      </trkpt>
      <trkpt lat="49.30628" lon="0.9287">
        <ele>131</ele>
        <time>2015-03-22T10:31:00Z</time>
      </trkpt>
      <trkpt lat="49.30621" lon="0.92873">
        <ele>131</ele>
        <time>2015-03-22T10:31:02Z</time>
      </trkpt>
      <trkpt lat="49.30614" lon="0.92875">
        <ele>131</ele>
        <time>2015-03-22T10:31:04Z</time>
      </trkpt>
      <trkpt lat="49.30606" lon="0.92878">
        <ele>131</ele>
        <time>2015-03-22T10:31:06Z</time>
      </trkpt>
      <trkpt lat="49.30598" lon="0.9288">
        <ele>131</ele>
        <time>2015-03-22T10:31:08Z</time>
      </trkpt>
      <trkpt lat="49.3059" lon="0.92882">
        <ele>132</ele>
        <time>2015-03-22T10:31:10Z</time>
      </trkpt>
      <trkpt lat="49.30582" lon="0.92885">
        <ele>133</ele>
        <time>2015-03-22T10:31:12Z</time>
      </trkpt>
      <trkpt lat="49.30574" lon="0.92888">
        <ele>133</ele>
        <time>2015-03-22T10:31:14Z</time>
      </trkpt>
      <trkpt lat="49.30567" lon="0.9289">
        <ele>133</ele>
        <time>2015-03-22T10:31:16Z</time>
      </trkpt>
      <trkpt lat="49.30559" lon="0.92892">
        <ele>133</ele>
        <time>2015-03-22T10:31:18Z</time>
      </trkpt>
      <trkpt lat="49.30552" lon="0.92895">
        <ele>133</ele>
        <time>2015-03-22T10:31:20Z</time>
      </trkpt>
      <trkpt lat="49.30544" lon="0.92897">
        <ele>133</ele>
        <time>2015-03-22T10:31:22Z</time>
      </trkpt>
      <trkpt lat="49.30537" lon="0.929">
        <ele>133</ele>
        <time>2015-03-22T10:31:24Z</time>
      </trkpt>
      <trkpt lat="49.3053" lon="0.92902">
        <ele>133</ele>
        <time>2015-03-22T10:31:26Z</time>
      </trkpt>
      <trkpt lat="49.30522" lon="0.92905">
        <ele>134</ele>
        <time>2015-03-22T10:31:28Z</time>
      </trkpt>
      <trkpt lat="49.30514" lon="0.92908">
        <ele>134</ele>
        <time>2015-03-22T10:31:30Z</time>
      </trkpt>
      <trkpt lat="49.30506" lon="0.92912">
        <ele>134</ele>
        <time>2015-03-22T10:31:32Z</time>
      </trkpt>
      <trkpt lat="49.30497" lon="0.92916">
        <ele>134</ele>
        <time>2015-03-22T10:31:34Z</time>
      </trkpt>
      <trkpt lat="49.30486" lon="0.92919">
        <ele>135</ele>
        <time>2015-03-22T10:31:36Z</time>
      </trkpt>
      <trkpt lat="49.30476" lon="0.9292">
        <ele>135</ele>
        <time>2015-03-22T10:31:38Z</time>
      </trkpt>
      <trkpt lat="49.30465" lon="0.92923">
        <ele>135</ele>
        <time>2015-03-22T10:31:40Z</time>
      </trkpt>
      <trkpt lat="49.30456" lon="0.92926">
        <ele>135</ele>
        <time>2015-03-22T10:31:42Z</time>
      </trkpt>
      <trkpt lat="49.30447" lon="0.92929">
        <ele>135</ele>
        <time>2015-03-22T10:31:44Z</time>
      </trkpt>
      <trkpt lat="49.30438" lon="0.92933">
        <ele>136</ele>
        <time>2015-03-22T10:31:46Z</time>
      </trkpt>
      <trkpt lat="49.30428" lon="0.92936">
        <ele>136</ele>
        <time>2015-03-22T10:31:48Z</time>
      </trkpt>
      <trkpt lat="49.30419" lon="0.9294">
        <ele>136</ele>
        <time>2015-03-22T10:31:50Z</time>
      </trkpt>
      <trkpt lat="49.30409" lon="0.92943">
        <ele>136</ele>
        <time>2015-03-22T10:31:52Z</time>
      </trkpt>
      <trkpt lat="49.30398" lon="0.92946">
        <ele>136</ele>
        <time>2015-03-22T10:31:54Z</time>
      </trkpt>
      <trkpt lat="49.30388" lon="0.92949">
        <ele>136</ele>
        <time>2015-03-22T10:31:56Z</time>
      </trkpt>
      <trkpt lat="49.30377" lon="0.92953">
        <ele>136</ele>
        <time>2015-03-22T10:31:58Z</time>
      </trkpt>
      <trkpt lat="49.30366" lon="0.92956">
        <ele>136</ele>
        <time>2015-03-22T10:32:00Z</time>
      </trkpt>
      <trkpt lat="49.30355" lon="0.9296">
        <ele>136</ele>
        <time>2015-03-22T10:32:02Z</time>
      </trkpt>
      <trkpt lat="49.30344" lon="0.92964">
        <ele>136</ele>
        <time>2015-03-22T10:32:04Z</time>
      </trkpt>
      <trkpt lat="49.30332" lon="0.92967">
        <ele>137</ele>
        <time>2015-03-22T10:32:06Z</time>
      </trkpt>
      <trkpt lat="49.30322" lon="0.9297">
        <ele>137</ele>
        <time>2015-03-22T10:32:08Z</time>
      </trkpt>
      <trkpt lat="49.30311" lon="0.92974">
        <ele>137</ele>
        <time>2015-03-22T10:32:10Z</time>
      </trkpt>
      <trkpt lat="49.303" lon="0.92978">
        <ele>137</ele>
        <time>2015-03-22T10:32:12Z</time>
      </trkpt>
      <trkpt lat="49.30288" lon="0.92982">
        <ele>137</ele>
        <time>2015-03-22T10:32:14Z</time>
      </trkpt>
      <trkpt lat="49.30276" lon="0.92988">
        <ele>137</ele>
        <time>2015-03-22T10:32:16Z</time>
      </trkpt>
      <trkpt lat="49.30265" lon="0.92992">
        <ele>137</ele>
        <time>2015-03-22T10:32:18Z</time>
      </trkpt>
      <trkpt lat="49.30253" lon="0.92996">
        <ele>137</ele>
        <time>2015-03-22T10:32:20Z</time>
      </trkpt>
      <trkpt lat="49.30242" lon="0.92998">
        <ele>137</ele>
        <time>2015-03-22T10:32:22Z</time>
      </trkpt>
      <trkpt lat="49.30229" lon="0.93001">
        <ele>137</ele>
        <time>2015-03-22T10:32:24Z</time>
      </trkpt>
      <trkpt lat="49.30217" lon="0.93004">
        <ele>137</ele>
        <time>2015-03-22T10:32:26Z</time>
      </trkpt>
      <trkpt lat="49.30204" lon="0.93008">
        <ele>137</ele>
        <time>2015-03-22T10:32:28Z</time>
      </trkpt>
      <trkpt lat="49.30192" lon="0.93012">
        <ele>137</ele>
        <time>2015-03-22T10:32:30Z</time>
      </trkpt>
      <trkpt lat="49.3018" lon="0.93016">
        <ele>138</ele>
        <time>2015-03-22T10:32:32Z</time>
      </trkpt>
      <trkpt lat="49.30168" lon="0.93021">
        <ele>138</ele>
        <time>2015-03-22T10:32:34Z</time>
      </trkpt>
      <trkpt lat="49.30156" lon="0.93024">
        <ele>137</ele>
        <time>2015-03-22T10:32:36Z</time>
      </trkpt>
      <trkpt lat="49.30143" lon="0.93028">
        <ele>137</ele>
        <time>2015-03-22T10:32:38Z</time>
      </trkpt>
      <trkpt lat="49.30131" lon="0.93032">
        <ele>137</ele>
        <time>2015-03-22T10:32:40Z</time>
      </trkpt>
      <trkpt lat="49.3012" lon="0.93036">
        <ele>136</ele>
        <time>2015-03-22T10:32:42Z</time>
      </trkpt>
      <trkpt lat="49.30109" lon="0.9304">
        <ele>136</ele>
        <time>2015-03-22T10:32:44Z</time>
      </trkpt>
      <trkpt lat="49.30097" lon="0.93043">
        <ele>136</ele>
        <time>2015-03-22T10:32:46Z</time>
      </trkpt>
      <trkpt lat="49.30088" lon="0.93037">
        <ele>136</ele>
        <time>2015-03-22T10:32:48Z</time>
      </trkpt>
      <trkpt lat="49.30083" lon="0.93023">
        <ele>136</ele>
        <time>2015-03-22T10:32:50Z</time>
      </trkpt>
      <trkpt lat="49.3008" lon="0.93008">
        <ele>136</ele>
        <time>2015-03-22T10:32:52Z</time>
      </trkpt>
      <trkpt lat="49.30074" lon="0.92993">
        <ele>136</ele>
        <time>2015-03-22T10:32:54Z</time>
      </trkpt>
      <trkpt lat="49.30063" lon="0.92986">
        <ele>137</ele>
        <time>2015-03-22T10:32:56Z</time>
      </trkpt>
      <trkpt lat="49.30052" lon="0.92982">
        <ele>137</ele>
        <time>2015-03-22T10:32:58Z</time>
      </trkpt>
      <trkpt lat="49.3004" lon="0.92981">
        <ele>137</ele>
        <time>2015-03-22T10:33:00Z</time>
      </trkpt>
      <trkpt lat="49.30028" lon="0.92985">
        <ele>137</ele>
        <time>2015-03-22T10:33:02Z</time>
      </trkpt>
      <trkpt lat="49.30014" lon="0.9299">
        <ele>137</ele>
        <time>2015-03-22T10:33:04Z</time>
      </trkpt>
      <trkpt lat="49.30001" lon="0.92995">
        <ele>138</ele>
        <time>2015-03-22T10:33:06Z</time>
      </trkpt>
      <trkpt lat="49.29988" lon="0.92995">
        <ele>138</ele>
        <time>2015-03-22T10:33:08Z</time>
      </trkpt>
      <trkpt lat="49.29977" lon="0.9299">
        <ele>138</ele>
        <time>2015-03-22T10:33:10Z</time>
      </trkpt>
      <trkpt lat="49.29965" lon="0.92982">
        <ele>138</ele>
        <time>2015-03-22T10:33:12Z</time>
      </trkpt>
      <trkpt lat="49.29955" lon="0.92974">
        <ele>138</ele>
        <time>2015-03-22T10:33:14Z</time>
      </trkpt>
      <trkpt lat="49.29944" lon="0.92964">
        <ele>138</ele>
        <time>2015-03-22T10:33:16Z</time>
      </trkpt>
      <trkpt lat="49.29935" lon="0.92953">
        <ele>138</ele>
        <time>2015-03-22T10:33:18Z</time>
      </trkpt>
      <trkpt lat="49.29924" lon="0.92942">
        <ele>138</ele>
        <time>2015-03-22T10:33:20Z</time>
      </trkpt>
      <trkpt lat="49.29914" lon="0.92931">
        <ele>138</ele>
        <time>2015-03-22T10:33:22Z</time>
      </trkpt>
      <trkpt lat="49.29904" lon="0.92919">
        <ele>138</ele>
        <time>2015-03-22T10:33:24Z</time>
      </trkpt>
      <trkpt lat="49.29893" lon="0.92907">
        <ele>138</ele>
        <time>2015-03-22T10:33:26Z</time>
      </trkpt>
      <trkpt lat="49.29883" lon="0.92896">
        <ele>138</ele>
        <time>2015-03-22T10:33:28Z</time>
      </trkpt>
      <trkpt lat="49.29872" lon="0.92886">
        <ele>138</ele>
        <time>2015-03-22T10:33:30Z</time>
      </trkpt>
      <trkpt lat="49.2986" lon="0.92876">
        <ele>138</ele>
        <time>2015-03-22T10:33:32Z</time>
      </trkpt>
      <trkpt lat="49.29848" lon="0.92867">
        <ele>138</ele>
        <time>2015-03-22T10:33:34Z</time>
      </trkpt>
      <trkpt lat="49.29836" lon="0.92858">
        <ele>138</ele>
        <time>2015-03-22T10:33:36Z</time>
      </trkpt>
      <trkpt lat="49.29825" lon="0.92849">
        <ele>138</ele>
        <time>2015-03-22T10:33:38Z</time>
      </trkpt>
      <trkpt lat="49.29814" lon="0.92841">
        <ele>137</ele>
        <time>2015-03-22T10:33:40Z</time>
      </trkpt>
      <trkpt lat="49.29802" lon="0.9284">
        <ele>137</ele>
        <time>2015-03-22T10:33:42Z</time>
      </trkpt>
      <trkpt lat="49.29794" lon="0.92848">
        <ele>137</ele>
        <time>2015-03-22T10:33:44Z</time>
      </trkpt>
      <trkpt lat="49.29784" lon="0.92862">
        <ele>137</ele>
        <time>2015-03-22T10:33:46Z</time>
      </trkpt>
      <trkpt lat="49.29776" lon="0.92875">
        <ele>137</ele>
        <time>2015-03-22T10:33:48Z</time>
      </trkpt>
      <trkpt lat="49.29766" lon="0.92886">
        <ele>137</ele>
        <time>2015-03-22T10:33:50Z</time>
      </trkpt>
      <trkpt lat="49.29754" lon="0.9289">
        <ele>137</ele>
        <time>2015-03-22T10:33:52Z</time>
      </trkpt>
      <trkpt lat="49.29741" lon="0.92884">
        <ele>136</ele>
        <time>2015-03-22T10:33:54Z</time>
      </trkpt>
      <trkpt lat="49.29732" lon="0.92873">
        <ele>136</ele>
        <time>2015-03-22T10:33:56Z</time>
      </trkpt>
      <trkpt lat="49.29724" lon="0.9286">
        <ele>136</ele>
        <time>2015-03-22T10:33:58Z</time>
      </trkpt>
      <trkpt lat="49.29715" lon="0.92847">
        <ele>136</ele>
        <time>2015-03-22T10:34:00Z</time>
      </trkpt>
      <trkpt lat="49.29706" lon="0.92831">
        <ele>136</ele>
        <time>2015-03-22T10:34:02Z</time>
      </trkpt>
      <trkpt lat="49.29696" lon="0.92817">
        <ele>136</ele>
        <time>2015-03-22T10:34:03Z</time>
      </trkpt>
      <trkpt lat="49.29686" lon="0.92804">
        <ele>136</ele>
        <time>2015-03-22T10:34:05Z</time>
      </trkpt>
      <trkpt lat="49.29676" lon="0.92792">
        <ele>136</ele>
        <time>2015-03-22T10:34:07Z</time>
      </trkpt>
      <trkpt lat="49.29665" lon="0.92781">
        <ele>135</ele>
        <time>2015-03-22T10:34:09Z</time>
      </trkpt>
      <trkpt lat="49.29654" lon="0.92771">
        <ele>135</ele>
        <time>2015-03-22T10:34:11Z</time>
      </trkpt>
      <trkpt lat="49.29643" lon="0.9276">
        <ele>135</ele>
        <time>2015-03-22T10:34:13Z</time>
      </trkpt>
      <trkpt lat="49.29633" lon="0.9275">
        <ele>135</ele>
        <time>2015-03-22T10:34:15Z</time>
      </trkpt>
      <trkpt lat="49.29625" lon="0.92742">
        <ele>136</ele>
        <time>2015-03-22T10:34:17Z</time>
      </trkpt>
      <trkpt lat="49.29618" lon="0.92735">
        <ele>136</ele>
        <time>2015-03-22T10:34:19Z</time>
      </trkpt>
      <trkpt lat="49.29614" lon="0.9273">
        <ele>136</ele>
        <time>2015-03-22T10:34:21Z</time>
      </trkpt>
      <trkpt lat="49.29608" lon="0.92723">
        <ele>136</ele>
        <time>2015-03-22T10:34:25Z</time>
      </trkpt>
      <trkpt lat="49.29599" lon="0.92725">
        <ele>136</ele>
        <time>2015-03-22T10:34:27Z</time>
      </trkpt>
      <trkpt lat="49.29589" lon="0.92728">
        <ele>136</ele>
        <time>2015-03-22T10:34:29Z</time>
      </trkpt>
      <trkpt lat="49.29578" lon="0.9273">
        <ele>136</ele>
        <time>2015-03-22T10:34:31Z</time>
      </trkpt>
      <trkpt lat="49.29568" lon="0.92733">
        <ele>136</ele>
        <time>2015-03-22T10:34:33Z</time>
      </trkpt>
      <trkpt lat="49.29556" lon="0.92735">
        <ele>136</ele>
        <time>2015-03-22T10:34:35Z</time>
      </trkpt>
      <trkpt lat="49.29544" lon="0.92738">
        <ele>135</ele>
        <time>2015-03-22T10:34:37Z</time>
      </trkpt>
      <trkpt lat="49.29532" lon="0.92741">
        <ele>135</ele>
        <time>2015-03-22T10:34:39Z</time>
      </trkpt>
      <trkpt lat="49.2952" lon="0.92745">
        <ele>135</ele>
        <time>2015-03-22T10:34:41Z</time>
      </trkpt>
      <trkpt lat="49.29507" lon="0.92748">
        <ele>134</ele>
        <time>2015-03-22T10:34:43Z</time>
      </trkpt>
      <trkpt lat="49.29495" lon="0.92751">
        <ele>134</ele>
        <time>2015-03-22T10:34:45Z</time>
      </trkpt>
      <trkpt lat="49.29481" lon="0.92755">
        <ele>134</ele>
        <time>2015-03-22T10:34:47Z</time>
      </trkpt>
      <trkpt lat="49.29468" lon="0.92758">
        <ele>135</ele>
        <time>2015-03-22T10:34:49Z</time>
      </trkpt>
      <trkpt lat="49.29456" lon="0.92762">
        <ele>135</ele>
        <time>2015-03-22T10:34:51Z</time>
      </trkpt>
      <trkpt lat="49.29444" lon="0.92765">
        <ele>135</ele>
        <time>2015-03-22T10:34:53Z</time>
      </trkpt>
      <trkpt lat="49.29432" lon="0.92768">
        <ele>135</ele>
        <time>2015-03-22T10:34:55Z</time>
      </trkpt>
      <trkpt lat="49.2942" lon="0.92772">
        <ele>135</ele>
        <time>2015-03-22T10:34:57Z</time>
      </trkpt>
      <trkpt lat="49.29409" lon="0.92775">
        <ele>136</ele>
        <time>2015-03-22T10:34:59Z</time>
      </trkpt>
      <trkpt lat="49.29397" lon="0.92778">
        <ele>136</ele>
        <time>2015-03-22T10:35:01Z</time>
      </trkpt>
      <trkpt lat="49.29385" lon="0.9278">
        <ele>136</ele>
        <time>2015-03-22T10:35:03Z</time>
      </trkpt>
      <trkpt lat="49.29374" lon="0.92783">
        <ele>137</ele>
        <time>2015-03-22T10:35:05Z</time>
      </trkpt>
      <trkpt lat="49.29363" lon="0.92786">
        <ele>137</ele>
        <time>2015-03-22T10:35:07Z</time>
      </trkpt>
      <trkpt lat="49.29353" lon="0.92787">
        <ele>137</ele>
        <time>2015-03-22T10:35:09Z</time>
      </trkpt>
      <trkpt lat="49.29344" lon="0.92781">
        <ele>137</ele>
        <time>2015-03-22T10:35:11Z</time>
      </trkpt>
      <trkpt lat="49.29339" lon="0.9277">
        <ele>137</ele>
        <time>2015-03-22T10:35:13Z</time>
      </trkpt>
      <trkpt lat="49.29338" lon="0.92756">
        <ele>137</ele>
        <time>2015-03-22T10:35:15Z</time>
      </trkpt>
      <trkpt lat="49.2934" lon="0.9274">
        <ele>137</ele>
        <time>2015-03-22T10:35:17Z</time>
      </trkpt>
      <trkpt lat="49.29341" lon="0.92723">
        <ele>137</ele>
        <time>2015-03-22T10:35:19Z</time>
      </trkpt>
      <trkpt lat="49.29342" lon="0.92706">
        <ele>137</ele>
        <time>2015-03-22T10:35:21Z</time>
      </trkpt>
      <trkpt lat="49.29343" lon="0.92688">
        <ele>137</ele>
        <time>2015-03-22T10:35:23Z</time>
      </trkpt>
      <trkpt lat="49.29343" lon="0.9267">
        <ele>137</ele>
        <time>2015-03-22T10:35:25Z</time>
      </trkpt>
      <trkpt lat="49.29343" lon="0.92652">
        <ele>137</ele>
        <time>2015-03-22T10:35:27Z</time>
      </trkpt>
      <trkpt lat="49.29343" lon="0.92633">
        <ele>137</ele>
        <time>2015-03-22T10:35:29Z</time>
      </trkpt>
      <trkpt lat="49.29342" lon="0.92615">
        <ele>137</ele>
        <time>2015-03-22T10:35:31Z</time>
      </trkpt>
      <trkpt lat="49.29342" lon="0.92598">
        <ele>137</ele>
        <time>2015-03-22T10:35:33Z</time>
      </trkpt>
      <trkpt lat="49.29341" lon="0.9258">
        <ele>137</ele>
        <time>2015-03-22T10:35:35Z</time>
      </trkpt>
      <trkpt lat="49.29341" lon="0.92561">
        <ele>137</ele>
        <time>2015-03-22T10:35:37Z</time>
      </trkpt>
      <trkpt lat="49.29341" lon="0.92542">
        <ele>137</ele>
        <time>2015-03-22T10:35:39Z</time>
      </trkpt>
      <trkpt lat="49.2934" lon="0.92524">
        <ele>138</ele>
        <time>2015-03-22T10:35:41Z</time>
      </trkpt>
      <trkpt lat="49.29339" lon="0.92507">
        <ele>138</ele>
        <time>2015-03-22T10:35:43Z</time>
      </trkpt>
      <trkpt lat="49.29338" lon="0.92489">
        <ele>138</ele>
        <time>2015-03-22T10:35:45Z</time>
      </trkpt>
      <trkpt lat="49.29336" lon="0.92471">
        <ele>138</ele>
        <time>2015-03-22T10:35:47Z</time>
      </trkpt>
      <trkpt lat="49.29333" lon="0.92454">
        <ele>138</ele>
        <time>2015-03-22T10:35:49Z</time>
      </trkpt>
      <trkpt lat="49.29329" lon="0.92439">
        <ele>138</ele>
        <time>2015-03-22T10:35:51Z</time>
      </trkpt>
      <trkpt lat="49.29319" lon="0.92426">
        <ele>138</ele>
        <time>2015-03-22T10:35:53Z</time>
      </trkpt>
      <trkpt lat="49.29307" lon="0.92425">
        <ele>138</ele>
        <time>2015-03-22T10:35:55Z</time>
      </trkpt>
      <trkpt lat="49.29297" lon="0.92428">
        <ele>138</ele>
        <time>2015-03-22T10:35:57Z</time>
      </trkpt>
      <trkpt lat="49.29286" lon="0.92432">
        <ele>138</ele>
        <time>2015-03-22T10:35:59Z</time>
      </trkpt>
      <trkpt lat="49.29275" lon="0.92438">
        <ele>138</ele>
        <time>2015-03-22T10:36:01Z</time>
      </trkpt>
      <trkpt lat="49.29263" lon="0.92445">
        <ele>138</ele>
        <time>2015-03-22T10:36:03Z</time>
      </trkpt>
      <trkpt lat="49.29253" lon="0.92451">
        <ele>138</ele>
        <time>2015-03-22T10:36:05Z</time>
      </trkpt>
      <trkpt lat="49.29243" lon="0.92457">
        <ele>138</ele>
        <time>2015-03-22T10:36:07Z</time>
      </trkpt>
      <trkpt lat="49.29233" lon="0.92464">
        <ele>138</ele>
        <time>2015-03-22T10:36:09Z</time>
      </trkpt>
      <trkpt lat="49.29223" lon="0.9247">
        <ele>138</ele>
        <time>2015-03-22T10:36:11Z</time>
      </trkpt>
      <trkpt lat="49.29214" lon="0.92476">
        <ele>138</ele>
        <time>2015-03-22T10:36:13Z</time>
      </trkpt>
      <trkpt lat="49.29205" lon="0.92482">
        <ele>139</ele>
        <time>2015-03-22T10:36:15Z</time>
      </trkpt>
      <trkpt lat="49.29195" lon="0.92487">
        <ele>139</ele>
        <time>2015-03-22T10:36:17Z</time>
      </trkpt>
      <trkpt lat="49.29186" lon="0.92494">
        <ele>139</ele>
        <time>2015-03-22T10:36:19Z</time>
      </trkpt>
      <trkpt lat="49.29179" lon="0.92499">
        <ele>139</ele>
        <time>2015-03-22T10:36:21Z</time>
      </trkpt>
      <trkpt lat="49.29171" lon="0.92504">
        <ele>139</ele>
        <time>2015-03-22T10:36:23Z</time>
      </trkpt>
      <trkpt lat="49.29164" lon="0.92509">
        <ele>139</ele>
        <time>2015-03-22T10:36:25Z</time>
      </trkpt>
      <trkpt lat="49.29156" lon="0.92514">
        <ele>139</ele>
        <time>2015-03-22T10:36:27Z</time>
      </trkpt>
      <trkpt lat="49.29148" lon="0.9252">
        <ele>139</ele>
        <time>2015-03-22T10:36:29Z</time>
      </trkpt>
      <trkpt lat="49.29139" lon="0.92526">
        <ele>139</ele>
        <time>2015-03-22T10:36:31Z</time>
      </trkpt>
      <trkpt lat="49.29131" lon="0.92531">
        <ele>139</ele>
        <time>2015-03-22T10:36:33Z</time>
      </trkpt>
      <trkpt lat="49.29124" lon="0.92534">
        <ele>139</ele>
        <time>2015-03-22T10:36:35Z</time>
      </trkpt>
      <trkpt lat="49.29116" lon="0.92538">
        <ele>139</ele>
        <time>2015-03-22T10:36:37Z</time>
      </trkpt>
      <trkpt lat="49.29111" lon="0.92542">
        <ele>139</ele>
        <time>2015-03-22T10:36:39Z</time>
      </trkpt>
      <trkpt lat="49.29104" lon="0.92542">
        <ele>139</ele>
        <time>2015-03-22T10:36:43Z</time>
      </trkpt>
      <trkpt lat="49.29099" lon="0.92544">
        <ele>139</ele>
        <time>2015-03-22T10:36:59Z</time>
      </trkpt>
      <trkpt lat="49.29099" lon="0.92553">
        <ele>139</ele>
        <time>2015-03-22T10:37:01Z</time>
      </trkpt>
      <trkpt lat="49.29101" lon="0.92566">
        <ele>139</ele>
        <time>2015-03-22T10:37:05Z</time>
      </trkpt>
      <trkpt lat="49.29103" lon="0.92552">
        <ele>139</ele>
        <time>2015-03-22T10:37:21Z</time>
      </trkpt>
      <trkpt lat="49.29099" lon="0.92542">
        <ele>139</ele>
        <time>2015-03-22T10:37:23Z</time>
      </trkpt>
      <trkpt lat="49.29096" lon="0.92532">
        <ele>139</ele>
        <time>2015-03-22T10:37:25Z</time>
      </trkpt>
      <trkpt lat="49.29092" lon="0.92523">
        <ele>139</ele>
        <time>2015-03-22T10:37:27Z</time>
      </trkpt>
      <trkpt lat="49.29088" lon="0.92513">
        <ele>139</ele>
        <time>2015-03-22T10:37:29Z</time>
      </trkpt>
      <trkpt lat="49.29083" lon="0.92502">
        <ele>139</ele>
        <time>2015-03-22T10:37:31Z</time>
      </trkpt>
      <trkpt lat="49.29079" lon="0.92492">
        <ele>139</ele>
        <time>2015-03-22T10:37:33Z</time>
      </trkpt>
      <trkpt lat="49.29075" lon="0.92481">
        <ele>140</ele>
        <time>2015-03-22T10:37:35Z</time>
      </trkpt>
      <trkpt lat="49.29073" lon="0.92471">
        <ele>140</ele>
        <time>2015-03-22T10:37:37Z</time>
      </trkpt>
      <trkpt lat="49.29074" lon="0.9246">
        <ele>140</ele>
        <time>2015-03-22T10:37:39Z</time>
      </trkpt>
      <trkpt lat="49.29071" lon="0.92448">
        <ele>140</ele>
        <time>2015-03-22T10:37:41Z</time>
      </trkpt>
      <trkpt lat="49.29065" lon="0.92437">
        <ele>140</ele>
        <time>2015-03-22T10:37:43Z</time>
      </trkpt>
      <trkpt lat="49.29061" lon="0.92427">
        <ele>140</ele>
        <time>2015-03-22T10:37:45Z</time>
      </trkpt>
      <trkpt lat="49.29057" lon="0.92418">
        <ele>140</ele>
        <time>2015-03-22T10:37:47Z</time>
      </trkpt>
      <trkpt lat="49.29053" lon="0.9241">
        <ele>140</ele>
        <time>2015-03-22T10:37:49Z</time>
      </trkpt>
      <trkpt lat="49.29054" lon="0.92403">
        <ele>140</ele>
        <time>2015-03-22T10:37:51Z</time>
      </trkpt>
      <trkpt lat="49.29059" lon="0.92391">
        <ele>140</ele>
        <time>2015-03-22T10:37:55Z</time>
      </trkpt>
      <trkpt lat="49.29057" lon="0.92382">
        <ele>140</ele>
        <time>2015-03-22T10:37:59Z</time>
      </trkpt>
      <trkpt lat="49.29052" lon="0.92383">
        <ele>140</ele>
        <time>2015-03-22T10:39:45Z</time>
      </trkpt>
    </trkseg>
  </trk>
</gpx>